<?xml version='1.0' encoding='UTF-8'?><gpx version="1.1" creator="JPX - https://github.com/jenetics/jpx" xmlns="http://www.topografix.com/GPX/1/1"><trk><trkseg><trkpt lat="44.63479500925856" lon="10.4963366189485"><ele>143.0</ele><time>2026-04-11T12:36:05Z</time></trkpt><trkpt lat="44.63479488221008" lon="10.496165549577169"><ele>143.0</ele><time>2026-04-11T12:36:07Z</time></trkpt><trkpt lat="44.6347964673582" lon="10.495963957500054"><ele>143.0</ele><time>2026-04-11T12:36:09Z</time></trkpt><trkpt lat="44.63479102373333" lon="10.495838488236801"><ele>143.0</ele><time>2026-04-11T12:36:10Z</time></trkpt><trkpt lat="44.63478836017285" lon="10.495697428628015"><ele>143.0</ele><time>2026-04-11T12:36:11Z</time></trkpt><trkpt lat="44.634788057721906" lon="10.495546814070632"><ele>143.0</ele><time>2026-04-11T12:36:12Z</time></trkpt><trkpt lat="44.63478773598437" lon="10.495389934136051"><ele>143.0</ele><time>2026-04-11T12:36:13Z</time></trkpt><trkpt lat="44.6347859251807" lon="10.495226444239046"><ele>143.0</ele><time>2026-04-11T12:36:14Z</time></trkpt><trkpt lat="44.63478554818103" lon="10.495052045151297"><ele>143.25</ele><time>2026-04-11T12:36:15Z</time></trkpt><trkpt lat="44.63478429831376" lon="10.494875150460585"><ele>143.5</ele><time>2026-04-11T12:36:16Z</time></trkpt><trkpt lat="44.63478290927417" lon="10.494691792750496"><ele>143.75</ele><time>2026-04-11T12:36:17Z</time></trkpt><trkpt lat="44.634780257924476" lon="10.494504213779045"><ele>144.0</ele><time>2026-04-11T12:36:18Z</time></trkpt><trkpt lat="44.63477897550819" lon="10.494314164154527"><ele>144.0</ele><time>2026-04-11T12:36:19Z</time></trkpt><trkpt lat="44.63477843178759" lon="10.49413125393085"><ele>144.0</ele><time>2026-04-11T12:36:20Z</time></trkpt><trkpt lat="44.63477463637399" lon="10.493961541978967"><ele>144.0</ele><time>2026-04-11T12:36:21Z</time></trkpt><trkpt lat="44.63476935966507" lon="10.493798870530943"><ele>144.0</ele><time>2026-04-11T12:36:22Z</time></trkpt><trkpt lat="44.63475974837265" lon="10.493637366439074"><ele>144.5</ele><time>2026-04-11T12:36:23Z</time></trkpt><trkpt lat="44.634739609350945" lon="10.493476238925432"><ele>145.0</ele><time>2026-04-11T12:36:24Z</time></trkpt><trkpt lat="44.63470966266586" lon="10.493317498939488"><ele>145.5</ele><time>2026-04-11T12:36:25Z</time></trkpt><trkpt lat="44.634675615267504" lon="10.493156399076558"><ele>146.0</ele><time>2026-04-11T12:36:26Z</time></trkpt><trkpt lat="44.634640856581065" lon="10.492990373947903"><ele>146.0</ele><time>2026-04-11T12:36:27Z</time></trkpt><trkpt lat="44.63460076365502" lon="10.492818690230964"><ele>146.0</ele><time>2026-04-11T12:36:28Z</time></trkpt><trkpt lat="44.63456210647994" lon="10.49263983997855"><ele>146.0</ele><time>2026-04-11T12:36:29Z</time></trkpt><trkpt lat="44.63452524699511" lon="10.492453540533035"><ele>146.0</ele><time>2026-04-11T12:36:30Z</time></trkpt><trkpt lat="44.63448235945356" lon="10.492263668584883"><ele>147.75</ele><time>2026-04-11T12:36:31Z</time></trkpt><trkpt lat="44.63443781303947" lon="10.492071925974193"><ele>149.5</ele><time>2026-04-11T12:36:32Z</time></trkpt><trkpt lat="44.63439771817934" lon="10.491878092863177"><ele>151.25</ele><time>2026-04-11T12:36:33Z</time></trkpt><trkpt lat="44.63436012632107" lon="10.491684627054946"><ele>153.0</ele><time>2026-04-11T12:36:34Z</time></trkpt><trkpt lat="44.63432565687203" lon="10.49149294302625"><ele>153.0</ele><time>2026-04-11T12:36:35Z</time></trkpt><trkpt lat="44.63430158569612" lon="10.491299377332304"><ele>153.0</ele><time>2026-04-11T12:36:36Z</time></trkpt><trkpt lat="44.63428354166803" lon="10.491105919889577"><ele>153.0</ele><time>2026-04-11T12:36:37Z</time></trkpt><trkpt lat="44.634274023461494" lon="10.490912798782363"><ele>153.0</ele><time>2026-04-11T12:36:38Z</time></trkpt><trkpt lat="44.63426703094098" lon="10.49072137847592"><ele>152.5</ele><time>2026-04-11T12:36:39Z</time></trkpt><trkpt lat="44.63426100026254" lon="10.490530963624591"><ele>152.0</ele><time>2026-04-11T12:36:40Z</time></trkpt><trkpt lat="44.63425378546099" lon="10.490346741914626"><ele>151.5</ele><time>2026-04-11T12:36:41Z</time></trkpt><trkpt lat="44.63424504967537" lon="10.490169421302728"><ele>151.0</ele><time>2026-04-11T12:36:42Z</time></trkpt><trkpt lat="44.63423896246158" lon="10.489997936859854"><ele>151.0</ele><time>2026-04-11T12:36:43Z</time></trkpt><trkpt lat="44.63423162541956" lon="10.489833489335718"><ele>151.0</ele><time>2026-04-11T12:36:44Z</time></trkpt><trkpt lat="44.63422346430673" lon="10.48966378990325"><ele>151.0</ele><time>2026-04-11T12:36:45Z</time></trkpt><trkpt lat="44.634216460666664" lon="10.489499687221247"><ele>151.0</ele><time>2026-04-11T12:36:46Z</time></trkpt><trkpt lat="44.634211620388825" lon="10.489350631211133"><ele>151.2</ele><time>2026-04-11T12:36:47Z</time></trkpt><trkpt lat="44.63420690760441" lon="10.489213639609732"><ele>151.39999999999998</ele><time>2026-04-11T12:36:48Z</time></trkpt><trkpt lat="44.63420375097961" lon="10.489095750784548"><ele>151.6</ele><time>2026-04-11T12:36:49Z</time></trkpt><trkpt lat="44.63418938405045" lon="10.488996278503885"><ele>151.79999999999998</ele><time>2026-04-11T12:36:50Z</time></trkpt><trkpt lat="44.634186732049066" lon="10.488901617461732"><ele>152.0</ele><time>2026-04-11T12:36:52Z</time></trkpt><trkpt lat="44.6340262419916" lon="10.488913947339512"><ele>152.0</ele><time>2026-04-11T12:36:53Z</time></trkpt><trkpt lat="44.633939188843094" lon="10.488928938017027"><ele>152.0</ele><time>2026-04-11T12:36:54Z</time></trkpt><trkpt lat="44.633844351805884" lon="10.488935816457765"><ele>152.0</ele><time>2026-04-11T12:36:55Z</time></trkpt><trkpt lat="44.63374471997631" lon="10.488935954147411"><ele>152.0</ele><time>2026-04-11T12:36:56Z</time></trkpt><trkpt lat="44.63363901531145" lon="10.488945629742274"><ele>152.0</ele><time>2026-04-11T12:36:57Z</time></trkpt><trkpt lat="44.63352484060206" lon="10.488946688031117"><ele>154.0</ele><time>2026-04-11T12:36:58Z</time></trkpt><trkpt lat="44.63341606736466" lon="10.488936632734227"><ele>156.0</ele><time>2026-04-11T12:36:59Z</time></trkpt><trkpt lat="44.6333169875341" lon="10.488888029068622"><ele>158.0</ele><time>2026-04-11T12:37:00Z</time></trkpt><trkpt lat="44.633217346930245" lon="10.488873033372444"><ele>160.0</ele><time>2026-04-11T12:37:01Z</time></trkpt><trkpt lat="44.63312549675341" lon="10.48884326624352"><ele>162.0</ele><time>2026-04-11T12:37:02Z</time></trkpt><trkpt lat="44.63304030620082" lon="10.488819506408342"><ele>162.0</ele><time>2026-04-11T12:37:03Z</time></trkpt><trkpt lat="44.63296574203548" lon="10.48879694156355"><ele>162.0</ele><time>2026-04-11T12:37:04Z</time></trkpt><trkpt lat="44.63289746248003" lon="10.488779921139018"><ele>162.0</ele><time>2026-04-11T12:37:05Z</time></trkpt><trkpt lat="44.63279526828213" lon="10.488764154076529"><ele>162.0</ele><time>2026-04-11T12:37:07Z</time></trkpt><trkpt lat="44.63270698799741" lon="10.48883922180302"><ele>162.0</ele><time>2026-04-11T12:37:09Z</time></trkpt><trkpt lat="44.63268339387625" lon="10.488929186767459"><ele>162.0</ele><time>2026-04-11T12:37:10Z</time></trkpt><trkpt lat="44.63268721264226" lon="10.489045328661552"><ele>163.5</ele><time>2026-04-11T12:37:11Z</time></trkpt><trkpt lat="44.63267099563595" lon="10.489157510378462"><ele>165.0</ele><time>2026-04-11T12:37:12Z</time></trkpt><trkpt lat="44.63264740193709" lon="10.489243553494749"><ele>166.5</ele><time>2026-04-11T12:37:13Z</time></trkpt><trkpt lat="44.63257274284318" lon="10.48933697138745"><ele>168.0</ele><time>2026-04-11T12:37:15Z</time></trkpt><trkpt lat="44.632468738962054" lon="10.489294608137618"><ele>169.5</ele><time>2026-04-11T12:37:17Z</time></trkpt><trkpt lat="44.632411228714034" lon="10.489248452963706"><ele>171.0</ele><time>2026-04-11T12:37:18Z</time></trkpt><trkpt lat="44.63234435999081" lon="10.489195006803916"><ele>171.0</ele><time>2026-04-11T12:37:19Z</time></trkpt><trkpt lat="44.632286656991916" lon="10.489146226052041"><ele>171.0</ele><time>2026-04-11T12:37:20Z</time></trkpt><trkpt lat="44.632227887354276" lon="10.489076208224105"><ele>171.0</ele><time>2026-04-11T12:37:21Z</time></trkpt><trkpt lat="44.63217447774695" lon="10.488991645705324"><ele>171.0</ele><time>2026-04-11T12:37:22Z</time></trkpt><trkpt lat="44.63212917393186" lon="10.488901643374476"><ele>171.0</ele><time>2026-04-11T12:37:23Z</time></trkpt><trkpt lat="44.632079826263634" lon="10.48881430574247"><ele>171.0</ele><time>2026-04-11T12:37:24Z</time></trkpt><trkpt lat="44.632024742860025" lon="10.488728189100673"><ele>173.8</ele><time>2026-04-11T12:37:25Z</time></trkpt><trkpt lat="44.631963091636415" lon="10.488650203482246"><ele>176.60000000000002</ele><time>2026-04-11T12:37:26Z</time></trkpt><trkpt lat="44.63190370854769" lon="10.488584009611658"><ele>179.4</ele><time>2026-04-11T12:37:27Z</time></trkpt><trkpt lat="44.63182721053922" lon="10.488511286770562"><ele>182.2</ele><time>2026-04-11T12:37:29Z</time></trkpt><trkpt lat="44.63173439812084" lon="10.488482241978634"><ele>185.0</ele><time>2026-04-11T12:37:31Z</time></trkpt><trkpt lat="44.6316239888769" lon="10.48849903887812"><ele>185.0</ele><time>2026-04-11T12:37:33Z</time></trkpt><trkpt lat="44.6315659566281" lon="10.488460072257457"><ele>185.0</ele><time>2026-04-11T12:37:34Z</time></trkpt><trkpt lat="44.63145697937487" lon="10.488387424647732"><ele>185.0</ele><time>2026-04-11T12:37:36Z</time></trkpt><trkpt lat="44.63140033447635" lon="10.488348256852381"><ele>185.0</ele><time>2026-04-11T12:37:37Z</time></trkpt><trkpt lat="44.63134162626979" lon="10.488304856933212"><ele>185.0</ele><time>2026-04-11T12:37:38Z</time></trkpt><trkpt lat="44.631249127514835" lon="10.488203006205685"><ele>185.0</ele><time>2026-04-11T12:37:40Z</time></trkpt><trkpt lat="44.63116784853851" lon="10.488098592622109"><ele>185.8</ele><time>2026-04-11T12:37:42Z</time></trkpt><trkpt lat="44.63109192900005" lon="10.4879835064844"><ele>186.6</ele><time>2026-04-11T12:37:44Z</time></trkpt><trkpt lat="44.63102898812283" lon="10.487855426157983"><ele>187.39999999999998</ele><time>2026-04-11T12:37:46Z</time></trkpt><trkpt lat="44.63096390803947" lon="10.487713584017628"><ele>188.2</ele><time>2026-04-11T12:37:48Z</time></trkpt><trkpt lat="44.63090857022986" lon="10.487589841820474"><ele>189.0</ele><time>2026-04-11T12:37:50Z</time></trkpt><trkpt lat="44.6308408491546" lon="10.487463315912198"><ele>190.75</ele><time>2026-04-11T12:37:52Z</time></trkpt><trkpt lat="44.630781641711465" lon="10.487306004095162"><ele>192.5</ele><time>2026-04-11T12:37:54Z</time></trkpt><trkpt lat="44.630845378950475" lon="10.487087011653038"><ele>194.25</ele><time>2026-04-11T12:37:56Z</time></trkpt><trkpt lat="44.63084523209817" lon="10.486965771388519"><ele>196.0</ele><time>2026-04-11T12:37:58Z</time></trkpt><trkpt lat="44.630857925907854" lon="10.486833889338177"><ele>197.66666666666666</ele><time>2026-04-11T12:38:00Z</time></trkpt><trkpt lat="44.63086263568561" lon="10.4867249181656"><ele>199.33333333333331</ele><time>2026-04-11T12:38:02Z</time></trkpt><trkpt lat="44.63108425354402" lon="10.486631300953627"><ele>201.0</ele><time>2026-04-11T12:38:03Z</time></trkpt><trkpt lat="44.63073564240257" lon="10.486382248370266"><ele>201.0</ele><time>2026-04-11T12:38:39Z</time></trkpt><trkpt lat="44.63073260945787" lon="10.486287527507146"><ele>201.0</ele><time>2026-04-11T12:38:43Z</time></trkpt><trkpt lat="44.63079283230521" lon="10.486345306574623"><ele>201.0</ele><time>2026-04-11T12:38:46Z</time></trkpt><trkpt lat="44.630842827322766" lon="10.4864209032829"><ele>201.0</ele><time>2026-04-11T12:38:50Z</time></trkpt><trkpt lat="44.630880009563626" lon="10.486531149056821"><ele>201.0</ele><time>2026-04-11T12:38:53Z</time></trkpt><trkpt lat="44.63086474798583" lon="10.486649319863412"><ele>201.0</ele><time>2026-04-11T12:38:55Z</time></trkpt><trkpt lat="44.63085657393942" lon="10.486753511497064"><ele>201.0</ele><time>2026-04-11T12:38:57Z</time></trkpt><trkpt lat="44.63086251027182" lon="10.486866939764022"><ele>201.0</ele><time>2026-04-11T12:39:00Z</time></trkpt><trkpt lat="44.63086563658786" lon="10.486979513169628"><ele>201.0</ele><time>2026-04-11T12:39:04Z</time></trkpt><trkpt lat="44.630835465382006" lon="10.487075147672124"><ele>201.0</ele><time>2026-04-11T12:39:06Z</time></trkpt><trkpt lat="44.630838624468645" lon="10.487210157589573"><ele>201.0</ele><time>2026-04-11T12:39:08Z</time></trkpt><trkpt lat="44.63085564678272" lon="10.487320786568059"><ele>201.0</ele><time>2026-04-11T12:39:10Z</time></trkpt><trkpt lat="44.630816566260094" lon="10.487471953192673"><ele>200.16666666666666</ele><time>2026-04-11T12:39:12Z</time></trkpt><trkpt lat="44.630858436948785" lon="10.487565584473971"><ele>199.33333333333331</ele><time>2026-04-11T12:39:14Z</time></trkpt><trkpt lat="44.63091057351994" lon="10.487655505894603"><ele>198.5</ele><time>2026-04-11T12:39:16Z</time></trkpt><trkpt lat="44.63094691297275" lon="10.487762184846039"><ele>197.66666666666666</ele><time>2026-04-11T12:39:18Z</time></trkpt><trkpt lat="44.63098881175367" lon="10.487865503743757"><ele>196.83333333333331</ele><time>2026-04-11T12:39:20Z</time></trkpt><trkpt lat="44.63103410064906" lon="10.487957094462297"><ele>196.0</ele><time>2026-04-11T12:39:22Z</time></trkpt><trkpt lat="44.63108843989708" lon="10.48804274851398"><ele>194.60000000000002</ele><time>2026-04-11T12:39:25Z</time></trkpt><trkpt lat="44.631138803507476" lon="10.488109752004588"><ele>193.2</ele><time>2026-04-11T12:39:45Z</time></trkpt><trkpt lat="44.63118628201237" lon="10.488198838060823"><ele>191.8</ele><time>2026-04-11T12:39:47Z</time></trkpt><trkpt lat="44.63125419246364" lon="10.48829373651439"><ele>190.39999999999998</ele><time>2026-04-11T12:39:49Z</time></trkpt><trkpt lat="44.63134078159091" lon="10.48837148838154"><ele>189.0</ele><time>2026-04-11T12:39:51Z</time></trkpt><trkpt lat="44.6314562824127" lon="10.488443269382056"><ele>188.33333333333334</ele><time>2026-04-11T12:39:53Z</time></trkpt><trkpt lat="44.631515376619625" lon="10.488473867698726"><ele>187.66666666666666</ele><time>2026-04-11T12:39:54Z</time></trkpt><trkpt lat="44.63162700187276" lon="10.488512937983176"><ele>187.0</ele><time>2026-04-11T12:39:56Z</time></trkpt><trkpt lat="44.63172737883271" lon="10.48851564398325"><ele>186.33333333333331</ele><time>2026-04-11T12:39:58Z</time></trkpt><trkpt lat="44.63179635707943" lon="10.488510350987058"><ele>185.66666666666666</ele><time>2026-04-11T12:40:01Z</time></trkpt><trkpt lat="44.631715930529644" lon="10.488529014900744"><ele>185.0</ele><time>2026-04-11T12:40:10Z</time></trkpt><trkpt lat="44.63160203862331" lon="10.488529367551328"><ele>185.0</ele><time>2026-04-11T12:40:12Z</time></trkpt><trkpt lat="44.6317117648608" lon="10.488338740268757"><ele>185.0</ele><time>2026-04-11T12:40:13Z</time></trkpt><trkpt lat="44.63173624127441" lon="10.48824999962986"><ele>185.0</ele><time>2026-04-11T12:40:16Z</time></trkpt><trkpt lat="44.63124836277777" lon="10.488272157769684"><ele>185.0</ele><time>2026-04-11T12:40:20Z</time></trkpt><trkpt lat="44.631189755034086" lon="10.488210025383346"><ele>185.0</ele><time>2026-04-11T12:40:23Z</time></trkpt><trkpt lat="44.631138046479016" lon="10.4881350633924"><ele>185.0</ele><time>2026-04-11T12:40:25Z</time></trkpt><trkpt lat="44.63109040243933" lon="10.488052077661235"><ele>185.0</ele><time>2026-04-11T12:40:42Z</time></trkpt><trkpt lat="44.63106442863945" lon="10.487927079046841"><ele>185.0</ele><time>2026-04-11T12:40:44Z</time></trkpt><trkpt lat="44.631008528182214" lon="10.487812032159635"><ele>185.0</ele><time>2026-04-11T12:40:46Z</time></trkpt><trkpt lat="44.630936766072764" lon="10.487686928199386"><ele>187.2</ele><time>2026-04-11T12:40:48Z</time></trkpt><trkpt lat="44.63088198209236" lon="10.487555360690518"><ele>189.4</ele><time>2026-04-11T12:40:50Z</time></trkpt><trkpt lat="44.630835686435766" lon="10.487444731914675"><ele>191.60000000000002</ele><time>2026-04-11T12:40:52Z</time></trkpt><trkpt lat="44.63080042149054" lon="10.487311896290546"><ele>193.8</ele><time>2026-04-11T12:40:54Z</time></trkpt><trkpt lat="44.63079504993349" lon="10.48715883289044"><ele>196.0</ele><time>2026-04-11T12:40:56Z</time></trkpt><trkpt lat="44.63081883540418" lon="10.487009815457757"><ele>196.83333333333331</ele><time>2026-04-11T12:40:58Z</time></trkpt><trkpt lat="44.6308598193903" lon="10.486928989229977"><ele>197.66666666666666</ele><time>2026-04-11T12:41:00Z</time></trkpt><trkpt lat="44.63093850037602" lon="10.48684976668718"><ele>198.5</ele><time>2026-04-11T12:41:03Z</time></trkpt><trkpt lat="44.63097753359374" lon="10.486726325065915"><ele>199.33333333333331</ele><time>2026-04-11T12:41:05Z</time></trkpt><trkpt lat="44.63106973901494" lon="10.486648675195624"><ele>200.16666666666666</ele><time>2026-04-11T12:41:06Z</time></trkpt><trkpt lat="44.63107238761569" lon="10.486559943346425"><ele>201.0</ele><time>2026-04-11T12:41:07Z</time></trkpt><trkpt lat="44.6310816876548" lon="10.486411373555459"><ele>201.0</ele><time>2026-04-11T12:41:09Z</time></trkpt><trkpt lat="44.63108901690657" lon="10.486320090903599"><ele>201.0</ele><time>2026-04-11T12:41:10Z</time></trkpt><trkpt lat="44.631100564315396" lon="10.486154412741048"><ele>201.0</ele><time>2026-04-11T12:41:12Z</time></trkpt><trkpt lat="44.631108222045604" lon="10.48602898655637"><ele>201.0</ele><time>2026-04-11T12:41:14Z</time></trkpt><trkpt lat="44.631117713484464" lon="10.485905803156864"><ele>201.0</ele><time>2026-04-11T12:41:16Z</time></trkpt><trkpt lat="44.63110867604791" lon="10.485709682545574"><ele>201.16666666666666</ele><time>2026-04-11T12:41:18Z</time></trkpt><trkpt lat="44.631118140803125" lon="10.485596482883645"><ele>201.33333333333331</ele><time>2026-04-11T12:41:19Z</time></trkpt><trkpt lat="44.63110546406032" lon="10.485469650740084"><ele>201.5</ele><time>2026-04-11T12:41:20Z</time></trkpt><trkpt lat="44.63110052792448" lon="10.48534710507337"><ele>201.66666666666666</ele><time>2026-04-11T12:41:21Z</time></trkpt><trkpt lat="44.631096150839085" lon="10.485216333699471"><ele>201.83333333333331</ele><time>2026-04-11T12:41:22Z</time></trkpt><trkpt lat="44.63109103175275" lon="10.485084758084303"><ele>202.0</ele><time>2026-04-11T12:41:23Z</time></trkpt><trkpt lat="44.63108911445137" lon="10.484942639458774"><ele>201.6</ele><time>2026-04-11T12:41:24Z</time></trkpt><trkpt lat="44.63108555508705" lon="10.484805876515606"><ele>201.2</ele><time>2026-04-11T12:41:25Z</time></trkpt><trkpt lat="44.631076071236166" lon="10.484663770985602"><ele>200.8</ele><time>2026-04-11T12:41:26Z</time></trkpt><trkpt lat="44.63106900858433" lon="10.48453363452243"><ele>200.4</ele><time>2026-04-11T12:41:27Z</time></trkpt><trkpt lat="44.6310638417854" lon="10.484414520468258"><ele>200.0</ele><time>2026-04-11T12:41:28Z</time></trkpt><trkpt lat="44.631058585727494" lon="10.484306898922142"><ele>199.33333333333334</ele><time>2026-04-11T12:41:29Z</time></trkpt><trkpt lat="44.63106890061124" lon="10.484199807088938"><ele>198.66666666666669</ele><time>2026-04-11T12:41:30Z</time></trkpt><trkpt lat="44.63105084426864" lon="10.48409997701678"><ele>198.0</ele><time>2026-04-11T12:41:31Z</time></trkpt><trkpt lat="44.63103678712643" lon="10.483995842314068"><ele>197.33333333333331</ele><time>2026-04-11T12:41:32Z</time></trkpt><trkpt lat="44.63101050741674" lon="10.483893160472482"><ele>196.66666666666666</ele><time>2026-04-11T12:41:33Z</time></trkpt><trkpt lat="44.630974241368065" lon="10.483795114425565"><ele>196.0</ele><time>2026-04-11T12:41:34Z</time></trkpt><trkpt lat="44.630935265462924" lon="10.483691602334105"><ele>195.33333333333331</ele><time>2026-04-11T12:41:35Z</time></trkpt><trkpt lat="44.63090220341597" lon="10.483593094026606"><ele>194.66666666666666</ele><time>2026-04-11T12:41:36Z</time></trkpt><trkpt lat="44.630884344331236" lon="10.48350564790575"><ele>194.0</ele><time>2026-04-11T12:41:37Z</time></trkpt><trkpt lat="44.63084625625528" lon="10.48340698550706"><ele>193.33333333333331</ele><time>2026-04-11T12:41:40Z</time></trkpt><trkpt lat="44.63073186798084" lon="10.48341934357749"><ele>192.66666666666666</ele><time>2026-04-11T12:41:44Z</time></trkpt><trkpt lat="44.63066001636648" lon="10.483465413435598"><ele>192.0</ele><time>2026-04-11T12:41:46Z</time></trkpt><trkpt lat="44.6305714435618" lon="10.48349945817713"><ele>192.0</ele><time>2026-04-11T12:41:48Z</time></trkpt><trkpt lat="44.63047390415607" lon="10.483526202359714"><ele>192.0</ele><time>2026-04-11T12:41:50Z</time></trkpt><trkpt lat="44.63037411231245" lon="10.48359151745455"><ele>192.0</ele><time>2026-04-11T12:41:52Z</time></trkpt><trkpt lat="44.63031127450766" lon="10.483622349707453"><ele>192.0</ele><time>2026-04-11T12:41:53Z</time></trkpt><trkpt lat="44.630245673100326" lon="10.483654922876134"><ele>192.0</ele><time>2026-04-11T12:41:54Z</time></trkpt><trkpt lat="44.63018036554545" lon="10.483686505123082"><ele>192.0</ele><time>2026-04-11T12:41:55Z</time></trkpt><trkpt lat="44.630115642975255" lon="10.48372408828909"><ele>194.8</ele><time>2026-04-11T12:41:56Z</time></trkpt><trkpt lat="44.630048961572015" lon="10.48376389635587"><ele>197.6</ele><time>2026-04-11T12:41:57Z</time></trkpt><trkpt lat="44.629988276083566" lon="10.483797895879587"><ele>200.4</ele><time>2026-04-11T12:41:58Z</time></trkpt><trkpt lat="44.629877405389976" lon="10.483862756273629"><ele>203.20000000000002</ele><time>2026-04-11T12:42:00Z</time></trkpt><trkpt lat="44.629762907023554" lon="10.48392417734553"><ele>206.0</ele><time>2026-04-11T12:42:02Z</time></trkpt><trkpt lat="44.62969307880935" lon="10.48396594680959"><ele>206.0</ele><time>2026-04-11T12:42:03Z</time></trkpt><trkpt lat="44.629579977963616" lon="10.484030902509804"><ele>206.0</ele><time>2026-04-11T12:42:05Z</time></trkpt><trkpt lat="44.629521151042695" lon="10.484066339783993"><ele>206.0</ele><time>2026-04-11T12:42:06Z</time></trkpt><trkpt lat="44.62940679680783" lon="10.484129096073863"><ele>206.0</ele><time>2026-04-11T12:42:08Z</time></trkpt><trkpt lat="44.62930021279303" lon="10.48418334568945"><ele>206.0</ele><time>2026-04-11T12:42:10Z</time></trkpt><trkpt lat="44.629194233508535" lon="10.484237430339268"><ele>207.0</ele><time>2026-04-11T12:42:12Z</time></trkpt><trkpt lat="44.62909622919085" lon="10.484294492740629"><ele>208.0</ele><time>2026-04-11T12:42:14Z</time></trkpt><trkpt lat="44.62901480851472" lon="10.484349126335378"><ele>209.0</ele><time>2026-04-11T12:42:16Z</time></trkpt><trkpt lat="44.62893725807137" lon="10.484434113690654"><ele>210.0</ele><time>2026-04-11T12:42:18Z</time></trkpt><trkpt lat="44.62885739999583" lon="10.484532168573676"><ele>211.0</ele><time>2026-04-11T12:42:20Z</time></trkpt><trkpt lat="44.62881571197826" lon="10.484648090288012"><ele>213.0</ele><time>2026-04-11T12:42:22Z</time></trkpt><trkpt lat="44.628752816000606" lon="10.484772668286743"><ele>215.0</ele><time>2026-04-11T12:42:24Z</time></trkpt><trkpt lat="44.628708341606064" lon="10.484903625427695"><ele>217.00000000000003</ele><time>2026-04-11T12:42:26Z</time></trkpt><trkpt lat="44.62863776124565" lon="10.485029597962884"><ele>219.0</ele><time>2026-04-11T12:42:28Z</time></trkpt><trkpt lat="44.62858464487563" lon="10.485140147790505"><ele>221.0</ele><time>2026-04-11T12:42:30Z</time></trkpt><trkpt lat="44.62852658106898" lon="10.485241300804672"><ele>223.20000000000002</ele><time>2026-04-11T12:42:32Z</time></trkpt><trkpt lat="44.62847703461782" lon="10.485351134903413"><ele>225.40000000000003</ele><time>2026-04-11T12:42:34Z</time></trkpt><trkpt lat="44.62844814576791" lon="10.485437862752434"><ele>227.6</ele><time>2026-04-11T12:42:36Z</time></trkpt><trkpt lat="44.62837063574577" lon="10.485484408961574"><ele>229.8</ele><time>2026-04-11T12:42:38Z</time></trkpt><trkpt lat="44.62825638107463" lon="10.485457674629227"><ele>232.0</ele><time>2026-04-11T12:42:40Z</time></trkpt><trkpt lat="44.62816473875246" lon="10.48539360049955"><ele>231.99999999999997</ele><time>2026-04-11T12:42:42Z</time></trkpt><trkpt lat="44.62810136565946" lon="10.485359512165745"><ele>232.0</ele><time>2026-04-11T12:42:44Z</time></trkpt><trkpt lat="44.62803048022543" lon="10.485326856039213"><ele>232.0</ele><time>2026-04-11T12:42:55Z</time></trkpt><trkpt lat="44.628108018055" lon="10.485364220499985"><ele>232.0</ele><time>2026-04-11T12:46:02.999Z</time></trkpt><trkpt lat="44.628178762014755" lon="10.485410798092015"><ele>231.99999999999997</ele><time>2026-04-11T12:46:05.999Z</time></trkpt><trkpt lat="44.62825670284497" lon="10.485449642949142"><ele>232.0</ele><time>2026-04-11T12:46:08.999Z</time></trkpt><trkpt lat="44.62832064783844" lon="10.485463954657707"><ele>231.99999999999997</ele><time>2026-04-11T12:46:10.999Z</time></trkpt><trkpt lat="44.6283817443675" lon="10.485489764171646"><ele>232.0</ele><time>2026-04-11T12:46:12.999Z</time></trkpt><trkpt lat="44.62846101937867" lon="10.48542613408063"><ele>232.0</ele><time>2026-04-11T12:46:15.999Z</time></trkpt><trkpt lat="44.62848785592013" lon="10.485319942738728"><ele>232.0</ele><time>2026-04-11T12:46:17.999Z</time></trkpt><trkpt lat="44.62852409410972" lon="10.485232122020392"><ele>231.99999999999997</ele><time>2026-04-11T12:46:19.999Z</time></trkpt><trkpt lat="44.628572884450044" lon="10.485134444553074"><ele>232.0</ele><time>2026-04-11T12:46:21.999Z</time></trkpt><trkpt lat="44.62863480100996" lon="10.48503475547362"><ele>230.16666666666666</ele><time>2026-04-11T12:46:23.999Z</time></trkpt><trkpt lat="44.62868950242297" lon="10.484942398120154"><ele>228.33333333333331</ele><time>2026-04-11T12:46:25.999Z</time></trkpt><trkpt lat="44.628725223877595" lon="10.484828776155515"><ele>226.5</ele><time>2026-04-11T12:46:27.999Z</time></trkpt><trkpt lat="44.62878898251075" lon="10.484734738069749"><ele>224.66666666666669</ele><time>2026-04-11T12:46:29.999Z</time></trkpt><trkpt lat="44.62882161431224" lon="10.484654535138878"><ele>222.83333333333334</ele><time>2026-04-11T12:46:30.999Z</time></trkpt><trkpt lat="44.62888878292014" lon="10.48454123005715"><ele>221.0</ele><time>2026-04-11T12:46:32.999Z</time></trkpt><trkpt lat="44.62893372261875" lon="10.48443193667045"><ele>219.0</ele><time>2026-04-11T12:46:34.999Z</time></trkpt><trkpt lat="44.62900826942657" lon="10.484339059146267"><ele>217.00000000000003</ele><time>2026-04-11T12:46:36.999Z</time></trkpt><trkpt lat="44.62911153984235" lon="10.484254877762478"><ele>215.0</ele><time>2026-04-11T12:46:38.999Z</time></trkpt><trkpt lat="44.629217575618355" lon="10.484204386430847"><ele>213.0</ele><time>2026-04-11T12:46:40.999Z</time></trkpt><trkpt lat="44.629310837236524" lon="10.48416258917937"><ele>211.0</ele><time>2026-04-11T12:46:42.999Z</time></trkpt><trkpt lat="44.62939899110886" lon="10.484119181217926"><ele>210.0</ele><time>2026-04-11T12:46:44.999Z</time></trkpt><trkpt lat="44.62949119332611" lon="10.484064449246954"><ele>209.0</ele><time>2026-04-11T12:46:46.999Z</time></trkpt><trkpt lat="44.62958519664201" lon="10.48402897093367"><ele>208.0</ele><time>2026-04-11T12:46:48.999Z</time></trkpt><trkpt lat="44.62967530022696" lon="10.483960520505546"><ele>207.0</ele><time>2026-04-11T12:46:50.999Z</time></trkpt><trkpt lat="44.62976810444489" lon="10.483933271078838"><ele>206.0</ele><time>2026-04-11T12:46:52.999Z</time></trkpt><trkpt lat="44.62984781976794" lon="10.483884038086973"><ele>206.00000000000003</ele><time>2026-04-11T12:46:54.999Z</time></trkpt><trkpt lat="44.62993215261467" lon="10.483840179949436"><ele>206.0</ele><time>2026-04-11T12:46:56.999Z</time></trkpt><trkpt lat="44.630021569007454" lon="10.483786863893664"><ele>206.0</ele><time>2026-04-11T12:46:58.999Z</time></trkpt><trkpt lat="44.63010029824348" lon="10.483743409619823"><ele>206.0</ele><time>2026-04-11T12:47:00.999Z</time></trkpt><trkpt lat="44.630182702254615" lon="10.48369204066548"><ele>206.00000000000003</ele><time>2026-04-11T12:47:02.999Z</time></trkpt><trkpt lat="44.630265554106906" lon="10.483653692476524"><ele>206.0</ele><time>2026-04-11T12:47:04.999Z</time></trkpt><trkpt lat="44.63034772322336" lon="10.483611313679138"><ele>203.66666666666669</ele><time>2026-04-11T12:47:06.999Z</time></trkpt><trkpt lat="44.63042823976529" lon="10.48357496933434"><ele>201.33333333333334</ele><time>2026-04-11T12:47:08.999Z</time></trkpt><trkpt lat="44.630508070603774" lon="10.483535862956083"><ele>199.0</ele><time>2026-04-11T12:47:10.999Z</time></trkpt><trkpt lat="44.63058630599739" lon="10.483498389045337"><ele>196.66666666666669</ele><time>2026-04-11T12:47:12.999Z</time></trkpt><trkpt lat="44.63066482191225" lon="10.483462424737123"><ele>194.33333333333334</ele><time>2026-04-11T12:47:14.999Z</time></trkpt><trkpt lat="44.630731046096265" lon="10.48343798266144"><ele>192.0</ele><time>2026-04-11T12:47:16.999Z</time></trkpt><trkpt lat="44.6307925551986" lon="10.483394122327683"><ele>192.0</ele><time>2026-04-11T12:47:29.999Z</time></trkpt><trkpt lat="44.630792051540155" lon="10.483288171431523"><ele>192.0</ele><time>2026-04-11T12:47:35.999Z</time></trkpt><trkpt lat="44.63074771639862" lon="10.483200813340721"><ele>192.0</ele><time>2026-04-11T12:47:40.999Z</time></trkpt><trkpt lat="44.63066404270034" lon="10.483057298723184"><ele>192.0</ele><time>2026-04-11T12:49:27.999Z</time></trkpt><trkpt lat="44.630586361349266" lon="10.482915832927063"><ele>192.0</ele><time>2026-04-11T12:49:29.999Z</time></trkpt><trkpt lat="44.630543305816715" lon="10.482836283162538"><ele>191.5</ele><time>2026-04-11T12:49:30.999Z</time></trkpt><trkpt lat="44.63048121269432" lon="10.48272431696758"><ele>191.0</ele><time>2026-04-11T12:49:32.999Z</time></trkpt><trkpt lat="44.63042779251195" lon="10.48262157694578"><ele>190.5</ele><time>2026-04-11T12:49:35.999Z</time></trkpt><trkpt lat="44.6303781388487" lon="10.48251902709835"><ele>190.0</ele><time>2026-04-11T12:49:37.999Z</time></trkpt><trkpt lat="44.63034891810377" lon="10.482401136466173"><ele>189.5</ele><time>2026-04-11T12:49:39.999Z</time></trkpt><trkpt lat="44.6303372193855" lon="10.482292319154727"><ele>189.0</ele><time>2026-04-11T12:49:41.999Z</time></trkpt><trkpt lat="44.63033370084501" lon="10.48220109919555"><ele>188.2</ele><time>2026-04-11T12:49:43.999Z</time></trkpt><trkpt lat="44.63034143125388" lon="10.482056117200631"><ele>187.39999999999998</ele><time>2026-04-11T12:49:45.999Z</time></trkpt><trkpt lat="44.63036273359514" lon="10.481850092492698"><ele>186.6</ele><time>2026-04-11T12:49:47.999Z</time></trkpt><trkpt lat="44.63038259498414" lon="10.481720847869177"><ele>185.8</ele><time>2026-04-11T12:49:48.999Z</time></trkpt><trkpt lat="44.63040693908218" lon="10.481594546411166"><ele>185.0</ele><time>2026-04-11T12:49:49.999Z</time></trkpt><trkpt lat="44.630431859284215" lon="10.481464269365897"><ele>185.0</ele><time>2026-04-11T12:49:50.999Z</time></trkpt><trkpt lat="44.63045390520072" lon="10.481327483087243"><ele>185.0</ele><time>2026-04-11T12:49:51.999Z</time></trkpt><trkpt lat="44.63047617816908" lon="10.481190684663444"><ele>185.0</ele><time>2026-04-11T12:49:52.999Z</time></trkpt><trkpt lat="44.63049547904497" lon="10.481059195764626"><ele>185.0</ele><time>2026-04-11T12:49:53.999Z</time></trkpt><trkpt lat="44.63051551269578" lon="10.480935856505772"><ele>185.0</ele><time>2026-04-11T12:49:54.999Z</time></trkpt><trkpt lat="44.630531094513195" lon="10.48081762290532"><ele>185.5</ele><time>2026-04-11T12:49:55.999Z</time></trkpt><trkpt lat="44.63054724109129" lon="10.480702662194922"><ele>186.0</ele><time>2026-04-11T12:49:56.999Z</time></trkpt><trkpt lat="44.630564937401836" lon="10.480593302434064"><ele>186.5</ele><time>2026-04-11T12:49:57.999Z</time></trkpt><trkpt lat="44.63057933885741" lon="10.480488014318325"><ele>187.0</ele><time>2026-04-11T12:49:58.999Z</time></trkpt><trkpt lat="44.63059900943229" lon="10.480379039757988"><ele>187.5</ele><time>2026-04-11T12:49:59.999Z</time></trkpt><trkpt lat="44.63061443863062" lon="10.480267845567381"><ele>188.0</ele><time>2026-04-11T12:50:00.999Z</time></trkpt><trkpt lat="44.630631489338754" lon="10.480158480224762"><ele>188.5</ele><time>2026-04-11T12:50:01.999Z</time></trkpt><trkpt lat="44.63065024083991" lon="10.480050615822824"><ele>189.0</ele><time>2026-04-11T12:50:02.999Z</time></trkpt><trkpt lat="44.63066992204887" lon="10.47994017758027"><ele>189.5</ele><time>2026-04-11T12:50:03.999Z</time></trkpt><trkpt lat="44.63069357134138" lon="10.479829930683227"><ele>190.0</ele><time>2026-04-11T12:50:04.999Z</time></trkpt><trkpt lat="44.63071679883987" lon="10.479714638873613"><ele>190.5</ele><time>2026-04-11T12:50:05.999Z</time></trkpt><trkpt lat="44.63074528730754" lon="10.479599597888681"><ele>191.0</ele><time>2026-04-11T12:50:06.999Z</time></trkpt><trkpt lat="44.6307737195217" lon="10.479482416110583"><ele>191.0</ele><time>2026-04-11T12:50:07.999Z</time></trkpt><trkpt lat="44.630803205883936" lon="10.479364217803004"><ele>191.0</ele><time>2026-04-11T12:50:08.999Z</time></trkpt><trkpt lat="44.630825571679004" lon="10.479255472967612"><ele>191.0</ele><time>2026-04-11T12:50:09.999Z</time></trkpt><trkpt lat="44.63084528626481" lon="10.47916794767457"><ele>191.0</ele><time>2026-04-11T12:50:10.999Z</time></trkpt><trkpt lat="44.630876321605804" lon="10.479058309142932"><ele>191.0</ele><time>2026-04-11T12:50:12.999Z</time></trkpt><trkpt lat="44.630954778963165" lon="10.479034750197025"><ele>191.0</ele><time>2026-04-11T12:50:15.999Z</time></trkpt><trkpt lat="44.63098359966921" lon="10.479118599924538"><ele>191.0</ele><time>2026-04-11T12:50:17.999Z</time></trkpt><trkpt lat="44.63102549421941" lon="10.479247605262458"><ele>191.0</ele><time>2026-04-11T12:50:19.999Z</time></trkpt><trkpt lat="44.631056218732105" lon="10.479342567960975"><ele>191.0</ele><time>2026-04-11T12:50:20.999Z</time></trkpt><trkpt lat="44.63109107350539" lon="10.47945335892348"><ele>191.0</ele><time>2026-04-11T12:50:21.999Z</time></trkpt><trkpt lat="44.631130124782594" lon="10.479578844484312"><ele>191.0</ele><time>2026-04-11T12:50:22.999Z</time></trkpt><trkpt lat="44.631172767927936" lon="10.479717879166289"><ele>188.25</ele><time>2026-04-11T12:50:23.999Z</time></trkpt><trkpt lat="44.63121829031066" lon="10.479867168756527"><ele>185.5</ele><time>2026-04-11T12:50:24.999Z</time></trkpt><trkpt lat="44.631265831649586" lon="10.480023079489836"><ele>182.75</ele><time>2026-04-11T12:50:25.999Z</time></trkpt><trkpt lat="44.63131300032722" lon="10.48018152391377"><ele>180.0</ele><time>2026-04-11T12:50:26.999Z</time></trkpt><trkpt lat="44.63135854611121" lon="10.480342691770893"><ele>179.75</ele><time>2026-04-11T12:50:27.999Z</time></trkpt><trkpt lat="44.631403953358166" lon="10.480501132205749"><ele>179.5</ele><time>2026-04-11T12:50:28.999Z</time></trkpt><trkpt lat="44.63144920806747" lon="10.480654527273208"><ele>179.25</ele><time>2026-04-11T12:50:29.999Z</time></trkpt><trkpt lat="44.63149478774773" lon="10.480808627463146"><ele>179.0</ele><time>2026-04-11T12:50:30.999Z</time></trkpt><trkpt lat="44.63153733910051" lon="10.48096528427844"><ele>179.0</ele><time>2026-04-11T12:50:31.999Z</time></trkpt><trkpt lat="44.631574774488726" lon="10.481110676112252"><ele>179.0</ele><time>2026-04-11T12:50:32.999Z</time></trkpt><trkpt lat="44.631614000258125" lon="10.48125459346808"><ele>179.0</ele><time>2026-04-11T12:50:33.999Z</time></trkpt><trkpt lat="44.63165968021875" lon="10.481392646404915"><ele>179.0</ele><time>2026-04-11T12:50:34.999Z</time></trkpt><trkpt lat="44.63170967784586" lon="10.481523418429818"><ele>179.0</ele><time>2026-04-11T12:50:35.999Z</time></trkpt><trkpt lat="44.63176337292599" lon="10.481659795709"><ele>178.6</ele><time>2026-04-11T12:50:36.999Z</time></trkpt><trkpt lat="44.631825402238306" lon="10.481802624823377"><ele>178.2</ele><time>2026-04-11T12:50:37.999Z</time></trkpt><trkpt lat="44.6318882538013" lon="10.48193549466787"><ele>177.79999999999998</ele><time>2026-04-11T12:50:38.999Z</time></trkpt><trkpt lat="44.63195002515129" lon="10.48206209924251"><ele>177.39999999999998</ele><time>2026-04-11T12:50:39.999Z</time></trkpt><trkpt lat="44.632024474502984" lon="10.482168590378262"><ele>177.0</ele><time>2026-04-11T12:50:40.999Z</time></trkpt><trkpt lat="44.63207633635432" lon="10.482283714795905"><ele>176.16666666666666</ele><time>2026-04-11T12:50:41.999Z</time></trkpt><trkpt lat="44.63212533147974" lon="10.482381353444499"><ele>175.33333333333334</ele><time>2026-04-11T12:50:42.999Z</time></trkpt><trkpt lat="44.63217391749459" lon="10.482450826677841"><ele>174.5</ele><time>2026-04-11T12:50:43.999Z</time></trkpt><trkpt lat="44.63224422536539" lon="10.482514072486195"><ele>173.66666666666669</ele><time>2026-04-11T12:50:44.999Z</time></trkpt><trkpt lat="44.632347207196304" lon="10.48248083828998"><ele>172.83333333333334</ele><time>2026-04-11T12:50:46.999Z</time></trkpt><trkpt lat="44.63242118667064" lon="10.482452567177992"><ele>172.0</ele><time>2026-04-11T12:50:47.999Z</time></trkpt><trkpt lat="44.63248782227344" lon="10.482425686234539"><ele>172.0</ele><time>2026-04-11T12:50:48.999Z</time></trkpt><trkpt lat="44.63255692926103" lon="10.482418262330167"><ele>172.0</ele><time>2026-04-11T12:50:49.999Z</time></trkpt><trkpt lat="44.632679989737824" lon="10.482394844178154"><ele>172.0</ele><time>2026-04-11T12:50:51.999Z</time></trkpt><trkpt lat="44.63274546215995" lon="10.482341316796917"><ele>172.0</ele><time>2026-04-11T12:50:53.999Z</time></trkpt><trkpt lat="44.632767675010356" lon="10.482257102862386"><ele>172.0</ele><time>2026-04-11T12:50:54.999Z</time></trkpt><trkpt lat="44.63279719741467" lon="10.482156865716219"><ele>172.0</ele><time>2026-04-11T12:50:55.999Z</time></trkpt><trkpt lat="44.632849518855195" lon="10.482096005247028"><ele>171.2</ele><time>2026-04-11T12:50:56.999Z</time></trkpt><trkpt lat="44.63297364719814" lon="10.482080386409919"><ele>170.39999999999998</ele><time>2026-04-11T12:50:58.999Z</time></trkpt><trkpt lat="44.633050002612826" lon="10.482108539443391"><ele>169.60000000000002</ele><time>2026-04-11T12:50:59.999Z</time></trkpt><trkpt lat="44.63312617301082" lon="10.482114515255308"><ele>168.8</ele><time>2026-04-11T12:51:00.999Z</time></trkpt><trkpt lat="44.63321402070885" lon="10.482105155561555"><ele>168.0</ele><time>2026-04-11T12:51:01.999Z</time></trkpt><trkpt lat="44.63329834705743" lon="10.482073438316883"><ele>168.0</ele><time>2026-04-11T12:51:02.999Z</time></trkpt><trkpt lat="44.6333752258176" lon="10.482007253404742"><ele>168.0</ele><time>2026-04-11T12:51:03.999Z</time></trkpt><trkpt lat="44.63345319563167" lon="10.481920366854897"><ele>168.0</ele><time>2026-04-11T12:51:04.999Z</time></trkpt><trkpt lat="44.63353735391126" lon="10.481812057881095"><ele>168.0</ele><time>2026-04-11T12:51:05.999Z</time></trkpt><trkpt lat="44.63362467414247" lon="10.481698765465339"><ele>168.0</ele><time>2026-04-11T12:51:06.999Z</time></trkpt><trkpt lat="44.63371734361068" lon="10.481592414213429"><ele>167.2</ele><time>2026-04-11T12:51:07.999Z</time></trkpt><trkpt lat="44.633801857043316" lon="10.481497411254354"><ele>166.4</ele><time>2026-04-11T12:51:08.999Z</time></trkpt><trkpt lat="44.63388265765497" lon="10.481411414464036"><ele>165.6</ele><time>2026-04-11T12:51:09.999Z</time></trkpt><trkpt lat="44.63396831967003" lon="10.48134597867296"><ele>164.79999999999998</ele><time>2026-04-11T12:51:10.999Z</time></trkpt><trkpt lat="44.634061302710755" lon="10.481313971077661"><ele>164.0</ele><time>2026-04-11T12:51:11.999Z</time></trkpt><trkpt lat="44.63415946756874" lon="10.48131104547635"><ele>164.0</ele><time>2026-04-11T12:51:12.999Z</time></trkpt><trkpt lat="44.634253228143656" lon="10.481324483558376"><ele>164.0</ele><time>2026-04-11T12:51:13.999Z</time></trkpt><trkpt lat="44.634343929531475" lon="10.481344129498511"><ele>164.0</ele><time>2026-04-11T12:51:14.999Z</time></trkpt><trkpt lat="44.63442459442397" lon="10.481361650273774"><ele>164.0</ele><time>2026-04-11T12:51:15.999Z</time></trkpt><trkpt lat="44.63449438135653" lon="10.481375335603483"><ele>164.0</ele><time>2026-04-11T12:51:16.999Z</time></trkpt><trkpt lat="44.63457050121545" lon="10.481387666123073"><ele>164.0</ele><time>2026-04-11T12:51:18.999Z</time></trkpt><trkpt lat="44.634650630697074" lon="10.481448455558793"><ele>163.39999999999998</ele><time>2026-04-11T12:51:21.999Z</time></trkpt><trkpt lat="44.63463327596061" lon="10.48161756895879"><ele>162.8</ele><time>2026-04-11T12:51:22.999Z</time></trkpt><trkpt lat="44.63461715881055" lon="10.481713117870731"><ele>162.2</ele><time>2026-04-11T12:51:23.999Z</time></trkpt><trkpt lat="44.634605248072134" lon="10.481837542640957"><ele>161.60000000000002</ele><time>2026-04-11T12:51:24.999Z</time></trkpt><trkpt lat="44.63459547884255" lon="10.481979344985419"><ele>161.0</ele><time>2026-04-11T12:51:25.999Z</time></trkpt><trkpt lat="44.6345843666049" lon="10.482136887589576"><ele>160.5</ele><time>2026-04-11T12:51:26.999Z</time></trkpt><trkpt lat="44.634567872962556" lon="10.482307828260149"><ele>160.0</ele><time>2026-04-11T12:51:27.999Z</time></trkpt><trkpt lat="44.634549665570304" lon="10.482491652777563"><ele>159.5</ele><time>2026-04-11T12:51:28.999Z</time></trkpt><trkpt lat="44.63452836929092" lon="10.482683232158035"><ele>159.0</ele><time>2026-04-11T12:51:29.999Z</time></trkpt><trkpt lat="44.634509187544374" lon="10.482880442105827"><ele>158.5</ele><time>2026-04-11T12:51:30.999Z</time></trkpt><trkpt lat="44.634490994493774" lon="10.483082229336395"><ele>158.0</ele><time>2026-04-11T12:51:31.999Z</time></trkpt><trkpt lat="44.634473774774506" lon="10.483280707875432"><ele>157.5</ele><time>2026-04-11T12:51:32.999Z</time></trkpt><trkpt lat="44.63445916553062" lon="10.483459088945217"><ele>157.0</ele><time>2026-04-11T12:51:33.999Z</time></trkpt><trkpt lat="44.63442354126455" lon="10.483621468968359"><ele>157.5</ele><time>2026-04-11T12:51:34.999Z</time></trkpt><trkpt lat="44.634401728132" lon="10.483782580148072"><ele>158.0</ele><time>2026-04-11T12:51:35.999Z</time></trkpt><trkpt lat="44.63437569795737" lon="10.483953409530653"><ele>158.5</ele><time>2026-04-11T12:51:36.999Z</time></trkpt><trkpt lat="44.63434307640581" lon="10.48413182612195"><ele>159.0</ele><time>2026-04-11T12:51:37.999Z</time></trkpt><trkpt lat="44.63430687143811" lon="10.484319360114663"><ele>159.0</ele><time>2026-04-11T12:51:38.999Z</time></trkpt><trkpt lat="44.63428116491898" lon="10.48451515674446"><ele>159.0</ele><time>2026-04-11T12:51:39.999Z</time></trkpt><trkpt lat="44.63423978625321" lon="10.484716478628195"><ele>159.0</ele><time>2026-04-11T12:51:40.999Z</time></trkpt><trkpt lat="44.63420142991705" lon="10.484925726193289"><ele>159.0</ele><time>2026-04-11T12:51:41.999Z</time></trkpt><trkpt lat="44.6341622538459" lon="10.485140807844411"><ele>159.0</ele><time>2026-04-11T12:51:42.999Z</time></trkpt><trkpt lat="44.63412100533926" lon="10.485359590997327"><ele>159.0</ele><time>2026-04-11T12:51:43.999Z</time></trkpt><trkpt lat="44.634078250094646" lon="10.485574908603649"><ele>159.0</ele><time>2026-04-11T12:51:44.999Z</time></trkpt><trkpt lat="44.63404697589524" lon="10.485791944538056"><ele>158.33333333333334</ele><time>2026-04-11T12:51:45.999Z</time></trkpt><trkpt lat="44.63403719660991" lon="10.486015358309785"><ele>157.66666666666669</ele><time>2026-04-11T12:51:46.999Z</time></trkpt><trkpt lat="44.63404361895867" lon="10.486241572136452"><ele>157.0</ele><time>2026-04-11T12:51:47.999Z</time></trkpt><trkpt lat="44.634054416207256" lon="10.486462154139684"><ele>156.33333333333334</ele><time>2026-04-11T12:51:48.999Z</time></trkpt><trkpt lat="44.63406588633301" lon="10.486680555965348"><ele>155.66666666666666</ele><time>2026-04-11T12:51:49.999Z</time></trkpt><trkpt lat="44.63407557188534" lon="10.48689899731324"><ele>155.0</ele><time>2026-04-11T12:51:50.999Z</time></trkpt><trkpt lat="44.63408672693299" lon="10.487122163272765"><ele>154.33333333333331</ele><time>2026-04-11T12:51:51.999Z</time></trkpt><trkpt lat="44.634100427123066" lon="10.487347809247048"><ele>153.66666666666666</ele><time>2026-04-11T12:51:52.999Z</time></trkpt><trkpt lat="44.63411344803589" lon="10.487578625061754"><ele>153.0</ele><time>2026-04-11T12:51:53.999Z</time></trkpt><trkpt lat="44.634124467233114" lon="10.487807820568692"><ele>153.0</ele><time>2026-04-11T12:51:54.999Z</time></trkpt><trkpt lat="44.63413265797877" lon="10.488036313419007"><ele>153.0</ele><time>2026-04-11T12:51:55.999Z</time></trkpt><trkpt lat="44.63414238655802" lon="10.488249853780522"><ele>153.0</ele><time>2026-04-11T12:51:56.999Z</time></trkpt><trkpt lat="44.63415285983959" lon="10.488467059403112"><ele>153.0</ele><time>2026-04-11T12:51:57.999Z</time></trkpt><trkpt lat="44.634161235202754" lon="10.488685525266124"><ele>153.0</ele><time>2026-04-11T12:51:58.999Z</time></trkpt><trkpt lat="44.63417135074906" lon="10.488906315023145"><ele>153.0</ele><time>2026-04-11T12:51:59.999Z</time></trkpt><trkpt lat="44.63418295328857" lon="10.489130769617205"><ele>152.75</ele><time>2026-04-11T12:52:00.999Z</time></trkpt><trkpt lat="44.63419498480198" lon="10.489348852751677"><ele>152.5</ele><time>2026-04-11T12:52:01.999Z</time></trkpt><trkpt lat="44.634203441127106" lon="10.489555077957085"><ele>152.25</ele><time>2026-04-11T12:52:02.999Z</time></trkpt><trkpt lat="44.63420916768941" lon="10.489749080364307"><ele>152.0</ele><time>2026-04-11T12:52:03.999Z</time></trkpt><trkpt lat="44.63421754534836" lon="10.489934072815233"><ele>151.75</ele><time>2026-04-11T12:52:04.999Z</time></trkpt><trkpt lat="44.63422608503381" lon="10.490113839098843"><ele>151.5</ele><time>2026-04-11T12:52:06Z</time></trkpt><trkpt lat="44.63423233783629" lon="10.490292201957327"><ele>151.25</ele><time>2026-04-11T12:52:07Z</time></trkpt><trkpt lat="44.63423927550163" lon="10.49048812514474"><ele>151.0</ele><time>2026-04-11T12:52:08Z</time></trkpt><trkpt lat="44.63425688683369" lon="10.490866455282646"><ele>151.0</ele><time>2026-04-11T12:52:10Z</time></trkpt><trkpt lat="44.63426341842726" lon="10.491046668789167"><ele>151.0</ele><time>2026-04-11T12:52:11Z</time></trkpt><trkpt lat="44.63426980553338" lon="10.491236671974121"><ele>151.0</ele><time>2026-04-11T12:52:12Z</time></trkpt><trkpt lat="44.63428343197569" lon="10.491432072738986"><ele>151.0</ele><time>2026-04-11T12:52:13Z</time></trkpt><trkpt lat="44.634324290691" lon="10.491617228283783"><ele>151.25</ele><time>2026-04-11T12:52:14Z</time></trkpt><trkpt lat="44.63436495914383" lon="10.491785801851059"><ele>151.5</ele><time>2026-04-11T12:52:15Z</time></trkpt><trkpt lat="44.634399866426236" lon="10.491947670501686"><ele>151.75</ele><time>2026-04-11T12:52:16Z</time></trkpt><trkpt lat="44.63443680339827" lon="10.492121237184904"><ele>152.0</ele><time>2026-04-11T12:52:17Z</time></trkpt><trkpt lat="44.634473657639184" lon="10.492292639277407"><ele>150.5</ele><time>2026-04-11T12:52:18Z</time></trkpt><trkpt lat="44.63451194686247" lon="10.492469481029902"><ele>149.0</ele><time>2026-04-11T12:52:19Z</time></trkpt><trkpt lat="44.634549260105324" lon="10.492653980704995"><ele>147.5</ele><time>2026-04-11T12:52:20Z</time></trkpt><trkpt lat="44.63459142458397" lon="10.492838332974047"><ele>146.0</ele><time>2026-04-11T12:52:21Z</time></trkpt><trkpt lat="44.63463400689073" lon="10.49301973344594"><ele>146.0</ele><time>2026-04-11T12:52:22Z</time></trkpt><trkpt lat="44.63467400747549" lon="10.493204630579086"><ele>146.0</ele><time>2026-04-11T12:52:23Z</time></trkpt><trkpt lat="44.634707225997964" lon="10.493382743502213"><ele>146.0</ele><time>2026-04-11T12:52:24Z</time></trkpt><trkpt lat="44.63472994431931" lon="10.493553538691033"><ele>146.0</ele><time>2026-04-11T12:52:25Z</time></trkpt><trkpt lat="44.634743555623785" lon="10.493728181201448"><ele>145.5</ele><time>2026-04-11T12:52:26Z</time></trkpt><trkpt lat="44.634755641492845" lon="10.493908569611646"><ele>145.0</ele><time>2026-04-11T12:52:27Z</time></trkpt><trkpt lat="44.6347623748876" lon="10.494090168081742"><ele>144.5</ele><time>2026-04-11T12:52:28Z</time></trkpt><trkpt lat="44.63476214924455" lon="10.494277604128087"><ele>144.0</ele><time>2026-04-11T12:52:29Z</time></trkpt><trkpt lat="44.634764161287585" lon="10.494468355854519"><ele>144.0</ele><time>2026-04-11T12:52:30Z</time></trkpt><trkpt lat="44.6347668972917" lon="10.494653721852655"><ele>144.0</ele><time>2026-04-11T12:52:31Z</time></trkpt><trkpt lat="44.63477038611747" lon="10.49483445788049"><ele>144.0</ele><time>2026-04-11T12:52:32Z</time></trkpt><trkpt lat="44.63477142932541" lon="10.495016148157518"><ele>144.0</ele><time>2026-04-11T12:52:33Z</time></trkpt><trkpt lat="44.63477419085488" lon="10.495199092454088"><ele>144.0</ele><time>2026-04-11T12:52:34Z</time></trkpt><trkpt lat="44.63477450785311" lon="10.49538019237443"><ele>144.0</ele><time>2026-04-11T12:52:35Z</time></trkpt><trkpt lat="44.634773356459654" lon="10.495560215647723"><ele>144.0</ele><time>2026-04-11T12:52:36Z</time></trkpt><trkpt lat="44.634771238918866" lon="10.49573519867208"><ele>144.0</ele><time>2026-04-11T12:52:37Z</time></trkpt><trkpt lat="44.63476871695612" lon="10.495908662419488"><ele>143.75</ele><time>2026-04-11T12:52:38Z</time></trkpt><trkpt lat="44.634769303408724" lon="10.496085834362725"><ele>143.5</ele><time>2026-04-11T12:52:39Z</time></trkpt><trkpt lat="44.63476958108777" lon="10.496266526588553"><ele>143.25</ele><time>2026-04-11T12:52:40Z</time></trkpt><trkpt lat="44.63477058586651" lon="10.496440092240702"><ele>143.0</ele><time>2026-04-11T12:52:41Z</time></trkpt><trkpt lat="44.63477545489249" lon="10.49660226744486"><ele>143.0</ele><time>2026-04-11T12:52:42Z</time></trkpt><trkpt lat="44.63478010879287" lon="10.496761183938771"><ele>143.0</ele><time>2026-04-11T12:52:43Z</time></trkpt><trkpt lat="44.63476475220238" lon="10.496913516019882"><ele>143.0</ele><time>2026-04-11T12:52:44Z</time></trkpt><trkpt lat="44.634764970228396" lon="10.4970507647317"><ele>143.0</ele><time>2026-04-11T12:52:45Z</time></trkpt><trkpt lat="44.634765152399574" lon="10.497179520544005"><ele>143.0</ele><time>2026-04-11T12:52:46Z</time></trkpt><trkpt lat="44.63476470518637" lon="10.497305325034104"><ele>142.8</ele><time>2026-04-11T12:52:47Z</time></trkpt><trkpt lat="44.63477907432746" lon="10.497451662034491"><ele>142.60000000000002</ele><time>2026-04-11T12:52:48Z</time></trkpt><trkpt lat="44.634779961523506" lon="10.49760556148086"><ele>142.39999999999998</ele><time>2026-04-11T12:52:49Z</time></trkpt><trkpt lat="44.6347631335919" lon="10.497742435259237"><ele>142.2</ele><time>2026-04-11T12:52:50Z</time></trkpt><trkpt lat="44.63476279552755" lon="10.497836461458025"><ele>142.0</ele><time>2026-04-11T12:52:51Z</time></trkpt><trkpt lat="44.634777527455014" lon="10.497977193760807"><ele>141.79999999999998</ele><time>2026-04-11T12:52:53Z</time></trkpt><trkpt lat="44.6347775823727" lon="10.498110850888981"><ele>141.6</ele><time>2026-04-11T12:52:55Z</time></trkpt><trkpt lat="44.63477045840553" lon="10.498213878714669"><ele>141.39999999999998</ele><time>2026-04-11T12:52:56Z</time></trkpt><trkpt lat="44.63477530467128" lon="10.498370785768664"><ele>141.2</ele><time>2026-04-11T12:52:57Z</time></trkpt><trkpt lat="44.63476362904186" lon="10.498568828071635"><ele>141.0</ele><time>2026-04-11T12:52:58Z</time></trkpt><trkpt lat="44.63478298745294" lon="10.49875678098245"><ele>141.0</ele><time>2026-04-11T12:52:59Z</time></trkpt><trkpt lat="44.6347797244767" lon="10.498953711351723"><ele>141.0</ele><time>2026-04-11T12:53:00Z</time></trkpt><trkpt lat="44.63478061777075" lon="10.499153333181301"><ele>141.0</ele><time>2026-04-11T12:53:01Z</time></trkpt><trkpt lat="44.63478303635635" lon="10.499348485680486"><ele>141.0</ele><time>2026-04-11T12:53:02Z</time></trkpt><trkpt lat="44.63478599526819" lon="10.499528360951485"><ele>140.75</ele><time>2026-04-11T12:53:03Z</time></trkpt><trkpt lat="44.63478957995078" lon="10.49968266435596"><ele>140.5</ele><time>2026-04-11T12:53:03.999Z</time></trkpt><trkpt lat="44.634790085779834" lon="10.499841743813443"><ele>140.25</ele><time>2026-04-11T12:53:04.999Z</time></trkpt><trkpt lat="44.63479241972436" lon="10.500022893451714"><ele>140.0</ele><time>2026-04-11T12:53:05.999Z</time></trkpt><trkpt lat="44.634790365336904" lon="10.500213015604388"><ele>139.75</ele><time>2026-04-11T12:53:06.999Z</time></trkpt><trkpt lat="44.634790363201695" lon="10.500418297887474"><ele>139.5</ele><time>2026-04-11T12:53:07.999Z</time></trkpt><trkpt lat="44.63479230113777" lon="10.50063255332766"><ele>139.25</ele><time>2026-04-11T12:53:08.999Z</time></trkpt><trkpt lat="44.63479182443203" lon="10.500843664571049"><ele>139.0</ele><time>2026-04-11T12:53:10Z</time></trkpt><trkpt lat="44.634796334804754" lon="10.501034649753317"><ele>139.0</ele><time>2026-04-11T12:53:11Z</time></trkpt><trkpt lat="44.63480283737394" lon="10.501205428056057"><ele>139.0</ele><time>2026-04-11T12:53:12Z</time></trkpt><trkpt lat="44.634813710222986" lon="10.50138710829017"><ele>139.0</ele><time>2026-04-11T12:53:13Z</time></trkpt><trkpt lat="44.63482761019142" lon="10.501566490953817"><ele>139.0</ele><time>2026-04-11T12:53:14Z</time></trkpt><trkpt lat="44.63484507154828" lon="10.501748947485256"><ele>139.0</ele><time>2026-04-11T12:53:15Z</time></trkpt><trkpt lat="44.63486302834432" lon="10.50194466219964"><ele>139.0</ele><time>2026-04-11T12:53:16Z</time></trkpt><trkpt lat="44.634882617920255" lon="10.502152304776969"><ele>139.0</ele><time>2026-04-11T12:53:17Z</time></trkpt><trkpt lat="44.63490301355793" lon="10.502368872499627"><ele>139.0</ele><time>2026-04-11T12:53:18Z</time></trkpt><trkpt lat="44.63492603660791" lon="10.50259629155553"><ele>138.66666666666669</ele><time>2026-04-11T12:53:19Z</time></trkpt><trkpt lat="44.63494888337804" lon="10.502828268107054"><ele>138.33333333333334</ele><time>2026-04-11T12:53:20Z</time></trkpt><trkpt lat="44.634970018012915" lon="10.503051434863108"><ele>138.0</ele><time>2026-04-11T12:53:21Z</time></trkpt><trkpt lat="44.63499312033551" lon="10.503257144339733"><ele>137.25</ele><time>2026-04-11T12:53:22Z</time></trkpt><trkpt lat="44.63501628047256" lon="10.503459556387035"><ele>136.5</ele><time>2026-04-11T12:53:23Z</time></trkpt><trkpt lat="44.63503896057612" lon="10.503660313998854"><ele>135.75</ele><time>2026-04-11T12:53:24Z</time></trkpt><trkpt lat="44.63505833525942" lon="10.503856767782613"><ele>135.0</ele><time>2026-04-11T12:53:25Z</time></trkpt><trkpt lat="44.63507806730809" lon="10.504057349260444"><ele>135.0</ele><time>2026-04-11T12:53:26Z</time></trkpt><trkpt lat="44.63510005014101" lon="10.504251263069172"><ele>135.0</ele><time>2026-04-11T12:53:27Z</time></trkpt><trkpt lat="44.635123423093624" lon="10.504439756149013"><ele>135.0</ele><time>2026-04-11T12:53:28Z</time></trkpt><trkpt lat="44.635148266460696" lon="10.504632788870532"><ele>135.0</ele><time>2026-04-11T12:53:29Z</time></trkpt><trkpt lat="44.635174045610114" lon="10.504829042847652"><ele>135.25</ele><time>2026-04-11T12:53:30Z</time></trkpt><trkpt lat="44.635195315822976" lon="10.50503228162878"><ele>135.5</ele><time>2026-04-11T12:53:31Z</time></trkpt><trkpt lat="44.635211756408054" lon="10.505237406836583"><ele>135.75</ele><time>2026-04-11T12:53:32Z</time></trkpt><trkpt lat="44.63522094192351" lon="10.505440840526736"><ele>136.0</ele><time>2026-04-11T12:53:33Z</time></trkpt><trkpt lat="44.63522618011177" lon="10.50563888610896"><ele>136.0</ele><time>2026-04-11T12:53:34Z</time></trkpt><trkpt lat="44.63521544872378" lon="10.505824079950958"><ele>136.0</ele><time>2026-04-11T12:53:35Z</time></trkpt><trkpt lat="44.635193221714005" lon="10.50601197378841"><ele>136.0</ele><time>2026-04-11T12:53:36Z</time></trkpt><trkpt lat="44.63515567384636" lon="10.506206215668026"><ele>136.0</ele><time>2026-04-11T12:53:37Z</time></trkpt><trkpt lat="44.63510092167775" lon="10.50637817965204"><ele>136.0</ele><time>2026-04-11T12:53:38Z</time></trkpt><trkpt lat="44.635044640551776" lon="10.506531072889963"><ele>136.0</ele><time>2026-04-11T12:53:39Z</time></trkpt><trkpt lat="44.634992661824555" lon="10.506666147191318"><ele>136.0</ele><time>2026-04-11T12:53:40Z</time></trkpt><trkpt lat="44.63495645482781" lon="10.506783321608303"><ele>136.0</ele><time>2026-04-11T12:53:41Z</time></trkpt><trkpt lat="44.63493589087752" lon="10.506897034039419"><ele>136.0</ele><time>2026-04-11T12:53:42Z</time></trkpt><trkpt lat="44.634938570485765" lon="10.507011810042423"><ele>135.4</ele><time>2026-04-11T12:53:43Z</time></trkpt><trkpt lat="44.63494027610283" lon="10.507132555892872"><ele>134.8</ele><time>2026-04-11T12:53:44Z</time></trkpt><trkpt lat="44.63491498130884" lon="10.507280419879722"><ele>134.20000000000002</ele><time>2026-04-11T12:53:45Z</time></trkpt><trkpt lat="44.634865560255136" lon="10.507427866434188"><ele>133.6</ele><time>2026-04-11T12:53:46Z</time></trkpt><trkpt lat="44.63480526536933" lon="10.507569528221266"><ele>133.0</ele><time>2026-04-11T12:53:47Z</time></trkpt><trkpt lat="44.63471680047601" lon="10.50769467497676"><ele>133.0</ele><time>2026-04-11T12:53:48Z</time></trkpt><trkpt lat="44.634595960674254" lon="10.507816559913188"><ele>133.0</ele><time>2026-04-11T12:53:49Z</time></trkpt><trkpt lat="44.634478007594105" lon="10.507947974010905"><ele>133.0</ele><time>2026-04-11T12:53:50Z</time></trkpt><trkpt lat="44.63436663653991" lon="10.508106310912254"><ele>134.33333333333334</ele><time>2026-04-11T12:53:51Z</time></trkpt><trkpt lat="44.634261888688094" lon="10.508286761344905"><ele>135.66666666666666</ele><time>2026-04-11T12:53:52Z</time></trkpt><trkpt lat="44.634161081201285" lon="10.508483582999306"><ele>137.0</ele><time>2026-04-11T12:53:53Z</time></trkpt><trkpt lat="44.63406453458756" lon="10.508685948277126"><ele>136.33333333333331</ele><time>2026-04-11T12:53:54Z</time></trkpt><trkpt lat="44.6339735050444" lon="10.508904430372747"><ele>135.66666666666666</ele><time>2026-04-11T12:53:55Z</time></trkpt><trkpt lat="44.633881311957374" lon="10.509134597904751"><ele>135.0</ele><time>2026-04-11T12:53:56Z</time></trkpt><trkpt lat="44.633790182625326" lon="10.50937374289037"><ele>135.33333333333334</ele><time>2026-04-11T12:53:57Z</time></trkpt><trkpt lat="44.6336946568108" lon="10.509607706072934"><ele>135.66666666666669</ele><time>2026-04-11T12:53:58Z</time></trkpt><trkpt lat="44.63359737112885" lon="10.509835948996663"><ele>136.0</ele><time>2026-04-11T12:53:59Z</time></trkpt><trkpt lat="44.63350094064791" lon="10.510048329380282"><ele>137.33333333333334</ele><time>2026-04-11T12:54:00Z</time></trkpt><trkpt lat="44.63341784815576" lon="10.510261333309689"><ele>138.66666666666666</ele><time>2026-04-11T12:54:01Z</time></trkpt><trkpt lat="44.633335229261526" lon="10.510464556098484"><ele>140.0</ele><time>2026-04-11T12:54:02Z</time></trkpt><trkpt lat="44.63324686191588" lon="10.510672686660744"><ele>140.0</ele><time>2026-04-11T12:54:03Z</time></trkpt><trkpt lat="44.63315477276159" lon="10.51088886109724"><ele>140.0</ele><time>2026-04-11T12:54:04Z</time></trkpt><trkpt lat="44.63306129211779" lon="10.5111083058917"><ele>140.0</ele><time>2026-04-11T12:54:05Z</time></trkpt><trkpt lat="44.632979980427365" lon="10.51134213032812"><ele>139.66666666666666</ele><time>2026-04-11T12:54:06Z</time></trkpt><trkpt lat="44.63288648139752" lon="10.511562642500587"><ele>139.33333333333334</ele><time>2026-04-11T12:54:07Z</time></trkpt><trkpt lat="44.63277831962658" lon="10.511774266108349"><ele>139.0</ele><time>2026-04-11T12:54:08Z</time></trkpt><trkpt lat="44.63268492517606" lon="10.512002275702526"><ele>139.66666666666669</ele><time>2026-04-11T12:54:09Z</time></trkpt><trkpt lat="44.6325939166238" lon="10.512238125626101"><ele>140.33333333333334</ele><time>2026-04-11T12:54:10Z</time></trkpt><trkpt lat="44.63252333291655" lon="10.51249095689024"><ele>141.0</ele><time>2026-04-11T12:54:11Z</time></trkpt><trkpt lat="44.63246358948144" lon="10.512746634758685"><ele>140.66666666666666</ele><time>2026-04-11T12:54:12Z</time></trkpt><trkpt lat="44.63242162531725" lon="10.51301110242533"><ele>140.33333333333331</ele><time>2026-04-11T12:54:13Z</time></trkpt><trkpt lat="44.63236670105854" lon="10.51327435149203"><ele>140.0</ele><time>2026-04-11T12:54:14Z</time></trkpt><trkpt lat="44.63232825191218" lon="10.513540742243777"><ele>141.0</ele><time>2026-04-11T12:54:15Z</time></trkpt><trkpt lat="44.632309672959245" lon="10.513810688400323"><ele>142.0</ele><time>2026-04-11T12:54:16Z</time></trkpt><trkpt lat="44.632275634319726" lon="10.51407406932442"><ele>143.0</ele><time>2026-04-11T12:54:17Z</time></trkpt><trkpt lat="44.63223996807055" lon="10.514339790538997"><ele>143.0</ele><time>2026-04-11T12:54:18Z</time></trkpt><trkpt lat="44.63221033479721" lon="10.514604987903322"><ele>143.0</ele><time>2026-04-11T12:54:19Z</time></trkpt><trkpt lat="44.63218356463426" lon="10.514874438775347"><ele>143.0</ele><time>2026-04-11T12:54:20Z</time></trkpt><trkpt lat="44.63215950390961" lon="10.51514792761512"><ele>143.0</ele><time>2026-04-11T12:54:21Z</time></trkpt><trkpt lat="44.63213952386095" lon="10.515425274287928"><ele>143.0</ele><time>2026-04-11T12:54:22Z</time></trkpt><trkpt lat="44.63215072496824" lon="10.515697375671765"><ele>143.0</ele><time>2026-04-11T12:54:23Z</time></trkpt><trkpt lat="44.63218334652344" lon="10.515965078123646"><ele>143.0</ele><time>2026-04-11T12:54:24Z</time></trkpt><trkpt lat="44.63222792685579" lon="10.516233739651478"><ele>143.0</ele><time>2026-04-11T12:54:25Z</time></trkpt><trkpt lat="44.632271790435624" lon="10.516521106884124"><ele>143.0</ele><time>2026-04-11T12:54:26Z</time></trkpt><trkpt lat="44.63229636993741" lon="10.516804488063057"><ele>143.33333333333331</ele><time>2026-04-11T12:54:27Z</time></trkpt><trkpt lat="44.63233401056225" lon="10.51708264287056"><ele>143.66666666666666</ele><time>2026-04-11T12:54:28Z</time></trkpt><trkpt lat="44.63238794250958" lon="10.517357552354062"><ele>144.0</ele><time>2026-04-11T12:54:29Z</time></trkpt><trkpt lat="44.632409680492124" lon="10.51763945778497"><ele>144.0</ele><time>2026-04-11T12:54:30Z</time></trkpt><trkpt lat="44.63246294435897" lon="10.517913279115891"><ele>144.0</ele><time>2026-04-11T12:54:31Z</time></trkpt><trkpt lat="44.632500295841204" lon="10.518189264211207"><ele>144.0</ele><time>2026-04-11T12:54:32Z</time></trkpt><trkpt lat="44.63253682289194" lon="10.51846469999679"><ele>144.66666666666666</ele><time>2026-04-11T12:54:33Z</time></trkpt><trkpt lat="44.63255807601283" lon="10.51874490334574"><ele>145.33333333333331</ele><time>2026-04-11T12:54:34Z</time></trkpt><trkpt lat="44.632594536366106" lon="10.51901795477933"><ele>146.0</ele><time>2026-04-11T12:54:35Z</time></trkpt><trkpt lat="44.632647082285416" lon="10.519287504233267"><ele>146.0</ele><time>2026-04-11T12:54:36Z</time></trkpt><trkpt lat="44.6326773223515" lon="10.519562456349497"><ele>146.0</ele><time>2026-04-11T12:54:37Z</time></trkpt><trkpt lat="44.632713765565015" lon="10.519829546838304"><ele>146.0</ele><time>2026-04-11T12:54:38Z</time></trkpt><trkpt lat="44.63275002175286" lon="10.520096735436812"><ele>145.66666666666666</ele><time>2026-04-11T12:54:39Z</time></trkpt><trkpt lat="44.63278245899082" lon="10.52036553656083"><ele>145.33333333333334</ele><time>2026-04-11T12:54:40Z</time></trkpt><trkpt lat="44.63281663592799" lon="10.520631185358777"><ele>145.0</ele><time>2026-04-11T12:54:41Z</time></trkpt><trkpt lat="44.63285302544075" lon="10.520896214584116"><ele>145.0</ele><time>2026-04-11T12:54:42Z</time></trkpt><trkpt lat="44.63288942049789" lon="10.521155004779926"><ele>145.0</ele><time>2026-04-11T12:54:43Z</time></trkpt><trkpt lat="44.632927022791876" lon="10.521407651446617"><ele>145.0</ele><time>2026-04-11T12:54:44Z</time></trkpt><trkpt lat="44.63297371049755" lon="10.52166282132775"><ele>144.66666666666669</ele><time>2026-04-11T12:54:45Z</time></trkpt><trkpt lat="44.633035123389455" lon="10.52192222231412"><ele>144.33333333333334</ele><time>2026-04-11T12:54:46Z</time></trkpt><trkpt lat="44.63309889252704" lon="10.522187194619598"><ele>144.0</ele><time>2026-04-11T12:54:47Z</time></trkpt><trkpt lat="44.63316330282958" lon="10.522449731745553"><ele>144.0</ele><time>2026-04-11T12:54:48Z</time></trkpt><trkpt lat="44.633230936103296" lon="10.522706580435795"><ele>144.0</ele><time>2026-04-11T12:54:49Z</time></trkpt><trkpt lat="44.63329977147633" lon="10.522948962146229"><ele>144.0</ele><time>2026-04-11T12:54:50Z</time></trkpt><trkpt lat="44.633362669242814" lon="10.523188178728605"><ele>145.0</ele><time>2026-04-11T12:54:51Z</time></trkpt><trkpt lat="44.63341633769948" lon="10.523425082280546"><ele>146.0</ele><time>2026-04-11T12:54:52Z</time></trkpt><trkpt lat="44.63347170346956" lon="10.523632109832683"><ele>147.0</ele><time>2026-04-11T12:54:53Z</time></trkpt><trkpt lat="44.63352350559324" lon="10.523840155898567"><ele>147.0</ele><time>2026-04-11T12:54:54Z</time></trkpt><trkpt lat="44.63357456365431" lon="10.524029832987978"><ele>147.0</ele><time>2026-04-11T12:54:55Z</time></trkpt><trkpt lat="44.63362098412027" lon="10.524207701873662"><ele>147.0</ele><time>2026-04-11T12:54:56Z</time></trkpt><trkpt lat="44.63366424106579" lon="10.524371370162473"><ele>147.0</ele><time>2026-04-11T12:54:57Z</time></trkpt><trkpt lat="44.63370181412902" lon="10.524523986454287"><ele>146.79999999999998</ele><time>2026-04-11T12:54:58Z</time></trkpt><trkpt lat="44.633735522270726" lon="10.524659334763427"><ele>146.6</ele><time>2026-04-11T12:54:59Z</time></trkpt><trkpt lat="44.63376430557824" lon="10.524778796716857"><ele>146.39999999999998</ele><time>2026-04-11T12:55:00Z</time></trkpt><trkpt lat="44.63378631857576" lon="10.524891981810129"><ele>146.2</ele><time>2026-04-11T12:55:01Z</time></trkpt><trkpt lat="44.63379729988727" lon="10.525013553954288"><ele>146.0</ele><time>2026-04-11T12:55:02Z</time></trkpt><trkpt lat="44.63382102047147" lon="10.525140867612205"><ele>146.0</ele><time>2026-04-11T12:55:03Z</time></trkpt><trkpt lat="44.6338623658434" lon="10.525274802370216"><ele>146.0</ele><time>2026-04-11T12:55:04Z</time></trkpt><trkpt lat="44.63391027476922" lon="10.525416553326206"><ele>146.0</ele><time>2026-04-11T12:55:05Z</time></trkpt><trkpt lat="44.63394330222687" lon="10.525571157396067"><ele>146.0</ele><time>2026-04-11T12:55:06Z</time></trkpt><trkpt lat="44.63395631328385" lon="10.525728058997181"><ele>146.0</ele><time>2026-04-11T12:55:07Z</time></trkpt><trkpt lat="44.63399714610847" lon="10.52585997881212"><ele>145.5</ele><time>2026-04-11T12:55:08Z</time></trkpt><trkpt lat="44.63392852265383" lon="10.526042864984005"><ele>145.0</ele><time>2026-04-11T12:55:09Z</time></trkpt><trkpt lat="44.63390581078317" lon="10.526211683274791"><ele>144.5</ele><time>2026-04-11T12:55:10Z</time></trkpt><trkpt lat="44.63388913853414" lon="10.526393192610643"><ele>144.0</ele><time>2026-04-11T12:55:11Z</time></trkpt><trkpt lat="44.63387318507072" lon="10.526584756215076"><ele>144.0</ele><time>2026-04-11T12:55:12Z</time></trkpt><trkpt lat="44.63385530216864" lon="10.52678008067058"><ele>144.0</ele><time>2026-04-11T12:55:13Z</time></trkpt><trkpt lat="44.633838779114384" lon="10.526987402585572"><ele>144.0</ele><time>2026-04-11T12:55:14Z</time></trkpt><trkpt lat="44.63380503579078" lon="10.52719545061772"><ele>144.0</ele><time>2026-04-11T12:55:15Z</time></trkpt><trkpt lat="44.63380168589527" lon="10.527415243839297"><ele>145.0</ele><time>2026-04-11T12:55:16Z</time></trkpt><trkpt lat="44.63378066537837" lon="10.527634311722283"><ele>146.0</ele><time>2026-04-11T12:55:17Z</time></trkpt><trkpt lat="44.63376198966574" lon="10.527855918126278"><ele>147.0</ele><time>2026-04-11T12:55:18Z</time></trkpt><trkpt lat="44.63372713569785" lon="10.528070478324842"><ele>147.0</ele><time>2026-04-11T12:55:19Z</time></trkpt><trkpt lat="44.63370851611233" lon="10.528278390952272"><ele>147.0</ele><time>2026-04-11T12:55:20Z</time></trkpt><trkpt lat="44.633690895339576" lon="10.528474297795455"><ele>147.0</ele><time>2026-04-11T12:55:21Z</time></trkpt><trkpt lat="44.63367424705037" lon="10.528659392196491"><ele>147.0</ele><time>2026-04-11T12:55:22Z</time></trkpt><trkpt lat="44.63365935612172" lon="10.52882494895078"><ele>147.4</ele><time>2026-04-11T12:55:23Z</time></trkpt><trkpt lat="44.633643139066315" lon="10.528974315788203"><ele>147.79999999999998</ele><time>2026-04-11T12:55:24Z</time></trkpt><trkpt lat="44.63364011182256" lon="10.529119858620364"><ele>148.2</ele><time>2026-04-11T12:55:25Z</time></trkpt><trkpt lat="44.6336045129107" lon="10.529255571689491"><ele>148.6</ele><time>2026-04-11T12:55:26Z</time></trkpt><trkpt lat="44.633582477729156" lon="10.52939641236409"><ele>149.0</ele><time>2026-04-11T12:55:27Z</time></trkpt><trkpt lat="44.633557756062814" lon="10.52954857464384"><ele>149.5</ele><time>2026-04-11T12:55:28Z</time></trkpt><trkpt lat="44.63353116579683" lon="10.529712238523382"><ele>150.0</ele><time>2026-04-11T12:55:29Z</time></trkpt><trkpt lat="44.633502488960424" lon="10.529884755300976"><ele>150.5</ele><time>2026-04-11T12:55:30Z</time></trkpt><trkpt lat="44.63347300625288" lon="10.530062300208987"><ele>151.0</ele><time>2026-04-11T12:55:31Z</time></trkpt><trkpt lat="44.63344195039431" lon="10.530248203068627"><ele>151.0</ele><time>2026-04-11T12:55:32Z</time></trkpt><trkpt lat="44.63340985790466" lon="10.530438760722895"><ele>151.0</ele><time>2026-04-11T12:55:33Z</time></trkpt><trkpt lat="44.63337737700115" lon="10.530633173795918"><ele>151.0</ele><time>2026-04-11T12:55:34Z</time></trkpt><trkpt lat="44.633346276876146" lon="10.530824621083594"><ele>151.0</ele><time>2026-04-11T12:55:35Z</time></trkpt><trkpt lat="44.63333091400307" lon="10.531016617024974"><ele>151.0</ele><time>2026-04-11T12:55:36Z</time></trkpt><trkpt lat="44.63328397571588" lon="10.531196293835318"><ele>151.0</ele><time>2026-04-11T12:55:37Z</time></trkpt><trkpt lat="44.63327096139971" lon="10.53138457274944"><ele>151.0</ele><time>2026-04-11T12:55:38Z</time></trkpt><trkpt lat="44.633238257459105" lon="10.531568642675998"><ele>151.0</ele><time>2026-04-11T12:55:39Z</time></trkpt><trkpt lat="44.63320222772889" lon="10.531747892351211"><ele>151.0</ele><time>2026-04-11T12:55:40Z</time></trkpt><trkpt lat="44.63316954768349" lon="10.531925494259967"><ele>151.0</ele><time>2026-04-11T12:55:41Z</time></trkpt><trkpt lat="44.63314395246124" lon="10.532080529457646"><ele>151.0</ele><time>2026-04-11T12:55:42Z</time></trkpt><trkpt lat="44.6331172434589" lon="10.532237296723263"><ele>151.0</ele><time>2026-04-11T12:55:43Z</time></trkpt><trkpt lat="44.633090583532436" lon="10.5323998224503"><ele>151.0</ele><time>2026-04-11T12:55:44Z</time></trkpt><trkpt lat="44.63306334016711" lon="10.532567734949405"><ele>151.0</ele><time>2026-04-11T12:55:45Z</time></trkpt><trkpt lat="44.633033957712904" lon="10.53273993297613"><ele>151.0</ele><time>2026-04-11T12:55:46Z</time></trkpt><trkpt lat="44.633003766157984" lon="10.532914380896363"><ele>151.0</ele><time>2026-04-11T12:55:47Z</time></trkpt><trkpt lat="44.63297692669868" lon="10.533070061214348"><ele>151.0</ele><time>2026-04-11T12:55:48Z</time></trkpt><trkpt lat="44.632953109199576" lon="10.533212781220938"><ele>151.0</ele><time>2026-04-11T12:55:49Z</time></trkpt><trkpt lat="44.63293152113611" lon="10.533344452816728"><ele>151.0</ele><time>2026-04-11T12:55:50Z</time></trkpt><trkpt lat="44.63291261090618" lon="10.533457309394363"><ele>151.0</ele><time>2026-04-11T12:55:51Z</time></trkpt><trkpt lat="44.63289193060078" lon="10.533562381360158"><ele>151.0</ele><time>2026-04-11T12:55:52Z</time></trkpt><trkpt lat="44.63286873913802" lon="10.533662915236253"><ele>151.0</ele><time>2026-04-11T12:55:53Z</time></trkpt><trkpt lat="44.63282943026911" lon="10.533741574340588"><ele>151.0</ele><time>2026-04-11T12:55:54Z</time></trkpt><trkpt lat="44.63277268062348" lon="10.533789550250969"><ele>151.0</ele><time>2026-04-11T12:55:55Z</time></trkpt><trkpt lat="44.632706823105316" lon="10.533830488640579"><ele>151.0</ele><time>2026-04-11T12:55:56Z</time></trkpt><trkpt lat="44.632598970403286" lon="10.533727736811286"><ele>151.0</ele><time>2026-04-11T12:55:57Z</time></trkpt><trkpt lat="44.632490431622855" lon="10.533676137535341"><ele>151.0</ele><time>2026-04-11T12:55:58Z</time></trkpt><trkpt lat="44.63237359429468" lon="10.53362419420898"><ele>151.25</ele><time>2026-04-11T12:55:59Z</time></trkpt><trkpt lat="44.63225765203535" lon="10.533579796420172"><ele>151.5</ele><time>2026-04-11T12:56:00Z</time></trkpt><trkpt lat="44.63214098619385" lon="10.53353298192723"><ele>151.75</ele><time>2026-04-11T12:56:01Z</time></trkpt><trkpt lat="44.632025308657354" lon="10.533483171805575"><ele>152.0</ele><time>2026-04-11T12:56:02Z</time></trkpt><trkpt lat="44.63190799949176" lon="10.533437273123278"><ele>152.0</ele><time>2026-04-11T12:56:03Z</time></trkpt><trkpt lat="44.6317928045009" lon="10.533390075000659"><ele>152.0</ele><time>2026-04-11T12:56:04Z</time></trkpt><trkpt lat="44.63166794752734" lon="10.53334475873732"><ele>152.0</ele><time>2026-04-11T12:56:05Z</time></trkpt><trkpt lat="44.63154348167331" lon="10.533292580708846"><ele>152.0</ele><time>2026-04-11T12:56:06Z</time></trkpt><trkpt lat="44.63141684700855" lon="10.533239298936154"><ele>152.0</ele><time>2026-04-11T12:56:07Z</time></trkpt><trkpt lat="44.63128246227029" lon="10.533188493087634"><ele>152.0</ele><time>2026-04-11T12:56:08Z</time></trkpt><trkpt lat="44.63115042059702" lon="10.533137558094031"><ele>152.0</ele><time>2026-04-11T12:56:09Z</time></trkpt><trkpt lat="44.63102280545447" lon="10.533078904564526"><ele>152.0</ele><time>2026-04-11T12:56:10Z</time></trkpt><trkpt lat="44.630897380104976" lon="10.533028204212851"><ele>151.75</ele><time>2026-04-11T12:56:11Z</time></trkpt><trkpt lat="44.63076470507977" lon="10.53298126830758"><ele>151.5</ele><time>2026-04-11T12:56:12Z</time></trkpt><trkpt lat="44.63064304618555" lon="10.532930868998523"><ele>151.25</ele><time>2026-04-11T12:56:13Z</time></trkpt><trkpt lat="44.630525571214115" lon="10.532883104612546"><ele>151.0</ele><time>2026-04-11T12:56:14Z</time></trkpt><trkpt lat="44.63041197655653" lon="10.53284307960805"><ele>151.75</ele><time>2026-04-11T12:56:15Z</time></trkpt><trkpt lat="44.63029934342173" lon="10.532800745730265"><ele>152.5</ele><time>2026-04-11T12:56:16Z</time></trkpt><trkpt lat="44.63019197623584" lon="10.532739822568772"><ele>153.25</ele><time>2026-04-11T12:56:17Z</time></trkpt><trkpt lat="44.630093200048805" lon="10.532664814793014"><ele>154.0</ele><time>2026-04-11T12:56:18Z</time></trkpt><trkpt lat="44.6299892243374" lon="10.532572717260617"><ele>154.0</ele><time>2026-04-11T12:56:19Z</time></trkpt><trkpt lat="44.62989072681159" lon="10.532440056763559"><ele>154.0</ele><time>2026-04-11T12:56:20Z</time></trkpt><trkpt lat="44.629794035273434" lon="10.532320422018005"><ele>154.0</ele><time>2026-04-11T12:56:21Z</time></trkpt><trkpt lat="44.62968909362909" lon="10.532195464525104"><ele>154.0</ele><time>2026-04-11T12:56:22Z</time></trkpt><trkpt lat="44.629577196173315" lon="10.532071272106736"><ele>154.25</ele><time>2026-04-11T12:56:23Z</time></trkpt><trkpt lat="44.62946808653749" lon="10.531947976392212"><ele>154.5</ele><time>2026-04-11T12:56:24Z</time></trkpt><trkpt lat="44.62935956961977" lon="10.531848787702046"><ele>154.75</ele><time>2026-04-11T12:56:25Z</time></trkpt><trkpt lat="44.62925429515531" lon="10.531753792305421"><ele>155.0</ele><time>2026-04-11T12:56:26Z</time></trkpt><trkpt lat="44.62914723085092" lon="10.531659391399772"><ele>155.0</ele><time>2026-04-11T12:56:27Z</time></trkpt><trkpt lat="44.62904219653748" lon="10.531569203314758"><ele>155.0</ele><time>2026-04-11T12:56:28Z</time></trkpt><trkpt lat="44.62893775745416" lon="10.531481273991004"><ele>155.0</ele><time>2026-04-11T12:56:29Z</time></trkpt><trkpt lat="44.62882207797111" lon="10.53138393475151"><ele>155.0</ele><time>2026-04-11T12:56:30Z</time></trkpt><trkpt lat="44.62870002352981" lon="10.531280843253137"><ele>155.66666666666666</ele><time>2026-04-11T12:56:31Z</time></trkpt><trkpt lat="44.62857587704338" lon="10.531172344115767"><ele>156.33333333333334</ele><time>2026-04-11T12:56:32Z</time></trkpt><trkpt lat="44.628442963665364" lon="10.531064331653743"><ele>157.0</ele><time>2026-04-11T12:56:33Z</time></trkpt><trkpt lat="44.62830661686247" lon="10.53094264728306"><ele>157.0</ele><time>2026-04-11T12:56:34Z</time></trkpt><trkpt lat="44.62816576323947" lon="10.530820563496407"><ele>157.0</ele><time>2026-04-11T12:56:35Z</time></trkpt><trkpt lat="44.62802578049866" lon="10.530700973636094"><ele>157.0</ele><time>2026-04-11T12:56:36Z</time></trkpt><trkpt lat="44.62788804682682" lon="10.530582632923338"><ele>157.0</ele><time>2026-04-11T12:56:37Z</time></trkpt><trkpt lat="44.6277503520527" lon="10.53046179650175"><ele>157.0</ele><time>2026-04-11T12:56:38Z</time></trkpt><trkpt lat="44.627611932195904" lon="10.530341806732034"><ele>157.0</ele><time>2026-04-11T12:56:39Z</time></trkpt><trkpt lat="44.62747783031087" lon="10.53021692761994"><ele>158.5</ele><time>2026-04-11T12:56:40Z</time></trkpt><trkpt lat="44.62735040589675" lon="10.530090880866043"><ele>160.0</ele><time>2026-04-11T12:56:41Z</time></trkpt><trkpt lat="44.6272367906622" lon="10.529960386925664"><ele>161.5</ele><time>2026-04-11T12:56:42Z</time></trkpt><trkpt lat="44.62713726509385" lon="10.529823842157873"><ele>163.0</ele><time>2026-04-11T12:56:43Z</time></trkpt><trkpt lat="44.62704848614126" lon="10.529704424929434"><ele>162.25</ele><time>2026-04-11T12:56:44Z</time></trkpt><trkpt lat="44.62697047071762" lon="10.5295984941144"><ele>161.5</ele><time>2026-04-11T12:56:45Z</time></trkpt><trkpt lat="44.62688956841102" lon="10.529497918130575"><ele>160.75</ele><time>2026-04-11T12:56:46Z</time></trkpt><trkpt lat="44.626799230422094" lon="10.529395847489559"><ele>160.0</ele><time>2026-04-11T12:56:47Z</time></trkpt><trkpt lat="44.62670218118471" lon="10.529293037360077"><ele>160.0</ele><time>2026-04-11T12:56:48Z</time></trkpt><trkpt lat="44.6265846333995" lon="10.529198104467326"><ele>160.0</ele><time>2026-04-11T12:56:49Z</time></trkpt><trkpt lat="44.62645839844663" lon="10.529119996126633"><ele>160.0</ele><time>2026-04-11T12:56:50Z</time></trkpt><trkpt lat="44.62633702352582" lon="10.529052046934467"><ele>160.0</ele><time>2026-04-11T12:56:51Z</time></trkpt><trkpt lat="44.626218229843666" lon="10.52897887008147"><ele>159.8</ele><time>2026-04-11T12:56:52Z</time></trkpt><trkpt lat="44.62611381396772" lon="10.528900012837347"><ele>159.6</ele><time>2026-04-11T12:56:53Z</time></trkpt><trkpt lat="44.62602246799549" lon="10.528817892480763"><ele>159.4</ele><time>2026-04-11T12:56:54Z</time></trkpt><trkpt lat="44.62594212084032" lon="10.528735528556684"><ele>159.2</ele><time>2026-04-11T12:56:55Z</time></trkpt><trkpt lat="44.62587317394721" lon="10.528658155049827"><ele>159.0</ele><time>2026-04-11T12:56:56Z</time></trkpt><trkpt lat="44.625811882613164" lon="10.528591475366268"><ele>159.8</ele><time>2026-04-11T12:56:57Z</time></trkpt><trkpt lat="44.62576332014517" lon="10.528532169932411"><ele>160.60000000000002</ele><time>2026-04-11T12:56:58Z</time></trkpt><trkpt lat="44.62568939365715" lon="10.528441108276061"><ele>161.4</ele><time>2026-04-11T12:57:00Z</time></trkpt><trkpt lat="44.6255856564118" lon="10.528307157581652"><ele>162.20000000000002</ele><time>2026-04-11T12:57:02Z</time></trkpt><trkpt lat="44.62551435981559" lon="10.528222230279043"><ele>163.0</ele><time>2026-04-11T12:57:03Z</time></trkpt><trkpt lat="44.62542377113186" lon="10.528113523881098"><ele>163.0</ele><time>2026-04-11T12:57:04Z</time></trkpt><trkpt lat="44.625321310580006" lon="10.527989523711177"><ele>163.0</ele><time>2026-04-11T12:57:05Z</time></trkpt><trkpt lat="44.625196752505715" lon="10.52787158114569"><ele>163.0</ele><time>2026-04-11T12:57:06Z</time></trkpt><trkpt lat="44.62508026660517" lon="10.527723430485093"><ele>163.0</ele><time>2026-04-11T12:57:07Z</time></trkpt><trkpt lat="44.62495482811154" lon="10.5275705763881"><ele>164.0</ele><time>2026-04-11T12:57:08Z</time></trkpt><trkpt lat="44.62482433750012" lon="10.527414122627945"><ele>165.0</ele><time>2026-04-11T12:57:09Z</time></trkpt><trkpt lat="44.624683755583014" lon="10.52725298167757"><ele>166.0</ele><time>2026-04-11T12:57:10Z</time></trkpt><trkpt lat="44.624549404986844" lon="10.52708936627954"><ele>166.0</ele><time>2026-04-11T12:57:11Z</time></trkpt><trkpt lat="44.62441295775743" lon="10.526926111135507"><ele>166.0</ele><time>2026-04-11T12:57:12Z</time></trkpt><trkpt lat="44.62428482603089" lon="10.526769209239552"><ele>166.0</ele><time>2026-04-11T12:57:13Z</time></trkpt><trkpt lat="44.62415385473156" lon="10.52661978018876"><ele>166.0</ele><time>2026-04-11T12:57:14Z</time></trkpt><trkpt lat="44.6240226344484" lon="10.526482453614387"><ele>166.0</ele><time>2026-04-11T12:57:15Z</time></trkpt><trkpt lat="44.62389074202196" lon="10.526355114985787"><ele>166.0</ele><time>2026-04-11T12:57:16Z</time></trkpt><trkpt lat="44.62375237627358" lon="10.526238781773635"><ele>166.66666666666669</ele><time>2026-04-11T12:57:17Z</time></trkpt><trkpt lat="44.623611879749646" lon="10.526125312589159"><ele>167.33333333333334</ele><time>2026-04-11T12:57:18Z</time></trkpt><trkpt lat="44.62347022039002" lon="10.526012950789"><ele>168.0</ele><time>2026-04-11T12:57:19Z</time></trkpt><trkpt lat="44.623329358637626" lon="10.525904098778527"><ele>168.0</ele><time>2026-04-11T12:57:20Z</time></trkpt><trkpt lat="44.623190411222865" lon="10.525796413953506"><ele>168.0</ele><time>2026-04-11T12:57:21Z</time></trkpt><trkpt lat="44.62305085460891" lon="10.525693216245891"><ele>168.0</ele><time>2026-04-11T12:57:22Z</time></trkpt><trkpt lat="44.62291047905186" lon="10.525591271551262"><ele>168.0</ele><time>2026-04-11T12:57:23Z</time></trkpt><trkpt lat="44.62277177986237" lon="10.525489236260826"><ele>168.0</ele><time>2026-04-11T12:57:24Z</time></trkpt><trkpt lat="44.622633042027196" lon="10.525379987934482"><ele>168.0</ele><time>2026-04-11T12:57:25Z</time></trkpt><trkpt lat="44.62249772922479" lon="10.52526158946692"><ele>168.0</ele><time>2026-04-11T12:57:26Z</time></trkpt><trkpt lat="44.62236774514263" lon="10.525131662081671"><ele>168.0</ele><time>2026-04-11T12:57:27Z</time></trkpt><trkpt lat="44.622249638084334" lon="10.524986839490891"><ele>168.0</ele><time>2026-04-11T12:57:28Z</time></trkpt><trkpt lat="44.62213709194438" lon="10.524827513987615"><ele>168.0</ele><time>2026-04-11T12:57:29Z</time></trkpt><trkpt lat="44.622028558951556" lon="10.52466083248667"><ele>168.0</ele><time>2026-04-11T12:57:30Z</time></trkpt><trkpt lat="44.62192547672136" lon="10.52449121825172"><ele>168.0</ele><time>2026-04-11T12:57:31Z</time></trkpt><trkpt lat="44.621834436698315" lon="10.524322112531026"><ele>168.0</ele><time>2026-04-11T12:57:32Z</time></trkpt><trkpt lat="44.62175558265028" lon="10.524153291866181"><ele>168.0</ele><time>2026-04-11T12:57:33Z</time></trkpt><trkpt lat="44.62169437838021" lon="10.52398380417943"><ele>168.0</ele><time>2026-04-11T12:57:34Z</time></trkpt><trkpt lat="44.621642101670695" lon="10.52381329095738"><ele>168.0</ele><time>2026-04-11T12:57:35Z</time></trkpt><trkpt lat="44.62159918289689" lon="10.523648523022853"><ele>167.8</ele><time>2026-04-11T12:57:36Z</time></trkpt><trkpt lat="44.62156508799643" lon="10.523494385978069"><ele>167.60000000000002</ele><time>2026-04-11T12:57:37Z</time></trkpt><trkpt lat="44.62153431764894" lon="10.523343965500066"><ele>167.39999999999998</ele><time>2026-04-11T12:57:38Z</time></trkpt><trkpt lat="44.621505434208274" lon="10.523203982238847"><ele>167.2</ele><time>2026-04-11T12:57:39Z</time></trkpt><trkpt lat="44.62147962922756" lon="10.523055939106573"><ele>167.0</ele><time>2026-04-11T12:57:40Z</time></trkpt><trkpt lat="44.62145705409375" lon="10.522888192113541"><ele>167.5</ele><time>2026-04-11T12:57:41Z</time></trkpt><trkpt lat="44.62143530983923" lon="10.522701818192163"><ele>168.0</ele><time>2026-04-11T12:57:42Z</time></trkpt><trkpt lat="44.62141248254865" lon="10.522503289399282"><ele>168.5</ele><time>2026-04-11T12:57:43Z</time></trkpt><trkpt lat="44.62138777851575" lon="10.522299343010271"><ele>169.0</ele><time>2026-04-11T12:57:44Z</time></trkpt><trkpt lat="44.621358973278205" lon="10.522100717684415"><ele>169.5</ele><time>2026-04-11T12:57:45Z</time></trkpt><trkpt lat="44.62132096823928" lon="10.521901931918437"><ele>170.0</ele><time>2026-04-11T12:57:46Z</time></trkpt><trkpt lat="44.62127085831664" lon="10.521722015735833"><ele>170.5</ele><time>2026-04-11T12:57:47Z</time></trkpt><trkpt lat="44.62120333802073" lon="10.52154146762139"><ele>171.0</ele><time>2026-04-11T12:57:48Z</time></trkpt><trkpt lat="44.62111844069602" lon="10.521365660130364"><ele>170.25</ele><time>2026-04-11T12:57:49Z</time></trkpt><trkpt lat="44.621026066957775" lon="10.521196933161173"><ele>169.5</ele><time>2026-04-11T12:57:50Z</time></trkpt><trkpt lat="44.62094051244322" lon="10.521045846445475"><ele>168.75</ele><time>2026-04-11T12:57:51Z</time></trkpt><trkpt lat="44.620858936649455" lon="10.52090882917226"><ele>168.0</ele><time>2026-04-11T12:57:52Z</time></trkpt><trkpt lat="44.62078338074312" lon="10.520773951726461"><ele>168.0</ele><time>2026-04-11T12:57:53Z</time></trkpt><trkpt lat="44.62070870321128" lon="10.520634887195987"><ele>168.0</ele><time>2026-04-11T12:57:54Z</time></trkpt><trkpt lat="44.62063736995146" lon="10.520491783342882"><ele>168.0</ele><time>2026-04-11T12:57:55Z</time></trkpt><trkpt lat="44.620562801559856" lon="10.52034549264826"><ele>168.0</ele><time>2026-04-11T12:57:56Z</time></trkpt><trkpt lat="44.62048387029817" lon="10.52019947705117"><ele>168.0</ele><time>2026-04-11T12:57:57Z</time></trkpt><trkpt lat="44.620402837520835" lon="10.520048409007684"><ele>168.0</ele><time>2026-04-11T12:57:58Z</time></trkpt><trkpt lat="44.62031995807637" lon="10.519892282797935"><ele>168.0</ele><time>2026-04-11T12:57:59Z</time></trkpt><trkpt lat="44.62024111586382" lon="10.519734203747264"><ele>168.0</ele><time>2026-04-11T12:58:00Z</time></trkpt><trkpt lat="44.62017430491516" lon="10.519572809451743"><ele>168.5</ele><time>2026-04-11T12:58:01Z</time></trkpt><trkpt lat="44.62012387791063" lon="10.519406444772024"><ele>169.0</ele><time>2026-04-11T12:58:02Z</time></trkpt><trkpt lat="44.62009207677335" lon="10.519236973668452"><ele>169.5</ele><time>2026-04-11T12:58:03Z</time></trkpt><trkpt lat="44.62007777284433" lon="10.51906221259198"><ele>170.0</ele><time>2026-04-11T12:58:04Z</time></trkpt><trkpt lat="44.620079913432356" lon="10.51888689755773"><ele>170.5</ele><time>2026-04-11T12:58:05Z</time></trkpt><trkpt lat="44.62009454609595" lon="10.51871105823474"><ele>171.0</ele><time>2026-04-11T12:58:06Z</time></trkpt><trkpt lat="44.620120907094154" lon="10.518551893400224"><ele>171.5</ele><time>2026-04-11T12:58:07Z</time></trkpt><trkpt lat="44.62014894717924" lon="10.518401838679688"><ele>172.0</ele><time>2026-04-11T12:58:08Z</time></trkpt><trkpt lat="44.620167297826676" lon="10.51825484645925"><ele>172.0</ele><time>2026-04-11T12:58:09Z</time></trkpt><trkpt lat="44.62017731485146" lon="10.51810163128542"><ele>172.0</ele><time>2026-04-11T12:58:10Z</time></trkpt><trkpt lat="44.620185377146456" lon="10.517932519717768"><ele>172.0</ele><time>2026-04-11T12:58:11Z</time></trkpt><trkpt lat="44.62018386155179" lon="10.517753478973361"><ele>172.0</ele><time>2026-04-11T12:58:12Z</time></trkpt><trkpt lat="44.62016897841112" lon="10.517567737844722"><ele>172.75</ele><time>2026-04-11T12:58:13Z</time></trkpt><trkpt lat="44.620127028653336" lon="10.51738016201311"><ele>173.5</ele><time>2026-04-11T12:58:14Z</time></trkpt><trkpt lat="44.62005697138886" lon="10.517204755379995"><ele>174.25</ele><time>2026-04-11T12:58:15Z</time></trkpt><trkpt lat="44.619973490646075" lon="10.517049958220275"><ele>175.0</ele><time>2026-04-11T12:58:16Z</time></trkpt><trkpt lat="44.619882373191" lon="10.516906200664453"><ele>176.25</ele><time>2026-04-11T12:58:17Z</time></trkpt><trkpt lat="44.61979391210873" lon="10.516752814116304"><ele>177.5</ele><time>2026-04-11T12:58:18Z</time></trkpt><trkpt lat="44.6197053063301" lon="10.516601137490476"><ele>178.75</ele><time>2026-04-11T12:58:19Z</time></trkpt><trkpt lat="44.61961121165259" lon="10.516463033870242"><ele>180.0</ele><time>2026-04-11T12:58:20Z</time></trkpt><trkpt lat="44.61951260783987" lon="10.516333261870823"><ele>179.25</ele><time>2026-04-11T12:58:21Z</time></trkpt><trkpt lat="44.619416169438175" lon="10.516208766972497"><ele>178.5</ele><time>2026-04-11T12:58:22Z</time></trkpt><trkpt lat="44.619324844434374" lon="10.51608323998932"><ele>177.75</ele><time>2026-04-11T12:58:23Z</time></trkpt><trkpt lat="44.61923890078487" lon="10.515958073739217"><ele>177.0</ele><time>2026-04-11T12:58:24Z</time></trkpt><trkpt lat="44.619163224188846" lon="10.51583483881501"><ele>177.0</ele><time>2026-04-11T12:58:25Z</time></trkpt><trkpt lat="44.61909648625599" lon="10.515726482146839"><ele>177.0</ele><time>2026-04-11T12:58:26Z</time></trkpt><trkpt lat="44.619049122827654" lon="10.515616571714817"><ele>177.0</ele><time>2026-04-11T12:58:27Z</time></trkpt><trkpt lat="44.61898733243654" lon="10.515523739890678"><ele>177.0</ele><time>2026-04-11T12:58:28Z</time></trkpt><trkpt lat="44.61893932811411" lon="10.51541386116336"><ele>177.0</ele><time>2026-04-11T12:58:29Z</time></trkpt><trkpt lat="44.61888918728655" lon="10.515307718328655"><ele>177.0</ele><time>2026-04-11T12:58:30Z</time></trkpt><trkpt lat="44.618834515194386" lon="10.515191269087403"><ele>177.0</ele><time>2026-04-11T12:58:31Z</time></trkpt><trkpt lat="44.618773948656674" lon="10.51506293143838"><ele>177.0</ele><time>2026-04-11T12:58:32Z</time></trkpt><trkpt lat="44.61871154237754" lon="10.514928661114853"><ele>177.0</ele><time>2026-04-11T12:58:33Z</time></trkpt><trkpt lat="44.61864251291611" lon="10.51479223795899"><ele>177.0</ele><time>2026-04-11T12:58:34Z</time></trkpt><trkpt lat="44.618574401102215" lon="10.514655758028137"><ele>177.2</ele><time>2026-04-11T12:58:35Z</time></trkpt><trkpt lat="44.61851677125234" lon="10.514531829758802"><ele>177.39999999999998</ele><time>2026-04-11T12:58:36Z</time></trkpt><trkpt lat="44.61846578309735" lon="10.514421649423841"><ele>177.60000000000002</ele><time>2026-04-11T12:58:37Z</time></trkpt><trkpt lat="44.61842048054581" lon="10.514330402463198"><ele>177.8</ele><time>2026-04-11T12:58:38Z</time></trkpt><trkpt lat="44.618359970040736" lon="10.514203403089038"><ele>178.0</ele><time>2026-04-11T12:58:40Z</time></trkpt><trkpt lat="44.61825406682269" lon="10.51434878454107"><ele>178.0</ele><time>2026-04-11T12:58:44Z</time></trkpt><trkpt lat="44.61821192618257" lon="10.514421462785792"><ele>178.0</ele><time>2026-04-11T12:58:45Z</time></trkpt><trkpt lat="44.6181681034546" lon="10.514513348455903"><ele>178.0</ele><time>2026-04-11T12:58:47Z</time></trkpt><trkpt lat="44.61810580373661" lon="10.51459469244818"><ele>178.0</ele><time>2026-04-11T12:58:49Z</time></trkpt><trkpt lat="44.61799728307134" lon="10.514670347307534"><ele>178.0</ele><time>2026-04-11T12:58:51Z</time></trkpt><trkpt lat="44.617925913769504" lon="10.51469354451354"><ele>178.0</ele><time>2026-04-11T12:58:52Z</time></trkpt><trkpt lat="44.61785093646527" lon="10.514728199063319"><ele>177.83333333333334</ele><time>2026-04-11T12:58:53Z</time></trkpt><trkpt lat="44.61776269263115" lon="10.514757926499094"><ele>177.66666666666669</ele><time>2026-04-11T12:58:54Z</time></trkpt><trkpt lat="44.61769262462458" lon="10.514828771067785"><ele>177.5</ele><time>2026-04-11T12:58:55Z</time></trkpt><trkpt lat="44.6176282436688" lon="10.514899896576276"><ele>177.33333333333334</ele><time>2026-04-11T12:58:56Z</time></trkpt><trkpt lat="44.61756358400822" lon="10.514971911036255"><ele>177.16666666666666</ele><time>2026-04-11T12:58:57Z</time></trkpt><trkpt lat="44.61749597877738" lon="10.515047513442003"><ele>177.0</ele><time>2026-04-11T12:58:58Z</time></trkpt><trkpt lat="44.61742347120165" lon="10.515128598229518"><ele>177.0</ele><time>2026-04-11T12:58:59Z</time></trkpt><trkpt lat="44.61734953071537" lon="10.515215664973438"><ele>177.0</ele><time>2026-04-11T12:59:00Z</time></trkpt><trkpt lat="44.61728585999635" lon="10.51529049266622"><ele>177.0</ele><time>2026-04-11T12:59:01Z</time></trkpt><trkpt lat="44.61722702903811" lon="10.51535963554373"><ele>177.0</ele><time>2026-04-11T12:59:02Z</time></trkpt><trkpt lat="44.61717272685173" lon="10.515451889984101"><ele>177.0</ele><time>2026-04-11T12:59:03Z</time></trkpt><trkpt lat="44.617124834621755" lon="10.51555805265717"><ele>177.0</ele><time>2026-04-11T12:59:04Z</time></trkpt><trkpt lat="44.61708298831249" lon="10.515671904143755"><ele>177.0</ele><time>2026-04-11T12:59:05Z</time></trkpt><trkpt lat="44.617051482877834" lon="10.515786141355106"><ele>177.0</ele><time>2026-04-11T12:59:06Z</time></trkpt><trkpt lat="44.61702238911015" lon="10.51588434463906"><ele>177.0</ele><time>2026-04-11T12:59:07Z</time></trkpt><trkpt lat="44.61699163706637" lon="10.51596873836046"><ele>177.0</ele><time>2026-04-11T12:59:08Z</time></trkpt><trkpt lat="44.616906433578706" lon="10.516089592142187"><ele>177.0</ele><time>2026-04-11T12:59:10Z</time></trkpt><trkpt lat="44.61683801925709" lon="10.516129555654677"><ele>177.0</ele><time>2026-04-11T12:59:11Z</time></trkpt><trkpt lat="44.61675649453875" lon="10.516194468953382"><ele>179.39999999999998</ele><time>2026-04-11T12:59:12Z</time></trkpt><trkpt lat="44.61665002961727" lon="10.516216975330122"><ele>181.79999999999998</ele><time>2026-04-11T12:59:13Z</time></trkpt><trkpt lat="44.616552776915846" lon="10.516281977683924"><ele>184.2</ele><time>2026-04-11T12:59:14Z</time></trkpt><trkpt lat="44.61644597440316" lon="10.516327092254539"><ele>186.6</ele><time>2026-04-11T12:59:15Z</time></trkpt><trkpt lat="44.616334476162486" lon="10.516378785221782"><ele>189.0</ele><time>2026-04-11T12:59:16Z</time></trkpt><trkpt lat="44.61622306153322" lon="10.516439728256149"><ele>192.25</ele><time>2026-04-11T12:59:17Z</time></trkpt><trkpt lat="44.61610973648861" lon="10.51650984687312"><ele>195.5</ele><time>2026-04-11T12:59:18Z</time></trkpt><trkpt lat="44.61599588861315" lon="10.51657420875728"><ele>198.75</ele><time>2026-04-11T12:59:19Z</time></trkpt><trkpt lat="44.615879800924276" lon="10.516646122622669"><ele>202.0</ele><time>2026-04-11T12:59:20Z</time></trkpt><trkpt lat="44.61576327355753" lon="10.5167150047"><ele>202.0</ele><time>2026-04-11T12:59:21Z</time></trkpt><trkpt lat="44.615652317748406" lon="10.516786860166155"><ele>202.0</ele><time>2026-04-11T12:59:22Z</time></trkpt><trkpt lat="44.615545474268856" lon="10.516863377061872"><ele>202.0</ele><time>2026-04-11T12:59:23Z</time></trkpt><trkpt lat="44.615439485107196" lon="10.51693397420406"><ele>202.0</ele><time>2026-04-11T12:59:24Z</time></trkpt><trkpt lat="44.61533595930306" lon="10.517008260844033"><ele>206.25</ele><time>2026-04-11T12:59:25Z</time></trkpt><trkpt lat="44.61523287425636" lon="10.517085217676158"><ele>210.5</ele><time>2026-04-11T12:59:26Z</time></trkpt><trkpt lat="44.61513572513963" lon="10.517180262085457"><ele>214.75</ele><time>2026-04-11T12:59:27Z</time></trkpt><trkpt lat="44.61503804629055" lon="10.51727356151187"><ele>219.0</ele><time>2026-04-11T12:59:28Z</time></trkpt><trkpt lat="44.61495613236929" lon="10.517360248044568"><ele>219.0</ele><time>2026-04-11T12:59:29Z</time></trkpt><trkpt lat="44.614893015192784" lon="10.517423165683018"><ele>218.99999999999997</ele><time>2026-04-11T12:59:30Z</time></trkpt><trkpt lat="44.61478313662714" lon="10.517528539928005"><ele>218.99999999999997</ele><time>2026-04-11T12:59:32Z</time></trkpt><trkpt lat="44.61471364324782" lon="10.517596580677122"><ele>219.0</ele><time>2026-04-11T12:59:33Z</time></trkpt><trkpt lat="44.61463273165656" lon="10.517654515747106"><ele>219.0</ele><time>2026-04-11T12:59:34Z</time></trkpt><trkpt lat="44.614560003238445" lon="10.517721187413365"><ele>221.16666666666666</ele><time>2026-04-11T12:59:35Z</time></trkpt><trkpt lat="44.614478254957184" lon="10.517794495672975"><ele>223.33333333333331</ele><time>2026-04-11T12:59:36Z</time></trkpt><trkpt lat="44.614401243040646" lon="10.517885349023638"><ele>225.5</ele><time>2026-04-11T12:59:37Z</time></trkpt><trkpt lat="44.61433164917086" lon="10.517938890306509"><ele>227.66666666666666</ele><time>2026-04-11T12:59:38Z</time></trkpt><trkpt lat="44.61425438747341" lon="10.517943189769671"><ele>229.83333333333331</ele><time>2026-04-11T12:59:40Z</time></trkpt><trkpt lat="44.61416922703993" lon="10.517942401523664"><ele>232.0</ele><time>2026-04-11T12:59:42Z</time></trkpt><trkpt lat="44.61410575106458" lon="10.517921891062949"><ele>233.2</ele><time>2026-04-11T12:59:43Z</time></trkpt><trkpt lat="44.614033962565124" lon="10.517910993562058"><ele>234.39999999999998</ele><time>2026-04-11T12:59:44Z</time></trkpt><trkpt lat="44.613965959685004" lon="10.517921943917145"><ele>235.60000000000002</ele><time>2026-04-11T12:59:45Z</time></trkpt><trkpt lat="44.613869140164034" lon="10.517949832368684"><ele>236.8</ele><time>2026-04-11T12:59:47Z</time></trkpt><trkpt lat="44.61376648800482" lon="10.517914638729646"><ele>238.0</ele><time>2026-04-11T12:59:49Z</time></trkpt><trkpt lat="44.61366014523623" lon="10.517935604431434"><ele>237.60000000000002</ele><time>2026-04-11T12:59:51Z</time></trkpt><trkpt lat="44.613558349347514" lon="10.517970769405697"><ele>237.20000000000002</ele><time>2026-04-11T12:59:53Z</time></trkpt><trkpt lat="44.6134695063742" lon="10.518048556335486"><ele>236.8</ele><time>2026-04-11T12:59:55Z</time></trkpt><trkpt lat="44.61337695443344" lon="10.518121679760876"><ele>236.4</ele><time>2026-04-11T12:59:57Z</time></trkpt><trkpt lat="44.61326716436389" lon="10.51817618709008"><ele>236.0</ele><time>2026-04-11T12:59:59Z</time></trkpt><trkpt lat="44.61317901840828" lon="10.518240761452434"><ele>236.00000000000003</ele><time>2026-04-11T13:00:01Z</time></trkpt><trkpt lat="44.613076646085425" lon="10.518321204087473"><ele>236.0</ele><time>2026-04-11T13:00:03Z</time></trkpt><trkpt lat="44.613020182470486" lon="10.518372192313377"><ele>236.0</ele><time>2026-04-11T13:00:04Z</time></trkpt><trkpt lat="44.61290957178893" lon="10.518452803722537"><ele>236.0</ele><time>2026-04-11T13:00:06Z</time></trkpt><trkpt lat="44.612846767779985" lon="10.518470752892563"><ele>236.00000000000003</ele><time>2026-04-11T13:00:07Z</time></trkpt><trkpt lat="44.61278365556465" lon="10.51847336330424"><ele>236.0</ele><time>2026-04-11T13:00:08Z</time></trkpt><trkpt lat="44.61271990615068" lon="10.518475793077204"><ele>235.42857142857142</ele><time>2026-04-11T13:00:09Z</time></trkpt><trkpt lat="44.61265296678898" lon="10.51847423374182"><ele>234.8571428571429</ele><time>2026-04-11T13:00:10Z</time></trkpt><trkpt lat="44.612588761376934" lon="10.518467534016978"><ele>234.2857142857143</ele><time>2026-04-11T13:00:11Z</time></trkpt><trkpt lat="44.61252112713478" lon="10.518477734275823"><ele>233.71428571428572</ele><time>2026-04-11T13:00:12Z</time></trkpt><trkpt lat="44.61245549428767" lon="10.518466526287982"><ele>233.14285714285717</ele><time>2026-04-11T13:00:13Z</time></trkpt><trkpt lat="44.61239254666248" lon="10.518452117628154"><ele>232.5714285714286</ele><time>2026-04-11T13:00:14Z</time></trkpt><trkpt lat="44.612329287691345" lon="10.518438645110038"><ele>232.00000000000003</ele><time>2026-04-11T13:00:15Z</time></trkpt><trkpt lat="44.61220764236939" lon="10.518429435605391"><ele>232.0</ele><time>2026-04-11T13:00:17Z</time></trkpt><trkpt lat="44.612088074711224" lon="10.51842803184158"><ele>232.0</ele><time>2026-04-11T13:00:19Z</time></trkpt><trkpt lat="44.611970567771756" lon="10.518429205495625"><ele>232.0</ele><time>2026-04-11T13:00:21Z</time></trkpt><trkpt lat="44.61185465122925" lon="10.518414722662662"><ele>232.0</ele><time>2026-04-11T13:00:23Z</time></trkpt><trkpt lat="44.61178548933951" lon="10.51840259118112"><ele>232.0</ele><time>2026-04-11T13:00:24Z</time></trkpt><trkpt lat="44.6117144125662" lon="10.518395092860118"><ele>230.5714285714286</ele><time>2026-04-11T13:00:25Z</time></trkpt><trkpt lat="44.61164579603798" lon="10.518393206865232"><ele>229.14285714285717</ele><time>2026-04-11T13:00:26Z</time></trkpt><trkpt lat="44.611578218540124" lon="10.518396321268412"><ele>227.71428571428572</ele><time>2026-04-11T13:00:27Z</time></trkpt><trkpt lat="44.61151488819087" lon="10.518406816384758"><ele>226.2857142857143</ele><time>2026-04-11T13:00:28Z</time></trkpt><trkpt lat="44.61139763498241" lon="10.518420244243172"><ele>224.8571428571429</ele><time>2026-04-11T13:00:30Z</time></trkpt><trkpt lat="44.611334427705124" lon="10.518408730810421"><ele>223.42857142857142</ele><time>2026-04-11T13:00:31Z</time></trkpt><trkpt lat="44.61127198701763" lon="10.518440237441665"><ele>222.0</ele><time>2026-04-11T13:00:32Z</time></trkpt><trkpt lat="44.611206125998166" lon="10.51844776909533"><ele>222.0</ele><time>2026-04-11T13:00:33Z</time></trkpt><trkpt lat="44.61114177958868" lon="10.518468173356098"><ele>222.0</ele><time>2026-04-11T13:00:34Z</time></trkpt><trkpt lat="44.61108111719724" lon="10.518501972053112"><ele>222.0</ele><time>2026-04-11T13:00:35Z</time></trkpt><trkpt lat="44.61096349644266" lon="10.518585970830783"><ele>222.0</ele><time>2026-04-11T13:00:37Z</time></trkpt><trkpt lat="44.610924912564954" lon="10.51867544881076"><ele>222.0</ele><time>2026-04-11T13:00:38Z</time></trkpt><trkpt lat="44.61088551922379" lon="10.518766646166544"><ele>222.0</ele><time>2026-04-11T13:00:39Z</time></trkpt><trkpt lat="44.610839311245336" lon="10.518862878605638"><ele>221.66666666666666</ele><time>2026-04-11T13:00:40Z</time></trkpt><trkpt lat="44.6108092323296" lon="10.51896200464116"><ele>221.33333333333331</ele><time>2026-04-11T13:00:41Z</time></trkpt><trkpt lat="44.610781692711065" lon="10.519062165902042"><ele>221.0</ele><time>2026-04-11T13:00:42Z</time></trkpt><trkpt lat="44.610755325960824" lon="10.519160729501648"><ele>220.66666666666666</ele><time>2026-04-11T13:00:43Z</time></trkpt><trkpt lat="44.61072650409565" lon="10.519264963063836"><ele>220.33333333333331</ele><time>2026-04-11T13:00:44Z</time></trkpt><trkpt lat="44.61069725149453" lon="10.519361656761891"><ele>220.0</ele><time>2026-04-11T13:00:45Z</time></trkpt><trkpt lat="44.61066597731314" lon="10.519459886991205"><ele>219.99999999999997</ele><time>2026-04-11T13:00:46Z</time></trkpt><trkpt lat="44.610635028795116" lon="10.519557093998399"><ele>220.0</ele><time>2026-04-11T13:00:47Z</time></trkpt><trkpt lat="44.61060598362007" lon="10.519651487297613"><ele>220.0</ele><time>2026-04-11T13:00:48Z</time></trkpt><trkpt lat="44.61057913544917" lon="10.519748725795775"><ele>220.0</ele><time>2026-04-11T13:00:49Z</time></trkpt><trkpt lat="44.61056154998839" lon="10.519844465139084"><ele>220.0</ele><time>2026-04-11T13:00:50Z</time></trkpt><trkpt lat="44.61055181907169" lon="10.519931907416833"><ele>219.99999999999997</ele><time>2026-04-11T13:00:51Z</time></trkpt><trkpt lat="44.61053339002583" lon="10.520053861345414"><ele>220.0</ele><time>2026-04-11T13:00:53Z</time></trkpt><trkpt lat="44.61047302433145" lon="10.520168233573308"><ele>220.49999999999997</ele><time>2026-04-11T13:00:55Z</time></trkpt><trkpt lat="44.61036576427561" lon="10.520236206472399"><ele>221.0</ele><time>2026-04-11T13:00:57Z</time></trkpt><trkpt lat="44.610299579972946" lon="10.520270578049633"><ele>221.5</ele><time>2026-04-11T13:00:58Z</time></trkpt><trkpt lat="44.61023510999417" lon="10.520304648856033"><ele>222.0</ele><time>2026-04-11T13:00:59Z</time></trkpt><trkpt lat="44.61016513165428" lon="10.520335785954302"><ele>222.49999999999997</ele><time>2026-04-11T13:01:00Z</time></trkpt><trkpt lat="44.610085619264574" lon="10.520385477479639"><ele>223.0</ele><time>2026-04-11T13:01:01Z</time></trkpt><trkpt lat="44.610013611534484" lon="10.520457832297412"><ele>226.16666666666666</ele><time>2026-04-11T13:01:02Z</time></trkpt><trkpt lat="44.60995331829204" lon="10.520524181618102"><ele>229.33333333333331</ele><time>2026-04-11T13:01:03Z</time></trkpt><trkpt lat="44.60989549851249" lon="10.520589443696368"><ele>232.5</ele><time>2026-04-11T13:01:04Z</time></trkpt><trkpt lat="44.609836689547734" lon="10.520654949042934"><ele>235.66666666666669</ele><time>2026-04-11T13:01:05Z</time></trkpt><trkpt lat="44.60977812569669" lon="10.520719489858651"><ele>238.83333333333334</ele><time>2026-04-11T13:01:06Z</time></trkpt><trkpt lat="44.60971587295682" lon="10.52078809585599"><ele>242.0</ele><time>2026-04-11T13:01:07Z</time></trkpt><trkpt lat="44.609659021075785" lon="10.52084766385894"><ele>242.00000000000003</ele><time>2026-04-11T13:01:08Z</time></trkpt><trkpt lat="44.60959896197425" lon="10.520906438445486"><ele>242.0</ele><time>2026-04-11T13:01:09Z</time></trkpt><trkpt lat="44.6095411103669" lon="10.52096164494905"><ele>242.0</ele><time>2026-04-11T13:01:10Z</time></trkpt><trkpt lat="44.60948184151198" lon="10.521014423419327"><ele>242.0</ele><time>2026-04-11T13:01:11Z</time></trkpt><trkpt lat="44.60937758225707" lon="10.521106180945756"><ele>242.00000000000003</ele><time>2026-04-11T13:01:13Z</time></trkpt><trkpt lat="44.60928439090249" lon="10.521182352061121"><ele>242.0</ele><time>2026-04-11T13:01:15Z</time></trkpt><trkpt lat="44.60922834539118" lon="10.521293810363339"><ele>242.66666666666669</ele><time>2026-04-11T13:01:17Z</time></trkpt><trkpt lat="44.609240591764895" lon="10.521402190932044"><ele>243.33333333333334</ele><time>2026-04-11T13:01:20Z</time></trkpt><trkpt lat="44.609147987657614" lon="10.521412569522658"><ele>244.0</ele><time>2026-04-11T13:01:23Z</time></trkpt><trkpt lat="44.60906601671123" lon="10.521450957619843"><ele>244.66666666666669</ele><time>2026-04-11T13:01:26Z</time></trkpt><trkpt lat="44.609004342133844" lon="10.521481158511238"><ele>245.33333333333334</ele><time>2026-04-11T13:01:30Z</time></trkpt><trkpt lat="44.608945125681956" lon="10.521511958605455"><ele>246.0</ele><time>2026-04-11T13:01:35Z</time></trkpt><trkpt lat="44.60885786737237" lon="10.521560296983985"><ele>246.0</ele><time>2026-04-11T13:01:42Z</time></trkpt><trkpt lat="44.60876709817435" lon="10.521614023908008"><ele>246.00000000000003</ele><time>2026-04-11T13:01:44Z</time></trkpt><trkpt lat="44.60866234311632" lon="10.521679371061861"><ele>246.00000000000003</ele><time>2026-04-11T13:01:46Z</time></trkpt><trkpt lat="44.60856128613592" lon="10.52175231221747"><ele>246.0</ele><time>2026-04-11T13:01:48Z</time></trkpt><trkpt lat="44.60846228171859" lon="10.521810575829639"><ele>246.0</ele><time>2026-04-11T13:01:50Z</time></trkpt><trkpt lat="44.60836174466107" lon="10.521851188025021"><ele>243.5</ele><time>2026-04-11T13:01:52Z</time></trkpt><trkpt lat="44.608253296427534" lon="10.521930901125774"><ele>241.0</ele><time>2026-04-11T13:01:54Z</time></trkpt><trkpt lat="44.6082022691751" lon="10.522015974854172"><ele>238.5</ele><time>2026-04-11T13:01:55Z</time></trkpt><trkpt lat="44.608160265119125" lon="10.52211618517002"><ele>236.0</ele><time>2026-04-11T13:01:56Z</time></trkpt><trkpt lat="44.60812088230029" lon="10.522220084184656"><ele>233.5</ele><time>2026-04-11T13:01:57Z</time></trkpt><trkpt lat="44.608083312447135" lon="10.52232079679176"><ele>231.0</ele><time>2026-04-11T13:01:58Z</time></trkpt><trkpt lat="44.60804475427086" lon="10.52242415896735"><ele>229.83333333333334</ele><time>2026-04-11T13:01:59Z</time></trkpt><trkpt lat="44.60800664305663" lon="10.52252519604807"><ele>228.66666666666669</ele><time>2026-04-11T13:02:00Z</time></trkpt><trkpt lat="44.60796424931691" lon="10.522628546127088"><ele>227.5</ele><time>2026-04-11T13:02:01Z</time></trkpt><trkpt lat="44.60791999056246" lon="10.522718106583246"><ele>226.33333333333334</ele><time>2026-04-11T13:02:02Z</time></trkpt><trkpt lat="44.60788919661301" lon="10.52281181732156"><ele>225.16666666666669</ele><time>2026-04-11T13:02:03Z</time></trkpt><trkpt lat="44.6078423570559" lon="10.52289365675414"><ele>224.0</ele><time>2026-04-11T13:02:04Z</time></trkpt><trkpt lat="44.607786259473954" lon="10.52297015387222"><ele>220.66666666666669</ele><time>2026-04-11T13:02:05Z</time></trkpt><trkpt lat="44.60774583551069" lon="10.523070580505156"><ele>217.33333333333334</ele><time>2026-04-11T13:02:06Z</time></trkpt><trkpt lat="44.60771382114307" lon="10.523179594654279"><ele>214.0</ele><time>2026-04-11T13:02:07Z</time></trkpt><trkpt lat="44.60768465346154" lon="10.523284096755159"><ele>210.66666666666669</ele><time>2026-04-11T13:02:08Z</time></trkpt><trkpt lat="44.60765415254352" lon="10.523389059022334"><ele>207.33333333333334</ele><time>2026-04-11T13:02:09Z</time></trkpt><trkpt lat="44.607621219869074" lon="10.523495527719323"><ele>204.0</ele><time>2026-04-11T13:02:10Z</time></trkpt><trkpt lat="44.607584737726576" lon="10.523596044483861"><ele>204.0</ele><time>2026-04-11T13:02:11Z</time></trkpt><trkpt lat="44.60754201513852" lon="10.523686565523734"><ele>204.0</ele><time>2026-04-11T13:02:12Z</time></trkpt><trkpt lat="44.60750012164598" lon="10.523776963427323"><ele>204.0</ele><time>2026-04-11T13:02:13Z</time></trkpt><trkpt lat="44.60745559092362" lon="10.523863922596416"><ele>204.0</ele><time>2026-04-11T13:02:14Z</time></trkpt><trkpt lat="44.60740716673394" lon="10.523947703072697"><ele>204.0</ele><time>2026-04-11T13:02:15Z</time></trkpt><trkpt lat="44.607353297846274" lon="10.52403050107769"><ele>204.0</ele><time>2026-04-11T13:02:16Z</time></trkpt><trkpt lat="44.60729195673541" lon="10.52411523912597"><ele>203.5</ele><time>2026-04-11T13:02:17Z</time></trkpt><trkpt lat="44.60722514354427" lon="10.524192485003491"><ele>203.0</ele><time>2026-04-11T13:02:18Z</time></trkpt><trkpt lat="44.60716179928921" lon="10.524267616697697"><ele>202.5</ele><time>2026-04-11T13:02:19Z</time></trkpt><trkpt lat="44.60710743532341" lon="10.52433643778756"><ele>202.0</ele><time>2026-04-11T13:02:20Z</time></trkpt><trkpt lat="44.607052836219836" lon="10.52440440226636"><ele>201.5</ele><time>2026-04-11T13:02:21Z</time></trkpt><trkpt lat="44.60699273554843" lon="10.524474343672143"><ele>201.0</ele><time>2026-04-11T13:02:22Z</time></trkpt><trkpt lat="44.606928078495415" lon="10.52453045703944"><ele>199.5</ele><time>2026-04-11T13:02:23Z</time></trkpt><trkpt lat="44.606859768322444" lon="10.52455444393927"><ele>198.0</ele><time>2026-04-11T13:02:24Z</time></trkpt><trkpt lat="44.60678727764405" lon="10.524546610043018"><ele>196.5</ele><time>2026-04-11T13:02:25Z</time></trkpt><trkpt lat="44.606714033773095" lon="10.524521888366845"><ele>195.0</ele><time>2026-04-11T13:02:26Z</time></trkpt><trkpt lat="44.60664654267036" lon="10.524491330532072"><ele>193.5</ele><time>2026-04-11T13:02:27Z</time></trkpt><trkpt lat="44.606541980196596" lon="10.524450645293104"><ele>192.0</ele><time>2026-04-11T13:02:29Z</time></trkpt><trkpt lat="44.6064783605458" lon="10.524450626759181"><ele>192.0</ele><time>2026-04-11T13:02:32Z</time></trkpt><trkpt lat="44.606418017554994" lon="10.524477589419428"><ele>192.0</ele><time>2026-04-11T13:02:50Z</time></trkpt><trkpt lat="44.606448681277" lon="10.52470628450923"><ele>192.0</ele><time>2026-04-11T13:02:51Z</time></trkpt><trkpt lat="44.60647578388651" lon="10.524871258736027"><ele>192.0</ele><time>2026-04-11T13:02:53Z</time></trkpt><trkpt lat="44.60649018232174" lon="10.524964764199563"><ele>192.0</ele><time>2026-04-11T13:02:54Z</time></trkpt><trkpt lat="44.606506835873375" lon="10.525064749885154"><ele>191.83333333333334</ele><time>2026-04-11T13:02:55Z</time></trkpt><trkpt lat="44.60652232926517" lon="10.52517071506586"><ele>191.66666666666666</ele><time>2026-04-11T13:02:56Z</time></trkpt><trkpt lat="44.60653731551308" lon="10.525281325239128"><ele>191.5</ele><time>2026-04-11T13:02:57Z</time></trkpt><trkpt lat="44.60655183654347" lon="10.525398215825762"><ele>191.33333333333331</ele><time>2026-04-11T13:02:58Z</time></trkpt><trkpt lat="44.60656684641343" lon="10.525519689950738"><ele>191.16666666666666</ele><time>2026-04-11T13:02:59Z</time></trkpt><trkpt lat="44.606584656289336" lon="10.525640991915635"><ele>191.0</ele><time>2026-04-11T13:03:00Z</time></trkpt><trkpt lat="44.60660013109615" lon="10.52574569583693"><ele>190.60000000000002</ele><time>2026-04-11T13:03:01Z</time></trkpt><trkpt lat="44.606613069136976" lon="10.525854157067881"><ele>190.2</ele><time>2026-04-11T13:03:02Z</time></trkpt><trkpt lat="44.606630223311065" lon="10.52599270834413"><ele>189.8</ele><time>2026-04-11T13:03:03Z</time></trkpt><trkpt lat="44.60664605968882" lon="10.526124500429718"><ele>189.39999999999998</ele><time>2026-04-11T13:03:04Z</time></trkpt><trkpt lat="44.60666655881629" lon="10.526266813790057"><ele>189.0</ele><time>2026-04-11T13:03:05Z</time></trkpt><trkpt lat="44.60667508772926" lon="10.526424187526278"><ele>188.5</ele><time>2026-04-11T13:03:06Z</time></trkpt><trkpt lat="44.60669738431432" lon="10.526587004473619"><ele>188.0</ele><time>2026-04-11T13:03:07Z</time></trkpt><trkpt lat="44.60671937392407" lon="10.526756482054568"><ele>187.5</ele><time>2026-04-11T13:03:08Z</time></trkpt><trkpt lat="44.60674207013862" lon="10.526936944502138"><ele>187.0</ele><time>2026-04-11T13:03:09Z</time></trkpt><trkpt lat="44.606780092776816" lon="10.527124561391497"><ele>186.5</ele><time>2026-04-11T13:03:10Z</time></trkpt><trkpt lat="44.60680198829279" lon="10.527325774061504"><ele>186.0</ele><time>2026-04-11T13:03:11Z</time></trkpt><trkpt lat="44.60680760013916" lon="10.527536610102663"><ele>185.5</ele><time>2026-04-11T13:03:12Z</time></trkpt><trkpt lat="44.60682885105515" lon="10.527746888508798"><ele>185.0</ele><time>2026-04-11T13:03:13Z</time></trkpt><trkpt lat="44.60684838501623" lon="10.527954401453774"><ele>184.33333333333331</ele><time>2026-04-11T13:03:14Z</time></trkpt><trkpt lat="44.606867834358845" lon="10.528165317773091"><ele>183.66666666666666</ele><time>2026-04-11T13:03:15Z</time></trkpt><trkpt lat="44.60688694825862" lon="10.528378138241154"><ele>183.0</ele><time>2026-04-11T13:03:16Z</time></trkpt><trkpt lat="44.606922714900534" lon="10.528593300279594"><ele>183.0</ele><time>2026-04-11T13:03:17Z</time></trkpt><trkpt lat="44.606926871474286" lon="10.52881615344474"><ele>183.0</ele><time>2026-04-11T13:03:18Z</time></trkpt><trkpt lat="44.60694826419667" lon="10.529036804025164"><ele>183.0</ele><time>2026-04-11T13:03:19Z</time></trkpt><trkpt lat="44.606969819990645" lon="10.529259219231964"><ele>185.33333333333334</ele><time>2026-04-11T13:03:20Z</time></trkpt><trkpt lat="44.60700790067502" lon="10.529480749952638"><ele>187.66666666666669</ele><time>2026-04-11T13:03:21Z</time></trkpt><trkpt lat="44.60702815417768" lon="10.52970793297041"><ele>190.0</ele><time>2026-04-11T13:03:22Z</time></trkpt><trkpt lat="44.60704984421159" lon="10.529938449103955"><ele>190.0</ele><time>2026-04-11T13:03:23Z</time></trkpt><trkpt lat="44.60707003677536" lon="10.530172972112055"><ele>190.0</ele><time>2026-04-11T13:03:24Z</time></trkpt><trkpt lat="44.6070903518055" lon="10.530405664106516"><ele>190.0</ele><time>2026-04-11T13:03:25Z</time></trkpt><trkpt lat="44.60711033784707" lon="10.530636136608738"><ele>190.33333333333334</ele><time>2026-04-11T13:03:26Z</time></trkpt><trkpt lat="44.607131168185376" lon="10.530863388440306"><ele>190.66666666666666</ele><time>2026-04-11T13:03:27Z</time></trkpt><trkpt lat="44.60715034920601" lon="10.531082513478278"><ele>191.0</ele><time>2026-04-11T13:03:28Z</time></trkpt><trkpt lat="44.607165952159995" lon="10.531298350893959"><ele>191.0</ele><time>2026-04-11T13:03:29Z</time></trkpt><trkpt lat="44.607179030056976" lon="10.531512674877963"><ele>191.0</ele><time>2026-04-11T13:03:30Z</time></trkpt><trkpt lat="44.60719250055201" lon="10.531718518483641"><ele>191.0</ele><time>2026-04-11T13:03:31Z</time></trkpt><trkpt lat="44.60720460079145" lon="10.531917433501444"><ele>191.0</ele><time>2026-04-11T13:03:32Z</time></trkpt><trkpt lat="44.607216499556564" lon="10.53211302365919"><ele>190.75</ele><time>2026-04-11T13:03:33Z</time></trkpt><trkpt lat="44.60723098069981" lon="10.532304449218481"><ele>190.5</ele><time>2026-04-11T13:03:34Z</time></trkpt><trkpt lat="44.607246738246594" lon="10.532491871344485"><ele>190.25</ele><time>2026-04-11T13:03:35Z</time></trkpt><trkpt lat="44.607258292540244" lon="10.532672850128627"><ele>190.0</ele><time>2026-04-11T13:03:36Z</time></trkpt><trkpt lat="44.60727169938458" lon="10.532846020578397"><ele>190.0</ele><time>2026-04-11T13:03:37Z</time></trkpt><trkpt lat="44.60728354526614" lon="10.533020640681434"><ele>190.0</ele><time>2026-04-11T13:03:38Z</time></trkpt><trkpt lat="44.60729398038009" lon="10.533196980397713"><ele>190.0</ele><time>2026-04-11T13:03:39Z</time></trkpt><trkpt lat="44.60730595451892" lon="10.53337749433009"><ele>190.0</ele><time>2026-04-11T13:03:40Z</time></trkpt><trkpt lat="44.6073184049036" lon="10.533560940037628"><ele>189.75</ele><time>2026-04-11T13:03:41Z</time></trkpt><trkpt lat="44.60733093081493" lon="10.533748240462423"><ele>189.5</ele><time>2026-04-11T13:03:42Z</time></trkpt><trkpt lat="44.60732985326796" lon="10.533936679070587"><ele>189.25</ele><time>2026-04-11T13:03:43Z</time></trkpt><trkpt lat="44.6073441634629" lon="10.534125089719012"><ele>189.0</ele><time>2026-04-11T13:03:44Z</time></trkpt><trkpt lat="44.60735837333691" lon="10.534307848950778"><ele>189.0</ele><time>2026-04-11T13:03:45Z</time></trkpt><trkpt lat="44.60737227046331" lon="10.534477376858115"><ele>189.0</ele><time>2026-04-11T13:03:46Z</time></trkpt><trkpt lat="44.60738624041659" lon="10.53464515329582"><ele>189.0</ele><time>2026-04-11T13:03:47Z</time></trkpt><trkpt lat="44.60740192909183" lon="10.534814193140763"><ele>189.0</ele><time>2026-04-11T13:03:48Z</time></trkpt><trkpt lat="44.607419666372124" lon="10.534983251808912"><ele>188.25</ele><time>2026-04-11T13:03:49Z</time></trkpt><trkpt lat="44.60743940845971" lon="10.535149742268144"><ele>187.5</ele><time>2026-04-11T13:03:50Z</time></trkpt><trkpt lat="44.60746660903193" lon="10.535318179781347"><ele>186.75</ele><time>2026-04-11T13:03:51Z</time></trkpt><trkpt lat="44.60749444313254" lon="10.535489057667094"><ele>186.0</ele><time>2026-04-11T13:03:52Z</time></trkpt><trkpt lat="44.607524956378924" lon="10.535656843443427"><ele>186.0</ele><time>2026-04-11T13:03:53Z</time></trkpt><trkpt lat="44.607554507514074" lon="10.53581933874057"><ele>186.0</ele><time>2026-04-11T13:03:54Z</time></trkpt><trkpt lat="44.60758151140582" lon="10.535968410816714"><ele>186.0</ele><time>2026-04-11T13:03:55Z</time></trkpt><trkpt lat="44.60762243206119" lon="10.53610622464441"><ele>186.0</ele><time>2026-04-11T13:03:56Z</time></trkpt><trkpt lat="44.60764651132755" lon="10.53625448430328"><ele>186.0</ele><time>2026-04-11T13:03:57Z</time></trkpt><trkpt lat="44.607671098576404" lon="10.536398187879803"><ele>186.0</ele><time>2026-04-11T13:03:58Z</time></trkpt><trkpt lat="44.60769924779487" lon="10.536538280829609"><ele>186.0</ele><time>2026-04-11T13:03:59Z</time></trkpt><trkpt lat="44.60771036643605" lon="10.536692353800108"><ele>186.0</ele><time>2026-04-11T13:04:00Z</time></trkpt><trkpt lat="44.6077381748058" lon="10.53685049642344"><ele>186.0</ele><time>2026-04-11T13:04:01Z</time></trkpt><trkpt lat="44.60776709830095" lon="10.53701505688529"><ele>185.20000000000002</ele><time>2026-04-11T13:04:02Z</time></trkpt><trkpt lat="44.60779518638763" lon="10.537177101247542"><ele>184.4</ele><time>2026-04-11T13:04:03Z</time></trkpt><trkpt lat="44.60782200865594" lon="10.537331566408067"><ele>183.6</ele><time>2026-04-11T13:04:04Z</time></trkpt><trkpt lat="44.607847273244246" lon="10.537473671288382"><ele>182.8</ele><time>2026-04-11T13:04:05Z</time></trkpt><trkpt lat="44.60787639254393" lon="10.537615553723949"><ele>182.0</ele><time>2026-04-11T13:04:06Z</time></trkpt><trkpt lat="44.60790941542759" lon="10.53775161873754"><ele>183.0</ele><time>2026-04-11T13:04:07Z</time></trkpt><trkpt lat="44.607946290429275" lon="10.537889291766149"><ele>184.0</ele><time>2026-04-11T13:04:08Z</time></trkpt><trkpt lat="44.60798713232996" lon="10.538035268899728"><ele>185.0</ele><time>2026-04-11T13:04:09Z</time></trkpt><trkpt lat="44.60803086769185" lon="10.538190531879456"><ele>186.0</ele><time>2026-04-11T13:04:10Z</time></trkpt><trkpt lat="44.60809159696389" lon="10.53834638837275"><ele>186.0</ele><time>2026-04-11T13:04:11Z</time></trkpt><trkpt lat="44.608137567089976" lon="10.538513675810668"><ele>186.0</ele><time>2026-04-11T13:04:12Z</time></trkpt><trkpt lat="44.608184857793105" lon="10.538682111399305"><ele>186.0</ele><time>2026-04-11T13:04:13Z</time></trkpt><trkpt lat="44.60822603870807" lon="10.538853211084554"><ele>186.0</ele><time>2026-04-11T13:04:14Z</time></trkpt><trkpt lat="44.60826507547127" lon="10.539019137021377"><ele>185.0</ele><time>2026-04-11T13:04:15Z</time></trkpt><trkpt lat="44.6083040140463" lon="10.539190279513473"><ele>184.0</ele><time>2026-04-11T13:04:16Z</time></trkpt><trkpt lat="44.60835035794518" lon="10.539361108056667"><ele>183.0</ele><time>2026-04-11T13:04:17Z</time></trkpt><trkpt lat="44.60839591379189" lon="10.539526032381819"><ele>182.0</ele><time>2026-04-11T13:04:18Z</time></trkpt><trkpt lat="44.60844920505347" lon="10.539689758773648"><ele>181.5</ele><time>2026-04-11T13:04:19Z</time></trkpt><trkpt lat="44.608512180797895" lon="10.539857489601397"><ele>181.0</ele><time>2026-04-11T13:04:20Z</time></trkpt><trkpt lat="44.60857172973109" lon="10.540020752289372"><ele>180.5</ele><time>2026-04-11T13:04:21Z</time></trkpt><trkpt lat="44.60863931364608" lon="10.540179103368327"><ele>180.0</ele><time>2026-04-11T13:04:22Z</time></trkpt><trkpt lat="44.608704981661944" lon="10.5403443061018"><ele>181.0</ele><time>2026-04-11T13:04:23Z</time></trkpt><trkpt lat="44.60877169303584" lon="10.54051243090425"><ele>182.0</ele><time>2026-04-11T13:04:24Z</time></trkpt><trkpt lat="44.608832831464575" lon="10.540685610669817"><ele>183.0</ele><time>2026-04-11T13:04:25Z</time></trkpt><trkpt lat="44.60888159232078" lon="10.540857588624494"><ele>184.0</ele><time>2026-04-11T13:04:26Z</time></trkpt><trkpt lat="44.60892522107037" lon="10.54101743632652"><ele>184.0</ele><time>2026-04-11T13:04:27Z</time></trkpt><trkpt lat="44.608969362433484" lon="10.541170514840465"><ele>184.0</ele><time>2026-04-11T13:04:28Z</time></trkpt><trkpt lat="44.6090159536843" lon="10.541327320888453"><ele>184.0</ele><time>2026-04-11T13:04:29Z</time></trkpt><trkpt lat="44.60905890671527" lon="10.541491670373734"><ele>184.0</ele><time>2026-04-11T13:04:30Z</time></trkpt><trkpt lat="44.60907691367154" lon="10.541669893410017"><ele>183.25</ele><time>2026-04-11T13:04:31Z</time></trkpt><trkpt lat="44.609095523909026" lon="10.541844794512569"><ele>182.5</ele><time>2026-04-11T13:04:32Z</time></trkpt><trkpt lat="44.60910092694815" lon="10.542021814196767"><ele>181.75</ele><time>2026-04-11T13:04:33Z</time></trkpt><trkpt lat="44.60910651272878" lon="10.542204157107518"><ele>181.0</ele><time>2026-04-11T13:04:34Z</time></trkpt><trkpt lat="44.609109180665484" lon="10.542381815637514"><ele>180.25</ele><time>2026-04-11T13:04:35Z</time></trkpt><trkpt lat="44.60912596131257" lon="10.542560081018662"><ele>179.5</ele><time>2026-04-11T13:04:36Z</time></trkpt><trkpt lat="44.6091329317298" lon="10.542742323716626"><ele>178.75</ele><time>2026-04-11T13:04:37Z</time></trkpt><trkpt lat="44.60913831576081" lon="10.542923361239602"><ele>178.0</ele><time>2026-04-11T13:04:38Z</time></trkpt><trkpt lat="44.609125793685045" lon="10.543106416132302"><ele>177.25</ele><time>2026-04-11T13:04:39Z</time></trkpt><trkpt lat="44.60912826414389" lon="10.543293250366489"><ele>176.5</ele><time>2026-04-11T13:04:40Z</time></trkpt><trkpt lat="44.60913096649744" lon="10.54348106402639"><ele>175.75</ele><time>2026-04-11T13:04:41Z</time></trkpt><trkpt lat="44.60913683667951" lon="10.543670173283454"><ele>175.0</ele><time>2026-04-11T13:04:42Z</time></trkpt><trkpt lat="44.60915284485604" lon="10.543851765561968"><ele>174.25</ele><time>2026-04-11T13:04:43Z</time></trkpt><trkpt lat="44.60919705384741" lon="10.544025322138596"><ele>173.5</ele><time>2026-04-11T13:04:44Z</time></trkpt><trkpt lat="44.60923149400434" lon="10.544197036904635"><ele>172.75</ele><time>2026-04-11T13:04:45Z</time></trkpt><trkpt lat="44.60926775497943" lon="10.544368491958728"><ele>172.0</ele><time>2026-04-11T13:04:46Z</time></trkpt><trkpt lat="44.60930295337191" lon="10.544538301445343"><ele>171.39999999999998</ele><time>2026-04-11T13:04:47Z</time></trkpt><trkpt lat="44.60934465765293" lon="10.544697512156146"><ele>170.79999999999998</ele><time>2026-04-11T13:04:48Z</time></trkpt><trkpt lat="44.609363986155365" lon="10.54485629689015"><ele>170.2</ele><time>2026-04-11T13:04:49Z</time></trkpt><trkpt lat="44.60939515439408" lon="10.544999825665847"><ele>169.6</ele><time>2026-04-11T13:04:50Z</time></trkpt><trkpt lat="44.609422895725686" lon="10.545128394574983"><ele>169.0</ele><time>2026-04-11T13:04:51Z</time></trkpt><trkpt lat="44.60945707557459" lon="10.545245665002097"><ele>169.0</ele><time>2026-04-11T13:04:52Z</time></trkpt><trkpt lat="44.60945108022452" lon="10.545378051885587"><ele>169.0</ele><time>2026-04-11T13:04:53Z</time></trkpt><trkpt lat="44.609457956556746" lon="10.545471493324703"><ele>169.0</ele><time>2026-04-11T13:04:54Z</time></trkpt><trkpt lat="44.60930892666955" lon="10.545575824827162"><ele>169.0</ele><time>2026-04-11T13:04:55Z</time></trkpt><trkpt lat="44.609222053965524" lon="10.545663796724378"><ele>169.0</ele><time>2026-04-11T13:04:56Z</time></trkpt><trkpt lat="44.60913276757878" lon="10.545758133923098"><ele>168.25</ele><time>2026-04-11T13:04:57Z</time></trkpt><trkpt lat="44.609037597558874" lon="10.545859189934859"><ele>167.5</ele><time>2026-04-11T13:04:58Z</time></trkpt><trkpt lat="44.60893948352201" lon="10.545963372061747"><ele>166.75</ele><time>2026-04-11T13:04:59Z</time></trkpt><trkpt lat="44.60884023109082" lon="10.546068762959802"><ele>166.0</ele><time>2026-04-11T13:05:00Z</time></trkpt><trkpt lat="44.60874284770159" lon="10.546172595026459"><ele>165.4</ele><time>2026-04-11T13:05:01Z</time></trkpt><trkpt lat="44.608650858325035" lon="10.546270744649192"><ele>164.8</ele><time>2026-04-11T13:05:02Z</time></trkpt><trkpt lat="44.60857317894763" lon="10.54638179189805"><ele>164.20000000000002</ele><time>2026-04-11T13:05:03Z</time></trkpt><trkpt lat="44.60849192587348" lon="10.546440320194435"><ele>163.60000000000002</ele><time>2026-04-11T13:05:04Z</time></trkpt><trkpt lat="44.608436753163474" lon="10.546527674084698"><ele>163.0</ele><time>2026-04-11T13:05:05Z</time></trkpt><trkpt lat="44.60836875799435" lon="10.546592509392145"><ele>163.0</ele><time>2026-04-11T13:05:06Z</time></trkpt><trkpt lat="44.608287809276504" lon="10.54667876755183"><ele>163.0</ele><time>2026-04-11T13:05:07Z</time></trkpt><trkpt lat="44.60818728078181" lon="10.546761263758262"><ele>163.0</ele><time>2026-04-11T13:05:08Z</time></trkpt><trkpt lat="44.60811158772845" lon="10.546902348341343"><ele>163.0</ele><time>2026-04-11T13:05:09Z</time></trkpt><trkpt lat="44.60804626623562" lon="10.547059863702302"><ele>163.0</ele><time>2026-04-11T13:05:10Z</time></trkpt><trkpt lat="44.608007320880134" lon="10.547237242939659"><ele>163.0</ele><time>2026-04-11T13:05:11Z</time></trkpt><trkpt lat="44.60799257485588" lon="10.547426846288104"><ele>163.0</ele><time>2026-04-11T13:05:12Z</time></trkpt><trkpt lat="44.607965795629596" lon="10.54762660845828"><ele>163.0</ele><time>2026-04-11T13:05:13Z</time></trkpt><trkpt lat="44.607971774221696" lon="10.547821442931282"><ele>162.25</ele><time>2026-04-11T13:05:14Z</time></trkpt><trkpt lat="44.607964085977216" lon="10.548014237266873"><ele>161.5</ele><time>2026-04-11T13:05:15Z</time></trkpt><trkpt lat="44.60795523895924" lon="10.54819998151638"><ele>160.75</ele><time>2026-04-11T13:05:16Z</time></trkpt><trkpt lat="44.60794383520921" lon="10.548374145669353"><ele>160.0</ele><time>2026-04-11T13:05:17Z</time></trkpt><trkpt lat="44.607936786481574" lon="10.548538662573739"><ele>160.0</ele><time>2026-04-11T13:05:18Z</time></trkpt><trkpt lat="44.607926265976175" lon="10.548694429629531"><ele>160.0</ele><time>2026-04-11T13:05:19Z</time></trkpt><trkpt lat="44.607911878261305" lon="10.54883208131418"><ele>160.0</ele><time>2026-04-11T13:05:20Z</time></trkpt><trkpt lat="44.607894183976114" lon="10.548933662807846"><ele>160.0</ele><time>2026-04-11T13:05:21Z</time></trkpt><trkpt lat="44.60786655223053" lon="10.54905561070259"><ele>160.0</ele><time>2026-04-11T13:05:23Z</time></trkpt><trkpt lat="44.60782986149496" lon="10.549134342385473"><ele>160.0</ele><time>2026-04-11T13:05:26Z</time></trkpt><trkpt lat="44.607734509758174" lon="10.54922305174231"><ele>159.4</ele><time>2026-04-11T13:05:28Z</time></trkpt><trkpt lat="44.60760602832234" lon="10.549291320783787"><ele>158.8</ele><time>2026-04-11T13:05:30Z</time></trkpt><trkpt lat="44.60751659947681" lon="10.549313901587352"><ele>158.2</ele><time>2026-04-11T13:05:31Z</time></trkpt><trkpt lat="44.6074148145886" lon="10.54930793309233"><ele>157.6</ele><time>2026-04-11T13:05:32Z</time></trkpt><trkpt lat="44.60730371883305" lon="10.549287590464495"><ele>157.0</ele><time>2026-04-11T13:05:33Z</time></trkpt><trkpt lat="44.60718765137235" lon="10.549263472482469"><ele>157.0</ele><time>2026-04-11T13:05:34Z</time></trkpt><trkpt lat="44.607073540633564" lon="10.549244021788626"><ele>157.0</ele><time>2026-04-11T13:05:35Z</time></trkpt><trkpt lat="44.60696007655758" lon="10.549224453719484"><ele>157.0</ele><time>2026-04-11T13:05:36Z</time></trkpt><trkpt lat="44.60684864873659" lon="10.549203764920103"><ele>157.0</ele><time>2026-04-11T13:05:37Z</time></trkpt><trkpt lat="44.606731361718055" lon="10.549183015257432"><ele>157.25</ele><time>2026-04-11T13:05:38Z</time></trkpt><trkpt lat="44.60660946843578" lon="10.5491622439438"><ele>157.5</ele><time>2026-04-11T13:05:39Z</time></trkpt><trkpt lat="44.606485854061454" lon="10.549141043590966"><ele>157.75</ele><time>2026-04-11T13:05:40Z</time></trkpt><trkpt lat="44.606363433908" lon="10.549115989295593"><ele>158.0</ele><time>2026-04-11T13:05:41Z</time></trkpt><trkpt lat="44.60624169813137" lon="10.549090567773083"><ele>158.25</ele><time>2026-04-11T13:05:42Z</time></trkpt><trkpt lat="44.60611947221486" lon="10.54906362966455"><ele>158.5</ele><time>2026-04-11T13:05:43Z</time></trkpt><trkpt lat="44.605995405520545" lon="10.549033109935827"><ele>158.75</ele><time>2026-04-11T13:05:44Z</time></trkpt><trkpt lat="44.605872530605836" lon="10.54899322993337"><ele>159.0</ele><time>2026-04-11T13:05:45Z</time></trkpt><trkpt lat="44.60575215959171" lon="10.54894246143321"><ele>159.0</ele><time>2026-04-11T13:05:46Z</time></trkpt><trkpt lat="44.60563386513658" lon="10.548884925523398"><ele>159.0</ele><time>2026-04-11T13:05:47Z</time></trkpt><trkpt lat="44.60552051564328" lon="10.548823591981877"><ele>159.0</ele><time>2026-04-11T13:05:48Z</time></trkpt><trkpt lat="44.60541477441216" lon="10.548757957424888"><ele>159.0</ele><time>2026-04-11T13:05:49Z</time></trkpt><trkpt lat="44.60531191853887" lon="10.548684824412936"><ele>160.25</ele><time>2026-04-11T13:05:50Z</time></trkpt><trkpt lat="44.60520250187035" lon="10.548607946464863"><ele>161.5</ele><time>2026-04-11T13:05:51Z</time></trkpt><trkpt lat="44.60509461382874" lon="10.548531960297547"><ele>162.75</ele><time>2026-04-11T13:05:52Z</time></trkpt><trkpt lat="44.60498261173967" lon="10.54845581032486"><ele>164.0</ele><time>2026-04-11T13:05:53Z</time></trkpt><trkpt lat="44.60486945936169" lon="10.548377811534623"><ele>164.0</ele><time>2026-04-11T13:05:54Z</time></trkpt><trkpt lat="44.60475619206722" lon="10.548299208937484"><ele>164.0</ele><time>2026-04-11T13:05:55Z</time></trkpt><trkpt lat="44.60464206523956" lon="10.54821786301862"><ele>164.0</ele><time>2026-04-11T13:05:56Z</time></trkpt><trkpt lat="44.60452792138642" lon="10.548136691562032"><ele>164.0</ele><time>2026-04-11T13:05:57Z</time></trkpt><trkpt lat="44.604413424053114" lon="10.548057712713613"><ele>163.75</ele><time>2026-04-11T13:05:58Z</time></trkpt><trkpt lat="44.60430298010965" lon="10.547978142617048"><ele>163.5</ele><time>2026-04-11T13:05:59Z</time></trkpt><trkpt lat="44.60419582420072" lon="10.547900099771658"><ele>163.25</ele><time>2026-04-11T13:06:00Z</time></trkpt><trkpt lat="44.6040931655218" lon="10.547828222101531"><ele>163.0</ele><time>2026-04-11T13:06:01Z</time></trkpt><trkpt lat="44.60399609414932" lon="10.547765034982008"><ele>163.66666666666669</ele><time>2026-04-11T13:06:02Z</time></trkpt><trkpt lat="44.60391799522661" lon="10.547717664939547"><ele>164.33333333333334</ele><time>2026-04-11T13:06:03Z</time></trkpt><trkpt lat="44.60385001572479" lon="10.547685043167787"><ele>165.0</ele><time>2026-04-11T13:06:04Z</time></trkpt><trkpt lat="44.60374551216246" lon="10.547649205044928"><ele>165.66666666666666</ele><time>2026-04-11T13:06:06Z</time></trkpt><trkpt lat="44.60367408278857" lon="10.54763500934475"><ele>166.33333333333331</ele><time>2026-04-11T13:06:08Z</time></trkpt><trkpt lat="44.603610086087485" lon="10.547619610760606"><ele>167.0</ele><time>2026-04-11T13:06:13Z</time></trkpt><trkpt lat="44.60355297593953" lon="10.547553147135199"><ele>167.0</ele><time>2026-04-11T13:06:22Z</time></trkpt><trkpt lat="44.603485804191365" lon="10.547547812030281"><ele>167.0</ele><time>2026-04-11T13:06:24Z</time></trkpt><trkpt lat="44.603392835101076" lon="10.547540650801059"><ele>167.0</ele><time>2026-04-11T13:06:26Z</time></trkpt><trkpt lat="44.60332633920048" lon="10.547534339276542"><ele>167.0</ele><time>2026-04-11T13:06:27Z</time></trkpt><trkpt lat="44.60325573465148" lon="10.547528614310307"><ele>167.0</ele><time>2026-04-11T13:06:28Z</time></trkpt><trkpt lat="44.60317204743461" lon="10.54749155223769"><ele>167.0</ele><time>2026-04-11T13:06:29Z</time></trkpt><trkpt lat="44.60306913489225" lon="10.54748734808564"><ele>167.0</ele><time>2026-04-11T13:06:30Z</time></trkpt><trkpt lat="44.602965515562545" lon="10.547454365972197"><ele>167.0</ele><time>2026-04-11T13:06:31Z</time></trkpt><trkpt lat="44.602858753246174" lon="10.547422489568348"><ele>167.0</ele><time>2026-04-11T13:06:32Z</time></trkpt><trkpt lat="44.60274083728093" lon="10.547374980264065"><ele>167.0</ele><time>2026-04-11T13:06:33Z</time></trkpt><trkpt lat="44.60261243722255" lon="10.547307766101461"><ele>167.0</ele><time>2026-04-11T13:06:34Z</time></trkpt><trkpt lat="44.602480639723424" lon="10.54722472267592"><ele>167.0</ele><time>2026-04-11T13:06:35Z</time></trkpt><trkpt lat="44.60234987548464" lon="10.54712752835474"><ele>167.0</ele><time>2026-04-11T13:06:36Z</time></trkpt><trkpt lat="44.60221803184261" lon="10.547026313636188"><ele>167.0</ele><time>2026-04-11T13:06:37Z</time></trkpt><trkpt lat="44.60208295131364" lon="10.546928871717252"><ele>168.5</ele><time>2026-04-11T13:06:38Z</time></trkpt><trkpt lat="44.60194561082497" lon="10.546832610934754"><ele>170.0</ele><time>2026-04-11T13:06:39Z</time></trkpt><trkpt lat="44.601818135396556" lon="10.546740248708957"><ele>171.5</ele><time>2026-04-11T13:06:40Z</time></trkpt><trkpt lat="44.601701351858296" lon="10.546658954597484"><ele>173.0</ele><time>2026-04-11T13:06:41Z</time></trkpt><trkpt lat="44.60159326486522" lon="10.546587460200898"><ele>173.0</ele><time>2026-04-11T13:06:42Z</time></trkpt><trkpt lat="44.601496346680435" lon="10.546499575500397"><ele>173.0</ele><time>2026-04-11T13:06:43Z</time></trkpt><trkpt lat="44.60139113279477" lon="10.546422754829281"><ele>173.0</ele><time>2026-04-11T13:06:44Z</time></trkpt><trkpt lat="44.60127761365448" lon="10.546366692388263"><ele>173.0</ele><time>2026-04-11T13:06:45Z</time></trkpt><trkpt lat="44.60117491449645" lon="10.546288706636696"><ele>172.75</ele><time>2026-04-11T13:06:46Z</time></trkpt><trkpt lat="44.601065230489546" lon="10.546218479681556"><ele>172.5</ele><time>2026-04-11T13:06:47Z</time></trkpt><trkpt lat="44.60095483190726" lon="10.546152036789884"><ele>172.25</ele><time>2026-04-11T13:06:48Z</time></trkpt><trkpt lat="44.60083914454569" lon="10.546084255377908"><ele>172.0</ele><time>2026-04-11T13:06:49Z</time></trkpt><trkpt lat="44.600720221423366" lon="10.546018506295148"><ele>172.75</ele><time>2026-04-11T13:06:50Z</time></trkpt><trkpt lat="44.60059848686464" lon="10.54595269072524"><ele>173.5</ele><time>2026-04-11T13:06:51Z</time></trkpt><trkpt lat="44.600479164036436" lon="10.54588145195771"><ele>174.25</ele><time>2026-04-11T13:06:52Z</time></trkpt><trkpt lat="44.60036065428161" lon="10.545811975097639"><ele>175.0</ele><time>2026-04-11T13:06:53Z</time></trkpt><trkpt lat="44.60024298912602" lon="10.545743416711314"><ele>175.0</ele><time>2026-04-11T13:06:54Z</time></trkpt><trkpt lat="44.60012472799931" lon="10.545680364522681"><ele>175.0</ele><time>2026-04-11T13:06:55Z</time></trkpt><trkpt lat="44.60000788199462" lon="10.545607285375208"><ele>175.0</ele><time>2026-04-11T13:06:56Z</time></trkpt><trkpt lat="44.59989293123338" lon="10.545529666575126"><ele>175.0</ele><time>2026-04-11T13:06:57Z</time></trkpt><trkpt lat="44.599779369661036" lon="10.545446806162037"><ele>175.0</ele><time>2026-04-11T13:06:58Z</time></trkpt><trkpt lat="44.59967202080473" lon="10.545355342302221"><ele>175.0</ele><time>2026-04-11T13:06:59Z</time></trkpt><trkpt lat="44.59956845273555" lon="10.545258673308613"><ele>175.0</ele><time>2026-04-11T13:07:00Z</time></trkpt><trkpt lat="44.599465269240746" lon="10.545162579234246"><ele>175.0</ele><time>2026-04-11T13:07:01Z</time></trkpt><trkpt lat="44.59936208693911" lon="10.545066644250339"><ele>175.0</ele><time>2026-04-11T13:07:02Z</time></trkpt><trkpt lat="44.599258814680574" lon="10.544968803771622"><ele>175.0</ele><time>2026-04-11T13:07:03Z</time></trkpt><trkpt lat="44.599155551528035" lon="10.544867385872658"><ele>175.0</ele><time>2026-04-11T13:07:04Z</time></trkpt><trkpt lat="44.59905561523307" lon="10.544758666273264"><ele>175.0</ele><time>2026-04-11T13:07:05Z</time></trkpt><trkpt lat="44.598958227669755" lon="10.544643744454062"><ele>175.25</ele><time>2026-04-11T13:07:06Z</time></trkpt><trkpt lat="44.598863321031466" lon="10.544526914960137"><ele>175.5</ele><time>2026-04-11T13:07:07Z</time></trkpt><trkpt lat="44.59877219219868" lon="10.544405643709089"><ele>175.75</ele><time>2026-04-11T13:07:08Z</time></trkpt><trkpt lat="44.598681610198646" lon="10.544283028283813"><ele>176.0</ele><time>2026-04-11T13:07:09Z</time></trkpt><trkpt lat="44.59859024255866" lon="10.54416424349713"><ele>176.0</ele><time>2026-04-11T13:07:10Z</time></trkpt><trkpt lat="44.59849186073102" lon="10.544040748162077"><ele>176.0</ele><time>2026-04-11T13:07:11Z</time></trkpt><trkpt lat="44.59838440510239" lon="10.543906101952812"><ele>176.0</ele><time>2026-04-11T13:07:12Z</time></trkpt><trkpt lat="44.598295727025345" lon="10.543773959654139"><ele>176.0</ele><time>2026-04-11T13:07:13Z</time></trkpt><trkpt lat="44.59822074193874" lon="10.543631108884968"><ele>177.5</ele><time>2026-04-11T13:07:14Z</time></trkpt><trkpt lat="44.59815865409701" lon="10.543460906117502"><ele>179.0</ele><time>2026-04-11T13:07:15Z</time></trkpt><trkpt lat="44.59810334326509" lon="10.543281675476512"><ele>180.5</ele><time>2026-04-11T13:07:16Z</time></trkpt><trkpt lat="44.59804035417368" lon="10.543103546002575"><ele>182.0</ele><time>2026-04-11T13:07:17Z</time></trkpt><trkpt lat="44.597961101018214" lon="10.542930699823005"><ele>181.66666666666666</ele><time>2026-04-11T13:07:18Z</time></trkpt><trkpt lat="44.597862385698114" lon="10.542776144382694"><ele>181.33333333333334</ele><time>2026-04-11T13:07:19Z</time></trkpt><trkpt lat="44.597748556343426" lon="10.542634865648568"><ele>181.0</ele><time>2026-04-11T13:07:20Z</time></trkpt><trkpt lat="44.59762093531783" lon="10.542512862476629"><ele>181.0</ele><time>2026-04-11T13:07:21Z</time></trkpt><trkpt lat="44.597487988566904" lon="10.54239737899933"><ele>181.0</ele><time>2026-04-11T13:07:22Z</time></trkpt><trkpt lat="44.59735162912485" lon="10.54227874826975"><ele>181.0</ele><time>2026-04-11T13:07:23Z</time></trkpt><trkpt lat="44.59721548804753" lon="10.542157414075442"><ele>179.66666666666669</ele><time>2026-04-11T13:07:24Z</time></trkpt><trkpt lat="44.5970793671215" lon="10.542036819503315"><ele>178.33333333333334</ele><time>2026-04-11T13:07:25Z</time></trkpt><trkpt lat="44.59694075572527" lon="10.54191451797525"><ele>177.0</ele><time>2026-04-11T13:07:26Z</time></trkpt><trkpt lat="44.59680099148808" lon="10.541794300212352"><ele>177.0</ele><time>2026-04-11T13:07:27Z</time></trkpt><trkpt lat="44.59666150992867" lon="10.541674391582921"><ele>177.0</ele><time>2026-04-11T13:07:28Z</time></trkpt><trkpt lat="44.59652545853574" lon="10.54156040799949"><ele>177.0</ele><time>2026-04-11T13:07:29Z</time></trkpt><trkpt lat="44.59638977608072" lon="10.541450007559236"><ele>177.0</ele><time>2026-04-11T13:07:30Z</time></trkpt><trkpt lat="44.59625208235358" lon="10.541340067456627"><ele>177.0</ele><time>2026-04-11T13:07:31Z</time></trkpt><trkpt lat="44.596114243182974" lon="10.54123351167244"><ele>177.0</ele><time>2026-04-11T13:07:32Z</time></trkpt><trkpt lat="44.59597757678534" lon="10.541133720062035"><ele>178.0</ele><time>2026-04-11T13:07:33Z</time></trkpt><trkpt lat="44.59584057525702" lon="10.54103940402695"><ele>179.0</ele><time>2026-04-11T13:07:34Z</time></trkpt><trkpt lat="44.59570543466448" lon="10.540946867764145"><ele>180.0</ele><time>2026-04-11T13:07:35Z</time></trkpt><trkpt lat="44.595572863692944" lon="10.540856285548559"><ele>180.0</ele><time>2026-04-11T13:07:36Z</time></trkpt><trkpt lat="44.59543981730452" lon="10.540766627841228"><ele>180.0</ele><time>2026-04-11T13:07:37Z</time></trkpt><trkpt lat="44.59530807402722" lon="10.540677297721816"><ele>180.0</ele><time>2026-04-11T13:07:38Z</time></trkpt><trkpt lat="44.5951734306315" lon="10.540588926967768"><ele>180.0</ele><time>2026-04-11T13:07:39Z</time></trkpt><trkpt lat="44.59504037345744" lon="10.54049849463704"><ele>179.75</ele><time>2026-04-11T13:07:40Z</time></trkpt><trkpt lat="44.594906788198344" lon="10.540408565941432"><ele>179.5</ele><time>2026-04-11T13:07:41Z</time></trkpt><trkpt lat="44.594774704572565" lon="10.54031859375395"><ele>179.25</ele><time>2026-04-11T13:07:42Z</time></trkpt><trkpt lat="44.594643473380515" lon="10.540226921371172"><ele>179.0</ele><time>2026-04-11T13:07:43Z</time></trkpt><trkpt lat="44.5945119468006" lon="10.540129666900027"><ele>180.0</ele><time>2026-04-11T13:07:44Z</time></trkpt><trkpt lat="44.59437892572515" lon="10.540026022423717"><ele>181.0</ele><time>2026-04-11T13:07:45Z</time></trkpt><trkpt lat="44.59424700545708" lon="10.539909986451486"><ele>182.0</ele><time>2026-04-11T13:07:46Z</time></trkpt><trkpt lat="44.594116134370566" lon="10.539782312461682"><ele>182.0</ele><time>2026-04-11T13:07:47Z</time></trkpt><trkpt lat="44.59398138203183" lon="10.539647707480126"><ele>182.0</ele><time>2026-04-11T13:07:48Z</time></trkpt><trkpt lat="44.59384568890107" lon="10.539512840601184"><ele>182.0</ele><time>2026-04-11T13:07:49Z</time></trkpt><trkpt lat="44.593708590990744" lon="10.539376786459256"><ele>182.0</ele><time>2026-04-11T13:07:50Z</time></trkpt><trkpt lat="44.593570680943294" lon="10.53924573583543"><ele>182.0</ele><time>2026-04-11T13:07:51Z</time></trkpt><trkpt lat="44.59342915556232" lon="10.53910960114489"><ele>182.0</ele><time>2026-04-11T13:07:52Z</time></trkpt><trkpt lat="44.593289876822986" lon="10.538971542280063"><ele>182.0</ele><time>2026-04-11T13:07:53Z</time></trkpt><trkpt lat="44.59314858605394" lon="10.538831779982669"><ele>182.0</ele><time>2026-04-11T13:07:54Z</time></trkpt><trkpt lat="44.59300472714567" lon="10.538692959780027"><ele>182.0</ele><time>2026-04-11T13:07:55Z</time></trkpt><trkpt lat="44.5928581065123" lon="10.538555249284384"><ele>182.66666666666666</ele><time>2026-04-11T13:07:56Z</time></trkpt><trkpt lat="44.592711502583" lon="10.538418266139864"><ele>183.33333333333334</ele><time>2026-04-11T13:07:57Z</time></trkpt><trkpt lat="44.592566280323474" lon="10.538282548991866"><ele>184.0</ele><time>2026-04-11T13:07:58Z</time></trkpt><trkpt lat="44.59242194493873" lon="10.538144074141712"><ele>184.0</ele><time>2026-04-11T13:07:59Z</time></trkpt><trkpt lat="44.59227647975077" lon="10.538007305014775"><ele>184.0</ele><time>2026-04-11T13:08:00Z</time></trkpt><trkpt lat="44.592130504916206" lon="10.537872218069822"><ele>184.0</ele><time>2026-04-11T13:08:01Z</time></trkpt><trkpt lat="44.59198433673166" lon="10.537740458267649"><ele>185.0</ele><time>2026-04-11T13:08:02Z</time></trkpt><trkpt lat="44.59183872073092" lon="10.537608823975319"><ele>186.0</ele><time>2026-04-11T13:08:03Z</time></trkpt><trkpt lat="44.59169163762427" lon="10.537475573773433"><ele>187.0</ele><time>2026-04-11T13:08:04Z</time></trkpt><trkpt lat="44.59154382893461" lon="10.53734045338455"><ele>187.0</ele><time>2026-04-11T13:08:05Z</time></trkpt><trkpt lat="44.59140043137036" lon="10.537203406350956"><ele>187.0</ele><time>2026-04-11T13:08:06Z</time></trkpt><trkpt lat="44.59125544833297" lon="10.53706355135317"><ele>187.0</ele><time>2026-04-11T13:08:07Z</time></trkpt><trkpt lat="44.5911109238772" lon="10.53692430975847"><ele>188.33333333333334</ele><time>2026-04-11T13:08:08Z</time></trkpt><trkpt lat="44.59096318147569" lon="10.53678873176907"><ele>189.66666666666666</ele><time>2026-04-11T13:08:09Z</time></trkpt><trkpt lat="44.59081076318015" lon="10.536660142407344"><ele>191.0</ele><time>2026-04-11T13:08:10Z</time></trkpt><trkpt lat="44.59065448289013" lon="10.536536553003874"><ele>191.0</ele><time>2026-04-11T13:08:11Z</time></trkpt><trkpt lat="44.59049393871789" lon="10.53642436107216"><ele>191.0</ele><time>2026-04-11T13:08:12Z</time></trkpt><trkpt lat="44.59032537994899" lon="10.536343736162479"><ele>191.0</ele><time>2026-04-11T13:08:13Z</time></trkpt><trkpt lat="44.590154017192106" lon="10.536289369774133"><ele>190.33333333333331</ele><time>2026-04-11T13:08:14Z</time></trkpt><trkpt lat="44.58997715889972" lon="10.536235060206636"><ele>189.66666666666666</ele><time>2026-04-11T13:08:15Z</time></trkpt><trkpt lat="44.58980270936938" lon="10.536173306388394"><ele>189.0</ele><time>2026-04-11T13:08:16Z</time></trkpt><trkpt lat="44.589627518030824" lon="10.536105813647893"><ele>189.0</ele><time>2026-04-11T13:08:17Z</time></trkpt><trkpt lat="44.58944958731088" lon="10.536031474085028"><ele>189.0</ele><time>2026-04-11T13:08:18Z</time></trkpt><trkpt lat="44.58927324053202" lon="10.535943971718579"><ele>189.0</ele><time>2026-04-11T13:08:19Z</time></trkpt><trkpt lat="44.58909984646692" lon="10.53585954242433"><ele>189.0</ele><time>2026-04-11T13:08:20Z</time></trkpt><trkpt lat="44.58893286198987" lon="10.535777674392008"><ele>189.0</ele><time>2026-04-11T13:08:21Z</time></trkpt><trkpt lat="44.58877657714186" lon="10.535699614142525"><ele>189.0</ele><time>2026-04-11T13:08:22Z</time></trkpt><trkpt lat="44.588623187122394" lon="10.535626980299018"><ele>189.66666666666666</ele><time>2026-04-11T13:08:23Z</time></trkpt><trkpt lat="44.5884760899681" lon="10.535559847123519"><ele>190.33333333333331</ele><time>2026-04-11T13:08:24Z</time></trkpt><trkpt lat="44.588332181343624" lon="10.535490480181133"><ele>191.0</ele><time>2026-04-11T13:08:25Z</time></trkpt><trkpt lat="44.58818576586222" lon="10.535424592179726"><ele>191.66666666666666</ele><time>2026-04-11T13:08:26Z</time></trkpt><trkpt lat="44.588033343105955" lon="10.535377535641349"><ele>192.33333333333331</ele><time>2026-04-11T13:08:27Z</time></trkpt><trkpt lat="44.58787504561413" lon="10.53535839149799"><ele>193.0</ele><time>2026-04-11T13:08:28Z</time></trkpt><trkpt lat="44.58754212067589" lon="10.535397030862189"><ele>193.0</ele><time>2026-04-11T13:08:30Z</time></trkpt><trkpt lat="44.58737129065307" lon="10.535408263965737"><ele>193.0</ele><time>2026-04-11T13:08:31Z</time></trkpt><trkpt lat="44.58720747953369" lon="10.535384225136411"><ele>193.0</ele><time>2026-04-11T13:08:32Z</time></trkpt><trkpt lat="44.587055956039976" lon="10.53531369347718"><ele>194.66666666666666</ele><time>2026-04-11T13:08:33Z</time></trkpt><trkpt lat="44.586912187846266" lon="10.535215749855505"><ele>196.33333333333331</ele><time>2026-04-11T13:08:34Z</time></trkpt><trkpt lat="44.586769658808905" lon="10.53511309031988"><ele>198.0</ele><time>2026-04-11T13:08:35Z</time></trkpt><trkpt lat="44.58662093437876" lon="10.535030780643261"><ele>198.0</ele><time>2026-04-11T13:08:36Z</time></trkpt><trkpt lat="44.586473967938154" lon="10.534971636641643"><ele>198.0</ele><time>2026-04-11T13:08:37Z</time></trkpt><trkpt lat="44.58635181982823" lon="10.534885336071012"><ele>198.0</ele><time>2026-04-11T13:08:38Z</time></trkpt><trkpt lat="44.58626558885571" lon="10.534759510891828"><ele>198.0</ele><time>2026-04-11T13:08:39Z</time></trkpt><trkpt lat="44.58620169956249" lon="10.534634240557699"><ele>198.60000000000002</ele><time>2026-04-11T13:08:40Z</time></trkpt><trkpt lat="44.58614621230056" lon="10.53450913023809"><ele>199.20000000000002</ele><time>2026-04-11T13:08:41Z</time></trkpt><trkpt lat="44.58608353070538" lon="10.534389896214334"><ele>199.8</ele><time>2026-04-11T13:08:42Z</time></trkpt><trkpt lat="44.58600434752113" lon="10.534282769953721"><ele>200.4</ele><time>2026-04-11T13:08:43Z</time></trkpt><trkpt lat="44.58589868017999" lon="10.534206886175303"><ele>201.0</ele><time>2026-04-11T13:08:44Z</time></trkpt><trkpt lat="44.58578230910939" lon="10.534177060623067"><ele>201.0</ele><time>2026-04-11T13:08:45Z</time></trkpt><trkpt lat="44.585662387258814" lon="10.534186484655221"><ele>201.0</ele><time>2026-04-11T13:08:46Z</time></trkpt><trkpt lat="44.58554297740641" lon="10.534211438033093"><ele>201.0</ele><time>2026-04-11T13:08:47Z</time></trkpt><trkpt lat="44.58542255575954" lon="10.5342663463357"><ele>201.0</ele><time>2026-04-11T13:08:48Z</time></trkpt><trkpt lat="44.585309536331714" lon="10.534361644277881"><ele>201.5</ele><time>2026-04-11T13:08:49Z</time></trkpt><trkpt lat="44.58520428586923" lon="10.534475917921794"><ele>202.0</ele><time>2026-04-11T13:08:50Z</time></trkpt><trkpt lat="44.58510713667789" lon="10.534574472392634"><ele>202.5</ele><time>2026-04-11T13:08:51Z</time></trkpt><trkpt lat="44.58500865643607" lon="10.534645637667602"><ele>203.0</ele><time>2026-04-11T13:08:52Z</time></trkpt><trkpt lat="44.5849019295381" lon="10.534703736990672"><ele>203.0</ele><time>2026-04-11T13:08:53Z</time></trkpt><trkpt lat="44.584786481674406" lon="10.534756397056322"><ele>203.0</ele><time>2026-04-11T13:08:54Z</time></trkpt><trkpt lat="44.58466195209155" lon="10.534810544794952"><ele>203.0</ele><time>2026-04-11T13:08:55Z</time></trkpt><trkpt lat="44.58453327110152" lon="10.534874858044951"><ele>203.0</ele><time>2026-04-11T13:08:56Z</time></trkpt><trkpt lat="44.58440702092175" lon="10.534941853228123"><ele>204.75</ele><time>2026-04-11T13:08:57Z</time></trkpt><trkpt lat="44.58428067877158" lon="10.535004100240716"><ele>206.5</ele><time>2026-04-11T13:08:58Z</time></trkpt><trkpt lat="44.58415326215448" lon="10.53506401071319"><ele>208.25</ele><time>2026-04-11T13:08:59Z</time></trkpt><trkpt lat="44.58402644194113" lon="10.535129659949808"><ele>210.0</ele><time>2026-04-11T13:09:00Z</time></trkpt><trkpt lat="44.58390404854531" lon="10.535191006138918"><ele>210.0</ele><time>2026-04-11T13:09:01Z</time></trkpt><trkpt lat="44.58378161331511" lon="10.535238694892307"><ele>210.0</ele><time>2026-04-11T13:09:02Z</time></trkpt><trkpt lat="44.58365294511355" lon="10.535267971684956"><ele>210.0</ele><time>2026-04-11T13:09:03Z</time></trkpt><trkpt lat="44.583527614119035" lon="10.535283079581824"><ele>210.0</ele><time>2026-04-11T13:09:04Z</time></trkpt><trkpt lat="44.583406803783674" lon="10.535273836026596"><ele>210.75</ele><time>2026-04-11T13:09:05Z</time></trkpt><trkpt lat="44.58329497950878" lon="10.535233251731814"><ele>211.5</ele><time>2026-04-11T13:09:06Z</time></trkpt><trkpt lat="44.58319775934629" lon="10.535150349792941"><ele>212.25</ele><time>2026-04-11T13:09:07Z</time></trkpt><trkpt lat="44.58312754099084" lon="10.535029724957365"><ele>213.0</ele><time>2026-04-11T13:09:08Z</time></trkpt><trkpt lat="44.583072230391046" lon="10.53488516417293"><ele>213.0</ele><time>2026-04-11T13:09:09Z</time></trkpt><trkpt lat="44.583019738989016" lon="10.534741374813844"><ele>213.0</ele><time>2026-04-11T13:09:10Z</time></trkpt><trkpt lat="44.582968922659006" lon="10.534599472051198"><ele>213.0</ele><time>2026-04-11T13:09:11Z</time></trkpt><trkpt lat="44.5829076214502" lon="10.534451219857795"><ele>213.0</ele><time>2026-04-11T13:09:12Z</time></trkpt><trkpt lat="44.58284209856453" lon="10.534289997480561"><ele>212.75</ele><time>2026-04-11T13:09:13Z</time></trkpt><trkpt lat="44.582769875523596" lon="10.534115929738627"><ele>212.5</ele><time>2026-04-11T13:09:14Z</time></trkpt><trkpt lat="44.582690226519624" lon="10.53395447727004"><ele>212.25</ele><time>2026-04-11T13:09:15Z</time></trkpt><trkpt lat="44.58259733227514" lon="10.533836060225433"><ele>212.0</ele><time>2026-04-11T13:09:16Z</time></trkpt><trkpt lat="44.582501264867865" lon="10.533756966229408"><ele>212.0</ele><time>2026-04-11T13:09:17Z</time></trkpt><trkpt lat="44.58240899181308" lon="10.5337196139869"><ele>212.0</ele><time>2026-04-11T13:09:18Z</time></trkpt><trkpt lat="44.58232028745746" lon="10.53371180139236"><ele>212.0</ele><time>2026-04-11T13:09:19Z</time></trkpt><trkpt lat="44.582232567686894" lon="10.53372633349308"><ele>212.0</ele><time>2026-04-11T13:09:20Z</time></trkpt><trkpt lat="44.58214015858357" lon="10.533770064108573"><ele>212.0</ele><time>2026-04-11T13:09:21Z</time></trkpt><trkpt lat="44.5820492392817" lon="10.533821865793618"><ele>212.2</ele><time>2026-04-11T13:09:22Z</time></trkpt><trkpt lat="44.581973454264705" lon="10.533863295442302"><ele>212.39999999999998</ele><time>2026-04-11T13:09:23Z</time></trkpt><trkpt lat="44.58189764317541" lon="10.533893696041456"><ele>212.60000000000002</ele><time>2026-04-11T13:09:24Z</time></trkpt><trkpt lat="44.581801680069226" lon="10.533895896644713"><ele>212.8</ele><time>2026-04-11T13:09:25Z</time></trkpt><trkpt lat="44.581703765200466" lon="10.533845938801319"><ele>213.0</ele><time>2026-04-11T13:09:26Z</time></trkpt><trkpt lat="44.58161867887875" lon="10.533728573863295"><ele>214.0</ele><time>2026-04-11T13:09:27Z</time></trkpt><trkpt lat="44.58156323059092" lon="10.533564972741683"><ele>215.0</ele><time>2026-04-11T13:09:28Z</time></trkpt><trkpt lat="44.58154887913426" lon="10.533359715235731"><ele>216.0</ele><time>2026-04-11T13:09:29Z</time></trkpt><trkpt lat="44.581557008940784" lon="10.533170897147695"><ele>217.0</ele><time>2026-04-11T13:09:30Z</time></trkpt><trkpt lat="44.581542292444105" lon="10.532985215890582"><ele>218.5</ele><time>2026-04-11T13:09:31Z</time></trkpt><trkpt lat="44.58153179888447" lon="10.532796369568587"><ele>220.0</ele><time>2026-04-11T13:09:32Z</time></trkpt><trkpt lat="44.58154526730894" lon="10.532601387753886"><ele>221.5</ele><time>2026-04-11T13:09:33Z</time></trkpt><trkpt lat="44.58152113488599" lon="10.532406901126729"><ele>223.0</ele><time>2026-04-11T13:09:34Z</time></trkpt><trkpt lat="44.58148706035111" lon="10.532212177597673"><ele>221.5</ele><time>2026-04-11T13:09:35Z</time></trkpt><trkpt lat="44.581423405162404" lon="10.532041822093896"><ele>220.0</ele><time>2026-04-11T13:09:36Z</time></trkpt><trkpt lat="44.58132954750105" lon="10.531903587700887"><ele>218.5</ele><time>2026-04-11T13:09:37Z</time></trkpt><trkpt lat="44.58122601762571" lon="10.531781457305282"><ele>217.0</ele><time>2026-04-11T13:09:38Z</time></trkpt><trkpt lat="44.58113134386973" lon="10.531662873609807"><ele>217.0</ele><time>2026-04-11T13:09:39Z</time></trkpt><trkpt lat="44.581040756008015" lon="10.531545532704083"><ele>217.0</ele><time>2026-04-11T13:09:40Z</time></trkpt><trkpt lat="44.58094982896912" lon="10.531430726444265"><ele>217.0</ele><time>2026-04-11T13:09:41Z</time></trkpt><trkpt lat="44.58086015284388" lon="10.531321713858869"><ele>217.0</ele><time>2026-04-11T13:09:42Z</time></trkpt><trkpt lat="44.580759742882286" lon="10.531230020976118"><ele>217.5</ele><time>2026-04-11T13:09:43Z</time></trkpt><trkpt lat="44.580644750692315" lon="10.531164753632257"><ele>218.0</ele><time>2026-04-11T13:09:44Z</time></trkpt><trkpt lat="44.58051840042079" lon="10.531127286537988"><ele>218.5</ele><time>2026-04-11T13:09:45Z</time></trkpt><trkpt lat="44.58038800134902" lon="10.531124442243408"><ele>219.0</ele><time>2026-04-11T13:09:46Z</time></trkpt><trkpt lat="44.58026097457897" lon="10.531123950716479"><ele>219.0</ele><time>2026-04-11T13:09:47Z</time></trkpt><trkpt lat="44.58013619422453" lon="10.531106321810428"><ele>219.0</ele><time>2026-04-11T13:09:48Z</time></trkpt><trkpt lat="44.58001729480847" lon="10.531049272989755"><ele>219.0</ele><time>2026-04-11T13:09:49Z</time></trkpt><trkpt lat="44.57990758191178" lon="10.530958957202227"><ele>219.0</ele><time>2026-04-11T13:09:50Z</time></trkpt><trkpt lat="44.57981581372832" lon="10.530837132170664"><ele>219.0</ele><time>2026-04-11T13:09:51Z</time></trkpt><trkpt lat="44.57976688862648" lon="10.530676804132288"><ele>219.0</ele><time>2026-04-11T13:09:52Z</time></trkpt><trkpt lat="44.579704514373006" lon="10.530508450974915"><ele>219.0</ele><time>2026-04-11T13:09:53Z</time></trkpt><trkpt lat="44.579621204674375" lon="10.530338608811133"><ele>219.0</ele><time>2026-04-11T13:09:54Z</time></trkpt><trkpt lat="44.57954965523853" lon="10.530165609677113"><ele>218.0</ele><time>2026-04-11T13:09:55.001Z</time></trkpt><trkpt lat="44.57946713131984" lon="10.53001057221352"><ele>217.0</ele><time>2026-04-11T13:09:56Z</time></trkpt><trkpt lat="44.57937426397347" lon="10.529879807844878"><ele>216.0</ele><time>2026-04-11T13:09:57Z</time></trkpt><trkpt lat="44.57927961174459" lon="10.529759817280944"><ele>215.0</ele><time>2026-04-11T13:09:58Z</time></trkpt><trkpt lat="44.57919032847437" lon="10.529637361658002"><ele>216.75</ele><time>2026-04-11T13:09:59Z</time></trkpt><trkpt lat="44.579115745169894" lon="10.529492413505869"><ele>218.5</ele><time>2026-04-11T13:10:00Z</time></trkpt><trkpt lat="44.57905458957825" lon="10.529327651905778"><ele>220.25</ele><time>2026-04-11T13:10:01Z</time></trkpt><trkpt lat="44.57900069084377" lon="10.529157054533178"><ele>222.0</ele><time>2026-04-11T13:10:02Z</time></trkpt><trkpt lat="44.578946189953996" lon="10.528987038538276"><ele>222.0</ele><time>2026-04-11T13:10:03Z</time></trkpt><trkpt lat="44.578878300056424" lon="10.528826915522748"><ele>222.0</ele><time>2026-04-11T13:10:04Z</time></trkpt><trkpt lat="44.578793388131174" lon="10.528679458697773"><ele>222.0</ele><time>2026-04-11T13:10:05Z</time></trkpt><trkpt lat="44.57868952178579" lon="10.528549219897922"><ele>222.0</ele><time>2026-04-11T13:10:06Z</time></trkpt><trkpt lat="44.578567324498465" lon="10.52844009624566"><ele>221.33333333333331</ele><time>2026-04-11T13:10:07Z</time></trkpt><trkpt lat="44.57843257897079" lon="10.528351177266673"><ele>220.66666666666666</ele><time>2026-04-11T13:10:08Z</time></trkpt><trkpt lat="44.5782897474361" lon="10.528267940895013"><ele>220.0</ele><time>2026-04-11T13:10:09Z</time></trkpt><trkpt lat="44.57814719339104" lon="10.528191558355678"><ele>220.0</ele><time>2026-04-11T13:10:10Z</time></trkpt><trkpt lat="44.578009885631936" lon="10.5281224678191"><ele>220.0</ele><time>2026-04-11T13:10:11Z</time></trkpt><trkpt lat="44.57787613543095" lon="10.528057389327037"><ele>220.0</ele><time>2026-04-11T13:10:12Z</time></trkpt><trkpt lat="44.577744699083794" lon="10.52799156428146"><ele>220.0</ele><time>2026-04-11T13:10:13Z</time></trkpt><trkpt lat="44.577613668706704" lon="10.527923633354236"><ele>220.75</ele><time>2026-04-11T13:10:14Z</time></trkpt><trkpt lat="44.57748129384905" lon="10.527867195614972"><ele>221.5</ele><time>2026-04-11T13:10:15Z</time></trkpt><trkpt lat="44.577347493428924" lon="10.527825669710525"><ele>222.25</ele><time>2026-04-11T13:10:16Z</time></trkpt><trkpt lat="44.57720971836381" lon="10.527802873122841"><ele>223.0</ele><time>2026-04-11T13:10:17Z</time></trkpt><trkpt lat="44.577070479489805" lon="10.527804574515118"><ele>221.33333333333331</ele><time>2026-04-11T13:10:18Z</time></trkpt><trkpt lat="44.576926090136006" lon="10.527830639582094"><ele>219.66666666666669</ele><time>2026-04-11T13:10:19Z</time></trkpt><trkpt lat="44.57678019515699" lon="10.527881697717353"><ele>218.0</ele><time>2026-04-11T13:10:20Z</time></trkpt><trkpt lat="44.576635771665885" lon="10.527963167815805"><ele>218.0</ele><time>2026-04-11T13:10:21Z</time></trkpt><trkpt lat="44.576488906108935" lon="10.528078864745243"><ele>218.0</ele><time>2026-04-11T13:10:22Z</time></trkpt><trkpt lat="44.57632422847507" lon="10.528253072973023"><ele>218.0</ele><time>2026-04-11T13:10:23Z</time></trkpt><trkpt lat="44.576152699181215" lon="10.528478742346316"><ele>218.0</ele><time>2026-04-11T13:10:24Z</time></trkpt><trkpt lat="44.575942606521046" lon="10.52869970163804"><ele>218.0</ele><time>2026-04-11T13:10:25Z</time></trkpt><trkpt lat="44.57576406936938" lon="10.52891964120486"><ele>218.0</ele><time>2026-04-11T13:10:26Z</time></trkpt><trkpt lat="44.57559775447397" lon="10.529113687309486"><ele>218.0</ele><time>2026-04-11T13:10:27Z</time></trkpt><trkpt lat="44.575432112067084" lon="10.529268575064087"><ele>218.0</ele><time>2026-04-11T13:10:28Z</time></trkpt><trkpt lat="44.57524747206343" lon="10.529332703110335"><ele>218.0</ele><time>2026-04-11T13:10:29Z</time></trkpt><trkpt lat="44.57507477973333" lon="10.52934775609394"><ele>218.0</ele><time>2026-04-11T13:10:30Z</time></trkpt><trkpt lat="44.574894039996856" lon="10.529342315617999"><ele>218.0</ele><time>2026-04-11T13:10:31Z</time></trkpt><trkpt lat="44.574708446806994" lon="10.529320830536566"><ele>218.66666666666669</ele><time>2026-04-11T13:10:32Z</time></trkpt><trkpt lat="44.57451985215221" lon="10.529299192800648"><ele>219.33333333333331</ele><time>2026-04-11T13:10:33Z</time></trkpt><trkpt lat="44.57433873494401" lon="10.529278412972692"><ele>220.0</ele><time>2026-04-11T13:10:34Z</time></trkpt><trkpt lat="44.57416536948824" lon="10.529258522501772"><ele>220.0</ele><time>2026-04-11T13:10:35Z</time></trkpt><trkpt lat="44.57400200168441" lon="10.529257858982888"><ele>220.0</ele><time>2026-04-11T13:10:36Z</time></trkpt><trkpt lat="44.57383346527286" lon="10.52923260609427"><ele>220.0</ele><time>2026-04-11T13:10:37Z</time></trkpt><trkpt lat="44.57366451182894" lon="10.529198904507885"><ele>220.0</ele><time>2026-04-11T13:10:38Z</time></trkpt><trkpt lat="44.573506969064304" lon="10.529116146223947"><ele>220.0</ele><time>2026-04-11T13:10:39Z</time></trkpt><trkpt lat="44.57336775765517" lon="10.52902598653635"><ele>220.0</ele><time>2026-04-11T13:10:40Z</time></trkpt><trkpt lat="44.57325220103424" lon="10.528916524776502"><ele>220.0</ele><time>2026-04-11T13:10:41Z</time></trkpt><trkpt lat="44.57315582917354" lon="10.528787181352394"><ele>220.0</ele><time>2026-04-11T13:10:42Z</time></trkpt><trkpt lat="44.57304380785489" lon="10.528685669199307"><ele>220.0</ele><time>2026-04-11T13:10:43Z</time></trkpt><trkpt lat="44.57296545231084" lon="10.528532832177948"><ele>220.0</ele><time>2026-04-11T13:10:44Z</time></trkpt><trkpt lat="44.572881367531586" lon="10.528357706327457"><ele>220.0</ele><time>2026-04-11T13:10:45Z</time></trkpt><trkpt lat="44.57278759650274" lon="10.528180059798434"><ele>220.0</ele><time>2026-04-11T13:10:46Z</time></trkpt><trkpt lat="44.57268714314289" lon="10.528006238721344"><ele>220.0</ele><time>2026-04-11T13:10:47Z</time></trkpt><trkpt lat="44.57257809281383" lon="10.527860129936267"><ele>221.66666666666666</ele><time>2026-04-11T13:10:48Z</time></trkpt><trkpt lat="44.57245354209455" lon="10.527748149949604"><ele>223.33333333333331</ele><time>2026-04-11T13:10:49Z</time></trkpt><trkpt lat="44.572312281411605" lon="10.527661891992523"><ele>225.0</ele><time>2026-04-11T13:10:50Z</time></trkpt><trkpt lat="44.57214001567063" lon="10.52764022047079"><ele>225.0</ele><time>2026-04-11T13:10:51Z</time></trkpt><trkpt lat="44.571966648101196" lon="10.52761469897998"><ele>225.0</ele><time>2026-04-11T13:10:52Z</time></trkpt><trkpt lat="44.57179197574409" lon="10.527588480504505"><ele>225.0</ele><time>2026-04-11T13:10:53Z</time></trkpt><trkpt lat="44.57161179979425" lon="10.527559657726583"><ele>225.0</ele><time>2026-04-11T13:10:54Z</time></trkpt><trkpt lat="44.5714336002349" lon="10.52753077839501"><ele>225.0</ele><time>2026-04-11T13:10:55Z</time></trkpt><trkpt lat="44.57125402695069" lon="10.527500634661765"><ele>225.0</ele><time>2026-04-11T13:10:56Z</time></trkpt><trkpt lat="44.57107375475491" lon="10.52746956655094"><ele>225.0</ele><time>2026-04-11T13:10:57Z</time></trkpt><trkpt lat="44.57090052403705" lon="10.52744123737318"><ele>225.0</ele><time>2026-04-11T13:10:58Z</time></trkpt><trkpt lat="44.57073800861016" lon="10.527410943188574"><ele>225.0</ele><time>2026-04-11T13:10:59Z</time></trkpt><trkpt lat="44.57057831344689" lon="10.527382165544832"><ele>225.0</ele><time>2026-04-11T13:11:00Z</time></trkpt><trkpt lat="44.57042220998748" lon="10.527360935710801"><ele>225.0</ele><time>2026-04-11T13:11:01Z</time></trkpt><trkpt lat="44.57026256359111" lon="10.52736545254014"><ele>225.0</ele><time>2026-04-11T13:11:02Z</time></trkpt><trkpt lat="44.570106135737205" lon="10.527415256166806"><ele>224.66666666666669</ele><time>2026-04-11T13:11:03Z</time></trkpt><trkpt lat="44.569953505024735" lon="10.527505968891134"><ele>224.33333333333334</ele><time>2026-04-11T13:11:04Z</time></trkpt><trkpt lat="44.56980940133331" lon="10.527630988928921"><ele>224.0</ele><time>2026-04-11T13:11:05Z</time></trkpt><trkpt lat="44.56966221111724" lon="10.52775835949661"><ele>225.33333333333334</ele><time>2026-04-11T13:11:06Z</time></trkpt><trkpt lat="44.569513251710646" lon="10.527873217744835"><ele>226.66666666666669</ele><time>2026-04-11T13:11:07Z</time></trkpt><trkpt lat="44.569368823409945" lon="10.527979275711782"><ele>228.0</ele><time>2026-04-11T13:11:08Z</time></trkpt><trkpt lat="44.569228065156246" lon="10.528078275192236"><ele>228.0</ele><time>2026-04-11T13:11:09Z</time></trkpt><trkpt lat="44.569088036065565" lon="10.528168428062532"><ele>228.0</ele><time>2026-04-11T13:11:10Z</time></trkpt><trkpt lat="44.56894087164128" lon="10.528254807060222"><ele>228.0</ele><time>2026-04-11T13:11:11Z</time></trkpt><trkpt lat="44.568792968768314" lon="10.528335495902875"><ele>229.66666666666669</ele><time>2026-04-11T13:11:12Z</time></trkpt><trkpt lat="44.568639118370214" lon="10.528399710558828"><ele>231.33333333333334</ele><time>2026-04-11T13:11:13Z</time></trkpt><trkpt lat="44.568474767623336" lon="10.528451509195095"><ele>233.0</ele><time>2026-04-11T13:11:14Z</time></trkpt><trkpt lat="44.568309637651346" lon="10.528483674268259"><ele>233.0</ele><time>2026-04-11T13:11:15Z</time></trkpt><trkpt lat="44.5681497300123" lon="10.528494232015534"><ele>233.0</ele><time>2026-04-11T13:11:16Z</time></trkpt><trkpt lat="44.56799529517767" lon="10.528502686560511"><ele>233.0</ele><time>2026-04-11T13:11:17Z</time></trkpt><trkpt lat="44.5678443261335" lon="10.528513801396"><ele>233.0</ele><time>2026-04-11T13:11:18Z</time></trkpt><trkpt lat="44.56769366657572" lon="10.528525522200104"><ele>233.0</ele><time>2026-04-11T13:11:19Z</time></trkpt><trkpt lat="44.567543391695956" lon="10.528538255061918"><ele>233.0</ele><time>2026-04-11T13:11:20Z</time></trkpt><trkpt lat="44.567392771717856" lon="10.528550409841085"><ele>233.0</ele><time>2026-04-11T13:11:21Z</time></trkpt><trkpt lat="44.56724223130179" lon="10.528560312987972"><ele>233.0</ele><time>2026-04-11T13:11:22Z</time></trkpt><trkpt lat="44.567096763829454" lon="10.52857012994577"><ele>233.0</ele><time>2026-04-11T13:11:23Z</time></trkpt><trkpt lat="44.566963710585846" lon="10.528583244263984"><ele>233.0</ele><time>2026-04-11T13:11:24Z</time></trkpt><trkpt lat="44.56682981953967" lon="10.52860121482482"><ele>234.25</ele><time>2026-04-11T13:11:25Z</time></trkpt><trkpt lat="44.56669079346223" lon="10.528611781908008"><ele>235.5</ele><time>2026-04-11T13:11:26Z</time></trkpt><trkpt lat="44.56655365397694" lon="10.528626040676032"><ele>236.75</ele><time>2026-04-11T13:11:27Z</time></trkpt><trkpt lat="44.56641952481045" lon="10.528640546109619"><ele>238.0</ele><time>2026-04-11T13:11:28Z</time></trkpt><trkpt lat="44.56628000755582" lon="10.52865358435327"><ele>238.5</ele><time>2026-04-11T13:11:29Z</time></trkpt><trkpt lat="44.56613336628277" lon="10.528663176591873"><ele>239.0</ele><time>2026-04-11T13:11:30Z</time></trkpt><trkpt lat="44.565981893537796" lon="10.528673042627023"><ele>239.5</ele><time>2026-04-11T13:11:31Z</time></trkpt><trkpt lat="44.565836903225275" lon="10.528685549257276"><ele>240.0</ele><time>2026-04-11T13:11:32Z</time></trkpt><trkpt lat="44.565701653757415" lon="10.528697378728332"><ele>240.0</ele><time>2026-04-11T13:11:33Z</time></trkpt><trkpt lat="44.565564566345714" lon="10.528707817315377"><ele>240.0</ele><time>2026-04-11T13:11:34Z</time></trkpt><trkpt lat="44.565430074673706" lon="10.528721426837466"><ele>240.0</ele><time>2026-04-11T13:11:35Z</time></trkpt><trkpt lat="44.565293158160586" lon="10.528735703755128"><ele>240.0</ele><time>2026-04-11T13:11:36Z</time></trkpt><trkpt lat="44.565154117728106" lon="10.528750880556425"><ele>242.0</ele><time>2026-04-11T13:11:37Z</time></trkpt><trkpt lat="44.56501232294355" lon="10.528765346312422"><ele>244.0</ele><time>2026-04-11T13:11:38Z</time></trkpt><trkpt lat="44.56486289110292" lon="10.528781181897157"><ele>246.0</ele><time>2026-04-11T13:11:39Z</time></trkpt><trkpt lat="44.56472116410855" lon="10.528793432751916"><ele>248.0</ele><time>2026-04-11T13:11:40Z</time></trkpt><trkpt lat="44.56460335890034" lon="10.528804199978373"><ele>248.2</ele><time>2026-04-11T13:11:41Z</time></trkpt><trkpt lat="44.56449783093298" lon="10.528812789250546"><ele>248.4</ele><time>2026-04-11T13:11:42Z</time></trkpt><trkpt lat="44.56440641571411" lon="10.528819390731583"><ele>248.59999999999997</ele><time>2026-04-11T13:11:43Z</time></trkpt><trkpt lat="44.56431523338348" lon="10.528825768588728"><ele>248.79999999999998</ele><time>2026-04-11T13:11:44Z</time></trkpt><trkpt lat="44.56422544790786" lon="10.528831754215277"><ele>249.0</ele><time>2026-04-11T13:11:45Z</time></trkpt><trkpt lat="44.56413144553203" lon="10.528838844703726"><ele>249.0</ele><time>2026-04-11T13:11:46Z</time></trkpt><trkpt lat="44.56403968037534" lon="10.528841702802893"><ele>248.99999999999997</ele><time>2026-04-11T13:11:47Z</time></trkpt><trkpt lat="44.56395006597278" lon="10.52883717084853"><ele>248.99999999999997</ele><time>2026-04-11T13:11:48Z</time></trkpt><trkpt lat="44.5638571403333" lon="10.52882675541231"><ele>249.0</ele><time>2026-04-11T13:11:49Z</time></trkpt><trkpt lat="44.563753147154145" lon="10.52881437590819"><ele>249.0</ele><time>2026-04-11T13:11:50Z</time></trkpt><trkpt lat="44.56362116622576" lon="10.528787495019795"><ele>249.0</ele><time>2026-04-11T13:11:51Z</time></trkpt><trkpt lat="44.56347928603846" lon="10.528736312925512"><ele>249.0</ele><time>2026-04-11T13:11:52Z</time></trkpt><trkpt lat="44.56333750856565" lon="10.528661907101474"><ele>249.0</ele><time>2026-04-11T13:11:53Z</time></trkpt><trkpt lat="44.56319260561702" lon="10.528586819193846"><ele>249.0</ele><time>2026-04-11T13:11:54Z</time></trkpt><trkpt lat="44.56305622826377" lon="10.528518270687542"><ele>249.0</ele><time>2026-04-11T13:11:55Z</time></trkpt><trkpt lat="44.56291749858854" lon="10.528466784904358"><ele>249.0</ele><time>2026-04-11T13:11:56Z</time></trkpt><trkpt lat="44.56277507342185" lon="10.528426875596468"><ele>249.0</ele><time>2026-04-11T13:11:57Z</time></trkpt><trkpt lat="44.56262543286358" lon="10.528411018386112"><ele>250.33333333333331</ele><time>2026-04-11T13:11:58Z</time></trkpt><trkpt lat="44.562469176666816" lon="10.528411819003873"><ele>251.66666666666666</ele><time>2026-04-11T13:11:59Z</time></trkpt><trkpt lat="44.56230563870813" lon="10.52842240491429"><ele>253.0</ele><time>2026-04-11T13:12:00Z</time></trkpt><trkpt lat="44.562136682663365" lon="10.5284347855359"><ele>253.66666666666666</ele><time>2026-04-11T13:12:01Z</time></trkpt><trkpt lat="44.56196793548317" lon="10.528442778572753"><ele>254.33333333333331</ele><time>2026-04-11T13:12:02Z</time></trkpt><trkpt lat="44.56179224776062" lon="10.52845305465733"><ele>255.0</ele><time>2026-04-11T13:12:03Z</time></trkpt><trkpt lat="44.561616826044826" lon="10.528463139624872"><ele>255.0</ele><time>2026-04-11T13:12:04Z</time></trkpt><trkpt lat="44.56144319882633" lon="10.528472979377918"><ele>255.0</ele><time>2026-04-11T13:12:05Z</time></trkpt><trkpt lat="44.56127167272498" lon="10.528482762929281"><ele>255.0</ele><time>2026-04-11T13:12:06Z</time></trkpt><trkpt lat="44.56110826141874" lon="10.52849660163418"><ele>256.0</ele><time>2026-04-11T13:12:07Z</time></trkpt><trkpt lat="44.56093945501074" lon="10.528506497173014"><ele>257.0</ele><time>2026-04-11T13:12:08Z</time></trkpt><trkpt lat="44.560769758756976" lon="10.528521131937993"><ele>258.0</ele><time>2026-04-11T13:12:09Z</time></trkpt><trkpt lat="44.56061062499824" lon="10.528542237606628"><ele>258.0</ele><time>2026-04-11T13:12:10Z</time></trkpt><trkpt lat="44.56045031906568" lon="10.528579991460587"><ele>258.0</ele><time>2026-04-11T13:12:11Z</time></trkpt><trkpt lat="44.56029228211384" lon="10.528641922967369"><ele>258.0</ele><time>2026-04-11T13:12:12Z</time></trkpt><trkpt lat="44.56013586852839" lon="10.528717008606554"><ele>260.0</ele><time>2026-04-11T13:12:13Z</time></trkpt><trkpt lat="44.55997543903512" lon="10.528804612949804"><ele>262.0</ele><time>2026-04-11T13:12:14Z</time></trkpt><trkpt lat="44.55980938999836" lon="10.528894174859879"><ele>264.0</ele><time>2026-04-11T13:12:15Z</time></trkpt><trkpt lat="44.55964013986708" lon="10.528983552701133"><ele>264.0</ele><time>2026-04-11T13:12:16Z</time></trkpt><trkpt lat="44.55946504508234" lon="10.529077303266721"><ele>264.0</ele><time>2026-04-11T13:12:17Z</time></trkpt><trkpt lat="44.55928534760853" lon="10.529176482249689"><ele>264.0</ele><time>2026-04-11T13:12:18Z</time></trkpt><trkpt lat="44.55910185813164" lon="10.529273124307988"><ele>264.0</ele><time>2026-04-11T13:12:19Z</time></trkpt><trkpt lat="44.558917240050164" lon="10.529373675059862"><ele>264.0</ele><time>2026-04-11T13:12:20Z</time></trkpt><trkpt lat="44.558732836250506" lon="10.529469490608426"><ele>264.0</ele><time>2026-04-11T13:12:21Z</time></trkpt><trkpt lat="44.55854755055431" lon="10.529558944422831"><ele>266.0</ele><time>2026-04-11T13:12:22Z</time></trkpt><trkpt lat="44.55836470952596" lon="10.529646857670176"><ele>268.0</ele><time>2026-04-11T13:12:23Z</time></trkpt><trkpt lat="44.55817643040993" lon="10.529736081883117"><ele>270.0</ele><time>2026-04-11T13:12:24Z</time></trkpt><trkpt lat="44.55799399902603" lon="10.529821215264272"><ele>269.0</ele><time>2026-04-11T13:12:25Z</time></trkpt><trkpt lat="44.55781391505445" lon="10.529906515683962"><ele>268.0</ele><time>2026-04-11T13:12:26Z</time></trkpt><trkpt lat="44.55764257961369" lon="10.529990292755237"><ele>267.0</ele><time>2026-04-11T13:12:27Z</time></trkpt><trkpt lat="44.557477082713355" lon="10.530074684300383"><ele>267.0</ele><time>2026-04-11T13:12:28Z</time></trkpt><trkpt lat="44.55732163938525" lon="10.530161843650347"><ele>267.0</ele><time>2026-04-11T13:12:29Z</time></trkpt><trkpt lat="44.55716893892842" lon="10.530270919926593"><ele>267.0</ele><time>2026-04-11T13:12:30Z</time></trkpt><trkpt lat="44.55704332993492" lon="10.530406193649151"><ele>269.75</ele><time>2026-04-11T13:12:31Z</time></trkpt><trkpt lat="44.556930773439305" lon="10.530527515706083"><ele>272.5</ele><time>2026-04-11T13:12:32.001Z</time></trkpt><trkpt lat="44.55682583063375" lon="10.530630155997768"><ele>275.25</ele><time>2026-04-11T13:12:33.001Z</time></trkpt><trkpt lat="44.556723060521875" lon="10.530665035228285"><ele>278.0</ele><time>2026-04-11T13:12:34.001Z</time></trkpt><trkpt lat="44.55661764237823" lon="10.5306349262231"><ele>278.0</ele><time>2026-04-11T13:12:35.001Z</time></trkpt><trkpt lat="44.55651750891644" lon="10.530541312130106"><ele>278.0</ele><time>2026-04-11T13:12:36.001Z</time></trkpt><trkpt lat="44.55639970073686" lon="10.530458251209998"><ele>278.0</ele><time>2026-04-11T13:12:37.001Z</time></trkpt><trkpt lat="44.55627534996145" lon="10.530352978915108"><ele>278.0</ele><time>2026-04-11T13:12:38.001Z</time></trkpt><trkpt lat="44.5561355830248" lon="10.53025115742551"><ele>277.33333333333337</ele><time>2026-04-11T13:12:39.001Z</time></trkpt><trkpt lat="44.55598936830827" lon="10.530152139461089"><ele>276.6666666666667</ele><time>2026-04-11T13:12:40.001Z</time></trkpt><trkpt lat="44.55583330883579" lon="10.530047753236767"><ele>276.0</ele><time>2026-04-11T13:12:41.001Z</time></trkpt><trkpt lat="44.55566773269912" lon="10.529952636292512"><ele>276.0</ele><time>2026-04-11T13:12:42.001Z</time></trkpt><trkpt lat="44.55549459072216" lon="10.529872718612067"><ele>276.0</ele><time>2026-04-11T13:12:43.001Z</time></trkpt><trkpt lat="44.55531187806771" lon="10.529833506047758"><ele>276.0</ele><time>2026-04-11T13:12:44.001Z</time></trkpt><trkpt lat="44.55511972204123" lon="10.529819182667786"><ele>278.0</ele><time>2026-04-11T13:12:45.001Z</time></trkpt><trkpt lat="44.55493386422299" lon="10.529796470309273"><ele>280.0</ele><time>2026-04-11T13:12:46.001Z</time></trkpt><trkpt lat="44.55474137373251" lon="10.529762309374899"><ele>282.0</ele><time>2026-04-11T13:12:47.001Z</time></trkpt><trkpt lat="44.55455440323607" lon="10.529722408560808"><ele>282.0</ele><time>2026-04-11T13:12:48.001Z</time></trkpt><trkpt lat="44.55437402651624" lon="10.529686829455978"><ele>282.0</ele><time>2026-04-11T13:12:49.001Z</time></trkpt><trkpt lat="44.55419548116432" lon="10.529652335809486"><ele>282.0</ele><time>2026-04-11T13:12:50.001Z</time></trkpt><trkpt lat="44.55402089193095" lon="10.529632590525793"><ele>282.0</ele><time>2026-04-11T13:12:51.001Z</time></trkpt><trkpt lat="44.553847658292064" lon="10.529635450271067"><ele>282.0</ele><time>2026-04-11T13:12:52.001Z</time></trkpt><trkpt lat="44.55366894807118" lon="10.529671463375626"><ele>282.0</ele><time>2026-04-11T13:12:53.001Z</time></trkpt><trkpt lat="44.55348810876341" lon="10.529708612007767"><ele>281.6666666666667</ele><time>2026-04-11T13:12:54.001Z</time></trkpt><trkpt lat="44.553304713307035" lon="10.52974379103292"><ele>281.33333333333337</ele><time>2026-04-11T13:12:55.001Z</time></trkpt><trkpt lat="44.553120173778595" lon="10.529774899031954"><ele>281.0</ele><time>2026-04-11T13:12:56.001Z</time></trkpt><trkpt lat="44.55293562160411" lon="10.529798647118751"><ele>280.6666666666667</ele><time>2026-04-11T13:12:57.001Z</time></trkpt><trkpt lat="44.55275958982573" lon="10.529820229149557"><ele>280.3333333333333</ele><time>2026-04-11T13:12:58.001Z</time></trkpt><trkpt lat="44.55260199286502" lon="10.529838724485233"><ele>280.0</ele><time>2026-04-11T13:12:59.001Z</time></trkpt><trkpt lat="44.55245033358925" lon="10.529858926162657"><ele>280.0</ele><time>2026-04-11T13:13:00.001Z</time></trkpt><trkpt lat="44.552307072640595" lon="10.529911617137437"><ele>280.0</ele><time>2026-04-11T13:13:01.001Z</time></trkpt><trkpt lat="44.552176234901744" lon="10.530010820812045"><ele>280.0</ele><time>2026-04-11T13:13:02.001Z</time></trkpt><trkpt lat="44.55206953213874" lon="10.530168353629486"><ele>279.66666666666663</ele><time>2026-04-11T13:13:03.001Z</time></trkpt><trkpt lat="44.55197344258832" lon="10.530342665416477"><ele>279.3333333333333</ele><time>2026-04-11T13:13:04.001Z</time></trkpt><trkpt lat="44.55187729236902" lon="10.530508150227151"><ele>279.0</ele><time>2026-04-11T13:13:05.001Z</time></trkpt><trkpt lat="44.55176185355974" lon="10.530624591597359"><ele>280.25</ele><time>2026-04-11T13:13:06.001Z</time></trkpt><trkpt lat="44.55162964200567" lon="10.530668041078274"><ele>281.5</ele><time>2026-04-11T13:13:07.001Z</time></trkpt><trkpt lat="44.551487054184335" lon="10.530664027801595"><ele>282.75</ele><time>2026-04-11T13:13:08.001Z</time></trkpt><trkpt lat="44.551328679937676" lon="10.530671527321529"><ele>284.0</ele><time>2026-04-11T13:13:09.001Z</time></trkpt><trkpt lat="44.55119129659273" lon="10.530701168552621"><ele>284.0</ele><time>2026-04-11T13:13:10.001Z</time></trkpt><trkpt lat="44.55104959969465" lon="10.530719093573449"><ele>284.0</ele><time>2026-04-11T13:13:11.001Z</time></trkpt><trkpt lat="44.55092375881361" lon="10.530736585225482"><ele>284.0</ele><time>2026-04-11T13:13:12.001Z</time></trkpt><trkpt lat="44.5507900798044" lon="10.530718272440337"><ele>284.0</ele><time>2026-04-11T13:13:13.001Z</time></trkpt><trkpt lat="44.550665586172585" lon="10.53065597239606"><ele>284.0</ele><time>2026-04-11T13:13:14.001Z</time></trkpt><trkpt lat="44.550553777486684" lon="10.530559927634156"><ele>284.0</ele><time>2026-04-11T13:13:15.001Z</time></trkpt><trkpt lat="44.55044955096629" lon="10.530467167957907"><ele>284.0</ele><time>2026-04-11T13:13:16.001Z</time></trkpt><trkpt lat="44.55034727611288" lon="10.53041770501277"><ele>284.0</ele><time>2026-04-11T13:13:17.001Z</time></trkpt><trkpt lat="44.55023677556824" lon="10.530431530390013"><ele>284.2</ele><time>2026-04-11T13:13:18.001Z</time></trkpt><trkpt lat="44.550151304898755" lon="10.530500602970273"><ele>284.4</ele><time>2026-04-11T13:13:19.001Z</time></trkpt><trkpt lat="44.550062288147245" lon="10.530562103290176"><ele>284.6</ele><time>2026-04-11T13:13:20.001Z</time></trkpt><trkpt lat="44.54996336942965" lon="10.530539081993147"><ele>284.8</ele><time>2026-04-11T13:13:21.001Z</time></trkpt><trkpt lat="44.5498825705657" lon="10.530453434729539"><ele>285.0</ele><time>2026-04-11T13:13:22.001Z</time></trkpt><trkpt lat="44.54981692038704" lon="10.530335377147333"><ele>286.5</ele><time>2026-04-11T13:13:23.001Z</time></trkpt><trkpt lat="44.549744699960115" lon="10.53021319127663"><ele>288.0</ele><time>2026-04-11T13:13:24.001Z</time></trkpt><trkpt lat="44.54965021711066" lon="10.53010653694979"><ele>289.5</ele><time>2026-04-11T13:13:25.001Z</time></trkpt><trkpt lat="44.54953880885735" lon="10.530019145730126"><ele>291.0</ele><time>2026-04-11T13:13:26.001Z</time></trkpt><trkpt lat="44.54940952702626" lon="10.529958809427196"><ele>291.40000000000003</ele><time>2026-04-11T13:13:27.001Z</time></trkpt><trkpt lat="44.54928001613198" lon="10.529917700097332"><ele>291.8</ele><time>2026-04-11T13:13:28.001Z</time></trkpt><trkpt lat="44.54916539526612" lon="10.529885265659706"><ele>292.20000000000005</ele><time>2026-04-11T13:13:29.001Z</time></trkpt><trkpt lat="44.549066791572145" lon="10.529854816268756"><ele>292.6</ele><time>2026-04-11T13:13:30.001Z</time></trkpt><trkpt lat="44.54898433872245" lon="10.529820877684072"><ele>293.0</ele><time>2026-04-11T13:13:31.001Z</time></trkpt><trkpt lat="44.54892134255305" lon="10.529747436680038"><ele>293.0</ele><time>2026-04-11T13:13:32.001Z</time></trkpt><trkpt lat="44.54889805056482" lon="10.52962633837216"><ele>293.0</ele><time>2026-04-11T13:13:33.001Z</time></trkpt><trkpt lat="44.548947705263735" lon="10.52951351489601"><ele>293.0</ele><time>2026-04-11T13:13:34.001Z</time></trkpt><trkpt lat="44.548967384267094" lon="10.529379942189752"><ele>293.0</ele><time>2026-04-11T13:13:35.001Z</time></trkpt><trkpt lat="44.54896314862375" lon="10.529229297210048"><ele>293.0</ele><time>2026-04-11T13:13:36.001Z</time></trkpt><trkpt lat="44.54893032081564" lon="10.529068383987164"><ele>295.75</ele><time>2026-04-11T13:13:37.001Z</time></trkpt><trkpt lat="44.54888228444045" lon="10.528914947983976"><ele>298.5</ele><time>2026-04-11T13:13:38.001Z</time></trkpt><trkpt lat="44.548813212638116" lon="10.52878045861348"><ele>301.25</ele><time>2026-04-11T13:13:39.001Z</time></trkpt><trkpt lat="44.54871333829585" lon="10.528698121337897"><ele>304.0</ele><time>2026-04-11T13:13:40.001Z</time></trkpt><trkpt lat="44.548598668316124" lon="10.528678101187909"><ele>304.75</ele><time>2026-04-11T13:13:41.001Z</time></trkpt><trkpt lat="44.54848134217183" lon="10.528724215432005"><ele>305.5</ele><time>2026-04-11T13:13:42.001Z</time></trkpt><trkpt lat="44.54837244308256" lon="10.528817352586891"><ele>306.25</ele><time>2026-04-11T13:13:43.001Z</time></trkpt><trkpt lat="44.548264876532144" lon="10.528922980460646"><ele>307.0</ele><time>2026-04-11T13:13:44.001Z</time></trkpt><trkpt lat="44.54815910671589" lon="10.52901959770978"><ele>305.4</ele><time>2026-04-11T13:13:45.001Z</time></trkpt><trkpt lat="44.54805914697219" lon="10.52909265977307"><ele>303.79999999999995</ele><time>2026-04-11T13:13:46.001Z</time></trkpt><trkpt lat="44.547963661922466" lon="10.52914168994752"><ele>302.2</ele><time>2026-04-11T13:13:47.001Z</time></trkpt><trkpt lat="44.54786670221083" lon="10.529132772128534"><ele>300.59999999999997</ele><time>2026-04-11T13:13:48.001Z</time></trkpt><trkpt lat="44.54778198273998" lon="10.52905702260515"><ele>299.0</ele><time>2026-04-11T13:13:49.001Z</time></trkpt><trkpt lat="44.54772044906214" lon="10.528930421368704"><ele>299.0</ele><time>2026-04-11T13:13:50.001Z</time></trkpt><trkpt lat="44.5476565355323" lon="10.52879190090945"><ele>299.0</ele><time>2026-04-11T13:13:51.001Z</time></trkpt><trkpt lat="44.547579332609686" lon="10.528663154343567"><ele>299.0</ele><time>2026-04-11T13:13:52.001Z</time></trkpt><trkpt lat="44.54750069368453" lon="10.528528779500938"><ele>299.0</ele><time>2026-04-11T13:13:53.001Z</time></trkpt><trkpt lat="44.54741770877598" lon="10.528401683486466"><ele>299.25</ele><time>2026-04-11T13:13:54.001Z</time></trkpt><trkpt lat="44.54732204368071" lon="10.528318514272424"><ele>299.5</ele><time>2026-04-11T13:13:55.001Z</time></trkpt><trkpt lat="44.54721195011723" lon="10.528287979093216"><ele>299.75</ele><time>2026-04-11T13:13:56.001Z</time></trkpt><trkpt lat="44.547097936537966" lon="10.528298520092541"><ele>300.0</ele><time>2026-04-11T13:13:57.001Z</time></trkpt><trkpt lat="44.54698383746533" lon="10.52829596455123"><ele>301.4</ele><time>2026-04-11T13:13:58.001Z</time></trkpt><trkpt lat="44.546887182441225" lon="10.528239347050693"><ele>302.8</ele><time>2026-04-11T13:13:59.001Z</time></trkpt><trkpt lat="44.546826175805045" lon="10.528127571180612"><ele>304.2</ele><time>2026-04-11T13:14:00.001Z</time></trkpt><trkpt lat="44.546807603276314" lon="10.527990778773665"><ele>305.6</ele><time>2026-04-11T13:14:01.001Z</time></trkpt><trkpt lat="44.54682903932986" lon="10.527833987149387"><ele>307.0</ele><time>2026-04-11T13:14:02.001Z</time></trkpt><trkpt lat="44.54685248423271" lon="10.527666432688033"><ele>307.0</ele><time>2026-04-11T13:14:03.001Z</time></trkpt><trkpt lat="44.546856707108674" lon="10.527481378552146"><ele>307.0</ele><time>2026-04-11T13:14:04.001Z</time></trkpt><trkpt lat="44.54684731383406" lon="10.527290997959037"><ele>307.0</ele><time>2026-04-11T13:14:05.001Z</time></trkpt><trkpt lat="44.546800128670114" lon="10.527113084978438"><ele>307.0</ele><time>2026-04-11T13:14:06.001Z</time></trkpt><trkpt lat="44.546746319756515" lon="10.526942815285578"><ele>307.25</ele><time>2026-04-11T13:14:07.001Z</time></trkpt><trkpt lat="44.54669502761179" lon="10.526781913710165"><ele>307.5</ele><time>2026-04-11T13:14:08.001Z</time></trkpt><trkpt lat="44.54663179337025" lon="10.52662951011114"><ele>307.75</ele><time>2026-04-11T13:14:09.001Z</time></trkpt><trkpt lat="44.54654039434969" lon="10.5265013969197"><ele>308.0</ele><time>2026-04-11T13:14:10.001Z</time></trkpt><trkpt lat="44.54641702077952" lon="10.526414471802498"><ele>308.0</ele><time>2026-04-11T13:14:11.001Z</time></trkpt><trkpt lat="44.54629608381343" lon="10.526344722330501"><ele>308.0</ele><time>2026-04-11T13:14:12.001Z</time></trkpt><trkpt lat="44.54618916807808" lon="10.526270143813711"><ele>308.0</ele><time>2026-04-11T13:14:13.001Z</time></trkpt><trkpt lat="44.54610604471288" lon="10.526161531356436"><ele>308.0</ele><time>2026-04-11T13:14:14.001Z</time></trkpt><trkpt lat="44.54603922494678" lon="10.526019044177017"><ele>310.75</ele><time>2026-04-11T13:14:15.001Z</time></trkpt><trkpt lat="44.54598020663232" lon="10.525857027475038"><ele>313.5</ele><time>2026-04-11T13:14:16.001Z</time></trkpt><trkpt lat="44.545892019942194" lon="10.525710286631695"><ele>316.25</ele><time>2026-04-11T13:14:17.001Z</time></trkpt><trkpt lat="44.54576221961993" lon="10.525612673447782"><ele>319.0</ele><time>2026-04-11T13:14:18.001Z</time></trkpt><trkpt lat="44.54561865790444" lon="10.525550057771756"><ele>319.0</ele><time>2026-04-11T13:14:19.001Z</time></trkpt><trkpt lat="44.54546789692618" lon="10.52550254647028"><ele>319.0</ele><time>2026-04-11T13:14:20.001Z</time></trkpt><trkpt lat="44.54532135818725" lon="10.525480625763429"><ele>319.0</ele><time>2026-04-11T13:14:21.001Z</time></trkpt><trkpt lat="44.54518397304825" lon="10.525499289656715"><ele>319.0</ele><time>2026-04-11T13:14:22.001Z</time></trkpt><trkpt lat="44.545064225473034" lon="10.525516133538506"><ele>318.8</ele><time>2026-04-11T13:14:23.001Z</time></trkpt><trkpt lat="44.544952116097384" lon="10.525524797216791"><ele>318.59999999999997</ele><time>2026-04-11T13:14:24.001Z</time></trkpt><trkpt lat="44.54484854470329" lon="10.5255231266661"><ele>318.4</ele><time>2026-04-11T13:14:25.001Z</time></trkpt><trkpt lat="44.54474567508738" lon="10.525497303076309"><ele>318.2</ele><time>2026-04-11T13:14:26.001Z</time></trkpt><trkpt lat="44.54464454526445" lon="10.52544696360353"><ele>318.0</ele><time>2026-04-11T13:14:27.001Z</time></trkpt><trkpt lat="44.54455499168212" lon="10.525366473726885"><ele>319.0</ele><time>2026-04-11T13:14:28.001Z</time></trkpt><trkpt lat="44.54448390522405" lon="10.525246251630453"><ele>320.0</ele><time>2026-04-11T13:14:29.001Z</time></trkpt><trkpt lat="44.54443000827472" lon="10.525106250787493"><ele>321.0</ele><time>2026-04-11T13:14:30.001Z</time></trkpt><trkpt lat="44.54439357698961" lon="10.524954571348058"><ele>322.0</ele><time>2026-04-11T13:14:31.001Z</time></trkpt><trkpt lat="44.544340528475054" lon="10.524809704573542"><ele>322.0</ele><time>2026-04-11T13:14:32.001Z</time></trkpt><trkpt lat="44.54424729116337" lon="10.524705532882715"><ele>322.0</ele><time>2026-04-11T13:14:33.001Z</time></trkpt><trkpt lat="44.544135997402435" lon="10.524603916066308"><ele>322.0</ele><time>2026-04-11T13:14:34.001Z</time></trkpt><trkpt lat="44.54401356808673" lon="10.524515164588296"><ele>322.0</ele><time>2026-04-11T13:14:35.001Z</time></trkpt><trkpt lat="44.543923916500006" lon="10.524372308084887"><ele>322.0</ele><time>2026-04-11T13:14:36.001Z</time></trkpt><trkpt lat="44.54383716177446" lon="10.524218461118334"><ele>322.0</ele><time>2026-04-11T13:14:37.001Z</time></trkpt><trkpt lat="44.54375001575359" lon="10.524065225776415"><ele>322.0</ele><time>2026-04-11T13:14:38.001Z</time></trkpt><trkpt lat="44.54366116061057" lon="10.52391984029674"><ele>322.0</ele><time>2026-04-11T13:14:39.001Z</time></trkpt><trkpt lat="44.54357193605058" lon="10.523770205034111"><ele>324.25</ele><time>2026-04-11T13:14:40.001Z</time></trkpt><trkpt lat="44.543488857550926" lon="10.523627245619846"><ele>326.5</ele><time>2026-04-11T13:14:41.001Z</time></trkpt><trkpt lat="44.54342090970798" lon="10.523495564745918"><ele>328.75</ele><time>2026-04-11T13:14:42.001Z</time></trkpt><trkpt lat="44.54335541307788" lon="10.52336654306395"><ele>331.0</ele><time>2026-04-11T13:14:43.001Z</time></trkpt><trkpt lat="44.54327464905031" lon="10.523239761794828"><ele>331.0</ele><time>2026-04-11T13:14:44.001Z</time></trkpt><trkpt lat="44.543180762090564" lon="10.52312385766775"><ele>331.0</ele><time>2026-04-11T13:14:45.001Z</time></trkpt><trkpt lat="44.5430865241245" lon="10.52300922017801"><ele>331.0</ele><time>2026-04-11T13:14:46.001Z</time></trkpt><trkpt lat="44.54299857384775" lon="10.522903264955898"><ele>331.0</ele><time>2026-04-11T13:14:47.001Z</time></trkpt><trkpt lat="44.542907332874876" lon="10.522794786060004"><ele>331.75</ele><time>2026-04-11T13:14:48.001Z</time></trkpt><trkpt lat="44.54280099267291" lon="10.522709097706063"><ele>332.5</ele><time>2026-04-11T13:14:49.001Z</time></trkpt><trkpt lat="44.54268749933288" lon="10.522667483941323"><ele>333.25</ele><time>2026-04-11T13:14:50.001Z</time></trkpt><trkpt lat="44.54257521582544" lon="10.5226429500864"><ele>334.0</ele><time>2026-04-11T13:14:51.001Z</time></trkpt><trkpt lat="44.54246643643551" lon="10.522605214732684"><ele>334.0</ele><time>2026-04-11T13:14:52.001Z</time></trkpt><trkpt lat="44.5423597059739" lon="10.522559054801205"><ele>334.0</ele><time>2026-04-11T13:14:53.001Z</time></trkpt><trkpt lat="44.54225463472706" lon="10.522495600206167"><ele>334.0</ele><time>2026-04-11T13:14:54.001Z</time></trkpt><trkpt lat="44.54216629946129" lon="10.522400435426414"><ele>334.0</ele><time>2026-04-11T13:14:55.001Z</time></trkpt><trkpt lat="44.54210535474364" lon="10.522281224826026"><ele>334.0</ele><time>2026-04-11T13:14:56.001Z</time></trkpt><trkpt lat="44.542065827623276" lon="10.522149573575037"><ele>333.79999999999995</ele><time>2026-04-11T13:14:57.001Z</time></trkpt><trkpt lat="44.54204733239374" lon="10.522021431066198"><ele>333.59999999999997</ele><time>2026-04-11T13:14:58.001Z</time></trkpt><trkpt lat="44.54203622741948" lon="10.521885213574556"><ele>333.4</ele><time>2026-04-11T13:14:59.001Z</time></trkpt><trkpt lat="44.542025514244344" lon="10.521745302676665"><ele>333.2</ele><time>2026-04-11T13:15:00.001Z</time></trkpt><trkpt lat="44.542010599576905" lon="10.521602961209608"><ele>333.0</ele><time>2026-04-11T13:15:01.001Z</time></trkpt><trkpt lat="44.54198760584087" lon="10.52145749740872"><ele>333.0</ele><time>2026-04-11T13:15:02.001Z</time></trkpt><trkpt lat="44.54196351235098" lon="10.521310191068473"><ele>333.0</ele><time>2026-04-11T13:15:03.001Z</time></trkpt><trkpt lat="44.54193405821677" lon="10.5211709856111"><ele>333.0</ele><time>2026-04-11T13:15:04.001Z</time></trkpt><trkpt lat="44.54189719569286" lon="10.521042091569692"><ele>333.0</ele><time>2026-04-11T13:15:05.001Z</time></trkpt><trkpt lat="44.54182914019546" lon="10.520951993587465"><ele>333.0</ele><time>2026-04-11T13:15:06.001Z</time></trkpt><trkpt lat="44.54173393041236" lon="10.520920897143029"><ele>335.4</ele><time>2026-04-11T13:15:07.001Z</time></trkpt><trkpt lat="44.5416333859973" lon="10.520940529899503"><ele>337.79999999999995</ele><time>2026-04-11T13:15:08.001Z</time></trkpt><trkpt lat="44.54153523091381" lon="10.520964809651128"><ele>340.2</ele><time>2026-04-11T13:15:09.001Z</time></trkpt><trkpt lat="44.541433826551035" lon="10.52097366937332"><ele>342.6</ele><time>2026-04-11T13:15:10.001Z</time></trkpt><trkpt lat="44.54132951099266" lon="10.52097854946543"><ele>345.0</ele><time>2026-04-11T13:15:11.001Z</time></trkpt><trkpt lat="44.5412217361902" lon="10.520975910240844"><ele>344.8</ele><time>2026-04-11T13:15:12.001Z</time></trkpt><trkpt lat="44.541113352664986" lon="10.520955854522358"><ele>344.6</ele><time>2026-04-11T13:15:13.001Z</time></trkpt><trkpt lat="44.54100262108286" lon="10.52093256751156"><ele>344.4</ele><time>2026-04-11T13:15:14.001Z</time></trkpt><trkpt lat="44.54089145011924" lon="10.520914883311962"><ele>344.2</ele><time>2026-04-11T13:15:15.001Z</time></trkpt><trkpt lat="44.540781273197716" lon="10.520889415989801"><ele>344.0</ele><time>2026-04-11T13:15:16.001Z</time></trkpt><trkpt lat="44.54067721462833" lon="10.520866031328923"><ele>344.0</ele><time>2026-04-11T13:15:17.001Z</time></trkpt><trkpt lat="44.54058105353806" lon="10.520836219852853"><ele>344.0</ele><time>2026-04-11T13:15:18.001Z</time></trkpt><trkpt lat="44.540494198735196" lon="10.520771030894831"><ele>344.0</ele><time>2026-04-11T13:15:19.001Z</time></trkpt><trkpt lat="44.54042459293231" lon="10.520666887966708"><ele>344.0</ele><time>2026-04-11T13:15:20.001Z</time></trkpt><trkpt lat="44.54037070190038" lon="10.520537116473617"><ele>344.0</ele><time>2026-04-11T13:15:21.001Z</time></trkpt><trkpt lat="44.540326904294425" lon="10.52039884120062"><ele>344.6</ele><time>2026-04-11T13:15:22.001Z</time></trkpt><trkpt lat="44.540291819862894" lon="10.520254293739676"><ele>345.2</ele><time>2026-04-11T13:15:23.001Z</time></trkpt><trkpt lat="44.54026600086865" lon="10.520104885743583"><ele>345.8</ele><time>2026-04-11T13:15:24.001Z</time></trkpt><trkpt lat="44.540232353778" lon="10.519961596057742"><ele>346.40000000000003</ele><time>2026-04-11T13:15:25.001Z</time></trkpt><trkpt lat="44.54017603420355" lon="10.519825770104202"><ele>347.0</ele><time>2026-04-11T13:15:26.001Z</time></trkpt><trkpt lat="44.54009642507567" lon="10.519705101232738"><ele>347.0</ele><time>2026-04-11T13:15:27.001Z</time></trkpt><trkpt lat="44.54000927124616" lon="10.519600069136468"><ele>347.0</ele><time>2026-04-11T13:15:28.001Z</time></trkpt><trkpt lat="44.53992663665954" lon="10.519493477626877"><ele>347.0</ele><time>2026-04-11T13:15:29.001Z</time></trkpt><trkpt lat="44.53984385667886" lon="10.51939841714797"><ele>347.0</ele><time>2026-04-11T13:15:30.001Z</time></trkpt><trkpt lat="44.539754441541184" lon="10.519327931647906"><ele>347.0</ele><time>2026-04-11T13:15:31.001Z</time></trkpt><trkpt lat="44.53965254473331" lon="10.519291765357396"><ele>352.40000000000003</ele><time>2026-04-11T13:15:32.001Z</time></trkpt><trkpt lat="44.53954618799102" lon="10.519294858578547"><ele>357.8</ele><time>2026-04-11T13:15:33.001Z</time></trkpt><trkpt lat="44.5394408759635" lon="10.519319878313674"><ele>363.2</ele><time>2026-04-11T13:15:34.001Z</time></trkpt><trkpt lat="44.539333687469046" lon="10.519349771121632"><ele>368.6</ele><time>2026-04-11T13:15:35.001Z</time></trkpt><trkpt lat="44.53922944590067" lon="10.51937481872862"><ele>374.0</ele><time>2026-04-11T13:15:36.001Z</time></trkpt><trkpt lat="44.53913969133067" lon="10.519396567653654"><ele>374.0</ele><time>2026-04-11T13:15:37.001Z</time></trkpt><trkpt lat="44.53905860649148" lon="10.519423659312338"><ele>374.0</ele><time>2026-04-11T13:15:38.001Z</time></trkpt><trkpt lat="44.53898994956416" lon="10.519443268735166"><ele>374.0</ele><time>2026-04-11T13:15:39.001Z</time></trkpt><trkpt lat="44.53892052643499" lon="10.519468063366215"><ele>374.0</ele><time>2026-04-11T13:15:40.001Z</time></trkpt><trkpt lat="44.53884598825129" lon="10.51949008238481"><ele>374.0</ele><time>2026-04-11T13:15:41.001Z</time></trkpt><trkpt lat="44.538767785515645" lon="10.519503135257693"><ele>374.0</ele><time>2026-04-11T13:15:42.001Z</time></trkpt><trkpt lat="44.53868950811423" lon="10.519495926105712"><ele>373.83333333333337</ele><time>2026-04-11T13:15:43.001Z</time></trkpt><trkpt lat="44.53861280741106" lon="10.519468978187266"><ele>373.6666666666667</ele><time>2026-04-11T13:15:44.001Z</time></trkpt><trkpt lat="44.53853331081987" lon="10.519448259358011"><ele>373.5</ele><time>2026-04-11T13:15:45.001Z</time></trkpt><trkpt lat="44.53844934671433" lon="10.519460851551424"><ele>373.3333333333333</ele><time>2026-04-11T13:15:46.001Z</time></trkpt><trkpt lat="44.53838238462972" lon="10.51953554110696"><ele>373.16666666666663</ele><time>2026-04-11T13:15:47.001Z</time></trkpt><trkpt lat="44.53833825014839" lon="10.519643408287967"><ele>373.0</ele><time>2026-04-11T13:15:48.001Z</time></trkpt><trkpt lat="44.538295263273284" lon="10.51976453786234"><ele>367.5</ele><time>2026-04-11T13:15:49.001Z</time></trkpt><trkpt lat="44.53823333472186" lon="10.519887930152404"><ele>362.0</ele><time>2026-04-11T13:15:50.001Z</time></trkpt><trkpt lat="44.53815016943865" lon="10.52000601747329"><ele>356.5</ele><time>2026-04-11T13:15:51Z</time></trkpt><trkpt lat="44.5380542063914" lon="10.520116987787267"><ele>351.0</ele><time>2026-04-11T13:15:52Z</time></trkpt><trkpt lat="44.53794007758233" lon="10.520201346720592"><ele>353.25</ele><time>2026-04-11T13:15:53Z</time></trkpt><trkpt lat="44.53781434380696" lon="10.52025357046794"><ele>355.5</ele><time>2026-04-11T13:15:54Z</time></trkpt><trkpt lat="44.53768646346314" lon="10.520281846900017"><ele>357.75</ele><time>2026-04-11T13:15:55Z</time></trkpt><trkpt lat="44.537555037140585" lon="10.520298838604555"><ele>360.0</ele><time>2026-04-11T13:15:56Z</time></trkpt><trkpt lat="44.53742187465615" lon="10.520310301483883"><ele>360.0</ele><time>2026-04-11T13:15:57Z</time></trkpt><trkpt lat="44.53729385254661" lon="10.520309640031723"><ele>360.0</ele><time>2026-04-11T13:15:58Z</time></trkpt><trkpt lat="44.53716255925396" lon="10.520286658915627"><ele>360.0</ele><time>2026-04-11T13:15:59Z</time></trkpt><trkpt lat="44.537033967447464" lon="10.520248908109782"><ele>360.0</ele><time>2026-04-11T13:16:00Z</time></trkpt><trkpt lat="44.53689806179727" lon="10.520215388665022"><ele>361.25</ele><time>2026-04-11T13:16:01Z</time></trkpt><trkpt lat="44.536761530943494" lon="10.520198560966037"><ele>362.5</ele><time>2026-04-11T13:16:02Z</time></trkpt><trkpt lat="44.53662343852354" lon="10.520192901529807"><ele>363.75</ele><time>2026-04-11T13:16:03Z</time></trkpt><trkpt lat="44.53648760341124" lon="10.520188000931848"><ele>365.0</ele><time>2026-04-11T13:16:04Z</time></trkpt><trkpt lat="44.53635806839395" lon="10.520181715969258"><ele>365.0</ele><time>2026-04-11T13:16:05Z</time></trkpt><trkpt lat="44.536228185520685" lon="10.520168996360386"><ele>365.0</ele><time>2026-04-11T13:16:06Z</time></trkpt><trkpt lat="44.536098740607045" lon="10.52015447268712"><ele>365.0</ele><time>2026-04-11T13:16:07Z</time></trkpt><trkpt lat="44.53597392017845" lon="10.52012185887538"><ele>365.0</ele><time>2026-04-11T13:16:08Z</time></trkpt><trkpt lat="44.53585752799997" lon="10.520053065243252"><ele>365.75</ele><time>2026-04-11T13:16:09Z</time></trkpt><trkpt lat="44.53575718921953" lon="10.519941400498837"><ele>366.5</ele><time>2026-04-11T13:16:10Z</time></trkpt><trkpt lat="44.53567648652912" lon="10.51979474286348"><ele>367.25</ele><time>2026-04-11T13:16:11Z</time></trkpt><trkpt lat="44.53562335152535" lon="10.519629899448612"><ele>368.0</ele><time>2026-04-11T13:16:12Z</time></trkpt><trkpt lat="44.53561416084964" lon="10.519454122499381"><ele>368.0</ele><time>2026-04-11T13:16:13Z</time></trkpt><trkpt lat="44.535611237994026" lon="10.519290648664208"><ele>368.0</ele><time>2026-04-11T13:16:14Z</time></trkpt><trkpt lat="44.53557095752802" lon="10.519136155142506"><ele>368.0</ele><time>2026-04-11T13:16:15Z</time></trkpt><trkpt lat="44.53550191744617" lon="10.518984926134328"><ele>368.0</ele><time>2026-04-11T13:16:16Z</time></trkpt><trkpt lat="44.5354101488491" lon="10.51885575885806"><ele>369.0</ele><time>2026-04-11T13:16:17Z</time></trkpt><trkpt lat="44.53530652291453" lon="10.518742475928857"><ele>370.0</ele><time>2026-04-11T13:16:18Z</time></trkpt><trkpt lat="44.53520065857904" lon="10.51863561519599"><ele>371.0</ele><time>2026-04-11T13:16:19Z</time></trkpt><trkpt lat="44.53508635762928" lon="10.51854135722228"><ele>372.0</ele><time>2026-04-11T13:16:20Z</time></trkpt><trkpt lat="44.534958721026534" lon="10.518470296020052"><ele>372.0</ele><time>2026-04-11T13:16:21Z</time></trkpt><trkpt lat="44.53481895888622" lon="10.518431021616076"><ele>372.0</ele><time>2026-04-11T13:16:22Z</time></trkpt><trkpt lat="44.53466823407431" lon="10.518427448673478"><ele>372.0</ele><time>2026-04-11T13:16:23Z</time></trkpt><trkpt lat="44.53451641593662" lon="10.518430884358793"><ele>372.0</ele><time>2026-04-11T13:16:24Z</time></trkpt><trkpt lat="44.5343715748114" lon="10.518426350850541"><ele>370.75</ele><time>2026-04-11T13:16:25Z</time></trkpt><trkpt lat="44.53423605013706" lon="10.518398838002886"><ele>369.5</ele><time>2026-04-11T13:16:26Z</time></trkpt><trkpt lat="44.534106060777034" lon="10.518328476577196"><ele>368.25</ele><time>2026-04-11T13:16:27Z</time></trkpt><trkpt lat="44.53398884891704" lon="10.518209987817484"><ele>367.0</ele><time>2026-04-11T13:16:28Z</time></trkpt><trkpt lat="44.533902005773925" lon="10.518051047328123"><ele>366.3333333333333</ele><time>2026-04-11T13:16:29Z</time></trkpt><trkpt lat="44.53382643024064" lon="10.517877420047553"><ele>365.6666666666667</ele><time>2026-04-11T13:16:30Z</time></trkpt><trkpt lat="44.533742164385515" lon="10.517702934725884"><ele>365.0</ele><time>2026-04-11T13:16:31Z</time></trkpt><trkpt lat="44.533646378614364" lon="10.517533032489908"><ele>365.0</ele><time>2026-04-11T13:16:32Z</time></trkpt><trkpt lat="44.533530925186554" lon="10.517398858591774"><ele>365.0</ele><time>2026-04-11T13:16:33Z</time></trkpt><trkpt lat="44.53339875897182" lon="10.517277565573067"><ele>365.0</ele><time>2026-04-11T13:16:34Z</time></trkpt><trkpt lat="44.533269236399605" lon="10.517155167618705"><ele>366.33333333333337</ele><time>2026-04-11T13:16:35Z</time></trkpt><trkpt lat="44.53314203042492" lon="10.51702572579689"><ele>367.6666666666667</ele><time>2026-04-11T13:16:36Z</time></trkpt><trkpt lat="44.53301038406766" lon="10.516906779542264"><ele>369.0</ele><time>2026-04-11T13:16:37Z</time></trkpt><trkpt lat="44.532874115866846" lon="10.516798360298523"><ele>369.0</ele><time>2026-04-11T13:16:38Z</time></trkpt><trkpt lat="44.532731949911216" lon="10.516705879747608"><ele>369.0</ele><time>2026-04-11T13:16:39Z</time></trkpt><trkpt lat="44.53258533551202" lon="10.516634805199802"><ele>369.0</ele><time>2026-04-11T13:16:40Z</time></trkpt><trkpt lat="44.532429766601346" lon="10.516581876315692"><ele>369.0</ele><time>2026-04-11T13:16:41Z</time></trkpt><trkpt lat="44.5322718598903" lon="10.516537359137528"><ele>369.0</ele><time>2026-04-11T13:16:42Z</time></trkpt><trkpt lat="44.532111487534166" lon="10.516492186021853"><ele>369.0</ele><time>2026-04-11T13:16:43Z</time></trkpt><trkpt lat="44.53195333517772" lon="10.516448133115041"><ele>368.5</ele><time>2026-04-11T13:16:44Z</time></trkpt><trkpt lat="44.53180979330338" lon="10.516411231755262"><ele>368.0</ele><time>2026-04-11T13:16:45Z</time></trkpt><trkpt lat="44.53167080110697" lon="10.51638744662223"><ele>367.5</ele><time>2026-04-11T13:16:46Z</time></trkpt><trkpt lat="44.53152421176953" lon="10.516392800647433"><ele>367.0</ele><time>2026-04-11T13:16:47Z</time></trkpt><trkpt lat="44.53137179473003" lon="10.516450787574701"><ele>370.0</ele><time>2026-04-11T13:16:48Z</time></trkpt><trkpt lat="44.53121731585387" lon="10.516537234534422"><ele>373.0</ele><time>2026-04-11T13:16:49Z</time></trkpt><trkpt lat="44.53105660769047" lon="10.516631219808376"><ele>376.0</ele><time>2026-04-11T13:16:50Z</time></trkpt><trkpt lat="44.53088777858767" lon="10.51671333133332"><ele>376.0</ele><time>2026-04-11T13:16:51Z</time></trkpt><trkpt lat="44.53071293681602" lon="10.516795854197518"><ele>376.0</ele><time>2026-04-11T13:16:52Z</time></trkpt><trkpt lat="44.53054177561066" lon="10.516879530132575"><ele>376.0</ele><time>2026-04-11T13:16:53Z</time></trkpt><trkpt lat="44.53037595044976" lon="10.516962145887634"><ele>374.3333333333333</ele><time>2026-04-11T13:16:54Z</time></trkpt><trkpt lat="44.530218669672784" lon="10.517038897160242"><ele>372.6666666666667</ele><time>2026-04-11T13:16:55Z</time></trkpt><trkpt lat="44.5300704947056" lon="10.517099790165092"><ele>371.0</ele><time>2026-04-11T13:16:56Z</time></trkpt><trkpt lat="44.52992834635197" lon="10.51714326542723"><ele>371.0</ele><time>2026-04-11T13:16:57Z</time></trkpt><trkpt lat="44.52978346132234" lon="10.517154541550223"><ele>371.0</ele><time>2026-04-11T13:16:58Z</time></trkpt><trkpt lat="44.52963347138694" lon="10.51713361727405"><ele>371.0</ele><time>2026-04-11T13:16:59Z</time></trkpt><trkpt lat="44.52947741687609" lon="10.51708809379664"><ele>375.0</ele><time>2026-04-11T13:17:00Z</time></trkpt><trkpt lat="44.52931901275085" lon="10.517019663248304"><ele>379.0</ele><time>2026-04-11T13:17:01Z</time></trkpt><trkpt lat="44.5291631439815" lon="10.516928919856328"><ele>383.0</ele><time>2026-04-11T13:17:02Z</time></trkpt><trkpt lat="44.5290154041579" lon="10.516817060264101"><ele>383.0</ele><time>2026-04-11T13:17:03Z</time></trkpt><trkpt lat="44.5288789508239" lon="10.516699525609075"><ele>383.0</ele><time>2026-04-11T13:17:04Z</time></trkpt><trkpt lat="44.52876789498695" lon="10.516575976486724"><ele>383.0</ele><time>2026-04-11T13:17:05Z</time></trkpt><trkpt lat="44.5286888152118" lon="10.516435412349376"><ele>383.0</ele><time>2026-04-11T13:17:06Z</time></trkpt><trkpt lat="44.52866345260282" lon="10.516280095638962"><ele>384.0</ele><time>2026-04-11T13:17:07Z</time></trkpt><trkpt lat="44.5286760761135" lon="10.51612925125962"><ele>385.0</ele><time>2026-04-11T13:17:08Z</time></trkpt><trkpt lat="44.5287141815885" lon="10.515984463034343"><ele>386.0</ele><time>2026-04-11T13:17:09Z</time></trkpt><trkpt lat="44.528761229282615" lon="10.515832082516285"><ele>387.0</ele><time>2026-04-11T13:17:10Z</time></trkpt><trkpt lat="44.52881221425626" lon="10.51567435820075"><ele>389.75</ele><time>2026-04-11T13:17:11Z</time></trkpt><trkpt lat="44.528866560450425" lon="10.515504276007391"><ele>392.5</ele><time>2026-04-11T13:17:12Z</time></trkpt><trkpt lat="44.5289172543218" lon="10.515332617023612"><ele>395.25</ele><time>2026-04-11T13:17:13Z</time></trkpt><trkpt lat="44.52894911526593" lon="10.515150578990278"><ele>398.0</ele><time>2026-04-11T13:17:14Z</time></trkpt><trkpt lat="44.52894274216867" lon="10.514957652985585"><ele>397.66666666666663</ele><time>2026-04-11T13:17:15Z</time></trkpt><trkpt lat="44.52888354406759" lon="10.514766921686254"><ele>397.33333333333337</ele><time>2026-04-11T13:17:16Z</time></trkpt><trkpt lat="44.528802229386066" lon="10.51459034674902"><ele>397.0</ele><time>2026-04-11T13:17:17Z</time></trkpt><trkpt lat="44.528685939289446" lon="10.51444233891754"><ele>397.0</ele><time>2026-04-11T13:17:18Z</time></trkpt><trkpt lat="44.52852901963852" lon="10.514330533844555"><ele>397.0</ele><time>2026-04-11T13:17:19Z</time></trkpt><trkpt lat="44.528384207537755" lon="10.51420448463435"><ele>397.0</ele><time>2026-04-11T13:17:20Z</time></trkpt><trkpt lat="44.52823748752354" lon="10.514068446747887"><ele>397.0</ele><time>2026-04-11T13:17:21Z</time></trkpt><trkpt lat="44.528093783480614" lon="10.513929296328618"><ele>397.0</ele><time>2026-04-11T13:17:22Z</time></trkpt><trkpt lat="44.52794759563417" lon="10.513794266311072"><ele>397.0</ele><time>2026-04-11T13:17:23Z</time></trkpt><trkpt lat="44.527804320624725" lon="10.513655526029133"><ele>399.33333333333337</ele><time>2026-04-11T13:17:24Z</time></trkpt><trkpt lat="44.52766095346981" lon="10.513514264049324"><ele>401.66666666666663</ele><time>2026-04-11T13:17:25Z</time></trkpt><trkpt lat="44.5275160895665" lon="10.513375122375066"><ele>404.0</ele><time>2026-04-11T13:17:26Z</time></trkpt><trkpt lat="44.527370874449794" lon="10.51323300116945"><ele>404.0</ele><time>2026-04-11T13:17:27Z</time></trkpt><trkpt lat="44.52723729195208" lon="10.513095633156817"><ele>404.0</ele><time>2026-04-11T13:17:28Z</time></trkpt><trkpt lat="44.52713007070354" lon="10.512985299361858"><ele>404.0</ele><time>2026-04-11T13:17:29Z</time></trkpt><trkpt lat="44.527043077420444" lon="10.51287653126167"><ele>404.0</ele><time>2026-04-11T13:17:30Z</time></trkpt><trkpt lat="44.52699308562009" lon="10.512751741251838"><ele>403.16666666666663</ele><time>2026-04-11T13:17:31Z</time></trkpt><trkpt lat="44.526973473411516" lon="10.51262597815479"><ele>402.3333333333333</ele><time>2026-04-11T13:17:32Z</time></trkpt><trkpt lat="44.52697773808721" lon="10.512508619958169"><ele>401.5</ele><time>2026-04-11T13:17:33Z</time></trkpt><trkpt lat="44.52700020927941" lon="10.51241741102466"><ele>400.66666666666663</ele><time>2026-04-11T13:17:34Z</time></trkpt><trkpt lat="44.52704022518851" lon="10.512344358785057"><ele>399.8333333333333</ele><time>2026-04-11T13:17:35Z</time></trkpt><trkpt lat="44.52710473525393" lon="10.512296109296578"><ele>399.0</ele><time>2026-04-11T13:17:36Z</time></trkpt><trkpt lat="44.52717861514644" lon="10.512258628359023"><ele>400.5</ele><time>2026-04-11T13:17:37Z</time></trkpt><trkpt lat="44.52723889076411" lon="10.51219826685773"><ele>402.0</ele><time>2026-04-11T13:17:38Z</time></trkpt><trkpt lat="44.52726826052868" lon="10.512099512350437"><ele>403.5</ele><time>2026-04-11T13:17:39Z</time></trkpt><trkpt lat="44.527250948161566" lon="10.511998878684919"><ele>405.0</ele><time>2026-04-11T13:17:40Z</time></trkpt><trkpt lat="44.52719476001391" lon="10.511932284034428"><ele>406.5</ele><time>2026-04-11T13:17:41Z</time></trkpt><trkpt lat="44.52712124315121" lon="10.511913711800304"><ele>408.0</ele><time>2026-04-11T13:17:42Z</time></trkpt><trkpt lat="44.527046533388756" lon="10.51194588464716"><ele>408.0</ele><time>2026-04-11T13:17:43Z</time></trkpt><trkpt lat="44.52700085369173" lon="10.512038088280724"><ele>408.0</ele><time>2026-04-11T13:17:44Z</time></trkpt><trkpt lat="44.52698142344117" lon="10.512154961505214"><ele>408.0</ele><time>2026-04-11T13:17:45Z</time></trkpt><trkpt lat="44.52697225849375" lon="10.512293959231444"><ele>408.0</ele><time>2026-04-11T13:17:46Z</time></trkpt><trkpt lat="44.526949285462734" lon="10.512440548934338"><ele>408.0</ele><time>2026-04-11T13:17:47Z</time></trkpt><trkpt lat="44.5269312781842" lon="10.512597079258477"><ele>407.0</ele><time>2026-04-11T13:17:48Z</time></trkpt><trkpt lat="44.526948299609536" lon="10.512757911626398"><ele>406.0</ele><time>2026-04-11T13:17:49Z</time></trkpt><trkpt lat="44.52701520733419" lon="10.51290216859233"><ele>405.0</ele><time>2026-04-11T13:17:50Z</time></trkpt><trkpt lat="44.5271137082079" lon="10.513020722723885"><ele>404.0</ele><time>2026-04-11T13:17:51Z</time></trkpt><trkpt lat="44.527228044345065" lon="10.51313091883163"><ele>404.0</ele><time>2026-04-11T13:17:52Z</time></trkpt><trkpt lat="44.52734809513495" lon="10.513241493948989"><ele>404.0</ele><time>2026-04-11T13:17:53Z</time></trkpt><trkpt lat="44.52747133844822" lon="10.51336329181519"><ele>404.0</ele><time>2026-04-11T13:17:54Z</time></trkpt><trkpt lat="44.52759368819069" lon="10.513492227489087"><ele>404.0</ele><time>2026-04-11T13:17:55Z</time></trkpt><trkpt lat="44.527714216568924" lon="10.513613168816642"><ele>404.0</ele><time>2026-04-11T13:17:56Z</time></trkpt><trkpt lat="44.52783726242543" lon="10.513729030226251"><ele>404.0</ele><time>2026-04-11T13:17:57Z</time></trkpt><trkpt lat="44.52796397386544" lon="10.513845353911268"><ele>404.0</ele><time>2026-04-11T13:17:58Z</time></trkpt><trkpt lat="44.528093710127806" lon="10.513962044024764"><ele>402.25</ele><time>2026-04-11T13:17:59Z</time></trkpt><trkpt lat="44.5282239654629" lon="10.514077428053003"><ele>400.5</ele><time>2026-04-11T13:18:00Z</time></trkpt><trkpt lat="44.52834662075498" lon="10.514185929776756"><ele>398.75</ele><time>2026-04-11T13:18:01Z</time></trkpt><trkpt lat="44.52846198526409" lon="10.514294378904006"><ele>397.0</ele><time>2026-04-11T13:18:02Z</time></trkpt><trkpt lat="44.52857258347496" lon="10.51440402580567"><ele>397.0</ele><time>2026-04-11T13:18:03Z</time></trkpt><trkpt lat="44.52867530185116" lon="10.514516216878576"><ele>397.0</ele><time>2026-04-11T13:18:04Z</time></trkpt><trkpt lat="44.528768252129574" lon="10.51463940974673"><ele>397.0</ele><time>2026-04-11T13:18:05Z</time></trkpt><trkpt lat="44.52883944789055" lon="10.51478317664401"><ele>397.0</ele><time>2026-04-11T13:18:06Z</time></trkpt><trkpt lat="44.528878380236954" lon="10.514944706101021"><ele>397.25</ele><time>2026-04-11T13:18:07Z</time></trkpt><trkpt lat="44.52888768176174" lon="10.515110507218205"><ele>397.5</ele><time>2026-04-11T13:18:08Z</time></trkpt><trkpt lat="44.52887573174447" lon="10.515281723793615"><ele>397.75</ele><time>2026-04-11T13:18:09Z</time></trkpt><trkpt lat="44.52883884823414" lon="10.515451610885462"><ele>398.0</ele><time>2026-04-11T13:18:10Z</time></trkpt><trkpt lat="44.52878845144272" lon="10.515603405525697"><ele>398.0</ele><time>2026-04-11T13:18:11Z</time></trkpt><trkpt lat="44.528744499877604" lon="10.515736329631865"><ele>398.0</ele><time>2026-04-11T13:18:12Z</time></trkpt><trkpt lat="44.528702722404624" lon="10.515849398240949"><ele>398.0</ele><time>2026-04-11T13:18:13Z</time></trkpt><trkpt lat="44.52866769526372" lon="10.515942442484967"><ele>398.0</ele><time>2026-04-11T13:18:14Z</time></trkpt><trkpt lat="44.52863293425303" lon="10.516024566443713"><ele>398.0</ele><time>2026-04-11T13:18:16Z</time></trkpt><trkpt lat="44.52852508845023" lon="10.515859634624524"><ele>396.0</ele><time>2026-04-11T13:18:18Z</time></trkpt><trkpt lat="44.52854908930048" lon="10.515731167898721"><ele>394.0</ele><time>2026-04-11T13:18:19Z</time></trkpt><trkpt lat="44.52857186562168" lon="10.51558929414167"><ele>392.0</ele><time>2026-04-11T13:18:20Z</time></trkpt><trkpt lat="44.52860288006259" lon="10.515443040535356"><ele>390.0</ele><time>2026-04-11T13:18:21Z</time></trkpt><trkpt lat="44.52866095210171" lon="10.515312812519314"><ele>388.0</ele><time>2026-04-11T13:18:22Z</time></trkpt><trkpt lat="44.528692316999916" lon="10.515176617319236"><ele>388.0</ele><time>2026-04-11T13:18:23Z</time></trkpt><trkpt lat="44.52870976721794" lon="10.515044557857491"><ele>388.0</ele><time>2026-04-11T13:18:24Z</time></trkpt><trkpt lat="44.528651855340094" lon="10.514908206794109"><ele>388.0</ele><time>2026-04-11T13:18:25Z</time></trkpt><trkpt lat="44.528574310911" lon="10.514788918153686"><ele>388.0</ele><time>2026-04-11T13:18:26Z</time></trkpt><trkpt lat="44.528469235311036" lon="10.514689220238681"><ele>388.0</ele><time>2026-04-11T13:18:27Z</time></trkpt><trkpt lat="44.52834684674081" lon="10.514597207736687"><ele>388.0</ele><time>2026-04-11T13:18:28Z</time></trkpt><trkpt lat="44.52821171079764" lon="10.514503210342347"><ele>388.0</ele><time>2026-04-11T13:18:29Z</time></trkpt><trkpt lat="44.52806913894795" lon="10.514407716629487"><ele>388.0</ele><time>2026-04-11T13:18:30Z</time></trkpt><trkpt lat="44.527925155015964" lon="10.514339419536178"><ele>389.25</ele><time>2026-04-11T13:18:31Z</time></trkpt><trkpt lat="44.52779486347815" lon="10.514286148472202"><ele>390.5</ele><time>2026-04-11T13:18:32Z</time></trkpt><trkpt lat="44.52767355430368" lon="10.514214349484703"><ele>391.75</ele><time>2026-04-11T13:18:33Z</time></trkpt><trkpt lat="44.527555017911645" lon="10.514128302488935"><ele>393.0</ele><time>2026-04-11T13:18:34Z</time></trkpt><trkpt lat="44.52743466262627" lon="10.514041247900312"><ele>393.0</ele><time>2026-04-11T13:18:35Z</time></trkpt><trkpt lat="44.52731464853384" lon="10.51395440404651"><ele>393.0</ele><time>2026-04-11T13:18:36Z</time></trkpt><trkpt lat="44.527196462674034" lon="10.51386141376716"><ele>393.0</ele><time>2026-04-11T13:18:37Z</time></trkpt><trkpt lat="44.52708742400755" lon="10.51374902831227"><ele>393.0</ele><time>2026-04-11T13:18:38Z</time></trkpt><trkpt lat="44.526994301494234" lon="10.513609980485342"><ele>393.25</ele><time>2026-04-11T13:18:39Z</time></trkpt><trkpt lat="44.526909268631194" lon="10.51346324968382"><ele>393.5</ele><time>2026-04-11T13:18:40Z</time></trkpt><trkpt lat="44.52683360698544" lon="10.513309268257293"><ele>393.75</ele><time>2026-04-11T13:18:41Z</time></trkpt><trkpt lat="44.526765099106726" lon="10.51315418783401"><ele>394.0</ele><time>2026-04-11T13:18:42Z</time></trkpt><trkpt lat="44.526697411122086" lon="10.512999667091004"><ele>395.25</ele><time>2026-04-11T13:18:43Z</time></trkpt><trkpt lat="44.526625849512044" lon="10.512844201444947"><ele>396.5</ele><time>2026-04-11T13:18:44Z</time></trkpt><trkpt lat="44.52655464863201" lon="10.512687826960416"><ele>397.75</ele><time>2026-04-11T13:18:45Z</time></trkpt><trkpt lat="44.52646511595344" lon="10.51254495464315"><ele>399.0</ele><time>2026-04-11T13:18:46Z</time></trkpt><trkpt lat="44.52636032058056" lon="10.512417735533102"><ele>399.0</ele><time>2026-04-11T13:18:47Z</time></trkpt><trkpt lat="44.52624716260282" lon="10.512298396487173"><ele>399.0</ele><time>2026-04-11T13:18:48Z</time></trkpt><trkpt lat="44.52613058631767" lon="10.512177033703864"><ele>399.0</ele><time>2026-04-11T13:18:49Z</time></trkpt><trkpt lat="44.52601119167139" lon="10.512058346961174"><ele>399.0</ele><time>2026-04-11T13:18:50Z</time></trkpt><trkpt lat="44.52589152131599" lon="10.51193533691423"><ele>399.33333333333337</ele><time>2026-04-11T13:18:51Z</time></trkpt><trkpt lat="44.525767159740944" lon="10.511816163185294"><ele>399.6666666666667</ele><time>2026-04-11T13:18:52Z</time></trkpt><trkpt lat="44.52563894653429" lon="10.511706135304111"><ele>400.0</ele><time>2026-04-11T13:18:53Z</time></trkpt><trkpt lat="44.525504615459276" lon="10.511605480550324"><ele>399.5</ele><time>2026-04-11T13:18:54Z</time></trkpt><trkpt lat="44.52537006970122" lon="10.511518845706675"><ele>399.0</ele><time>2026-04-11T13:18:55Z</time></trkpt><trkpt lat="44.525236590581486" lon="10.511448007037819"><ele>398.5</ele><time>2026-04-11T13:18:56Z</time></trkpt><trkpt lat="44.525105963100096" lon="10.511387778342007"><ele>398.0</ele><time>2026-04-11T13:18:57Z</time></trkpt><trkpt lat="44.524983138578264" lon="10.511341112144587"><ele>398.0</ele><time>2026-04-11T13:18:58Z</time></trkpt><trkpt lat="44.52487322521158" lon="10.51130272732019"><ele>398.0</ele><time>2026-04-11T13:18:59Z</time></trkpt><trkpt lat="44.524766786960996" lon="10.511244086624503"><ele>398.0</ele><time>2026-04-11T13:19:00Z</time></trkpt><trkpt lat="44.5246666274565" lon="10.511146294614003"><ele>398.0</ele><time>2026-04-11T13:19:01Z</time></trkpt><trkpt lat="44.52458161906007" lon="10.511011689976653"><ele>400.0</ele><time>2026-04-11T13:19:02Z</time></trkpt><trkpt lat="44.52450225670035" lon="10.510869200148846"><ele>402.0</ele><time>2026-04-11T13:19:03Z</time></trkpt><trkpt lat="44.524429656916794" lon="10.510718997885075"><ele>404.0</ele><time>2026-04-11T13:19:04Z</time></trkpt><trkpt lat="44.524366169137615" lon="10.510573184019695"><ele>406.0</ele><time>2026-04-11T13:19:05Z</time></trkpt><trkpt lat="44.524348054511734" lon="10.510394832986446"><ele>406.25</ele><time>2026-04-11T13:19:06Z</time></trkpt><trkpt lat="44.52433703918918" lon="10.510211696453647"><ele>406.5</ele><time>2026-04-11T13:19:07Z</time></trkpt><trkpt lat="44.5243405472243" lon="10.510017940848744"><ele>406.75</ele><time>2026-04-11T13:19:08Z</time></trkpt><trkpt lat="44.52433413350381" lon="10.509821541759527"><ele>407.0</ele><time>2026-04-11T13:19:09Z</time></trkpt><trkpt lat="44.52433346415054" lon="10.509626855154515"><ele>407.5</ele><time>2026-04-11T13:19:10Z</time></trkpt><trkpt lat="44.52429500465343" lon="10.509435890918372"><ele>408.0</ele><time>2026-04-11T13:19:11Z</time></trkpt><trkpt lat="44.52424232278927" lon="10.509253361729316"><ele>408.5</ele><time>2026-04-11T13:19:12Z</time></trkpt><trkpt lat="44.52419797952163" lon="10.509071738794033"><ele>409.0</ele><time>2026-04-11T13:19:13Z</time></trkpt><trkpt lat="44.52415941617672" lon="10.508896119034507"><ele>409.0</ele><time>2026-04-11T13:19:14Z</time></trkpt><trkpt lat="44.524118415113016" lon="10.50874611226544"><ele>409.0</ele><time>2026-04-11T13:19:15Z</time></trkpt><trkpt lat="44.52406853612969" lon="10.508616968013103"><ele>409.0</ele><time>2026-04-11T13:19:16Z</time></trkpt><trkpt lat="44.52399828350144" lon="10.508516001114812"><ele>409.0</ele><time>2026-04-11T13:19:17Z</time></trkpt><trkpt lat="44.52390806891594" lon="10.508463573645113"><ele>409.0</ele><time>2026-04-11T13:19:18Z</time></trkpt><trkpt lat="44.52381139123967" lon="10.508456789167814"><ele>409.79999999999995</ele><time>2026-04-11T13:19:19Z</time></trkpt><trkpt lat="44.5237113458815" lon="10.508458337999572"><ele>410.59999999999997</ele><time>2026-04-11T13:19:20Z</time></trkpt><trkpt lat="44.52360746592306" lon="10.508454382833957"><ele>411.4</ele><time>2026-04-11T13:19:21Z</time></trkpt><trkpt lat="44.52350035458998" lon="10.508455121120663"><ele>412.2</ele><time>2026-04-11T13:19:22Z</time></trkpt><trkpt lat="44.52338645237481" lon="10.508462943900483"><ele>413.0</ele><time>2026-04-11T13:19:23Z</time></trkpt><trkpt lat="44.52326855841512" lon="10.508471540572335"><ele>413.0</ele><time>2026-04-11T13:19:24Z</time></trkpt><trkpt lat="44.523147289776055" lon="10.50848324207569"><ele>413.0</ele><time>2026-04-11T13:19:25Z</time></trkpt><trkpt lat="44.5230305914396" lon="10.508512343740598"><ele>413.0</ele><time>2026-04-11T13:19:26Z</time></trkpt><trkpt lat="44.522926390515565" lon="10.508584631360716"><ele>413.0</ele><time>2026-04-11T13:19:27Z</time></trkpt><trkpt lat="44.52283237861106" lon="10.508664454097117"><ele>415.2</ele><time>2026-04-11T13:19:28Z</time></trkpt><trkpt lat="44.522742542677655" lon="10.508715906839457"><ele>417.4</ele><time>2026-04-11T13:19:29Z</time></trkpt><trkpt lat="44.522642882952596" lon="10.50870147247546"><ele>419.59999999999997</ele><time>2026-04-11T13:19:30Z</time></trkpt><trkpt lat="44.52255700156778" lon="10.508593040680552"><ele>421.79999999999995</ele><time>2026-04-11T13:19:31Z</time></trkpt><trkpt lat="44.522466898904895" lon="10.508494796939708"><ele>424.0</ele><time>2026-04-11T13:19:32Z</time></trkpt><trkpt lat="44.52243088750205" lon="10.508347432359347"><ele>424.0</ele><time>2026-04-11T13:19:33Z</time></trkpt><trkpt lat="44.52238593382015" lon="10.508194295343461"><ele>424.0</ele><time>2026-04-11T13:19:34Z</time></trkpt><trkpt lat="44.522351376116575" lon="10.508032347515883"><ele>424.0</ele><time>2026-04-11T13:19:35Z</time></trkpt><trkpt lat="44.52230431341354" lon="10.507877036642878"><ele>424.0</ele><time>2026-04-11T13:19:36Z</time></trkpt><trkpt lat="44.52222565799565" lon="10.507761640005528"><ele>428.4</ele><time>2026-04-11T13:19:37Z</time></trkpt><trkpt lat="44.52212345360727" lon="10.507709445430505"><ele>432.79999999999995</ele><time>2026-04-11T13:19:38Z</time></trkpt><trkpt lat="44.522013424403184" lon="10.507723255294106"><ele>437.20000000000005</ele><time>2026-04-11T13:19:39Z</time></trkpt><trkpt lat="44.521916735538994" lon="10.50780040136764"><ele>441.6</ele><time>2026-04-11T13:19:40Z</time></trkpt><trkpt lat="44.521810959763485" lon="10.507856506255262"><ele>446.0</ele><time>2026-04-11T13:19:41Z</time></trkpt><trkpt lat="44.521692055443395" lon="10.50788488864366"><ele>443.75</ele><time>2026-04-11T13:19:42Z</time></trkpt><trkpt lat="44.52156182044262" lon="10.50792042245317"><ele>441.5</ele><time>2026-04-11T13:19:43Z</time></trkpt><trkpt lat="44.52143144096376" lon="10.507932051386192"><ele>439.25</ele><time>2026-04-11T13:19:44Z</time></trkpt><trkpt lat="44.521302862626925" lon="10.507973458542143"><ele>437.0</ele><time>2026-04-11T13:19:45Z</time></trkpt><trkpt lat="44.52120406329936" lon="10.508036451327754"><ele>436.99999999999994</ele><time>2026-04-11T13:19:46Z</time></trkpt><trkpt lat="44.52113218435399" lon="10.508118457645391"><ele>437.0</ele><time>2026-04-11T13:19:47Z</time></trkpt><trkpt lat="44.5210627007594" lon="10.508209510947939"><ele>437.0</ele><time>2026-04-11T13:19:48Z</time></trkpt><trkpt lat="44.520993147535606" lon="10.508236744931832"><ele>437.0</ele><time>2026-04-11T13:19:49Z</time></trkpt><trkpt lat="44.520906840269916" lon="10.508194437382919"><ele>436.99999999999994</ele><time>2026-04-11T13:19:50Z</time></trkpt><trkpt lat="44.52084445534903" lon="10.508104046833509"><ele>437.0</ele><time>2026-04-11T13:19:51Z</time></trkpt><trkpt lat="44.520798565598994" lon="10.507978050921608"><ele>439.5</ele><time>2026-04-11T13:19:52Z</time></trkpt><trkpt lat="44.52072226227828" lon="10.507860449640486"><ele>442.0</ele><time>2026-04-11T13:19:53Z</time></trkpt><trkpt lat="44.520627959301684" lon="10.507787052054482"><ele>444.5</ele><time>2026-04-11T13:19:54Z</time></trkpt><trkpt lat="44.52051204858288" lon="10.507750125211627"><ele>447.0</ele><time>2026-04-11T13:19:55Z</time></trkpt><trkpt lat="44.52038534091044" lon="10.507744071521785"><ele>447.0</ele><time>2026-04-11T13:19:56Z</time></trkpt><trkpt lat="44.52027088823606" lon="10.50773945148673"><ele>447.00000000000006</ele><time>2026-04-11T13:19:57Z</time></trkpt><trkpt lat="44.52017567913427" lon="10.507697329021982"><ele>447.00000000000006</ele><time>2026-04-11T13:19:58Z</time></trkpt><trkpt lat="44.52009060135851" lon="10.507604243050455"><ele>447.0</ele><time>2026-04-11T13:19:59Z</time></trkpt><trkpt lat="44.520017223279424" lon="10.507466783086622"><ele>447.0</ele><time>2026-04-11T13:20:00Z</time></trkpt><trkpt lat="44.51995232820995" lon="10.507313865624422"><ele>447.0</ele><time>2026-04-11T13:20:01Z</time></trkpt><trkpt lat="44.51987641906948" lon="10.50717035279796"><ele>447.0</ele><time>2026-04-11T13:20:02Z</time></trkpt><trkpt lat="44.51978423565867" lon="10.507069444340905"><ele>447.0</ele><time>2026-04-11T13:20:03Z</time></trkpt><trkpt lat="44.519676540209495" lon="10.507032162634067"><ele>447.0</ele><time>2026-04-11T13:20:04Z</time></trkpt><trkpt lat="44.519560876466414" lon="10.50706301263063"><ele>447.75</ele><time>2026-04-11T13:20:05Z</time></trkpt><trkpt lat="44.51944937838035" lon="10.507133926629546"><ele>448.5</ele><time>2026-04-11T13:20:06Z</time></trkpt><trkpt lat="44.519340434401165" lon="10.507212292990195"><ele>449.25</ele><time>2026-04-11T13:20:07Z</time></trkpt><trkpt lat="44.519225236980695" lon="10.507239481097105"><ele>450.0</ele><time>2026-04-11T13:20:08Z</time></trkpt><trkpt lat="44.519110770782625" lon="10.507249999806564"><ele>450.0</ele><time>2026-04-11T13:20:09Z</time></trkpt><trkpt lat="44.518990286398186" lon="10.507233302913397"><ele>450.0</ele><time>2026-04-11T13:20:10Z</time></trkpt><trkpt lat="44.518862559901855" lon="10.50720245972678"><ele>450.0</ele><time>2026-04-11T13:20:11Z</time></trkpt><trkpt lat="44.51873593413059" lon="10.507183520106075"><ele>450.0</ele><time>2026-04-11T13:20:12Z</time></trkpt><trkpt lat="44.51861689684977" lon="10.507136863434656"><ele>453.25</ele><time>2026-04-11T13:20:13Z</time></trkpt><trkpt lat="44.5185142197033" lon="10.507055542282712"><ele>456.5</ele><time>2026-04-11T13:20:14Z</time></trkpt><trkpt lat="44.51841544905023" lon="10.506974360120077"><ele>459.75</ele><time>2026-04-11T13:20:15Z</time></trkpt><trkpt lat="44.51832094901146" lon="10.506874761681887"><ele>463.0</ele><time>2026-04-11T13:20:16Z</time></trkpt><trkpt lat="44.518223819055635" lon="10.506774923808374"><ele>463.0</ele><time>2026-04-11T13:20:17Z</time></trkpt><trkpt lat="44.518149807398416" lon="10.506662274936167"><ele>462.99999999999994</ele><time>2026-04-11T13:20:18Z</time></trkpt><trkpt lat="44.518074740930444" lon="10.506562645886646"><ele>462.99999999999994</ele><time>2026-04-11T13:20:19Z</time></trkpt><trkpt lat="44.51798564350262" lon="10.506509119235995"><ele>463.0</ele><time>2026-04-11T13:20:20Z</time></trkpt><trkpt lat="44.51788129066251" lon="10.506483194112892"><ele>463.0</ele><time>2026-04-11T13:20:21Z</time></trkpt><trkpt lat="44.517770754345825" lon="10.506487210156216"><ele>463.2</ele><time>2026-04-11T13:20:22Z</time></trkpt><trkpt lat="44.51765827215336" lon="10.50649183008085"><ele>463.4</ele><time>2026-04-11T13:20:23Z</time></trkpt><trkpt lat="44.51754911788889" lon="10.506488634212392"><ele>463.59999999999997</ele><time>2026-04-11T13:20:24Z</time></trkpt><trkpt lat="44.517440872504665" lon="10.506467307367132"><ele>463.79999999999995</ele><time>2026-04-11T13:20:25Z</time></trkpt><trkpt lat="44.5173442090612" lon="10.50641171939415"><ele>464.0</ele><time>2026-04-11T13:20:26Z</time></trkpt><trkpt lat="44.51726255971352" lon="10.506340381370208"><ele>463.99999999999994</ele><time>2026-04-11T13:20:27Z</time></trkpt><trkpt lat="44.517182229698754" lon="10.506287805327498"><ele>464.0</ele><time>2026-04-11T13:20:28Z</time></trkpt><trkpt lat="44.51710253999552" lon="10.506270536388678"><ele>464.0</ele><time>2026-04-11T13:20:29Z</time></trkpt><trkpt lat="44.51702063489648" lon="10.506305094013346"><ele>464.0</ele><time>2026-04-11T13:20:30Z</time></trkpt><trkpt lat="44.516955031845924" lon="10.506387571413859"><ele>463.99999999999994</ele><time>2026-04-11T13:20:31Z</time></trkpt><trkpt lat="44.51691984297435" lon="10.506506248658969"><ele>464.0</ele><time>2026-04-11T13:20:32Z</time></trkpt><trkpt lat="44.51693686989532" lon="10.506645343699583"><ele>464.0</ele><time>2026-04-11T13:20:33Z</time></trkpt><trkpt lat="44.516986233649426" lon="10.506764021009921"><ele>464.0</ele><time>2026-04-11T13:20:34Z</time></trkpt><trkpt lat="44.517064963073494" lon="10.506897700205572"><ele>464.0</ele><time>2026-04-11T13:20:35Z</time></trkpt><trkpt lat="44.517150514035656" lon="10.507024866877657"><ele>464.0</ele><time>2026-04-11T13:20:36Z</time></trkpt><trkpt lat="44.517244474101076" lon="10.507151982636564"><ele>464.0</ele><time>2026-04-11T13:20:37Z</time></trkpt><trkpt lat="44.51733678733031" lon="10.507267713835335"><ele>464.0</ele><time>2026-04-11T13:20:38Z</time></trkpt><trkpt lat="44.51741733063964" lon="10.507369507650413"><ele>464.0</ele><time>2026-04-11T13:20:39Z</time></trkpt><trkpt lat="44.517459878844356" lon="10.507478566313628"><ele>464.0</ele><time>2026-04-11T13:20:40Z</time></trkpt><trkpt lat="44.517493019022595" lon="10.507556987468861"><ele>464.0</ele><time>2026-04-11T13:20:41Z</time></trkpt><trkpt lat="44.517464831585364" lon="10.507650248428824"><ele>464.0</ele><time>2026-04-11T13:20:42Z</time></trkpt><trkpt lat="44.517377236750676" lon="10.507702470986908"><ele>464.0</ele><time>2026-04-11T13:20:43Z</time></trkpt><trkpt lat="44.51729120188389" lon="10.507770027584705"><ele>464.0</ele><time>2026-04-11T13:20:44Z</time></trkpt><trkpt lat="44.517193813809044" lon="10.507826628690387"><ele>464.0</ele><time>2026-04-11T13:20:45Z</time></trkpt><trkpt lat="44.51709167869742" lon="10.507896787714136"><ele>464.0</ele><time>2026-04-11T13:20:46Z</time></trkpt><trkpt lat="44.516981842311594" lon="10.507970329864131"><ele>464.6</ele><time>2026-04-11T13:20:47Z</time></trkpt><trkpt lat="44.51688259167349" lon="10.508038988364246"><ele>465.2</ele><time>2026-04-11T13:20:48Z</time></trkpt><trkpt lat="44.516800119023465" lon="10.508086165408747"><ele>465.80000000000007</ele><time>2026-04-11T13:20:49Z</time></trkpt><trkpt lat="44.51671970985313" lon="10.508080528126357"><ele>466.40000000000003</ele><time>2026-04-11T13:20:50Z</time></trkpt><trkpt lat="44.51665848076982" lon="10.508014988549464"><ele>467.0</ele><time>2026-04-11T13:20:51Z</time></trkpt><trkpt lat="44.516617140891256" lon="10.507882867586765"><ele>469.75</ele><time>2026-04-11T13:20:52Z</time></trkpt><trkpt lat="44.51656837422276" lon="10.50773883723207"><ele>472.5</ele><time>2026-04-11T13:20:53Z</time></trkpt><trkpt lat="44.51649520328987" lon="10.507604212851296"><ele>475.25</ele><time>2026-04-11T13:20:54Z</time></trkpt><trkpt lat="44.51641541793385" lon="10.50746411541312"><ele>478.0</ele><time>2026-04-11T13:20:55Z</time></trkpt><trkpt lat="44.516327332659" lon="10.5073223626051"><ele>478.0</ele><time>2026-04-11T13:20:56Z</time></trkpt><trkpt lat="44.51624053025136" lon="10.507201953777729"><ele>477.99999999999994</ele><time>2026-04-11T13:20:57Z</time></trkpt><trkpt lat="44.51615133847751" lon="10.507104760594833"><ele>477.99999999999994</ele><time>2026-04-11T13:20:58Z</time></trkpt><trkpt lat="44.51605628730516" lon="10.507034984637517"><ele>478.0</ele><time>2026-04-11T13:20:59Z</time></trkpt><trkpt lat="44.5159682895304" lon="10.506958889557264"><ele>478.0</ele><time>2026-04-11T13:21:00Z</time></trkpt><trkpt lat="44.51589556958254" lon="10.506858294859137"><ele>479.25</ele><time>2026-04-11T13:21:01Z</time></trkpt><trkpt lat="44.51584355413064" lon="10.506728565467204"><ele>480.5</ele><time>2026-04-11T13:21:02Z</time></trkpt><trkpt lat="44.515802459933845" lon="10.5065791892586"><ele>481.75</ele><time>2026-04-11T13:21:03Z</time></trkpt><trkpt lat="44.51576908187083" lon="10.506420862440455"><ele>483.0</ele><time>2026-04-11T13:21:04Z</time></trkpt><trkpt lat="44.51574008278133" lon="10.50626117579692"><ele>483.6666666666667</ele><time>2026-04-11T13:21:05Z</time></trkpt><trkpt lat="44.51570934718909" lon="10.50612019312375"><ele>484.33333333333337</ele><time>2026-04-11T13:21:06Z</time></trkpt><trkpt lat="44.51567438410108" lon="10.506007885130296"><ele>485.0</ele><time>2026-04-11T13:21:07Z</time></trkpt><trkpt lat="44.51562596516146" lon="10.505934094698096"><ele>485.6666666666667</ele><time>2026-04-11T13:21:08Z</time></trkpt><trkpt lat="44.51554974777744" lon="10.505922631229012"><ele>486.33333333333337</ele><time>2026-04-11T13:21:09Z</time></trkpt><trkpt lat="44.51547172376455" lon="10.505948059145762"><ele>487.0</ele><time>2026-04-11T13:21:10Z</time></trkpt><trkpt lat="44.51540762451516" lon="10.506040236086546"><ele>489.75</ele><time>2026-04-11T13:21:11Z</time></trkpt><trkpt lat="44.51534399459316" lon="10.506164241738267"><ele>492.5</ele><time>2026-04-11T13:21:12Z</time></trkpt><trkpt lat="44.51530303597314" lon="10.506304766323574"><ele>495.25</ele><time>2026-04-11T13:21:13Z</time></trkpt><trkpt lat="44.515270921716514" lon="10.506464640684893"><ele>498.0</ele><time>2026-04-11T13:21:14Z</time></trkpt><trkpt lat="44.515253769661506" lon="10.506637348702506"><ele>498.0</ele><time>2026-04-11T13:21:15Z</time></trkpt><trkpt lat="44.51524086991822" lon="10.506811547546624"><ele>498.0</ele><time>2026-04-11T13:21:16Z</time></trkpt><trkpt lat="44.51522836503502" lon="10.506992271178861"><ele>498.0</ele><time>2026-04-11T13:21:17Z</time></trkpt><trkpt lat="44.51523241108562" lon="10.507165308543067"><ele>498.0</ele><time>2026-04-11T13:21:18Z</time></trkpt><trkpt lat="44.51526747046847" lon="10.507320585681164"><ele>498.79999999999995</ele><time>2026-04-11T13:21:19Z</time></trkpt><trkpt lat="44.51533759835609" lon="10.507452553002642"><ele>499.59999999999997</ele><time>2026-04-11T13:21:20Z</time></trkpt><trkpt lat="44.5154344846892" lon="10.507535441680234"><ele>500.40000000000003</ele><time>2026-04-11T13:21:21Z</time></trkpt><trkpt lat="44.515518096162005" lon="10.507615179025942"><ele>501.20000000000005</ele><time>2026-04-11T13:21:22Z</time></trkpt><trkpt lat="44.51558092918918" lon="10.507709260739441"><ele>502.0</ele><time>2026-04-11T13:21:23Z</time></trkpt><trkpt lat="44.5156211410669" lon="10.507850144829685"><ele>497.8</ele><time>2026-04-11T13:21:24Z</time></trkpt><trkpt lat="44.51562865508036" lon="10.508014031975895"><ele>493.6</ele><time>2026-04-11T13:21:25Z</time></trkpt><trkpt lat="44.515631901410515" lon="10.508168156953626"><ele>489.40000000000003</ele><time>2026-04-11T13:21:26Z</time></trkpt><trkpt lat="44.51560772198175" lon="10.508286837176392"><ele>485.20000000000005</ele><time>2026-04-11T13:21:27Z</time></trkpt><trkpt lat="44.51555513902365" lon="10.508352122368446"><ele>481.0</ele><time>2026-04-11T13:21:28Z</time></trkpt><trkpt lat="44.51547644042244" lon="10.508373008557442"><ele>483.4</ele><time>2026-04-11T13:21:29Z</time></trkpt><trkpt lat="44.515390384966885" lon="10.50834999144553"><ele>485.8</ele><time>2026-04-11T13:21:30Z</time></trkpt><trkpt lat="44.515309477995814" lon="10.508271636309807"><ele>488.19999999999993</ele><time>2026-04-11T13:21:31Z</time></trkpt><trkpt lat="44.515225234279306" lon="10.508165083279394"><ele>490.59999999999997</ele><time>2026-04-11T13:21:32Z</time></trkpt><trkpt lat="44.51513215300739" lon="10.5080699134062"><ele>493.0</ele><time>2026-04-11T13:21:33Z</time></trkpt><trkpt lat="44.51502028723111" lon="10.508021756619772"><ele>493.0</ele><time>2026-04-11T13:21:34Z</time></trkpt><trkpt lat="44.51491960532035" lon="10.508049889671366"><ele>492.99999999999994</ele><time>2026-04-11T13:21:35Z</time></trkpt><trkpt lat="44.514828906539016" lon="10.508126890134907"><ele>492.99999999999994</ele><time>2026-04-11T13:21:36Z</time></trkpt><trkpt lat="44.514742528497564" lon="10.508187214911596"><ele>493.0</ele><time>2026-04-11T13:21:37Z</time></trkpt><trkpt lat="44.51465493367191" lon="10.508198317001046"><ele>493.0</ele><time>2026-04-11T13:21:38Z</time></trkpt><trkpt lat="44.51457304979811" lon="10.508147488097165"><ele>492.75</ele><time>2026-04-11T13:21:39Z</time></trkpt><trkpt lat="44.51450547133887" lon="10.508029592324132"><ele>492.5</ele><time>2026-04-11T13:21:40Z</time></trkpt><trkpt lat="44.51448441310761" lon="10.507867846803618"><ele>492.25</ele><time>2026-04-11T13:21:41Z</time></trkpt><trkpt lat="44.514441102674894" lon="10.507707191177618"><ele>492.0</ele><time>2026-04-11T13:21:42Z</time></trkpt><trkpt lat="44.514390494677606" lon="10.507544879673773"><ele>494.5</ele><time>2026-04-11T13:21:43Z</time></trkpt><trkpt lat="44.514336895566096" lon="10.50737128753753"><ele>497.0</ele><time>2026-04-11T13:21:44Z</time></trkpt><trkpt lat="44.51428523571449" lon="10.507185922495097"><ele>499.5</ele><time>2026-04-11T13:21:45Z</time></trkpt><trkpt lat="44.51422755145573" lon="10.50699226261054"><ele>502.0</ele><time>2026-04-11T13:21:46Z</time></trkpt><trkpt lat="44.51417046677314" lon="10.506796826049053"><ele>504.0</ele><time>2026-04-11T13:21:47Z</time></trkpt><trkpt lat="44.51408409534704" lon="10.506614545671075"><ele>506.0</ele><time>2026-04-11T13:21:48Z</time></trkpt><trkpt lat="44.5139910290243" lon="10.506433882928704"><ele>508.0</ele><time>2026-04-11T13:21:49Z</time></trkpt><trkpt lat="44.51389378674069" lon="10.506258345830346"><ele>510.25</ele><time>2026-04-11T13:21:50Z</time></trkpt><trkpt lat="44.51380475149769" lon="10.506091073673744"><ele>512.5</ele><time>2026-04-11T13:21:51Z</time></trkpt><trkpt lat="44.51371308041318" lon="10.50594189114991"><ele>514.75</ele><time>2026-04-11T13:21:52Z</time></trkpt><trkpt lat="44.51362071787639" lon="10.505817340866873"><ele>517.0</ele><time>2026-04-11T13:21:53Z</time></trkpt><trkpt lat="44.513533039727726" lon="10.505714810942104"><ele>517.0</ele><time>2026-04-11T13:21:54Z</time></trkpt><trkpt lat="44.51345041060572" lon="10.505630679611276"><ele>517.0</ele><time>2026-04-11T13:21:55Z</time></trkpt><trkpt lat="44.51336526015175" lon="10.505581699793519"><ele>517.0</ele><time>2026-04-11T13:21:56Z</time></trkpt><trkpt lat="44.513282256901086" lon="10.505588936731773"><ele>517.0</ele><time>2026-04-11T13:21:57Z</time></trkpt><trkpt lat="44.51320540271492" lon="10.505650515357365"><ele>517.0</ele><time>2026-04-11T13:21:58Z</time></trkpt><trkpt lat="44.51315472589275" lon="10.505763659759538"><ele>517.0</ele><time>2026-04-11T13:21:59Z</time></trkpt><trkpt lat="44.51314404790275" lon="10.505905344065395"><ele>517.0</ele><time>2026-04-11T13:22:00Z</time></trkpt><trkpt lat="44.513176974725226" lon="10.506050840784862"><ele>517.0</ele><time>2026-04-11T13:22:01Z</time></trkpt><trkpt lat="44.51319735486768" lon="10.506208365485028"><ele>517.0</ele><time>2026-04-11T13:22:02Z</time></trkpt><trkpt lat="44.513229894762034" lon="10.50636308294357"><ele>517.0</ele><time>2026-04-11T13:22:03Z</time></trkpt><trkpt lat="44.51326338595209" lon="10.506529530311587"><ele>517.25</ele><time>2026-04-11T13:22:04Z</time></trkpt><trkpt lat="44.5132796586923" lon="10.5066899936106"><ele>517.5</ele><time>2026-04-11T13:22:05Z</time></trkpt><trkpt lat="44.51331688969394" lon="10.506888656640038"><ele>517.75</ele><time>2026-04-11T13:22:06Z</time></trkpt><trkpt lat="44.51334887110189" lon="10.507062550909062"><ele>518.0</ele><time>2026-04-11T13:22:07Z</time></trkpt><trkpt lat="44.51336416259717" lon="10.507199972063676"><ele>517.0</ele><time>2026-04-11T13:22:08Z</time></trkpt><trkpt lat="44.513358117958404" lon="10.50731996164137"><ele>516.0</ele><time>2026-04-11T13:22:09Z</time></trkpt><trkpt lat="44.51328614500422" lon="10.50741882165249"><ele>515.0</ele><time>2026-04-11T13:22:11Z</time></trkpt><trkpt lat="44.51313447106744" lon="10.507345192541003"><ele>514.0</ele><time>2026-04-11T13:22:13Z</time></trkpt><trkpt lat="44.51302067724782" lon="10.507304246162755"><ele>515.4</ele><time>2026-04-11T13:22:14Z</time></trkpt><trkpt lat="44.51290133265996" lon="10.507265604057"><ele>516.8</ele><time>2026-04-11T13:22:15Z</time></trkpt><trkpt lat="44.51278572273714" lon="10.507227741987803"><ele>518.2</ele><time>2026-04-11T13:22:16Z</time></trkpt><trkpt lat="44.51269067860171" lon="10.507185288719976"><ele>519.6</ele><time>2026-04-11T13:22:17Z</time></trkpt><trkpt lat="44.51261843977191" lon="10.507135412397703"><ele>521.0</ele><time>2026-04-11T13:22:18Z</time></trkpt><trkpt lat="44.51259055310011" lon="10.507029433698122"><ele>522.2</ele><time>2026-04-11T13:22:19Z</time></trkpt><trkpt lat="44.51262522966501" lon="10.506913801950713"><ele>523.4000000000001</ele><time>2026-04-11T13:22:20Z</time></trkpt><trkpt lat="44.512664625088775" lon="10.506780811318963"><ele>524.6</ele><time>2026-04-11T13:22:21Z</time></trkpt><trkpt lat="44.51270036005481" lon="10.506621682702526"><ele>525.8000000000001</ele><time>2026-04-11T13:22:22Z</time></trkpt><trkpt lat="44.51273891371712" lon="10.506448221296896"><ele>527.0</ele><time>2026-04-11T13:22:23Z</time></trkpt><trkpt lat="44.512773369347" lon="10.506273953246765"><ele>527.8000000000001</ele><time>2026-04-11T13:22:24Z</time></trkpt><trkpt lat="44.51278568171519" lon="10.506109084873069"><ele>528.6</ele><time>2026-04-11T13:22:25Z</time></trkpt><trkpt lat="44.51278990291308" lon="10.50595660784837"><ele>529.4000000000001</ele><time>2026-04-11T13:22:26Z</time></trkpt><trkpt lat="44.512753991632756" lon="10.505819026765714"><ele>530.2</ele><time>2026-04-11T13:22:27Z</time></trkpt><trkpt lat="44.51268473333607" lon="10.50570156849679"><ele>531.0</ele><time>2026-04-11T13:22:28Z</time></trkpt><trkpt lat="44.51263446614559" lon="10.505580177840194"><ele>531.0</ele><time>2026-04-11T13:22:29Z</time></trkpt><trkpt lat="44.512625291287634" lon="10.50543997767972"><ele>531.0</ele><time>2026-04-11T13:22:30Z</time></trkpt><trkpt lat="44.512644566974764" lon="10.505288450259409"><ele>531.0</ele><time>2026-04-11T13:22:31Z</time></trkpt><trkpt lat="44.512677934454175" lon="10.505130368910743"><ele>531.0</ele><time>2026-04-11T13:22:32Z</time></trkpt><trkpt lat="44.51270740106285" lon="10.504971793063005"><ele>531.0</ele><time>2026-04-11T13:22:33Z</time></trkpt><trkpt lat="44.512722300269644" lon="10.504817974438588"><ele>531.4</ele><time>2026-04-11T13:22:34Z</time></trkpt><trkpt lat="44.5126988031394" lon="10.504687106060162"><ele>531.8</ele><time>2026-04-11T13:22:35Z</time></trkpt><trkpt lat="44.51264312841927" lon="10.50458236281284"><ele>532.1999999999999</ele><time>2026-04-11T13:22:36Z</time></trkpt><trkpt lat="44.51254725481572" lon="10.504522428696598"><ele>532.6</ele><time>2026-04-11T13:22:37Z</time></trkpt><trkpt lat="44.51244223818082" lon="10.504481909155725"><ele>533.0</ele><time>2026-04-11T13:22:38Z</time></trkpt><trkpt lat="44.512342918551234" lon="10.504436847514302"><ele>533.8</ele><time>2026-04-11T13:22:39Z</time></trkpt><trkpt lat="44.51225219916942" lon="10.504356224900008"><ele>534.5999999999999</ele><time>2026-04-11T13:22:40Z</time></trkpt><trkpt lat="44.512189729447265" lon="10.5042403822924"><ele>535.4000000000001</ele><time>2026-04-11T13:22:41Z</time></trkpt><trkpt lat="44.51218092946861" lon="10.504088013723312"><ele>536.2</ele><time>2026-04-11T13:22:42Z</time></trkpt><trkpt lat="44.512156706339695" lon="10.503939375246972"><ele>537.0</ele><time>2026-04-11T13:22:43Z</time></trkpt><trkpt lat="44.51217415706745" lon="10.50379596416315"><ele>538.2</ele><time>2026-04-11T13:22:44Z</time></trkpt><trkpt lat="44.51221519412131" lon="10.503659099452431"><ele>539.4000000000001</ele><time>2026-04-11T13:22:45Z</time></trkpt><trkpt lat="44.51230219202513" lon="10.503567923080217"><ele>540.5999999999999</ele><time>2026-04-11T13:22:46Z</time></trkpt><trkpt lat="44.51239452801297" lon="10.503510583112957"><ele>541.8</ele><time>2026-04-11T13:22:47Z</time></trkpt><trkpt lat="44.512506788090114" lon="10.503532232906808"><ele>543.0</ele><time>2026-04-11T13:22:48Z</time></trkpt><trkpt lat="44.51259799753308" lon="10.503628345418395"><ele>543.0</ele><time>2026-04-11T13:22:49Z</time></trkpt><trkpt lat="44.51269809051512" lon="10.503681956398209"><ele>543.0</ele><time>2026-04-11T13:22:50Z</time></trkpt><trkpt lat="44.51279524305257" lon="10.503698659071196"><ele>543.0</ele><time>2026-04-11T13:22:51Z</time></trkpt><trkpt lat="44.512896319669174" lon="10.503625193419"><ele>543.0</ele><time>2026-04-11T13:22:52Z</time></trkpt><trkpt lat="44.51299190040277" lon="10.50353155612901"><ele>543.0</ele><time>2026-04-11T13:22:53Z</time></trkpt><trkpt lat="44.51309410163432" lon="10.503433884657046"><ele>543.75</ele><time>2026-04-11T13:22:54Z</time></trkpt><trkpt lat="44.51321213133964" lon="10.503353777447842"><ele>544.5</ele><time>2026-04-11T13:22:55Z</time></trkpt><trkpt lat="44.513331810314696" lon="10.503248503006981"><ele>545.25</ele><time>2026-04-11T13:22:56Z</time></trkpt><trkpt lat="44.5134602624057" lon="10.503146907029135"><ele>546.0</ele><time>2026-04-11T13:22:57Z</time></trkpt><trkpt lat="44.51359163225821" lon="10.503040867668133"><ele>546.0</ele><time>2026-04-11T13:22:58Z</time></trkpt><trkpt lat="44.51372294863538" lon="10.502938406278895"><ele>546.0</ele><time>2026-04-11T13:22:59Z</time></trkpt><trkpt lat="44.51384690954865" lon="10.502846744324838"><ele>546.0</ele><time>2026-04-11T13:23:00Z</time></trkpt><trkpt lat="44.51395542613012" lon="10.50276984926736"><ele>546.0</ele><time>2026-04-11T13:23:01Z</time></trkpt><trkpt lat="44.51405297527607" lon="10.502696882574119"><ele>546.3333333333334</ele><time>2026-04-11T13:23:02Z</time></trkpt><trkpt lat="44.514143382300865" lon="10.502628500620297"><ele>546.6666666666666</ele><time>2026-04-11T13:23:03Z</time></trkpt><trkpt lat="44.514226595999084" lon="10.502562069968524"><ele>547.0</ele><time>2026-04-11T13:23:04Z</time></trkpt><trkpt lat="44.51429835027635" lon="10.5025022211285"><ele>547.3333333333333</ele><time>2026-04-11T13:23:05Z</time></trkpt><trkpt lat="44.514362849401756" lon="10.502449143895708"><ele>547.6666666666666</ele><time>2026-04-11T13:23:06Z</time></trkpt><trkpt lat="44.514425160912715" lon="10.502399316656511"><ele>548.0</ele><time>2026-04-11T13:23:07Z</time></trkpt><trkpt lat="44.51447781524832" lon="10.502334018564852"><ele>548.0</ele><time>2026-04-11T13:23:08Z</time></trkpt><trkpt lat="44.51450160572497" lon="10.502240264868925"><ele>548.0</ele><time>2026-04-11T13:23:09Z</time></trkpt><trkpt lat="44.51449473209369" lon="10.502137875081111"><ele>548.0</ele><time>2026-04-11T13:23:10Z</time></trkpt><trkpt lat="44.51444896800544" lon="10.502029534286459"><ele>548.0</ele><time>2026-04-11T13:23:11Z</time></trkpt><trkpt lat="44.51437362063299" lon="10.501962831281542"><ele>548.0</ele><time>2026-04-11T13:23:12Z</time></trkpt><trkpt lat="44.5142862648192" lon="10.501956982545968"><ele>548.0</ele><time>2026-04-11T13:23:13Z</time></trkpt><trkpt lat="44.514202292302976" lon="10.501979773990817"><ele>548.0</ele><time>2026-04-11T13:23:14Z</time></trkpt><trkpt lat="44.514130691817826" lon="10.50201639289844"><ele>548.0</ele><time>2026-04-11T13:23:15Z</time></trkpt><trkpt lat="44.514012973366555" lon="10.502070801477016"><ele>548.0</ele><time>2026-04-11T13:23:17Z</time></trkpt><trkpt lat="44.51392903741576" lon="10.502100073629572"><ele>548.0</ele><time>2026-04-11T13:23:18Z</time></trkpt><trkpt lat="44.51384104361883" lon="10.502123282054962"><ele>548.0</ele><time>2026-04-11T13:23:19Z</time></trkpt><trkpt lat="44.51373987781951" lon="10.502155347342839"><ele>549.5</ele><time>2026-04-11T13:23:20Z</time></trkpt><trkpt lat="44.513623036034275" lon="10.502189396994227"><ele>551.0</ele><time>2026-04-11T13:23:21Z</time></trkpt><trkpt lat="44.51351340766856" lon="10.502212812295973"><ele>552.5</ele><time>2026-04-11T13:23:22Z</time></trkpt><trkpt lat="44.513398384400325" lon="10.502246985350395"><ele>554.0</ele><time>2026-04-11T13:23:23Z</time></trkpt><trkpt lat="44.51328487310822" lon="10.502287966918754"><ele>554.0</ele><time>2026-04-11T13:23:24Z</time></trkpt><trkpt lat="44.513167708321575" lon="10.50232805075352"><ele>554.0</ele><time>2026-04-11T13:23:25Z</time></trkpt><trkpt lat="44.51305534295308" lon="10.502367633871744"><ele>554.0</ele><time>2026-04-11T13:23:26Z</time></trkpt><trkpt lat="44.51294678310935" lon="10.50240658506511"><ele>554.0</ele><time>2026-04-11T13:23:27Z</time></trkpt><trkpt lat="44.51284439327666" lon="10.50243362356319"><ele>554.4</ele><time>2026-04-11T13:23:28Z</time></trkpt><trkpt lat="44.51275369712344" lon="10.502432991290489"><ele>554.8</ele><time>2026-04-11T13:23:29Z</time></trkpt><trkpt lat="44.51266838919255" lon="10.502377154836639"><ele>555.2</ele><time>2026-04-11T13:23:30Z</time></trkpt><trkpt lat="44.5125938293056" lon="10.502261915441837"><ele>555.6</ele><time>2026-04-11T13:23:31Z</time></trkpt><trkpt lat="44.51253220951759" lon="10.50212793597295"><ele>556.0</ele><time>2026-04-11T13:23:32Z</time></trkpt><trkpt lat="44.51247507244765" lon="10.501983974489105"><ele>559.0</ele><time>2026-04-11T13:23:33Z</time></trkpt><trkpt lat="44.51241177102398" lon="10.501842442247714"><ele>562.0</ele><time>2026-04-11T13:23:34Z</time></trkpt><trkpt lat="44.51235350687772" lon="10.501700613686412"><ele>565.0</ele><time>2026-04-11T13:23:35Z</time></trkpt><trkpt lat="44.51230318174254" lon="10.501550187670729"><ele>568.0</ele><time>2026-04-11T13:23:36Z</time></trkpt><trkpt lat="44.51225597052983" lon="10.501416464255549"><ele>568.0</ele><time>2026-04-11T13:23:37Z</time></trkpt><trkpt lat="44.51219873515139" lon="10.501310136752947"><ele>568.0</ele><time>2026-04-11T13:23:38Z</time></trkpt><trkpt lat="44.51212687210155" lon="10.501219932736"><ele>568.0</ele><time>2026-04-11T13:23:39Z</time></trkpt><trkpt lat="44.51203602294962" lon="10.501196905780844"><ele>568.0</ele><time>2026-04-11T13:23:40Z</time></trkpt><trkpt lat="44.51194815566936" lon="10.501232897891406"><ele>568.0</ele><time>2026-04-11T13:23:41Z</time></trkpt><trkpt lat="44.511862685296094" lon="10.501280974092827"><ele>567.8333333333334</ele><time>2026-04-11T13:23:42Z</time></trkpt><trkpt lat="44.51178533474033" lon="10.501307653015372"><ele>567.6666666666667</ele><time>2026-04-11T13:23:43Z</time></trkpt><trkpt lat="44.51170486493048" lon="10.501293821606602"><ele>567.5</ele><time>2026-04-11T13:23:44Z</time></trkpt><trkpt lat="44.511621002345166" lon="10.501239212335987"><ele>567.3333333333334</ele><time>2026-04-11T13:23:45Z</time></trkpt><trkpt lat="44.51155128067062" lon="10.501142313375384"><ele>567.1666666666666</ele><time>2026-04-11T13:23:46Z</time></trkpt><trkpt lat="44.511520133681934" lon="10.501027696535916"><ele>567.0</ele><time>2026-04-11T13:23:47Z</time></trkpt><trkpt lat="44.51147109350595" lon="10.500924992592381"><ele>568.4</ele><time>2026-04-11T13:23:48Z</time></trkpt><trkpt lat="44.5114580376689" lon="10.500798665697456"><ele>569.8000000000001</ele><time>2026-04-11T13:23:49Z</time></trkpt><trkpt lat="44.51143503839449" lon="10.50066731684876"><ele>571.2</ele><time>2026-04-11T13:23:50Z</time></trkpt><trkpt lat="44.51140701145357" lon="10.50053132762406"><ele>572.6</ele><time>2026-04-11T13:23:51Z</time></trkpt><trkpt lat="44.51139934938466" lon="10.500380450223098"><ele>574.0</ele><time>2026-04-11T13:23:52Z</time></trkpt><trkpt lat="44.511386599618675" lon="10.500238256419006"><ele>574.4</ele><time>2026-04-11T13:23:53Z</time></trkpt><trkpt lat="44.511369301292426" lon="10.500102183513308"><ele>574.8</ele><time>2026-04-11T13:23:54Z</time></trkpt><trkpt lat="44.511341863945276" lon="10.499971128982981"><ele>575.2</ele><time>2026-04-11T13:23:55Z</time></trkpt><trkpt lat="44.511290591538796" lon="10.499848516770024"><ele>575.6</ele><time>2026-04-11T13:23:56Z</time></trkpt><trkpt lat="44.51121368335656" lon="10.499745194426103"><ele>576.0</ele><time>2026-04-11T13:23:57Z</time></trkpt><trkpt lat="44.511121175676216" lon="10.49967139322824"><ele>574.75</ele><time>2026-04-11T13:23:58Z</time></trkpt><trkpt lat="44.51101613725445" lon="10.499598911372221"><ele>573.5</ele><time>2026-04-11T13:23:59Z</time></trkpt><trkpt lat="44.510911775422706" lon="10.499518728667868"><ele>572.25</ele><time>2026-04-11T13:24:00Z</time></trkpt><trkpt lat="44.510798939721674" lon="10.499440353148668"><ele>571.0</ele><time>2026-04-11T13:24:01Z</time></trkpt><trkpt lat="44.51068667024997" lon="10.499365833518805"><ele>571.0</ele><time>2026-04-11T13:24:02Z</time></trkpt><trkpt lat="44.51057566242304" lon="10.49929522909721"><ele>571.0</ele><time>2026-04-11T13:24:03Z</time></trkpt><trkpt lat="44.510466171954846" lon="10.49923144836501"><ele>571.0</ele><time>2026-04-11T13:24:04Z</time></trkpt><trkpt lat="44.51035785313502" lon="10.499172844017691"><ele>571.0</ele><time>2026-04-11T13:24:05Z</time></trkpt><trkpt lat="44.51024743213321" lon="10.499112210893198"><ele>570.75</ele><time>2026-04-11T13:24:06Z</time></trkpt><trkpt lat="44.510137406183084" lon="10.499034503507588"><ele>570.5</ele><time>2026-04-11T13:24:07Z</time></trkpt><trkpt lat="44.51003055782854" lon="10.498939381075717"><ele>570.25</ele><time>2026-04-11T13:24:08Z</time></trkpt><trkpt lat="44.50993087709302" lon="10.498838611785384"><ele>570.0</ele><time>2026-04-11T13:24:09Z</time></trkpt><trkpt lat="44.5098325396226" lon="10.498737183877507"><ele>568.25</ele><time>2026-04-11T13:24:10Z</time></trkpt><trkpt lat="44.50973709646547" lon="10.498636621129084"><ele>566.5</ele><time>2026-04-11T13:24:11Z</time></trkpt><trkpt lat="44.50964049178913" lon="10.498536424669316"><ele>564.75</ele><time>2026-04-11T13:24:12Z</time></trkpt><trkpt lat="44.50954513468196" lon="10.498442555270373"><ele>563.0</ele><time>2026-04-11T13:24:13Z</time></trkpt><trkpt lat="44.5094497540348" lon="10.498370263284055"><ele>562.6</ele><time>2026-04-11T13:24:14Z</time></trkpt><trkpt lat="44.5093477025536" lon="10.498332024440723"><ele>562.1999999999999</ele><time>2026-04-11T13:24:15Z</time></trkpt><trkpt lat="44.509237753458734" lon="10.498332745896635"><ele>561.8</ele><time>2026-04-11T13:24:16Z</time></trkpt><trkpt lat="44.509124366394495" lon="10.498368996184665"><ele>561.4</ele><time>2026-04-11T13:24:17Z</time></trkpt><trkpt lat="44.50901451195084" lon="10.498426624297906"><ele>561.0</ele><time>2026-04-11T13:24:18Z</time></trkpt><trkpt lat="44.5088896899348" lon="10.498492765661817"><ele>561.0</ele><time>2026-04-11T13:24:19Z</time></trkpt><trkpt lat="44.50876028294033" lon="10.498554430846962"><ele>561.0</ele><time>2026-04-11T13:24:20Z</time></trkpt><trkpt lat="44.50862666918046" lon="10.498607677929652"><ele>561.0</ele><time>2026-04-11T13:24:21Z</time></trkpt><trkpt lat="44.50848843461996" lon="10.498656216706557"><ele>561.0</ele><time>2026-04-11T13:24:22Z</time></trkpt><trkpt lat="44.508345322669896" lon="10.498699155141953"><ele>560.0</ele><time>2026-04-11T13:24:23Z</time></trkpt><trkpt lat="44.508203368465075" lon="10.498734251499133"><ele>559.0</ele><time>2026-04-11T13:24:24Z</time></trkpt><trkpt lat="44.50807123429624" lon="10.498765989739876"><ele>558.0</ele><time>2026-04-11T13:24:25Z</time></trkpt><trkpt lat="44.50794741910593" lon="10.498801271926215"><ele>557.0</ele><time>2026-04-11T13:24:26Z</time></trkpt><trkpt lat="44.507833571114475" lon="10.498837436150454"><ele>557.0</ele><time>2026-04-11T13:24:27Z</time></trkpt><trkpt lat="44.507727537822305" lon="10.498865120817328"><ele>557.0</ele><time>2026-04-11T13:24:28Z</time></trkpt><trkpt lat="44.50762286457218" lon="10.498858970588211"><ele>557.0</ele><time>2026-04-11T13:24:29Z</time></trkpt><trkpt lat="44.50753364572838" lon="10.498807160837227"><ele>557.0</ele><time>2026-04-11T13:24:30Z</time></trkpt><trkpt lat="44.5074931302941" lon="10.498699716805962"><ele>557.0</ele><time>2026-04-11T13:24:32Z</time></trkpt><trkpt lat="44.50753264675239" lon="10.498604461571231"><ele>556.4</ele><time>2026-04-11T13:24:34Z</time></trkpt><trkpt lat="44.50762448935509" lon="10.498445649386968"><ele>555.8000000000001</ele><time>2026-04-11T13:24:36Z</time></trkpt><trkpt lat="44.507680971985145" lon="10.498356389579428"><ele>555.2</ele><time>2026-04-11T13:24:37Z</time></trkpt><trkpt lat="44.5077375809927" lon="10.498263681787268"><ele>554.6</ele><time>2026-04-11T13:24:38Z</time></trkpt><trkpt lat="44.50780003807713" lon="10.498157630989272"><ele>554.0</ele><time>2026-04-11T13:24:39Z</time></trkpt><trkpt lat="44.50785992868775" lon="10.498046394885776"><ele>553.8</ele><time>2026-04-11T13:24:40Z</time></trkpt><trkpt lat="44.50791424333025" lon="10.497940391974556"><ele>553.5999999999999</ele><time>2026-04-11T13:24:41Z</time></trkpt><trkpt lat="44.50795955677304" lon="10.497846337736647"><ele>553.4</ele><time>2026-04-11T13:24:42Z</time></trkpt><trkpt lat="44.50801878397947" lon="10.497734287142698"><ele>553.1999999999999</ele><time>2026-04-11T13:24:44Z</time></trkpt><trkpt lat="44.50807425370538" lon="10.497666186098552"><ele>553.0</ele><time>2026-04-11T13:24:48Z</time></trkpt><trkpt lat="44.50790193199469" lon="10.497521397551424"><ele>551.75</ele><time>2026-04-11T13:24:50Z</time></trkpt><trkpt lat="44.507811869916736" lon="10.497478747409895"><ele>550.5</ele><time>2026-04-11T13:24:51Z</time></trkpt><trkpt lat="44.50771625119957" lon="10.49741508009154"><ele>549.25</ele><time>2026-04-11T13:24:52Z</time></trkpt><trkpt lat="44.507606770215716" lon="10.497347322350064"><ele>548.0</ele><time>2026-04-11T13:24:53Z</time></trkpt><trkpt lat="44.50748848079811" lon="10.49726866805212"><ele>548.0</ele><time>2026-04-11T13:24:54Z</time></trkpt><trkpt lat="44.50736694505155" lon="10.49718180875484"><ele>548.0</ele><time>2026-04-11T13:24:55Z</time></trkpt><trkpt lat="44.50724553834867" lon="10.497083703725531"><ele>548.0</ele><time>2026-04-11T13:24:56Z</time></trkpt><trkpt lat="44.50713636326473" lon="10.496956460466345"><ele>548.0</ele><time>2026-04-11T13:24:57Z</time></trkpt><trkpt lat="44.507037756763616" lon="10.496810893263756"><ele>548.25</ele><time>2026-04-11T13:24:58Z</time></trkpt><trkpt lat="44.50694206266008" lon="10.496663396133505"><ele>548.5</ele><time>2026-04-11T13:24:59Z</time></trkpt><trkpt lat="44.506855563911174" lon="10.496496261525577"><ele>548.75</ele><time>2026-04-11T13:25:00Z</time></trkpt><trkpt lat="44.50676333491431" lon="10.49634343056543"><ele>549.0</ele><time>2026-04-11T13:25:01Z</time></trkpt><trkpt lat="44.506669925278544" lon="10.49617968114148"><ele>552.0</ele><time>2026-04-11T13:25:02Z</time></trkpt><trkpt lat="44.50658288138558" lon="10.496010433616746"><ele>555.0</ele><time>2026-04-11T13:25:03Z</time></trkpt><trkpt lat="44.50648539118235" lon="10.495848507921167"><ele>558.0</ele><time>2026-04-11T13:25:04Z</time></trkpt><trkpt lat="44.506403439746585" lon="10.495666370277503"><ele>558.0</ele><time>2026-04-11T13:25:05Z</time></trkpt><trkpt lat="44.50632988606844" lon="10.49548119348805"><ele>558.0</ele><time>2026-04-11T13:25:06Z</time></trkpt><trkpt lat="44.506277727257306" lon="10.495290095636433"><ele>558.0</ele><time>2026-04-11T13:25:07Z</time></trkpt><trkpt lat="44.506245088866386" lon="10.495097378894055"><ele>558.0</ele><time>2026-04-11T13:25:08Z</time></trkpt><trkpt lat="44.50620833247999" lon="10.494909212648672"><ele>557.5</ele><time>2026-04-11T13:25:09Z</time></trkpt><trkpt lat="44.50613529227875" lon="10.494735980299632"><ele>557.0</ele><time>2026-04-11T13:25:10Z</time></trkpt><trkpt lat="44.506036959151366" lon="10.494577794207157"><ele>556.5</ele><time>2026-04-11T13:25:11Z</time></trkpt><trkpt lat="44.50593343168354" lon="10.494425058573816"><ele>556.0</ele><time>2026-04-11T13:25:12Z</time></trkpt><trkpt lat="44.50583016482023" lon="10.494264809228795"><ele>558.0</ele><time>2026-04-11T13:25:13Z</time></trkpt><trkpt lat="44.505725097756695" lon="10.49410398523643"><ele>560.0</ele><time>2026-04-11T13:25:14Z</time></trkpt><trkpt lat="44.50561719999664" lon="10.493950902508537"><ele>562.0</ele><time>2026-04-11T13:25:15Z</time></trkpt><trkpt lat="44.50550894565442" lon="10.493808943062268"><ele>563.0</ele><time>2026-04-11T13:25:16Z</time></trkpt><trkpt lat="44.50540788252666" lon="10.493673906271072"><ele>564.0</ele><time>2026-04-11T13:25:17Z</time></trkpt><trkpt lat="44.505309281207715" lon="10.493546346518261"><ele>565.0</ele><time>2026-04-11T13:25:18Z</time></trkpt><trkpt lat="44.505210416956906" lon="10.49341556565361"><ele>566.0</ele><time>2026-04-11T13:25:19Z</time></trkpt><trkpt lat="44.50510413641002" lon="10.493279629144997"><ele>566.0</ele><time>2026-04-11T13:25:20Z</time></trkpt><trkpt lat="44.504994015643895" lon="10.493135105479857"><ele>566.0</ele><time>2026-04-11T13:25:21Z</time></trkpt><trkpt lat="44.5048795561364" lon="10.492990873009774"><ele>566.0</ele><time>2026-04-11T13:25:22Z</time></trkpt><trkpt lat="44.50476672969403" lon="10.4928497614885"><ele>566.6666666666666</ele><time>2026-04-11T13:25:23Z</time></trkpt><trkpt lat="44.504642133802825" lon="10.492721586324407"><ele>567.3333333333334</ele><time>2026-04-11T13:25:24Z</time></trkpt><trkpt lat="44.504503348465526" lon="10.492606872251427"><ele>568.0</ele><time>2026-04-11T13:25:25Z</time></trkpt><trkpt lat="44.504359685094734" lon="10.492499416436091"><ele>568.0</ele><time>2026-04-11T13:25:26Z</time></trkpt><trkpt lat="44.50421565028104" lon="10.492383646819105"><ele>568.0</ele><time>2026-04-11T13:25:27Z</time></trkpt><trkpt lat="44.50407442312082" lon="10.492267592093498"><ele>568.0</ele><time>2026-04-11T13:25:28Z</time></trkpt><trkpt lat="44.50393087555391" lon="10.49217655755624"><ele>568.0</ele><time>2026-04-11T13:25:29Z</time></trkpt><trkpt lat="44.50379191136634" lon="10.492104238839115"><ele>568.0</ele><time>2026-04-11T13:25:30Z</time></trkpt><trkpt lat="44.503655869572526" lon="10.492046201987558"><ele>568.0</ele><time>2026-04-11T13:25:31Z</time></trkpt><trkpt lat="44.503518329774685" lon="10.491994921616214"><ele>568.0</ele><time>2026-04-11T13:25:32Z</time></trkpt><trkpt lat="44.503385928795275" lon="10.491924927940468"><ele>569.3333333333334</ele><time>2026-04-11T13:25:33Z</time></trkpt><trkpt lat="44.50325954513656" lon="10.49182666514722"><ele>570.6666666666666</ele><time>2026-04-11T13:25:34Z</time></trkpt><trkpt lat="44.50313832633552" lon="10.491700254221087"><ele>572.0</ele><time>2026-04-11T13:25:35Z</time></trkpt><trkpt lat="44.5030245706304" lon="10.491550108031458"><ele>572.0</ele><time>2026-04-11T13:25:36Z</time></trkpt><trkpt lat="44.502915334895675" lon="10.491375736962693"><ele>572.0</ele><time>2026-04-11T13:25:37Z</time></trkpt><trkpt lat="44.50280794999902" lon="10.49118873962701"><ele>572.0</ele><time>2026-04-11T13:25:38Z</time></trkpt><trkpt lat="44.5026830985292" lon="10.49102075773128"><ele>575.6666666666666</ele><time>2026-04-11T13:25:39Z</time></trkpt><trkpt lat="44.50253237744807" lon="10.490901094761368"><ele>579.3333333333334</ele><time>2026-04-11T13:25:40Z</time></trkpt><trkpt lat="44.50239360071563" lon="10.490760691745052"><ele>583.0</ele><time>2026-04-11T13:25:41Z</time></trkpt><trkpt lat="44.502266631837024" lon="10.490603651100171"><ele>583.0</ele><time>2026-04-11T13:25:42Z</time></trkpt><trkpt lat="44.50213834156536" lon="10.490439049875423"><ele>583.0</ele><time>2026-04-11T13:25:43Z</time></trkpt><trkpt lat="44.50200479577157" lon="10.490281376281532"><ele>583.0</ele><time>2026-04-11T13:25:44Z</time></trkpt><trkpt lat="44.50187826786469" lon="10.490127790107424"><ele>584.3333333333334</ele><time>2026-04-11T13:25:45Z</time></trkpt><trkpt lat="44.5017505209432" lon="10.489994308067429"><ele>585.6666666666666</ele><time>2026-04-11T13:25:46Z</time></trkpt><trkpt lat="44.50161681225896" lon="10.489886988199116"><ele>587.0</ele><time>2026-04-11T13:25:47Z</time></trkpt><trkpt lat="44.50148599583791" lon="10.489790179725576"><ele>587.0</ele><time>2026-04-11T13:25:48Z</time></trkpt><trkpt lat="44.5013408653845" lon="10.489770879073452"><ele>587.0</ele><time>2026-04-11T13:25:49Z</time></trkpt><trkpt lat="44.50119204144671" lon="10.48976928071809"><ele>587.0</ele><time>2026-04-11T13:25:50Z</time></trkpt><trkpt lat="44.50103379422536" lon="10.489781422257854"><ele>586.0</ele><time>2026-04-11T13:25:51Z</time></trkpt><trkpt lat="44.50089810085542" lon="10.489749908259416"><ele>585.0</ele><time>2026-04-11T13:25:52Z</time></trkpt><trkpt lat="44.50073826668037" lon="10.489756426560662"><ele>584.0</ele><time>2026-04-11T13:25:53Z</time></trkpt><trkpt lat="44.500580812620534" lon="10.489764464654174"><ele>584.0</ele><time>2026-04-11T13:25:54Z</time></trkpt><trkpt lat="44.500426001680886" lon="10.489775764519898"><ele>584.0</ele><time>2026-04-11T13:25:55Z</time></trkpt><trkpt lat="44.50027753231791" lon="10.48979378995549"><ele>584.0</ele><time>2026-04-11T13:25:56Z</time></trkpt><trkpt lat="44.50014915301945" lon="10.489831649701062"><ele>584.0</ele><time>2026-04-11T13:25:57Z</time></trkpt><trkpt lat="44.5000379956527" lon="10.489896405246176"><ele>584.5</ele><time>2026-04-11T13:25:58Z</time></trkpt><trkpt lat="44.49993591081095" lon="10.489965827191604"><ele>585.0</ele><time>2026-04-11T13:25:59Z</time></trkpt><trkpt lat="44.499853791454726" lon="10.490024419953064"><ele>585.5</ele><time>2026-04-11T13:26:00Z</time></trkpt><trkpt lat="44.49978525664668" lon="10.490060346827953"><ele>586.0</ele><time>2026-04-11T13:26:01Z</time></trkpt><trkpt lat="44.49972202794596" lon="10.490046113523466"><ele>586.5</ele><time>2026-04-11T13:26:02Z</time></trkpt><trkpt lat="44.49968725930136" lon="10.489963496177586"><ele>587.0</ele><time>2026-04-11T13:26:03Z</time></trkpt><trkpt lat="44.49972155395007" lon="10.489846600139476"><ele>587.0</ele><time>2026-04-11T13:26:04Z</time></trkpt><trkpt lat="44.49977480516566" lon="10.489776771966573"><ele>587.0</ele><time>2026-04-11T13:26:05Z</time></trkpt><trkpt lat="44.49986562497008" lon="10.489757880986192"><ele>587.0</ele><time>2026-04-11T13:26:06Z</time></trkpt><trkpt lat="44.49997211931178" lon="10.489727727768589"><ele>587.0</ele><time>2026-04-11T13:26:07Z</time></trkpt><trkpt lat="44.50008651981667" lon="10.489675171550664"><ele>587.0</ele><time>2026-04-11T13:26:08Z</time></trkpt><trkpt lat="44.50020032830467" lon="10.489583130563918"><ele>591.0</ele><time>2026-04-11T13:26:09Z</time></trkpt><trkpt lat="44.50032487458789" lon="10.48949315201784"><ele>595.0</ele><time>2026-04-11T13:26:10Z</time></trkpt><trkpt lat="44.500442684352834" lon="10.489407499123372"><ele>599.0</ele><time>2026-04-11T13:26:11Z</time></trkpt><trkpt lat="44.500540054148814" lon="10.489372192575233"><ele>603.0</ele><time>2026-04-11T13:26:12Z</time></trkpt><trkpt lat="44.500609527445555" lon="10.489327180437115"><ele>603.0</ele><time>2026-04-11T13:26:13Z</time></trkpt><trkpt lat="44.50062942443216" lon="10.489235879743521"><ele>603.0</ele><time>2026-04-11T13:26:14Z</time></trkpt><trkpt lat="44.50055107011327" lon="10.489139996167575"><ele>603.0</ele><time>2026-04-11T13:26:15Z</time></trkpt><trkpt lat="44.50047598744273" lon="10.489110343454046"><ele>603.0</ele><time>2026-04-11T13:26:16Z</time></trkpt><trkpt lat="44.5003941717945" lon="10.489141588639077"><ele>603.0</ele><time>2026-04-11T13:26:17Z</time></trkpt><trkpt lat="44.500316880429345" lon="10.489232774435221"><ele>603.0</ele><time>2026-04-11T13:26:18Z</time></trkpt><trkpt lat="44.500238849427255" lon="10.489325394059806"><ele>603.0</ele><time>2026-04-11T13:26:19Z</time></trkpt><trkpt lat="44.50015286789167" lon="10.489401351786869"><ele>603.0</ele><time>2026-04-11T13:26:20Z</time></trkpt><trkpt lat="44.50005542867509" lon="10.489457292714114"><ele>603.0</ele><time>2026-04-11T13:26:21Z</time></trkpt><trkpt lat="44.49994835106776" lon="10.489482466102215"><ele>603.0</ele><time>2026-04-11T13:26:22Z</time></trkpt><trkpt lat="44.49984781985862" lon="10.489473707895108"><ele>603.0</ele><time>2026-04-11T13:26:23Z</time></trkpt><trkpt lat="44.49976651823882" lon="10.489436131025972"><ele>603.0</ele><time>2026-04-11T13:26:24Z</time></trkpt><trkpt lat="44.49970821265519" lon="10.489349074480435"><ele>603.0</ele><time>2026-04-11T13:26:25Z</time></trkpt><trkpt lat="44.49967750316418" lon="10.489216120248283"><ele>603.0</ele><time>2026-04-11T13:26:26Z</time></trkpt><trkpt lat="44.499681198223435" lon="10.489070586758661"><ele>603.0</ele><time>2026-04-11T13:26:27Z</time></trkpt><trkpt lat="44.49970355380506" lon="10.488920216238748"><ele>603.0</ele><time>2026-04-11T13:26:28Z</time></trkpt><trkpt lat="44.49973959999343" lon="10.488771402143453"><ele>606.5</ele><time>2026-04-11T13:26:29Z</time></trkpt><trkpt lat="44.499774309652196" lon="10.488657041602611"><ele>610.0</ele><time>2026-04-11T13:26:30Z</time></trkpt><trkpt lat="44.499802988810934" lon="10.488475431621135"><ele>613.5</ele><time>2026-04-11T13:26:31Z</time></trkpt><trkpt lat="44.499804103897375" lon="10.488303372755272"><ele>617.0</ele><time>2026-04-11T13:26:32Z</time></trkpt><trkpt lat="44.499790432438154" lon="10.488127008718052"><ele>617.0</ele><time>2026-04-11T13:26:33Z</time></trkpt><trkpt lat="44.49977190981864" lon="10.487952950699976"><ele>617.0</ele><time>2026-04-11T13:26:34Z</time></trkpt><trkpt lat="44.49974934151953" lon="10.487792251231266"><ele>617.0</ele><time>2026-04-11T13:26:35Z</time></trkpt><trkpt lat="44.49971655399658" lon="10.487659929015667"><ele>617.0</ele><time>2026-04-11T13:26:36Z</time></trkpt><trkpt lat="44.49967199203785" lon="10.487529507718607"><ele>617.0</ele><time>2026-04-11T13:26:37Z</time></trkpt><trkpt lat="44.499611698543255" lon="10.487402499683949"><ele>616.5</ele><time>2026-04-11T13:26:38Z</time></trkpt><trkpt lat="44.49953655151733" lon="10.487272975298316"><ele>616.0</ele><time>2026-04-11T13:26:39Z</time></trkpt><trkpt lat="44.499443712222195" lon="10.48715022106783"><ele>615.5</ele><time>2026-04-11T13:26:40Z</time></trkpt><trkpt lat="44.49932864625634" lon="10.487042146329845"><ele>615.0</ele><time>2026-04-11T13:26:41Z</time></trkpt><trkpt lat="44.49919770218794" lon="10.486948222948804"><ele>618.25</ele><time>2026-04-11T13:26:42Z</time></trkpt><trkpt lat="44.49906184085007" lon="10.486859863622582"><ele>621.5</ele><time>2026-04-11T13:26:43Z</time></trkpt><trkpt lat="44.49893188600764" lon="10.486771420247527"><ele>624.75</ele><time>2026-04-11T13:26:44Z</time></trkpt><trkpt lat="44.49881574101762" lon="10.486681835060354"><ele>628.0</ele><time>2026-04-11T13:26:45Z</time></trkpt><trkpt lat="44.49871014818777" lon="10.486595698790508"><ele>628.8</ele><time>2026-04-11T13:26:46Z</time></trkpt><trkpt lat="44.49861558801462" lon="10.486508673402215"><ele>629.5999999999999</ele><time>2026-04-11T13:26:47Z</time></trkpt><trkpt lat="44.498545174868426" lon="10.48639888553878"><ele>630.4000000000001</ele><time>2026-04-11T13:26:48Z</time></trkpt><trkpt lat="44.49851312562354" lon="10.486256727474954"><ele>631.2</ele><time>2026-04-11T13:26:49Z</time></trkpt><trkpt lat="44.49850800726714" lon="10.486099508238244"><ele>632.0</ele><time>2026-04-11T13:26:50Z</time></trkpt><trkpt lat="44.49855809814408" lon="10.485958239554776"><ele>633.8</ele><time>2026-04-11T13:26:51Z</time></trkpt><trkpt lat="44.49860274184672" lon="10.485823302775934"><ele>635.6</ele><time>2026-04-11T13:26:52Z</time></trkpt><trkpt lat="44.49864176780524" lon="10.485698911221041"><ele>637.4</ele><time>2026-04-11T13:26:53Z</time></trkpt><trkpt lat="44.49868483627877" lon="10.485561595918126"><ele>639.1999999999999</ele><time>2026-04-11T13:26:54Z</time></trkpt><trkpt lat="44.498720958271534" lon="10.485404208123958"><ele>641.0</ele><time>2026-04-11T13:26:55Z</time></trkpt><trkpt lat="44.49873779724776" lon="10.485265222834842"><ele>641.25</ele><time>2026-04-11T13:26:56Z</time></trkpt><trkpt lat="44.4987439641889" lon="10.485053992176274"><ele>641.5</ele><time>2026-04-11T13:26:57Z</time></trkpt><trkpt lat="44.498746275786" lon="10.484879473897127"><ele>641.75</ele><time>2026-04-11T13:26:58Z</time></trkpt><trkpt lat="44.498729048457534" lon="10.484687115016122"><ele>642.0</ele><time>2026-04-11T13:26:59Z</time></trkpt><trkpt lat="44.49872038449183" lon="10.484508134372664"><ele>640.8000000000001</ele><time>2026-04-11T13:27:00Z</time></trkpt><trkpt lat="44.49872532101556" lon="10.48436271845199"><ele>639.6</ele><time>2026-04-11T13:27:01Z</time></trkpt><trkpt lat="44.49871399229725" lon="10.484234016062548"><ele>638.4000000000001</ele><time>2026-04-11T13:27:02Z</time></trkpt><trkpt lat="44.498670249141696" lon="10.484111487223938"><ele>637.2</ele><time>2026-04-11T13:27:03Z</time></trkpt><trkpt lat="44.49859791990754" lon="10.484006183284798"><ele>636.0</ele><time>2026-04-11T13:27:04Z</time></trkpt><trkpt lat="44.498510503968376" lon="10.483925962044651"><ele>636.0</ele><time>2026-04-11T13:27:05Z</time></trkpt><trkpt lat="44.49841544296991" lon="10.483865706356761"><ele>636.0</ele><time>2026-04-11T13:27:06Z</time></trkpt><trkpt lat="44.49831390433411" lon="10.483814599007854"><ele>636.0</ele><time>2026-04-11T13:27:07Z</time></trkpt><trkpt lat="44.498209732526156" lon="10.483744548577526"><ele>636.0</ele><time>2026-04-11T13:27:08Z</time></trkpt><trkpt lat="44.498105011168505" lon="10.483655029359197"><ele>634.5</ele><time>2026-04-11T13:27:09Z</time></trkpt><trkpt lat="44.49803194297307" lon="10.48351405057974"><ele>633.0</ele><time>2026-04-11T13:27:10Z</time></trkpt><trkpt lat="44.4979629712577" lon="10.483373876635795"><ele>631.5</ele><time>2026-04-11T13:27:11Z</time></trkpt><trkpt lat="44.497925685692" lon="10.483217584638892"><ele>630.0</ele><time>2026-04-11T13:27:12Z</time></trkpt><trkpt lat="44.497874766038024" lon="10.483088347523566"><ele>633.5</ele><time>2026-04-11T13:27:13Z</time></trkpt><trkpt lat="44.49778789744973" lon="10.482980969696305"><ele>637.0</ele><time>2026-04-11T13:27:14Z</time></trkpt><trkpt lat="44.4976647873141" lon="10.482896879470161"><ele>640.5</ele><time>2026-04-11T13:27:15Z</time></trkpt><trkpt lat="44.49754837561969" lon="10.482813780993135"><ele>644.0</ele><time>2026-04-11T13:27:16Z</time></trkpt><trkpt lat="44.497453381627786" lon="10.482717902858099"><ele>644.0</ele><time>2026-04-11T13:27:17Z</time></trkpt><trkpt lat="44.49737492595739" lon="10.482611106919961"><ele>644.0</ele><time>2026-04-11T13:27:18Z</time></trkpt><trkpt lat="44.497310101685365" lon="10.482486284177323"><ele>644.0</ele><time>2026-04-11T13:27:19Z</time></trkpt><trkpt lat="44.49725801499143" lon="10.48233628874968"><ele>644.0</ele><time>2026-04-11T13:27:20Z</time></trkpt><trkpt lat="44.49721562837456" lon="10.482171640318281"><ele>643.0</ele><time>2026-04-11T13:27:21Z</time></trkpt><trkpt lat="44.49712865363436" lon="10.481840509242872"><ele>642.0</ele><time>2026-04-11T13:27:23Z</time></trkpt><trkpt lat="44.49708429569069" lon="10.481674028289081"><ele>641.0</ele><time>2026-04-11T13:27:24Z</time></trkpt><trkpt lat="44.49704891656902" lon="10.481508338878918"><ele>646.75</ele><time>2026-04-11T13:27:25Z</time></trkpt><trkpt lat="44.49701465641152" lon="10.481347172709532"><ele>652.5</ele><time>2026-04-11T13:27:26Z</time></trkpt><trkpt lat="44.49697401707328" lon="10.481189059187802"><ele>658.25</ele><time>2026-04-11T13:27:27Z</time></trkpt><trkpt lat="44.4969228179857" lon="10.481026543094652"><ele>664.0</ele><time>2026-04-11T13:27:28Z</time></trkpt><trkpt lat="44.496857069310195" lon="10.480869259591056"><ele>664.0</ele><time>2026-04-11T13:27:29Z</time></trkpt><trkpt lat="44.496778836206325" lon="10.480710934610215"><ele>664.0</ele><time>2026-04-11T13:27:30Z</time></trkpt><trkpt lat="44.49670961995978" lon="10.480550591491962"><ele>664.0</ele><time>2026-04-11T13:27:31Z</time></trkpt><trkpt lat="44.49664692903586" lon="10.480400448934324"><ele>664.0</ele><time>2026-04-11T13:27:32Z</time></trkpt><trkpt lat="44.49658344120064" lon="10.480260308751882"><ele>665.8000000000001</ele><time>2026-04-11T13:27:33Z</time></trkpt><trkpt lat="44.496521321556" lon="10.480137363205372"><ele>667.6</ele><time>2026-04-11T13:27:34Z</time></trkpt><trkpt lat="44.4964546718352" lon="10.480025603237266"><ele>669.4</ele><time>2026-04-11T13:27:35Z</time></trkpt><trkpt lat="44.49637580317189" lon="10.479928400138709"><ele>671.2</ele><time>2026-04-11T13:27:36Z</time></trkpt><trkpt lat="44.49629917074616" lon="10.479858631969885"><ele>673.0</ele><time>2026-04-11T13:27:37Z</time></trkpt><trkpt lat="44.49623179324096" lon="10.479812264051702"><ele>673.0</ele><time>2026-04-11T13:27:38Z</time></trkpt><trkpt lat="44.496160309303555" lon="10.47979365376405"><ele>673.0</ele><time>2026-04-11T13:27:39Z</time></trkpt><trkpt lat="44.4961433557247" lon="10.479927712594273"><ele>673.0</ele><time>2026-04-11T13:27:41Z</time></trkpt><trkpt lat="44.49619825345577" lon="10.480043354569261"><ele>673.0</ele><time>2026-04-11T13:27:42Z</time></trkpt><trkpt lat="44.49626863718057" lon="10.480154385185845"><ele>673.0</ele><time>2026-04-11T13:27:43Z</time></trkpt><trkpt lat="44.49631583048279" lon="10.480265476161486"><ele>670.75</ele><time>2026-04-11T13:27:44Z</time></trkpt><trkpt lat="44.49635714041234" lon="10.480405370672655"><ele>668.5</ele><time>2026-04-11T13:27:45Z</time></trkpt><trkpt lat="44.496398956406125" lon="10.480571049771964"><ele>666.25</ele><time>2026-04-11T13:27:46Z</time></trkpt><trkpt lat="44.49643612519754" lon="10.480736897385409"><ele>664.0</ele><time>2026-04-11T13:27:47Z</time></trkpt><trkpt lat="44.496467064607586" lon="10.480890722114776"><ele>664.0</ele><time>2026-04-11T13:27:48Z</time></trkpt><trkpt lat="44.49649562243657" lon="10.481043998301967"><ele>664.0</ele><time>2026-04-11T13:27:49Z</time></trkpt><trkpt lat="44.49651843910608" lon="10.481205457217031"><ele>664.0</ele><time>2026-04-11T13:27:50Z</time></trkpt><trkpt lat="44.49652457274227" lon="10.481356160013904"><ele>664.0</ele><time>2026-04-11T13:27:51Z</time></trkpt><trkpt lat="44.49653763137544" lon="10.481477394143978"><ele>664.0</ele><time>2026-04-11T13:27:52Z</time></trkpt><trkpt lat="44.496520213415494" lon="10.481569123452354"><ele>664.0</ele><time>2026-04-11T13:27:53Z</time></trkpt><trkpt lat="44.49641381197609" lon="10.481606745100516"><ele>664.0</ele><time>2026-04-11T13:27:55Z</time></trkpt><trkpt lat="44.496358241184616" lon="10.481542399311644"><ele>664.0</ele><time>2026-04-11T13:27:56Z</time></trkpt><trkpt lat="44.49634023914741" lon="10.481422374678814"><ele>664.0</ele><time>2026-04-11T13:27:57Z</time></trkpt><trkpt lat="44.49629704185028" lon="10.481308126583592"><ele>664.0</ele><time>2026-04-11T13:27:58Z</time></trkpt><trkpt lat="44.49626653828879" lon="10.481187556338888"><ele>667.8000000000001</ele><time>2026-04-11T13:27:59Z</time></trkpt><trkpt lat="44.49620952150565" lon="10.481081713810603"><ele>671.6</ele><time>2026-04-11T13:28:00Z</time></trkpt><trkpt lat="44.49611862981479" lon="10.481003088200541"><ele>675.4</ele><time>2026-04-11T13:28:01Z</time></trkpt><trkpt lat="44.49600731230552" lon="10.480952698425144"><ele>679.2</ele><time>2026-04-11T13:28:02Z</time></trkpt><trkpt lat="44.49588482218089" lon="10.4809253110055"><ele>683.0</ele><time>2026-04-11T13:28:03Z</time></trkpt><trkpt lat="44.49575266887547" lon="10.480903899611649"><ele>683.0</ele><time>2026-04-11T13:28:04Z</time></trkpt><trkpt lat="44.4956208079442" lon="10.480871375481895"><ele>683.0</ele><time>2026-04-11T13:28:05Z</time></trkpt><trkpt lat="44.495489251435934" lon="10.480829379195633"><ele>683.0</ele><time>2026-04-11T13:28:06Z</time></trkpt><trkpt lat="44.49535959859198" lon="10.480796390143551"><ele>683.0</ele><time>2026-04-11T13:28:07Z</time></trkpt><trkpt lat="44.495241936605694" lon="10.480768130547359"><ele>684.4</ele><time>2026-04-11T13:28:08Z</time></trkpt><trkpt lat="44.49513665939532" lon="10.480742723763921"><ele>685.8</ele><time>2026-04-11T13:28:09Z</time></trkpt><trkpt lat="44.49503606225013" lon="10.480741720109519"><ele>687.2</ele><time>2026-04-11T13:28:10Z</time></trkpt><trkpt lat="44.49494237749183" lon="10.4807517278972"><ele>688.6</ele><time>2026-04-11T13:28:11Z</time></trkpt><trkpt lat="44.49485296804515" lon="10.480778276248223"><ele>690.0</ele><time>2026-04-11T13:28:12Z</time></trkpt><trkpt lat="44.494772795361506" lon="10.480826438357173"><ele>690.0</ele><time>2026-04-11T13:28:13Z</time></trkpt><trkpt lat="44.494698008510525" lon="10.480888475773087"><ele>690.0</ele><time>2026-04-11T13:28:14Z</time></trkpt><trkpt lat="44.49462503447382" lon="10.480962141331853"><ele>690.0</ele><time>2026-04-11T13:28:15Z</time></trkpt><trkpt lat="44.49454845776774" lon="10.481047418074333"><ele>690.0</ele><time>2026-04-11T13:28:16Z</time></trkpt><trkpt lat="44.49446924955782" lon="10.481142574736909"><ele>690.0</ele><time>2026-04-11T13:28:17Z</time></trkpt><trkpt lat="44.49439217802825" lon="10.481235875845034"><ele>689.2</ele><time>2026-04-11T13:28:18Z</time></trkpt><trkpt lat="44.49431247111454" lon="10.481325285384525"><ele>688.4</ele><time>2026-04-11T13:28:19Z</time></trkpt><trkpt lat="44.49423188865422" lon="10.48140699019736"><ele>687.5999999999999</ele><time>2026-04-11T13:28:20Z</time></trkpt><trkpt lat="44.49414643284867" lon="10.481479414931263"><ele>686.8</ele><time>2026-04-11T13:28:21Z</time></trkpt><trkpt lat="44.4940566051332" lon="10.481539243020274"><ele>686.0</ele><time>2026-04-11T13:28:22Z</time></trkpt><trkpt lat="44.493961376936184" lon="10.481580831210453"><ele>686.0</ele><time>2026-04-11T13:28:23Z</time></trkpt><trkpt lat="44.49385839801844" lon="10.48161824331064"><ele>686.0</ele><time>2026-04-11T13:28:24Z</time></trkpt><trkpt lat="44.49374935392569" lon="10.481657251794463"><ele>686.0</ele><time>2026-04-11T13:28:25Z</time></trkpt><trkpt lat="44.49364448778803" lon="10.481699942342699"><ele>686.0</ele><time>2026-04-11T13:28:26Z</time></trkpt><trkpt lat="44.49353372010351" lon="10.481735108862603"><ele>686.0</ele><time>2026-04-11T13:28:27Z</time></trkpt><trkpt lat="44.49342344194788" lon="10.481758956118226"><ele>689.0</ele><time>2026-04-11T13:28:28Z</time></trkpt><trkpt lat="44.49331040896081" lon="10.481762616525737"><ele>692.0</ele><time>2026-04-11T13:28:29Z</time></trkpt><trkpt lat="44.49319802096503" lon="10.481745822248996"><ele>695.0</ele><time>2026-04-11T13:28:30Z</time></trkpt><trkpt lat="44.49308860489978" lon="10.481712795292545"><ele>698.0</ele><time>2026-04-11T13:28:31Z</time></trkpt><trkpt lat="44.492978760073335" lon="10.481682528913515"><ele>698.0</ele><time>2026-04-11T13:28:32Z</time></trkpt><trkpt lat="44.49287835134134" lon="10.481677616151218"><ele>698.0</ele><time>2026-04-11T13:28:33Z</time></trkpt><trkpt lat="44.49278521151513" lon="10.481697610452057"><ele>698.0</ele><time>2026-04-11T13:28:34Z</time></trkpt><trkpt lat="44.49270368992034" lon="10.481741975005441"><ele>698.0</ele><time>2026-04-11T13:28:35Z</time></trkpt><trkpt lat="44.492632429557304" lon="10.481806151376741"><ele>698.0</ele><time>2026-04-11T13:28:36Z</time></trkpt><trkpt lat="44.492559660534575" lon="10.481903527415213"><ele>698.0</ele><time>2026-04-11T13:28:37Z</time></trkpt><trkpt lat="44.492504835885654" lon="10.482022023263355"><ele>698.0</ele><time>2026-04-11T13:28:38Z</time></trkpt><trkpt lat="44.49246410370124" lon="10.482120265992329"><ele>698.0</ele><time>2026-04-11T13:28:39Z</time></trkpt><trkpt lat="44.49243648141298" lon="10.482205652722495"><ele>698.0</ele><time>2026-04-11T13:28:40Z</time></trkpt><trkpt lat="44.49239692313021" lon="10.482329564650856"><ele>698.0</ele><time>2026-04-11T13:28:42Z</time></trkpt><trkpt lat="44.49237111361145" lon="10.482413419312733"><ele>698.0</ele><time>2026-04-11T13:28:43Z</time></trkpt><trkpt lat="44.492337417926656" lon="10.482504102389106"><ele>698.0</ele><time>2026-04-11T13:28:44Z</time></trkpt><trkpt lat="44.49229125336488" lon="10.482595184291693"><ele>698.0</ele><time>2026-04-11T13:28:45Z</time></trkpt><trkpt lat="44.49223207059062" lon="10.482680773583247"><ele>698.0</ele><time>2026-04-11T13:28:46Z</time></trkpt><trkpt lat="44.492164709902234" lon="10.4827566529086"><ele>698.0</ele><time>2026-04-11T13:28:47Z</time></trkpt><trkpt lat="44.49209822186103" lon="10.482824435749992"><ele>698.0</ele><time>2026-04-11T13:28:48Z</time></trkpt><trkpt lat="44.492042785583436" lon="10.482909713467077"><ele>698.0</ele><time>2026-04-11T13:28:49Z</time></trkpt><trkpt lat="44.492007619933226" lon="10.483021156408077"><ele>701.3333333333333</ele><time>2026-04-11T13:28:50Z</time></trkpt><trkpt lat="44.491972899914806" lon="10.483138348736993"><ele>704.6666666666666</ele><time>2026-04-11T13:28:51Z</time></trkpt><trkpt lat="44.491930738469236" lon="10.483247740287139"><ele>708.0</ele><time>2026-04-11T13:28:52Z</time></trkpt><trkpt lat="44.491877632625105" lon="10.483337773129776"><ele>711.3333333333334</ele><time>2026-04-11T13:28:53Z</time></trkpt><trkpt lat="44.49181930645285" lon="10.483424814926085"><ele>714.6666666666667</ele><time>2026-04-11T13:28:54Z</time></trkpt><trkpt lat="44.49175198947198" lon="10.483499924059396"><ele>718.0</ele><time>2026-04-11T13:28:55Z</time></trkpt><trkpt lat="44.49167098563776" lon="10.483564713921998"><ele>718.0</ele><time>2026-04-11T13:28:56Z</time></trkpt><trkpt lat="44.49158112957049" lon="10.483615322927026"><ele>718.0</ele><time>2026-04-11T13:28:57Z</time></trkpt><trkpt lat="44.49148589360777" lon="10.483618502096421"><ele>718.0</ele><time>2026-04-11T13:28:58Z</time></trkpt><trkpt lat="44.49139225823852" lon="10.483650870354321"><ele>718.0</ele><time>2026-04-11T13:28:59Z</time></trkpt><trkpt lat="44.49129150804885" lon="10.483635138507195"><ele>718.0</ele><time>2026-04-11T13:29:00Z</time></trkpt><trkpt lat="44.4911875113951" lon="10.483615653748386"><ele>718.5</ele><time>2026-04-11T13:29:01Z</time></trkpt><trkpt lat="44.49108917332219" lon="10.483576719574895"><ele>719.0</ele><time>2026-04-11T13:29:02Z</time></trkpt><trkpt lat="44.49095566450094" lon="10.48357317510629"><ele>719.5</ele><time>2026-04-11T13:29:03Z</time></trkpt><trkpt lat="44.490766781436825" lon="10.483618168835894"><ele>720.0</ele><time>2026-04-11T13:29:04Z</time></trkpt><trkpt lat="44.49059486755856" lon="10.483646247682934"><ele>720.0</ele><time>2026-04-11T13:29:05Z</time></trkpt><trkpt lat="44.49046991414906" lon="10.483656880325707"><ele>720.0</ele><time>2026-04-11T13:29:06Z</time></trkpt><trkpt lat="44.490384846375655" lon="10.483648644562177"><ele>720.0</ele><time>2026-04-11T13:29:07Z</time></trkpt><trkpt lat="44.49033743720494" lon="10.483753560211378"><ele>720.0</ele><time>2026-04-11T13:29:09Z</time></trkpt><trkpt lat="44.49045875790118" lon="10.48388991357115"><ele>727.3333333333334</ele><time>2026-04-11T13:29:11Z</time></trkpt><trkpt lat="44.49061681996147" lon="10.48392974608334"><ele>734.6666666666667</ele><time>2026-04-11T13:29:12Z</time></trkpt><trkpt lat="44.49078332083946" lon="10.483971691733693"><ele>742.0</ele><time>2026-04-11T13:29:13Z</time></trkpt><trkpt lat="44.490925932070425" lon="10.484000904962706"><ele>742.0</ele><time>2026-04-11T13:29:14Z</time></trkpt><trkpt lat="44.49105660419872" lon="10.48401957582706"><ele>742.0</ele><time>2026-04-11T13:29:15Z</time></trkpt><trkpt lat="44.49116128044791" lon="10.4840883732769"><ele>742.0</ele><time>2026-04-11T13:29:16Z</time></trkpt><trkpt lat="44.49125931542173" lon="10.48412553799367"><ele>742.0</ele><time>2026-04-11T13:29:17Z</time></trkpt><trkpt lat="44.49133775591281" lon="10.48417880479475"><ele>742.0</ele><time>2026-04-11T13:29:18Z</time></trkpt><trkpt lat="44.49139981063846" lon="10.484215614003052"><ele>742.0</ele><time>2026-04-11T13:29:19Z</time></trkpt><trkpt lat="44.49142377055683" lon="10.48430448471802"><ele>742.0</ele><time>2026-04-11T13:29:21Z</time></trkpt><trkpt lat="44.49129581600216" lon="10.484338105238265"><ele>742.0</ele><time>2026-04-11T13:29:23Z</time></trkpt><trkpt lat="44.491219702175265" lon="10.48431328129278"><ele>742.0</ele><time>2026-04-11T13:29:24Z</time></trkpt><trkpt lat="44.49113875598139" lon="10.484314458708148"><ele>742.0</ele><time>2026-04-11T13:29:25Z</time></trkpt><trkpt lat="44.49104998651498" lon="10.48435238520886"><ele>742.0</ele><time>2026-04-11T13:29:26Z</time></trkpt><trkpt lat="44.4909585962364" lon="10.48439912215083"><ele>742.0</ele><time>2026-04-11T13:29:27Z</time></trkpt><trkpt lat="44.4908887848333" lon="10.484454543741489"><ele>742.0</ele><time>2026-04-11T13:29:28Z</time></trkpt><trkpt lat="44.4907770159269" lon="10.484532780547895"><ele>742.0</ele><time>2026-04-11T13:29:29Z</time></trkpt><trkpt lat="44.49065832561842" lon="10.48462116486642"><ele>742.0</ele><time>2026-04-11T13:29:30Z</time></trkpt><trkpt lat="44.49054403311322" lon="10.484703951219826"><ele>743.6</ele><time>2026-04-11T13:29:31Z</time></trkpt><trkpt lat="44.49043436103442" lon="10.484780118695518"><ele>745.2</ele><time>2026-04-11T13:29:32Z</time></trkpt><trkpt lat="44.49033111727949" lon="10.484851460512681"><ele>746.8</ele><time>2026-04-11T13:29:33Z</time></trkpt><trkpt lat="44.49024410067255" lon="10.484938108731832"><ele>748.4</ele><time>2026-04-11T13:29:34Z</time></trkpt><trkpt lat="44.49017990594549" lon="10.485038850857523"><ele>750.0</ele><time>2026-04-11T13:29:35Z</time></trkpt><trkpt lat="44.49012841686441" lon="10.485144442506348"><ele>749.8333333333334</ele><time>2026-04-11T13:29:36Z</time></trkpt><trkpt lat="44.490080821773184" lon="10.48524261654411"><ele>749.6666666666666</ele><time>2026-04-11T13:29:37Z</time></trkpt><trkpt lat="44.490019218150294" lon="10.48533278875788"><ele>749.5</ele><time>2026-04-11T13:29:38Z</time></trkpt><trkpt lat="44.489946135651174" lon="10.485402818682015"><ele>749.3333333333333</ele><time>2026-04-11T13:29:39Z</time></trkpt><trkpt lat="44.489874335113214" lon="10.485441238968999"><ele>749.1666666666666</ele><time>2026-04-11T13:29:40Z</time></trkpt><trkpt lat="44.4898079597093" lon="10.485435315449916"><ele>749.0</ele><time>2026-04-11T13:29:41Z</time></trkpt><trkpt lat="44.48976425485173" lon="10.485334358735317"><ele>750.6666666666666</ele><time>2026-04-11T13:29:42Z</time></trkpt><trkpt lat="44.48973430338833" lon="10.485247556944696"><ele>752.3333333333333</ele><time>2026-04-11T13:29:43Z</time></trkpt><trkpt lat="44.489702679353364" lon="10.485150124733792"><ele>754.0</ele><time>2026-04-11T13:29:44Z</time></trkpt><trkpt lat="44.4896600632412" lon="10.485030576907212"><ele>755.6666666666666</ele><time>2026-04-11T13:29:45Z</time></trkpt><trkpt lat="44.489601629771734" lon="10.484913019912222"><ele>757.3333333333334</ele><time>2026-04-11T13:29:46Z</time></trkpt><trkpt lat="44.48955949779934" lon="10.484784653244374"><ele>759.0</ele><time>2026-04-11T13:29:47Z</time></trkpt><trkpt lat="44.489502114123454" lon="10.484679637330863"><ele>759.0</ele><time>2026-04-11T13:29:48Z</time></trkpt><trkpt lat="44.48943940062477" lon="10.48460118228528"><ele>759.0</ele><time>2026-04-11T13:29:49Z</time></trkpt><trkpt lat="44.48935770200661" lon="10.484526984126376"><ele>759.0</ele><time>2026-04-11T13:29:50Z</time></trkpt><trkpt lat="44.48924679839512" lon="10.484503364879588"><ele>759.0</ele><time>2026-04-11T13:29:51Z</time></trkpt><trkpt lat="44.489145838641925" lon="10.484486184172223"><ele>759.0</ele><time>2026-04-11T13:29:52Z</time></trkpt><trkpt lat="44.48902819270358" lon="10.48445751796517"><ele>761.2</ele><time>2026-04-11T13:29:53Z</time></trkpt><trkpt lat="44.48891822329472" lon="10.484440952573854"><ele>763.4000000000001</ele><time>2026-04-11T13:29:54Z</time></trkpt><trkpt lat="44.48881241971115" lon="10.484425741439264"><ele>765.6</ele><time>2026-04-11T13:29:55Z</time></trkpt><trkpt lat="44.48871466659685" lon="10.484408264567168"><ele>767.8</ele><time>2026-04-11T13:29:56Z</time></trkpt><trkpt lat="44.48861666225023" lon="10.484393494389726"><ele>770.0</ele><time>2026-04-11T13:29:57Z</time></trkpt><trkpt lat="44.48852137907834" lon="10.484378200567807"><ele>771.6666666666667</ele><time>2026-04-11T13:29:58Z</time></trkpt><trkpt lat="44.488430362913824" lon="10.484371055888232"><ele>773.3333333333334</ele><time>2026-04-11T13:29:59Z</time></trkpt><trkpt lat="44.488346027276464" lon="10.484371504406521"><ele>775.0</ele><time>2026-04-11T13:30:00Z</time></trkpt><trkpt lat="44.488273369763334" lon="10.484388634446566"><ele>776.6666666666667</ele><time>2026-04-11T13:30:01Z</time></trkpt><trkpt lat="44.488200956614875" lon="10.484393427349168"><ele>778.3333333333334</ele><time>2026-04-11T13:30:02Z</time></trkpt><trkpt lat="44.488137054365694" lon="10.484399971464523"><ele>780.0</ele><time>2026-04-11T13:30:03Z</time></trkpt><trkpt lat="44.48803599651713" lon="10.484439502501418"><ele>780.0</ele><time>2026-04-11T13:30:05Z</time></trkpt><trkpt lat="44.48797270793484" lon="10.484482614140253"><ele>780.0</ele><time>2026-04-11T13:30:06Z</time></trkpt><trkpt lat="44.48788686624494" lon="10.48453686115434"><ele>780.0</ele><time>2026-04-11T13:30:07Z</time></trkpt><trkpt lat="44.48779468299506" lon="10.484591209785302"><ele>780.0</ele><time>2026-04-11T13:30:08Z</time></trkpt><trkpt lat="44.48771427262514" lon="10.484638831224904"><ele>780.0</ele><time>2026-04-11T13:30:09Z</time></trkpt><trkpt lat="44.487646853277184" lon="10.484687100183812"><ele>780.0</ele><time>2026-04-11T13:30:10Z</time></trkpt><trkpt lat="44.48756105617301" lon="10.48474555818372"><ele>779.6</ele><time>2026-04-11T13:30:11Z</time></trkpt><trkpt lat="44.48744984560981" lon="10.484802704206164"><ele>779.2</ele><time>2026-04-11T13:30:12Z</time></trkpt><trkpt lat="44.487345745453545" lon="10.484855967232004"><ele>778.8</ele><time>2026-04-11T13:30:13Z</time></trkpt><trkpt lat="44.4872411442305" lon="10.484889789865763"><ele>778.4</ele><time>2026-04-11T13:30:14Z</time></trkpt><trkpt lat="44.48713526020788" lon="10.484916848901243"><ele>778.0</ele><time>2026-04-11T13:30:15Z</time></trkpt><trkpt lat="44.487019496439686" lon="10.484931229464426"><ele>778.0</ele><time>2026-04-11T13:30:16Z</time></trkpt><trkpt lat="44.486894438360196" lon="10.48494766245553"><ele>778.0</ele><time>2026-04-11T13:30:17Z</time></trkpt><trkpt lat="44.48676641126073" lon="10.484964873432824"><ele>778.0</ele><time>2026-04-11T13:30:18Z</time></trkpt><trkpt lat="44.486638281681145" lon="10.484974619583403"><ele>778.0</ele><time>2026-04-11T13:30:19Z</time></trkpt><trkpt lat="44.486506804169885" lon="10.484992608118466"><ele>778.0</ele><time>2026-04-11T13:30:20Z</time></trkpt><trkpt lat="44.48637570949394" lon="10.485014044658614"><ele>778.0</ele><time>2026-04-11T13:30:21Z</time></trkpt><trkpt lat="44.486244119656895" lon="10.485021669508534"><ele>778.0</ele><time>2026-04-11T13:30:22Z</time></trkpt><trkpt lat="44.486109791956906" lon="10.485041407418635"><ele>778.0</ele><time>2026-04-11T13:30:23Z</time></trkpt><trkpt lat="44.485974505826924" lon="10.485060071910015"><ele>777.25</ele><time>2026-04-11T13:30:24Z</time></trkpt><trkpt lat="44.485839823444614" lon="10.485073675178135"><ele>776.5</ele><time>2026-04-11T13:30:25Z</time></trkpt><trkpt lat="44.48571645687761" lon="10.485087093260367"><ele>775.75</ele><time>2026-04-11T13:30:26Z</time></trkpt><trkpt lat="44.485586013356254" lon="10.485103279817451"><ele>775.0</ele><time>2026-04-11T13:30:27Z</time></trkpt><trkpt lat="44.485458148358596" lon="10.485118604075618"><ele>774.5</ele><time>2026-04-11T13:30:28Z</time></trkpt><trkpt lat="44.4853283803701" lon="10.485131137432743"><ele>774.0</ele><time>2026-04-11T13:30:29Z</time></trkpt><trkpt lat="44.485202309967136" lon="10.485146829041238"><ele>773.5</ele><time>2026-04-11T13:30:30Z</time></trkpt><trkpt lat="44.48508251986837" lon="10.485162155600628"><ele>773.0</ele><time>2026-04-11T13:30:31Z</time></trkpt><trkpt lat="44.48496854497688" lon="10.485178256142005"><ele>773.0</ele><time>2026-04-11T13:30:32Z</time></trkpt><trkpt lat="44.484858492143466" lon="10.485194437157913"><ele>773.0</ele><time>2026-04-11T13:30:33Z</time></trkpt><trkpt lat="44.4847464055817" lon="10.485218326222341"><ele>773.0</ele><time>2026-04-11T13:30:34Z</time></trkpt><trkpt lat="44.48463244629265" lon="10.485238762674646"><ele>773.0</ele><time>2026-04-11T13:30:35Z</time></trkpt><trkpt lat="44.484513858189686" lon="10.48525269097395"><ele>774.2</ele><time>2026-04-11T13:30:36Z</time></trkpt><trkpt lat="44.48440810164959" lon="10.485266036941349"><ele>775.4</ele><time>2026-04-11T13:30:37Z</time></trkpt><trkpt lat="44.484305049318834" lon="10.48528633524848"><ele>776.6</ele><time>2026-04-11T13:30:38Z</time></trkpt><trkpt lat="44.48419003710226" lon="10.485304463797798"><ele>777.8000000000001</ele><time>2026-04-11T13:30:39Z</time></trkpt><trkpt lat="44.48409037483491" lon="10.485324803448556"><ele>779.0</ele><time>2026-04-11T13:30:40Z</time></trkpt><trkpt lat="44.48398217558901" lon="10.485353599972145"><ele>779.0</ele><time>2026-04-11T13:30:41Z</time></trkpt><trkpt lat="44.48387183964409" lon="10.485388312420078"><ele>779.0</ele><time>2026-04-11T13:30:42Z</time></trkpt><trkpt lat="44.48375750184755" lon="10.485422348567948"><ele>779.0</ele><time>2026-04-11T13:30:43Z</time></trkpt><trkpt lat="44.4836455135319" lon="10.485458464358349"><ele>779.0</ele><time>2026-04-11T13:30:44Z</time></trkpt><trkpt lat="44.48353449248344" lon="10.48549348997788"><ele>779.0</ele><time>2026-04-11T13:30:45Z</time></trkpt><trkpt lat="44.483420844079305" lon="10.485534228864763"><ele>779.0</ele><time>2026-04-11T13:30:46Z</time></trkpt><trkpt lat="44.48331164488026" lon="10.485589424185118"><ele>779.0</ele><time>2026-04-11T13:30:47Z</time></trkpt><trkpt lat="44.48319268063183" lon="10.485650389945585"><ele>779.0</ele><time>2026-04-11T13:30:48Z</time></trkpt><trkpt lat="44.48306871927695" lon="10.4857152329785"><ele>779.0</ele><time>2026-04-11T13:30:49Z</time></trkpt><trkpt lat="44.48294248131533" lon="10.48578269648463"><ele>779.0</ele><time>2026-04-11T13:30:50Z</time></trkpt><trkpt lat="44.4828162863725" lon="10.485850164263413"><ele>779.0</ele><time>2026-04-11T13:30:51Z</time></trkpt><trkpt lat="44.48269258077406" lon="10.485915843626387"><ele>779.0</ele><time>2026-04-11T13:30:52Z</time></trkpt><trkpt lat="44.482571016135644" lon="10.485985706248972"><ele>780.5</ele><time>2026-04-11T13:30:53Z</time></trkpt><trkpt lat="44.48245313026118" lon="10.486052990525176"><ele>782.0</ele><time>2026-04-11T13:30:54Z</time></trkpt><trkpt lat="44.482339340446" lon="10.486125254140209"><ele>783.5</ele><time>2026-04-11T13:30:55Z</time></trkpt><trkpt lat="44.48222847585426" lon="10.486178153225021"><ele>785.0</ele><time>2026-04-11T13:30:56Z</time></trkpt><trkpt lat="44.48212524348232" lon="10.486237789128536"><ele>783.5</ele><time>2026-04-11T13:30:57Z</time></trkpt><trkpt lat="44.48201571277017" lon="10.486303615030366"><ele>782.0</ele><time>2026-04-11T13:30:58Z</time></trkpt><trkpt lat="44.48190850557507" lon="10.486368688997631"><ele>780.5</ele><time>2026-04-11T13:30:59Z</time></trkpt><trkpt lat="44.48179950398185" lon="10.486449397172878"><ele>779.0</ele><time>2026-04-11T13:31:00Z</time></trkpt><trkpt lat="44.48168919067216" lon="10.486529997972083"><ele>779.0</ele><time>2026-04-11T13:31:01Z</time></trkpt><trkpt lat="44.48158379817385" lon="10.486619510847"><ele>779.0</ele><time>2026-04-11T13:31:02Z</time></trkpt><trkpt lat="44.48147277921025" lon="10.486741252651909"><ele>779.0</ele><time>2026-04-11T13:31:03Z</time></trkpt><trkpt lat="44.48136371549661" lon="10.48686494244101"><ele>779.0</ele><time>2026-04-11T13:31:04Z</time></trkpt><trkpt lat="44.481244443134926" lon="10.486974823864534"><ele>778.5</ele><time>2026-04-11T13:31:05Z</time></trkpt><trkpt lat="44.48111756552243" lon="10.487070778951724"><ele>778.0</ele><time>2026-04-11T13:31:06Z</time></trkpt><trkpt lat="44.480989177148125" lon="10.487157560743045"><ele>777.5</ele><time>2026-04-11T13:31:07Z</time></trkpt><trkpt lat="44.48086592727181" lon="10.487246692195498"><ele>777.0</ele><time>2026-04-11T13:31:08Z</time></trkpt><trkpt lat="44.48074487064529" lon="10.487328298579495"><ele>777.0</ele><time>2026-04-11T13:31:09Z</time></trkpt><trkpt lat="44.48061905567003" lon="10.4874154638233"><ele>777.0</ele><time>2026-04-11T13:31:10Z</time></trkpt><trkpt lat="44.48048342492286" lon="10.487499912841885"><ele>777.0</ele><time>2026-04-11T13:31:11Z</time></trkpt><trkpt lat="44.48034067924224" lon="10.487577417353355"><ele>777.0</ele><time>2026-04-11T13:31:12Z</time></trkpt><trkpt lat="44.48019547044648" lon="10.487641392950238"><ele>778.75</ele><time>2026-04-11T13:31:13Z</time></trkpt><trkpt lat="44.48004706818916" lon="10.487670692768722"><ele>780.5</ele><time>2026-04-11T13:31:14Z</time></trkpt><trkpt lat="44.479899073776366" lon="10.487690889499001"><ele>782.25</ele><time>2026-04-11T13:31:15Z</time></trkpt><trkpt lat="44.47975700030551" lon="10.487688905122559"><ele>784.0</ele><time>2026-04-11T13:31:16Z</time></trkpt><trkpt lat="44.479617860376216" lon="10.487707272623965"><ele>786.0</ele><time>2026-04-11T13:31:17Z</time></trkpt><trkpt lat="44.4794857997326" lon="10.487765938693554"><ele>788.0</ele><time>2026-04-11T13:31:17.999Z</time></trkpt><trkpt lat="44.47935889581287" lon="10.487873390832288"><ele>790.0</ele><time>2026-04-11T13:31:18.999Z</time></trkpt><trkpt lat="44.47923441519034" lon="10.488008682772419"><ele>792.0</ele><time>2026-04-11T13:31:19.999Z</time></trkpt><trkpt lat="44.47911689239846" lon="10.488146163179287"><ele>788.0</ele><time>2026-04-11T13:31:20.999Z</time></trkpt><trkpt lat="44.478986476541394" lon="10.48825989892533"><ele>784.0</ele><time>2026-04-11T13:31:21.999Z</time></trkpt><trkpt lat="44.478843887983345" lon="10.488347540055143"><ele>780.0</ele><time>2026-04-11T13:31:22.999Z</time></trkpt><trkpt lat="44.47869617928696" lon="10.488421991953206"><ele>780.0</ele><time>2026-04-11T13:31:23.999Z</time></trkpt><trkpt lat="44.478546880940485" lon="10.488488779521441"><ele>780.0</ele><time>2026-04-11T13:31:24.999Z</time></trkpt><trkpt lat="44.47839744444879" lon="10.488564997131173"><ele>780.0</ele><time>2026-04-11T13:31:25.999Z</time></trkpt><trkpt lat="44.478254998222916" lon="10.488671983146412"><ele>777.6666666666667</ele><time>2026-04-11T13:31:26.999Z</time></trkpt><trkpt lat="44.47812259157815" lon="10.488800799365276"><ele>775.3333333333334</ele><time>2026-04-11T13:31:27.999Z</time></trkpt><trkpt lat="44.47799778311838" lon="10.488928486158983"><ele>773.0</ele><time>2026-04-11T13:31:28.999Z</time></trkpt><trkpt lat="44.47787284052045" lon="10.489046697354606"><ele>773.0</ele><time>2026-04-11T13:31:29.999Z</time></trkpt><trkpt lat="44.47774620548969" lon="10.489155707348027"><ele>773.0</ele><time>2026-04-11T13:31:30.999Z</time></trkpt><trkpt lat="44.477620310493194" lon="10.489266145404061"><ele>773.0</ele><time>2026-04-11T13:31:31.999Z</time></trkpt><trkpt lat="44.47749775974013" lon="10.489382342883495"><ele>773.0</ele><time>2026-04-11T13:31:32.999Z</time></trkpt><trkpt lat="44.4773811086185" lon="10.489520162391074"><ele>770.25</ele><time>2026-04-11T13:31:33.999Z</time></trkpt><trkpt lat="44.47727665250354" lon="10.489673382399122"><ele>767.5</ele><time>2026-04-11T13:31:34.999Z</time></trkpt><trkpt lat="44.477184234801165" lon="10.489806310237016"><ele>764.75</ele><time>2026-04-11T13:31:35.999Z</time></trkpt><trkpt lat="44.477112003618956" lon="10.489885798807062"><ele>762.0</ele><time>2026-04-11T13:31:36.999Z</time></trkpt><trkpt lat="44.477015820338835" lon="10.489939725746442"><ele>762.0</ele><time>2026-04-11T13:31:37.999Z</time></trkpt><trkpt lat="44.476902219261135" lon="10.489904596066346"><ele>762.0</ele><time>2026-04-11T13:31:38.999Z</time></trkpt><trkpt lat="44.47679282838683" lon="10.489927059667977"><ele>762.0</ele><time>2026-04-11T13:31:39.999Z</time></trkpt><trkpt lat="44.47669935370435" lon="10.489958654292872"><ele>762.0</ele><time>2026-04-11T13:31:40.999Z</time></trkpt><trkpt lat="44.4766348367825" lon="10.490106446968284"><ele>762.0</ele><time>2026-04-11T13:31:41.999Z</time></trkpt><trkpt lat="44.476592993619526" lon="10.490268378283693"><ele>762.0</ele><time>2026-04-11T13:31:42.999Z</time></trkpt><trkpt lat="44.47654732501847" lon="10.490409405325861"><ele>762.0</ele><time>2026-04-11T13:31:43.999Z</time></trkpt><trkpt lat="44.47646814658185" lon="10.4905163244255"><ele>762.0</ele><time>2026-04-11T13:31:44.999Z</time></trkpt><trkpt lat="44.476362378133125" lon="10.490566842943673"><ele>762.0</ele><time>2026-04-11T13:31:45.999Z</time></trkpt><trkpt lat="44.476245673403035" lon="10.490520407828239"><ele>759.25</ele><time>2026-04-11T13:31:46.999Z</time></trkpt><trkpt lat="44.4761277854561" lon="10.490465703670344"><ele>756.5</ele><time>2026-04-11T13:31:47.999Z</time></trkpt><trkpt lat="44.47600738661814" lon="10.490428455763084"><ele>753.75</ele><time>2026-04-11T13:31:48.999Z</time></trkpt><trkpt lat="44.475899328718754" lon="10.490387217852367"><ele>751.0</ele><time>2026-04-11T13:31:49.999Z</time></trkpt><trkpt lat="44.47577700972222" lon="10.490385369981611"><ele>751.0</ele><time>2026-04-11T13:31:50.999Z</time></trkpt><trkpt lat="44.475654571458705" lon="10.490421054531904"><ele>751.0</ele><time>2026-04-11T13:31:51.999Z</time></trkpt><trkpt lat="44.47553098552769" lon="10.490485673250998"><ele>751.0</ele><time>2026-04-11T13:31:52.999Z</time></trkpt><trkpt lat="44.475406255394276" lon="10.490526228584077"><ele>751.0</ele><time>2026-04-11T13:31:53.999Z</time></trkpt><trkpt lat="44.475278682494874" lon="10.490536318800894"><ele>746.75</ele><time>2026-04-11T13:31:54.999Z</time></trkpt><trkpt lat="44.47515398126338" lon="10.490522019979604"><ele>742.5</ele><time>2026-04-11T13:31:55.999Z</time></trkpt><trkpt lat="44.47502528962432" lon="10.490511088734031"><ele>738.25</ele><time>2026-04-11T13:31:56.999Z</time></trkpt><trkpt lat="44.47490446343585" lon="10.49050254719443"><ele>734.0</ele><time>2026-04-11T13:31:57.999Z</time></trkpt><trkpt lat="44.4747908088717" lon="10.490478006054282"><ele>734.5</ele><time>2026-04-11T13:31:58.999Z</time></trkpt><trkpt lat="44.47468521006056" lon="10.49041984876725"><ele>735.0</ele><time>2026-04-11T13:31:59.999Z</time></trkpt><trkpt lat="44.474579292308924" lon="10.490345724565222"><ele>735.5</ele><time>2026-04-11T13:32:00.999Z</time></trkpt><trkpt lat="44.474473072248955" lon="10.490281200619782"><ele>736.0</ele><time>2026-04-11T13:32:01.999Z</time></trkpt><trkpt lat="44.474357111900545" lon="10.490188280369962"><ele>736.0</ele><time>2026-04-11T13:32:02.999Z</time></trkpt><trkpt lat="44.474244933689654" lon="10.490120235766247"><ele>736.0</ele><time>2026-04-11T13:32:03.999Z</time></trkpt><trkpt lat="44.47413815516038" lon="10.490056802755786"><ele>736.0</ele><time>2026-04-11T13:32:04.999Z</time></trkpt><trkpt lat="44.474034464566095" lon="10.49000831864533"><ele>736.0</ele><time>2026-04-11T13:32:05.999Z</time></trkpt><trkpt lat="44.47393504955636" lon="10.489996238498563"><ele>736.0</ele><time>2026-04-11T13:32:06.999Z</time></trkpt><trkpt lat="44.473841567686954" lon="10.490007385280165"><ele>734.3333333333334</ele><time>2026-04-11T13:32:07.999Z</time></trkpt><trkpt lat="44.47375442653669" lon="10.490007913913956"><ele>732.6666666666667</ele><time>2026-04-11T13:32:08.999Z</time></trkpt><trkpt lat="44.4736728944075" lon="10.489992287380533"><ele>731.0</ele><time>2026-04-11T13:32:09.999Z</time></trkpt><trkpt lat="44.473598135141756" lon="10.489954720695051"><ele>729.3333333333334</ele><time>2026-04-11T13:32:10.999Z</time></trkpt><trkpt lat="44.47352612672069" lon="10.489912239860624"><ele>727.6666666666666</ele><time>2026-04-11T13:32:11.999Z</time></trkpt><trkpt lat="44.47345250988837" lon="10.489864498223747"><ele>726.0</ele><time>2026-04-11T13:32:12.999Z</time></trkpt><trkpt lat="44.473378830237806" lon="10.489814329677317"><ele>726.0</ele><time>2026-04-11T13:32:13.999Z</time></trkpt><trkpt lat="44.473296024269644" lon="10.489758041764125"><ele>726.0</ele><time>2026-04-11T13:32:14.999Z</time></trkpt><trkpt lat="44.47321938884544" lon="10.48970304340118"><ele>726.0</ele><time>2026-04-11T13:32:15.999Z</time></trkpt><trkpt lat="44.473149623882136" lon="10.48963361281153"><ele>726.0</ele><time>2026-04-11T13:32:16.999Z</time></trkpt><trkpt lat="44.473093234283986" lon="10.489549898319513"><ele>726.0</ele><time>2026-04-11T13:32:17.999Z</time></trkpt><trkpt lat="44.47305917514502" lon="10.48944395652013"><ele>726.0</ele><time>2026-04-11T13:32:18.999Z</time></trkpt><trkpt lat="44.473045890768724" lon="10.48932560377939"><ele>727.1999999999999</ele><time>2026-04-11T13:32:19.999Z</time></trkpt><trkpt lat="44.47304898720137" lon="10.489199490845328"><ele>728.4</ele><time>2026-04-11T13:32:20.999Z</time></trkpt><trkpt lat="44.47306243516023" lon="10.489073036541393"><ele>729.6</ele><time>2026-04-11T13:32:21.999Z</time></trkpt><trkpt lat="44.473076765074495" lon="10.488940778654648"><ele>730.8</ele><time>2026-04-11T13:32:22.999Z</time></trkpt><trkpt lat="44.473087396602544" lon="10.488805996701082"><ele>732.0</ele><time>2026-04-11T13:32:23.999Z</time></trkpt><trkpt lat="44.47309592603269" lon="10.488663601444166"><ele>732.2</ele><time>2026-04-11T13:32:24.999Z</time></trkpt><trkpt lat="44.473102360888824" lon="10.488522953704814"><ele>732.4000000000001</ele><time>2026-04-11T13:32:25.999Z</time></trkpt><trkpt lat="44.4731010880814" lon="10.488380803558364"><ele>732.5999999999999</ele><time>2026-04-11T13:32:26.999Z</time></trkpt><trkpt lat="44.473085504483386" lon="10.488241238068833"><ele>732.8</ele><time>2026-04-11T13:32:27.999Z</time></trkpt><trkpt lat="44.47305868195887" lon="10.488106673638251"><ele>733.0</ele><time>2026-04-11T13:32:28.999Z</time></trkpt><trkpt lat="44.47303448075121" lon="10.487974921974669"><ele>732.1666666666667</ele><time>2026-04-11T13:32:29.999Z</time></trkpt><trkpt lat="44.47300683740654" lon="10.487850553060193"><ele>731.3333333333334</ele><time>2026-04-11T13:32:30.999Z</time></trkpt><trkpt lat="44.47297924413697" lon="10.487729877432153"><ele>730.5</ele><time>2026-04-11T13:32:31.999Z</time></trkpt><trkpt lat="44.47294696426507" lon="10.48762146360985"><ele>729.6666666666666</ele><time>2026-04-11T13:32:32.999Z</time></trkpt><trkpt lat="44.47289312085804" lon="10.487552826233571"><ele>728.8333333333333</ele><time>2026-04-11T13:32:33.999Z</time></trkpt><trkpt lat="44.47282661431261" lon="10.4875181045364"><ele>728.0</ele><time>2026-04-11T13:32:34.999Z</time></trkpt><trkpt lat="44.47275193091844" lon="10.487595249642608"><ele>726.8</ele><time>2026-04-11T13:32:35.999Z</time></trkpt><trkpt lat="44.472689383607964" lon="10.487677310211632"><ele>725.5999999999999</ele><time>2026-04-11T13:32:36.999Z</time></trkpt><trkpt lat="44.47262481509655" lon="10.487771816293714"><ele>724.4000000000001</ele><time>2026-04-11T13:32:37.999Z</time></trkpt><trkpt lat="44.47255073442756" lon="10.48787238344974"><ele>723.2</ele><time>2026-04-11T13:32:38.999Z</time></trkpt><trkpt lat="44.47246886268789" lon="10.487982499859882"><ele>722.0</ele><time>2026-04-11T13:32:39.999Z</time></trkpt><trkpt lat="44.47238322327505" lon="10.488100564925796"><ele>721.5</ele><time>2026-04-11T13:32:40.999Z</time></trkpt><trkpt lat="44.47229350265092" lon="10.488223042924075"><ele>721.0</ele><time>2026-04-11T13:32:41.999Z</time></trkpt><trkpt lat="44.47220231077237" lon="10.48834595783663"><ele>720.5</ele><time>2026-04-11T13:32:42.999Z</time></trkpt><trkpt lat="44.47211582466786" lon="10.488464506476166"><ele>720.0</ele><time>2026-04-11T13:32:43.999Z</time></trkpt><trkpt lat="44.47203075400707" lon="10.488579968709802"><ele>720.0</ele><time>2026-04-11T13:32:44.999Z</time></trkpt><trkpt lat="44.4719436229735" lon="10.488699676631287"><ele>720.0</ele><time>2026-04-11T13:32:45.999Z</time></trkpt><trkpt lat="44.471861185041355" lon="10.488818805212714"><ele>720.0</ele><time>2026-04-11T13:32:46.999Z</time></trkpt><trkpt lat="44.47178476454767" lon="10.488936265097623"><ele>720.0</ele><time>2026-04-11T13:32:47.999Z</time></trkpt><trkpt lat="44.471712799716826" lon="10.489050539505316"><ele>716.4</ele><time>2026-04-11T13:32:48.999Z</time></trkpt><trkpt lat="44.471640065152876" lon="10.489163720746147"><ele>712.8</ele><time>2026-04-11T13:32:49.999Z</time></trkpt><trkpt lat="44.47157193367272" lon="10.489281071989398"><ele>709.2</ele><time>2026-04-11T13:32:50.999Z</time></trkpt><trkpt lat="44.47150643876731" lon="10.489407576224508"><ele>705.6</ele><time>2026-04-11T13:32:51.999Z</time></trkpt><trkpt lat="44.47143713907084" lon="10.489534896636805"><ele>702.0</ele><time>2026-04-11T13:32:52.999Z</time></trkpt><trkpt lat="44.47135679310415" lon="10.489646896329694"><ele>700.2</ele><time>2026-04-11T13:32:53.999Z</time></trkpt><trkpt lat="44.47126689153336" lon="10.489732508784023"><ele>698.4000000000001</ele><time>2026-04-11T13:32:54.999Z</time></trkpt><trkpt lat="44.471161679302924" lon="10.489787490566151"><ele>696.5999999999999</ele><time>2026-04-11T13:32:55.999Z</time></trkpt><trkpt lat="44.47105543965761" lon="10.489800858094682"><ele>694.8</ele><time>2026-04-11T13:32:56.999Z</time></trkpt><trkpt lat="44.47095542768113" lon="10.489787423958273"><ele>693.0</ele><time>2026-04-11T13:32:57.999Z</time></trkpt><trkpt lat="44.47087059162737" lon="10.48977296737216"><ele>693.0</ele><time>2026-04-11T13:32:58.999Z</time></trkpt><trkpt lat="44.47080487461049" lon="10.489777655303794"><ele>693.0</ele><time>2026-04-11T13:33:00Z</time></trkpt><trkpt lat="44.470675909137704" lon="10.489794157079345"><ele>693.0</ele><time>2026-04-11T13:33:02Z</time></trkpt><trkpt lat="44.470579265600016" lon="10.489754634928461"><ele>693.0</ele><time>2026-04-11T13:33:03Z</time></trkpt><trkpt lat="44.47046084708766" lon="10.4896856886595"><ele>693.0</ele><time>2026-04-11T13:33:04Z</time></trkpt><trkpt lat="44.470335652666215" lon="10.489625434096713"><ele>694.5</ele><time>2026-04-11T13:33:05Z</time></trkpt><trkpt lat="44.470214229731255" lon="10.489565039845651"><ele>696.0</ele><time>2026-04-11T13:33:06Z</time></trkpt><trkpt lat="44.470091047803514" lon="10.489502061079644"><ele>697.5</ele><time>2026-04-11T13:33:07Z</time></trkpt><trkpt lat="44.469977452941116" lon="10.489447604246243"><ele>699.0</ele><time>2026-04-11T13:33:08Z</time></trkpt><trkpt lat="44.469871695464704" lon="10.489395386032383"><ele>699.0</ele><time>2026-04-11T13:33:09Z</time></trkpt><trkpt lat="44.469770055219634" lon="10.489343204394613"><ele>699.0</ele><time>2026-04-11T13:33:10Z</time></trkpt><trkpt lat="44.46966311961116" lon="10.489284798980638"><ele>699.0</ele><time>2026-04-11T13:33:11Z</time></trkpt><trkpt lat="44.46955247683286" lon="10.489226282533162"><ele>699.0</ele><time>2026-04-11T13:33:12Z</time></trkpt><trkpt lat="44.46943675470322" lon="10.489168391510358"><ele>698.75</ele><time>2026-04-11T13:33:13Z</time></trkpt><trkpt lat="44.46931886866064" lon="10.489106599575322"><ele>698.5</ele><time>2026-04-11T13:33:14Z</time></trkpt><trkpt lat="44.46919356137478" lon="10.489045322875436"><ele>698.25</ele><time>2026-04-11T13:33:15Z</time></trkpt><trkpt lat="44.46906383522704" lon="10.48898219263977"><ele>698.0</ele><time>2026-04-11T13:33:16Z</time></trkpt><trkpt lat="44.46893294438082" lon="10.488913650473012"><ele>698.0</ele><time>2026-04-11T13:33:17Z</time></trkpt><trkpt lat="44.46880078380857" lon="10.488842332563808"><ele>698.0</ele><time>2026-04-11T13:33:18Z</time></trkpt><trkpt lat="44.468666564818484" lon="10.488769489384657"><ele>698.0</ele><time>2026-04-11T13:33:19Z</time></trkpt><trkpt lat="44.4685335343006" lon="10.488692363164793"><ele>698.0</ele><time>2026-04-11T13:33:20Z</time></trkpt><trkpt lat="44.468411962834594" lon="10.488591416194177"><ele>698.25</ele><time>2026-04-11T13:33:21Z</time></trkpt><trkpt lat="44.46830804215688" lon="10.488466219298193"><ele>698.5</ele><time>2026-04-11T13:33:22Z</time></trkpt><trkpt lat="44.46822213210378" lon="10.488315484517667"><ele>698.75</ele><time>2026-04-11T13:33:23Z</time></trkpt><trkpt lat="44.468150651735286" lon="10.488147683087679"><ele>699.0</ele><time>2026-04-11T13:33:24Z</time></trkpt><trkpt lat="44.468081665612" lon="10.487969394266951"><ele>698.0</ele><time>2026-04-11T13:33:25Z</time></trkpt><trkpt lat="44.46800725959744" lon="10.487791092848912"><ele>697.0</ele><time>2026-04-11T13:33:26Z</time></trkpt><trkpt lat="44.46791905952354" lon="10.487624959203815"><ele>696.0</ele><time>2026-04-11T13:33:27Z</time></trkpt><trkpt lat="44.46780750063403" lon="10.487491425271017"><ele>695.0</ele><time>2026-04-11T13:33:28Z</time></trkpt><trkpt lat="44.467695454823875" lon="10.487376802928823"><ele>695.0</ele><time>2026-04-11T13:33:29Z</time></trkpt><trkpt lat="44.46757944240251" lon="10.487271632823354"><ele>695.0</ele><time>2026-04-11T13:33:30Z</time></trkpt><trkpt lat="44.46744756100201" lon="10.487183591809668"><ele>695.0</ele><time>2026-04-11T13:33:31Z</time></trkpt><trkpt lat="44.467301209125544" lon="10.487138647216627"><ele>695.0</ele><time>2026-04-11T13:33:32Z</time></trkpt><trkpt lat="44.46714520099459" lon="10.487133806125485"><ele>694.3333333333333</ele><time>2026-04-11T13:33:33Z</time></trkpt><trkpt lat="44.46698302392151" lon="10.487128737895114"><ele>693.6666666666666</ele><time>2026-04-11T13:33:34Z</time></trkpt><trkpt lat="44.46681641622817" lon="10.487116744316523"><ele>693.0</ele><time>2026-04-11T13:33:35Z</time></trkpt><trkpt lat="44.46664643944034" lon="10.487101155625924"><ele>696.0</ele><time>2026-04-11T13:33:36Z</time></trkpt><trkpt lat="44.466478841501285" lon="10.48708580658845"><ele>699.0</ele><time>2026-04-11T13:33:37Z</time></trkpt><trkpt lat="44.46631322246959" lon="10.487077886200916"><ele>702.0</ele><time>2026-04-11T13:33:38Z</time></trkpt><trkpt lat="44.46614624729704" lon="10.487068968044598"><ele>702.0</ele><time>2026-04-11T13:33:39Z</time></trkpt><trkpt lat="44.4659793501146" lon="10.487058658954611"><ele>702.0</ele><time>2026-04-11T13:33:40Z</time></trkpt><trkpt lat="44.465816571173605" lon="10.487046137200542"><ele>702.0</ele><time>2026-04-11T13:33:41Z</time></trkpt><trkpt lat="44.46565836136885" lon="10.487033631207082"><ele>702.0</ele><time>2026-04-11T13:33:42Z</time></trkpt><trkpt lat="44.465498191239426" lon="10.487021397261945"><ele>702.0</ele><time>2026-04-11T13:33:43Z</time></trkpt><trkpt lat="44.46533980068718" lon="10.487005225064657"><ele>702.0</ele><time>2026-04-11T13:33:44Z</time></trkpt><trkpt lat="44.465183855801456" lon="10.486975924687588"><ele>700.6666666666666</ele><time>2026-04-11T13:33:45Z</time></trkpt><trkpt lat="44.46502620822955" lon="10.486932362299871"><ele>699.3333333333333</ele><time>2026-04-11T13:33:46Z</time></trkpt><trkpt lat="44.464870353326845" lon="10.486871153234413"><ele>698.0</ele><time>2026-04-11T13:33:47Z</time></trkpt><trkpt lat="44.464720890999146" lon="10.48680938472573"><ele>696.0</ele><time>2026-04-11T13:33:48Z</time></trkpt><trkpt lat="44.464581413230256" lon="10.486746376919939"><ele>694.0</ele><time>2026-04-11T13:33:49Z</time></trkpt><trkpt lat="44.46444873742098" lon="10.48668566652022"><ele>692.0</ele><time>2026-04-11T13:33:50Z</time></trkpt><trkpt lat="44.464321319026816" lon="10.486621865692713"><ele>690.0</ele><time>2026-04-11T13:33:51Z</time></trkpt><trkpt lat="44.464196057068285" lon="10.486540883576517"><ele>690.0</ele><time>2026-04-11T13:33:52Z</time></trkpt><trkpt lat="44.46408009110455" lon="10.48642139878855"><ele>690.0</ele><time>2026-04-11T13:33:53Z</time></trkpt><trkpt lat="44.46398360799199" lon="10.486265168390538"><ele>690.0</ele><time>2026-04-11T13:33:54Z</time></trkpt><trkpt lat="44.46390462868526" lon="10.486077272383818"><ele>690.0</ele><time>2026-04-11T13:33:55Z</time></trkpt><trkpt lat="44.46384534339387" lon="10.485860457916127"><ele>688.0</ele><time>2026-04-11T13:33:56Z</time></trkpt><trkpt lat="44.46379231195134" lon="10.48563518367479"><ele>686.0</ele><time>2026-04-11T13:33:57Z</time></trkpt><trkpt lat="44.46374134194155" lon="10.48540180346065"><ele>684.0</ele><time>2026-04-11T13:33:58Z</time></trkpt><trkpt lat="44.46368823119209" lon="10.485167703110127"><ele>684.0</ele><time>2026-04-11T13:33:59Z</time></trkpt><trkpt lat="44.463633362651706" lon="10.484938891577078"><ele>684.0</ele><time>2026-04-11T13:34:00Z</time></trkpt><trkpt lat="44.463582025043266" lon="10.484723941823683"><ele>684.0</ele><time>2026-04-11T13:34:01Z</time></trkpt><trkpt lat="44.46354123247792" lon="10.484514294970209"><ele>685.25</ele><time>2026-04-11T13:34:02Z</time></trkpt><trkpt lat="44.463516101909946" lon="10.484303783849455"><ele>686.5</ele><time>2026-04-11T13:34:03Z</time></trkpt><trkpt lat="44.46351403931085" lon="10.484100459579118"><ele>687.75</ele><time>2026-04-11T13:34:04Z</time></trkpt><trkpt lat="44.46353120766965" lon="10.483900924412922"><ele>689.0</ele><time>2026-04-11T13:34:05Z</time></trkpt><trkpt lat="44.46355831054076" lon="10.483700374486556"><ele>689.0</ele><time>2026-04-11T13:34:06Z</time></trkpt><trkpt lat="44.46357679153187" lon="10.483501264277228"><ele>689.0</ele><time>2026-04-11T13:34:07Z</time></trkpt><trkpt lat="44.46357518211166" lon="10.483306073518753"><ele>689.0</ele><time>2026-04-11T13:34:08Z</time></trkpt><trkpt lat="44.46354531750634" lon="10.483108294927128"><ele>689.0</ele><time>2026-04-11T13:34:09Z</time></trkpt><trkpt lat="44.463489316361134" lon="10.482917833839213"><ele>690.6666666666666</ele><time>2026-04-11T13:34:10Z</time></trkpt><trkpt lat="44.46340223925517" lon="10.482749539192136"><ele>692.3333333333334</ele><time>2026-04-11T13:34:11Z</time></trkpt><trkpt lat="44.463289098499324" lon="10.48261153758103"><ele>694.0</ele><time>2026-04-11T13:34:12Z</time></trkpt><trkpt lat="44.46315151992203" lon="10.482522280157745"><ele>694.0</ele><time>2026-04-11T13:34:13Z</time></trkpt><trkpt lat="44.46301312464061" lon="10.482436807895773"><ele>694.0</ele><time>2026-04-11T13:34:14Z</time></trkpt><trkpt lat="44.462876718231" lon="10.482340968644206"><ele>694.0</ele><time>2026-04-11T13:34:15Z</time></trkpt><trkpt lat="44.462747379503824" lon="10.482233848437133"><ele>693.0</ele><time>2026-04-11T13:34:16Z</time></trkpt><trkpt lat="44.462619158903166" lon="10.48211012799213"><ele>692.0</ele><time>2026-04-11T13:34:17Z</time></trkpt><trkpt lat="44.46249341973324" lon="10.48197557029615"><ele>691.0</ele><time>2026-04-11T13:34:18Z</time></trkpt><trkpt lat="44.46236563437467" lon="10.48183378338276"><ele>690.6666666666667</ele><time>2026-04-11T13:34:19Z</time></trkpt><trkpt lat="44.46223821285403" lon="10.481683466357092"><ele>690.3333333333334</ele><time>2026-04-11T13:34:20Z</time></trkpt><trkpt lat="44.46211550479228" lon="10.48153014931354"><ele>690.0</ele><time>2026-04-11T13:34:21Z</time></trkpt><trkpt lat="44.46200386780297" lon="10.481383567566636"><ele>688.5</ele><time>2026-04-11T13:34:22Z</time></trkpt><trkpt lat="44.46190609024763" lon="10.48123180351127"><ele>687.0</ele><time>2026-04-11T13:34:23Z</time></trkpt><trkpt lat="44.46182627364631" lon="10.481067194426073"><ele>685.5</ele><time>2026-04-11T13:34:24Z</time></trkpt><trkpt lat="44.46176228910206" lon="10.480883516115727"><ele>684.0</ele><time>2026-04-11T13:34:25Z</time></trkpt><trkpt lat="44.46171554826445" lon="10.480681820402772"><ele>684.0</ele><time>2026-04-11T13:34:26Z</time></trkpt><trkpt lat="44.461685618245326" lon="10.480466033982788"><ele>684.0</ele><time>2026-04-11T13:34:27Z</time></trkpt><trkpt lat="44.46167839978903" lon="10.48024139351572"><ele>684.0</ele><time>2026-04-11T13:34:28Z</time></trkpt><trkpt lat="44.46169133975324" lon="10.480015861292467"><ele>684.6666666666666</ele><time>2026-04-11T13:34:29Z</time></trkpt><trkpt lat="44.461721792036755" lon="10.479785319196539"><ele>685.3333333333333</ele><time>2026-04-11T13:34:30Z</time></trkpt><trkpt lat="44.46176046702068" lon="10.479551816155755"><ele>686.0</ele><time>2026-04-11T13:34:31Z</time></trkpt><trkpt lat="44.46180223574359" lon="10.479316711636747"><ele>684.6666666666666</ele><time>2026-04-11T13:34:32Z</time></trkpt><trkpt lat="44.461840092067604" lon="10.479085806901042"><ele>683.3333333333334</ele><time>2026-04-11T13:34:33Z</time></trkpt><trkpt lat="44.46187148063165" lon="10.47887133674582"><ele>682.0</ele><time>2026-04-11T13:34:34Z</time></trkpt><trkpt lat="44.461894776033596" lon="10.478665204098066"><ele>681.3333333333334</ele><time>2026-04-11T13:34:35Z</time></trkpt><trkpt lat="44.46192622114891" lon="10.478456620535884"><ele>680.6666666666666</ele><time>2026-04-11T13:34:36Z</time></trkpt><trkpt lat="44.461899004164785" lon="10.478241976419307"><ele>680.0</ele><time>2026-04-11T13:34:37Z</time></trkpt><trkpt lat="44.46185863386276" lon="10.478029028457012"><ele>681.25</ele><time>2026-04-11T13:34:38Z</time></trkpt><trkpt lat="44.46180353520547" lon="10.477821838273028"><ele>682.5</ele><time>2026-04-11T13:34:39Z</time></trkpt><trkpt lat="44.46175733830298" lon="10.477623967440444"><ele>683.75</ele><time>2026-04-11T13:34:40Z</time></trkpt><trkpt lat="44.46174141489941" lon="10.477429214297535"><ele>685.0</ele><time>2026-04-11T13:34:41Z</time></trkpt><trkpt lat="44.461753671422834" lon="10.477231444070268"><ele>685.6666666666667</ele><time>2026-04-11T13:34:42Z</time></trkpt><trkpt lat="44.46178482746952" lon="10.477030520222524"><ele>686.3333333333334</ele><time>2026-04-11T13:34:43Z</time></trkpt><trkpt lat="44.461832307693776" lon="10.476828569410662"><ele>687.0</ele><time>2026-04-11T13:34:44Z</time></trkpt><trkpt lat="44.461891171800914" lon="10.476626499933019"><ele>687.0</ele><time>2026-04-11T13:34:45Z</time></trkpt><trkpt lat="44.461953853542575" lon="10.476423133108582"><ele>687.0</ele><time>2026-04-11T13:34:46Z</time></trkpt><trkpt lat="44.462013041039874" lon="10.476217399484286"><ele>687.0</ele><time>2026-04-11T13:34:47Z</time></trkpt><trkpt lat="44.462060851122814" lon="10.47599770720509"><ele>687.3333333333334</ele><time>2026-04-11T13:34:48Z</time></trkpt><trkpt lat="44.4620980775429" lon="10.475762144476043"><ele>687.6666666666667</ele><time>2026-04-11T13:34:49Z</time></trkpt><trkpt lat="44.46212676987984" lon="10.475514767729951"><ele>688.0</ele><time>2026-04-11T13:34:50Z</time></trkpt><trkpt lat="44.46214905931002" lon="10.475254718591497"><ele>689.0</ele><time>2026-04-11T13:34:51Z</time></trkpt><trkpt lat="44.46215853142717" lon="10.474993103777544"><ele>690.0</ele><time>2026-04-11T13:34:52Z</time></trkpt><trkpt lat="44.46215169261851" lon="10.474748314427606"><ele>691.0</ele><time>2026-04-11T13:34:53Z</time></trkpt><trkpt lat="44.462133141150474" lon="10.474517516844477"><ele>684.0</ele><time>2026-04-11T13:34:54Z</time></trkpt><trkpt lat="44.46210330033811" lon="10.4743046969994"><ele>677.0</ele><time>2026-04-11T13:34:55Z</time></trkpt><trkpt lat="44.46206997668603" lon="10.474095468921737"><ele>670.0</ele><time>2026-04-11T13:34:56Z</time></trkpt><trkpt lat="44.46203152343784" lon="10.473878549794637"><ele>671.3333333333334</ele><time>2026-04-11T13:34:57Z</time></trkpt><trkpt lat="44.461991387752256" lon="10.473656328800356"><ele>672.6666666666666</ele><time>2026-04-11T13:34:58Z</time></trkpt><trkpt lat="44.46195523180173" lon="10.473431372967713"><ele>674.0</ele><time>2026-04-11T13:34:59Z</time></trkpt><trkpt lat="44.46192596963262" lon="10.473209734057207"><ele>674.0</ele><time>2026-04-11T13:35:00Z</time></trkpt><trkpt lat="44.461905678469805" lon="10.47298242022487"><ele>674.0</ele><time>2026-04-11T13:35:01Z</time></trkpt><trkpt lat="44.4619053352424" lon="10.472750210721683"><ele>674.0</ele><time>2026-04-11T13:35:02Z</time></trkpt><trkpt lat="44.46192302266948" lon="10.472517563125004"><ele>674.3333333333333</ele><time>2026-04-11T13:35:03Z</time></trkpt><trkpt lat="44.461961243317745" lon="10.472287229278146"><ele>674.6666666666666</ele><time>2026-04-11T13:35:04Z</time></trkpt><trkpt lat="44.46202533464771" lon="10.472059738050426"><ele>675.0</ele><time>2026-04-11T13:35:05Z</time></trkpt><trkpt lat="44.46211235244253" lon="10.471818519594802"><ele>677.5</ele><time>2026-04-11T13:35:06Z</time></trkpt><trkpt lat="44.4622308913745" lon="10.47153710583539"><ele>680.0</ele><time>2026-04-11T13:35:07Z</time></trkpt><trkpt lat="44.462378449958685" lon="10.47124775768809"><ele>680.0</ele><time>2026-04-11T13:35:08Z</time></trkpt><trkpt lat="44.46252819876501" lon="10.470915155911737"><ele>680.0</ele><time>2026-04-11T13:35:09Z</time></trkpt><trkpt lat="44.46268400556707" lon="10.470568958216353"><ele>675.5</ele><time>2026-04-11T13:35:10Z</time></trkpt><trkpt lat="44.46280819778245" lon="10.470250702700445"><ele>671.0</ele><time>2026-04-11T13:35:11Z</time></trkpt><trkpt lat="44.462934103653296" lon="10.469987087376532"><ele>673.6666666666666</ele><time>2026-04-11T13:35:12Z</time></trkpt><trkpt lat="44.46304708839075" lon="10.46972666983052"><ele>676.3333333333334</ele><time>2026-04-11T13:35:13Z</time></trkpt><trkpt lat="44.463145650611565" lon="10.46948809372874"><ele>679.0</ele><time>2026-04-11T13:35:14Z</time></trkpt><trkpt lat="44.46322419585396" lon="10.469281567186998"><ele>679.0</ele><time>2026-04-11T13:35:15Z</time></trkpt><trkpt lat="44.46328982961773" lon="10.46907460578136"><ele>679.0</ele><time>2026-04-11T13:35:16Z</time></trkpt><trkpt lat="44.46337778911535" lon="10.468819554744913"><ele>679.0</ele><time>2026-04-11T13:35:17Z</time></trkpt><trkpt lat="44.463472647219966" lon="10.46850383805213"><ele>677.3333333333334</ele><time>2026-04-11T13:35:18Z</time></trkpt><trkpt lat="44.46353375292276" lon="10.468186742896767"><ele>675.6666666666666</ele><time>2026-04-11T13:35:19Z</time></trkpt><trkpt lat="44.463589852799124" lon="10.467899067015937"><ele>674.0</ele><time>2026-04-11T13:35:20Z</time></trkpt><trkpt lat="44.46359972685953" lon="10.467626907612884"><ele>674.0</ele><time>2026-04-11T13:35:21Z</time></trkpt><trkpt lat="44.46356172669488" lon="10.467360232917208"><ele>674.0</ele><time>2026-04-11T13:35:22Z</time></trkpt><trkpt lat="44.46347931134647" lon="10.467103836973036"><ele>674.0</ele><time>2026-04-11T13:35:23Z</time></trkpt><trkpt lat="44.463385358409965" lon="10.46685260415592"><ele>674.0</ele><time>2026-04-11T13:35:24Z</time></trkpt><trkpt lat="44.463296983141596" lon="10.466604051843145"><ele>674.0</ele><time>2026-04-11T13:35:25Z</time></trkpt><trkpt lat="44.463204324259536" lon="10.46637083434298"><ele>674.0</ele><time>2026-04-11T13:35:26Z</time></trkpt><trkpt lat="44.463091808913326" lon="10.466157791656148"><ele>676.0</ele><time>2026-04-11T13:35:27Z</time></trkpt><trkpt lat="44.46297208045808" lon="10.465960515861024"><ele>678.0</ele><time>2026-04-11T13:35:28Z</time></trkpt><trkpt lat="44.46283758682003" lon="10.465802097336944"><ele>680.0</ele><time>2026-04-11T13:35:29Z</time></trkpt><trkpt lat="44.46270682357726" lon="10.465644514015645"><ele>676.0</ele><time>2026-04-11T13:35:30Z</time></trkpt><trkpt lat="44.46248074117869" lon="10.465337858129862"><ele>672.0</ele><time>2026-04-11T13:35:32Z</time></trkpt><trkpt lat="44.4623833233966" lon="10.465199246251576"><ele>672.0</ele><time>2026-04-11T13:35:33Z</time></trkpt><trkpt lat="44.46230239471949" lon="10.465070175762449"><ele>672.0</ele><time>2026-04-11T13:35:34Z</time></trkpt><trkpt lat="44.46224754298159" lon="10.464958098930644"><ele>672.0</ele><time>2026-04-11T13:35:35Z</time></trkpt><trkpt lat="44.46222507507088" lon="10.46485950354014"><ele>672.0</ele><time>2026-04-11T13:35:36Z</time></trkpt><trkpt lat="44.46223684434234" lon="10.46476500671568"><ele>672.0</ele><time>2026-04-11T13:35:37Z</time></trkpt><trkpt lat="44.462273793272765" lon="10.46468658267868"><ele>672.0</ele><time>2026-04-11T13:35:38Z</time></trkpt><trkpt lat="44.462321984169364" lon="10.46460907814306"><ele>672.3333333333334</ele><time>2026-04-11T13:35:39Z</time></trkpt><trkpt lat="44.462378870666385" lon="10.464548490485017"><ele>672.6666666666666</ele><time>2026-04-11T13:35:41Z</time></trkpt><trkpt lat="44.46238842857063" lon="10.464459738235114"><ele>673.0</ele><time>2026-04-11T13:35:43Z</time></trkpt><trkpt lat="44.462366495293494" lon="10.464375731839176"><ele>673.3333333333333</ele><time>2026-04-11T13:35:44Z</time></trkpt><trkpt lat="44.46231279329517" lon="10.464194197945227"><ele>673.6666666666666</ele><time>2026-04-11T13:35:46Z</time></trkpt><trkpt lat="44.4622624919927" lon="10.464084700703916"><ele>674.0</ele><time>2026-04-11T13:35:47Z</time></trkpt><trkpt lat="44.46219101957418" lon="10.463977626837991"><ele>672.0</ele><time>2026-04-11T13:35:48Z</time></trkpt><trkpt lat="44.462093779084746" lon="10.463898443626196"><ele>670.0</ele><time>2026-04-11T13:35:49Z</time></trkpt><trkpt lat="44.46198128730616" lon="10.463856826891467"><ele>668.0</ele><time>2026-04-11T13:35:50Z</time></trkpt><trkpt lat="44.46185686037194" lon="10.463865406442833"><ele>666.0</ele><time>2026-04-11T13:35:51Z</time></trkpt><trkpt lat="44.46174045633728" lon="10.463925708137905"><ele>666.0</ele><time>2026-04-11T13:35:52Z</time></trkpt><trkpt lat="44.461639744898655" lon="10.464032776278874"><ele>666.0</ele><time>2026-04-11T13:35:53Z</time></trkpt><trkpt lat="44.461542069025455" lon="10.46413567343099"><ele>666.0</ele><time>2026-04-11T13:35:54Z</time></trkpt><trkpt lat="44.46144416902029" lon="10.464220315291449"><ele>666.0</ele><time>2026-04-11T13:35:55Z</time></trkpt><trkpt lat="44.46134603629611" lon="10.464287637164452"><ele>665.4</ele><time>2026-04-11T13:35:56Z</time></trkpt><trkpt lat="44.461258867480545" lon="10.46435555112337"><ele>664.8</ele><time>2026-04-11T13:35:57Z</time></trkpt><trkpt lat="44.46115071078798" lon="10.464409685336095"><ele>664.1999999999999</ele><time>2026-04-11T13:35:58Z</time></trkpt><trkpt lat="44.46106700501488" lon="10.464442889827868"><ele>663.5999999999999</ele><time>2026-04-11T13:35:59Z</time></trkpt><trkpt lat="44.46097515076403" lon="10.464468858494055"><ele>663.0</ele><time>2026-04-11T13:36:00Z</time></trkpt><trkpt lat="44.46088490679671" lon="10.46448140227594"><ele>663.0</ele><time>2026-04-11T13:36:01Z</time></trkpt><trkpt lat="44.46079861107804" lon="10.464478547775679"><ele>663.0</ele><time>2026-04-11T13:36:02Z</time></trkpt><trkpt lat="44.46071778515887" lon="10.464455987502395"><ele>663.0</ele><time>2026-04-11T13:36:03Z</time></trkpt><trkpt lat="44.46062883564805" lon="10.464425524038951"><ele>663.0</ele><time>2026-04-11T13:36:04Z</time></trkpt><trkpt lat="44.46052632462679" lon="10.46442087513087"><ele>663.0</ele><time>2026-04-11T13:36:05Z</time></trkpt><trkpt lat="44.46042115135193" lon="10.464340957613278"><ele>661.0</ele><time>2026-04-11T13:36:06Z</time></trkpt><trkpt lat="44.46031063472334" lon="10.46428724931859"><ele>659.0</ele><time>2026-04-11T13:36:07Z</time></trkpt><trkpt lat="44.46019670792366" lon="10.464228543659742"><ele>657.0</ele><time>2026-04-11T13:36:08Z</time></trkpt><trkpt lat="44.46007851373462" lon="10.464173015281897"><ele>655.0</ele><time>2026-04-11T13:36:09Z</time></trkpt><trkpt lat="44.45995868537386" lon="10.464115431125936"><ele>655.0</ele><time>2026-04-11T13:36:10Z</time></trkpt><trkpt lat="44.45983573240631" lon="10.464057871797301"><ele>655.0</ele><time>2026-04-11T13:36:11Z</time></trkpt><trkpt lat="44.459708474040056" lon="10.464001352728205"><ele>655.0</ele><time>2026-04-11T13:36:12Z</time></trkpt><trkpt lat="44.45957962939363" lon="10.46395231454835"><ele>655.0</ele><time>2026-04-11T13:36:13Z</time></trkpt><trkpt lat="44.45945521316467" lon="10.46389735024659"><ele>654.5</ele><time>2026-04-11T13:36:14Z</time></trkpt><trkpt lat="44.459330881382805" lon="10.463843679573507"><ele>654.0</ele><time>2026-04-11T13:36:15Z</time></trkpt><trkpt lat="44.45920402345116" lon="10.463805327747588"><ele>653.5</ele><time>2026-04-11T13:36:16Z</time></trkpt><trkpt lat="44.459077203022005" lon="10.463784664855213"><ele>653.0</ele><time>2026-04-11T13:36:17Z</time></trkpt><trkpt lat="44.45894738346686" lon="10.463779360727234"><ele>653.0</ele><time>2026-04-11T13:36:18Z</time></trkpt><trkpt lat="44.45881836425113" lon="10.4637858202337"><ele>653.0</ele><time>2026-04-11T13:36:19Z</time></trkpt><trkpt lat="44.45868775131807" lon="10.463790981763564"><ele>653.0</ele><time>2026-04-11T13:36:20Z</time></trkpt><trkpt lat="44.45855566140555" lon="10.463799959001081"><ele>653.0</ele><time>2026-04-11T13:36:21Z</time></trkpt><trkpt lat="44.458424193750794" lon="10.463805361286742"><ele>654.5</ele><time>2026-04-11T13:36:22Z</time></trkpt><trkpt lat="44.458292426930115" lon="10.463810941005049"><ele>656.0</ele><time>2026-04-11T13:36:23Z</time></trkpt><trkpt lat="44.45816174278606" lon="10.463818131928697"><ele>657.5</ele><time>2026-04-11T13:36:24Z</time></trkpt><trkpt lat="44.458026357097516" lon="10.46382324193823"><ele>659.0</ele><time>2026-04-11T13:36:25Z</time></trkpt><trkpt lat="44.45788605855882" lon="10.463830594007538"><ele>659.5</ele><time>2026-04-11T13:36:26Z</time></trkpt><trkpt lat="44.45774446113071" lon="10.463839098984327"><ele>660.0</ele><time>2026-04-11T13:36:27Z</time></trkpt><trkpt lat="44.45759993165584" lon="10.46384586229005"><ele>660.5</ele><time>2026-04-11T13:36:28Z</time></trkpt><trkpt lat="44.457454362373255" lon="10.463852640242564"><ele>661.0</ele><time>2026-04-11T13:36:29Z</time></trkpt><trkpt lat="44.45730677187894" lon="10.463856917854924"><ele>661.0</ele><time>2026-04-11T13:36:30Z</time></trkpt><trkpt lat="44.45715674533079" lon="10.463851805717326"><ele>661.0</ele><time>2026-04-11T13:36:31Z</time></trkpt><trkpt lat="44.457006277884034" lon="10.463829320652708"><ele>661.0</ele><time>2026-04-11T13:36:32Z</time></trkpt><trkpt lat="44.45685985083775" lon="10.463796393368835"><ele>662.0</ele><time>2026-04-11T13:36:33Z</time></trkpt><trkpt lat="44.45671416808792" lon="10.463755636914144"><ele>663.0</ele><time>2026-04-11T13:36:34Z</time></trkpt><trkpt lat="44.456573096980144" lon="10.463714541151047"><ele>664.0</ele><time>2026-04-11T13:36:35Z</time></trkpt><trkpt lat="44.456429579495385" lon="10.463671363956182"><ele>665.0</ele><time>2026-04-11T13:36:36Z</time></trkpt><trkpt lat="44.45628787754495" lon="10.463618440634182"><ele>666.0</ele><time>2026-04-11T13:36:37Z</time></trkpt><trkpt lat="44.456150948432565" lon="10.463545619450695"><ele>667.0</ele><time>2026-04-11T13:36:38Z</time></trkpt><trkpt lat="44.456023177613986" lon="10.463455396147777"><ele>668.0</ele><time>2026-04-11T13:36:39Z</time></trkpt><trkpt lat="44.455916170990065" lon="10.463355451487068"><ele>669.0</ele><time>2026-04-11T13:36:40Z</time></trkpt><trkpt lat="44.45581740955682" lon="10.46324943209718"><ele>669.0</ele><time>2026-04-11T13:36:41Z</time></trkpt><trkpt lat="44.45572013368096" lon="10.463127401226178"><ele>669.0</ele><time>2026-04-11T13:36:42Z</time></trkpt><trkpt lat="44.45562753113078" lon="10.46298781806111"><ele>669.0</ele><time>2026-04-11T13:36:43Z</time></trkpt><trkpt lat="44.45554143869308" lon="10.462831392187434"><ele>669.0</ele><time>2026-04-11T13:36:44Z</time></trkpt><trkpt lat="44.45546357060648" lon="10.462654195423609"><ele>671.0</ele><time>2026-04-11T13:36:45Z</time></trkpt><trkpt lat="44.45539296977155" lon="10.46246411140926"><ele>673.0</ele><time>2026-04-11T13:36:46Z</time></trkpt><trkpt lat="44.45532678744863" lon="10.462267586778113"><ele>675.0</ele><time>2026-04-11T13:36:47Z</time></trkpt><trkpt lat="44.45526253295762" lon="10.462073044470925"><ele>675.0</ele><time>2026-04-11T13:36:48Z</time></trkpt><trkpt lat="44.45519893335037" lon="10.461888106445604"><ele>675.0</ele><time>2026-04-11T13:36:49Z</time></trkpt><trkpt lat="44.45513297797954" lon="10.461707593563984"><ele>675.0</ele><time>2026-04-11T13:36:50Z</time></trkpt><trkpt lat="44.455084691774516" lon="10.461515656041056"><ele>675.0</ele><time>2026-04-11T13:36:51Z</time></trkpt><trkpt lat="44.45502302343175" lon="10.46133021792065"><ele>673.75</ele><time>2026-04-11T13:36:52Z</time></trkpt><trkpt lat="44.454960835111564" lon="10.461144806947273"><ele>672.5</ele><time>2026-04-11T13:36:53Z</time></trkpt><trkpt lat="44.45488848339854" lon="10.460968759654032"><ele>671.25</ele><time>2026-04-11T13:36:54Z</time></trkpt><trkpt lat="44.454831598739595" lon="10.460782278685057"><ele>670.0</ele><time>2026-04-11T13:36:55Z</time></trkpt><trkpt lat="44.454769192181026" lon="10.460601929212517"><ele>668.75</ele><time>2026-04-11T13:36:56Z</time></trkpt><trkpt lat="44.45470745913292" lon="10.46041530829131"><ele>667.5</ele><time>2026-04-11T13:36:57Z</time></trkpt><trkpt lat="44.454646549430336" lon="10.460229244291314"><ele>666.25</ele><time>2026-04-11T13:36:58Z</time></trkpt><trkpt lat="44.45458565143564" lon="10.460045568465947"><ele>665.0</ele><time>2026-04-11T13:36:59Z</time></trkpt><trkpt lat="44.45452547809652" lon="10.45985925468356"><ele>666.25</ele><time>2026-04-11T13:37:00Z</time></trkpt><trkpt lat="44.45446329194734" lon="10.459672198695001"><ele>667.5</ele><time>2026-04-11T13:37:01Z</time></trkpt><trkpt lat="44.454396600313906" lon="10.459497849554168"><ele>668.75</ele><time>2026-04-11T13:37:02Z</time></trkpt><trkpt lat="44.454309490632895" lon="10.45934490842977"><ele>670.0</ele><time>2026-04-11T13:37:03Z</time></trkpt><trkpt lat="44.45420077347267" lon="10.45921837894604"><ele>670.0</ele><time>2026-04-11T13:37:04Z</time></trkpt><trkpt lat="44.45408447788823" lon="10.459112169042031"><ele>670.0</ele><time>2026-04-11T13:37:05Z</time></trkpt><trkpt lat="44.45396094198338" lon="10.45903266717428"><ele>670.0</ele><time>2026-04-11T13:37:06Z</time></trkpt><trkpt lat="44.45383210982359" lon="10.458963564971105"><ele>670.0</ele><time>2026-04-11T13:37:07Z</time></trkpt><trkpt lat="44.45370298843035" lon="10.458912876501664"><ele>671.0</ele><time>2026-04-11T13:37:08Z</time></trkpt><trkpt lat="44.45358069116903" lon="10.458888372814796"><ele>672.0</ele><time>2026-04-11T13:37:09Z</time></trkpt><trkpt lat="44.453464506833804" lon="10.458856376239309"><ele>673.0</ele><time>2026-04-11T13:37:10Z</time></trkpt><trkpt lat="44.45334660656687" lon="10.458814653708343"><ele>674.0</ele><time>2026-04-11T13:37:11Z</time></trkpt><trkpt lat="44.45322613857927" lon="10.458762147248677"><ele>672.25</ele><time>2026-04-11T13:37:12Z</time></trkpt><trkpt lat="44.45310715960627" lon="10.458697829178869"><ele>670.5</ele><time>2026-04-11T13:37:13Z</time></trkpt><trkpt lat="44.45299020792712" lon="10.458615135024568"><ele>668.75</ele><time>2026-04-11T13:37:14Z</time></trkpt><trkpt lat="44.45287298381677" lon="10.458521325214859"><ele>667.0</ele><time>2026-04-11T13:37:15Z</time></trkpt><trkpt lat="44.45276655732106" lon="10.458430330023038"><ele>667.0</ele><time>2026-04-11T13:37:16Z</time></trkpt><trkpt lat="44.45266838518337" lon="10.45835129108456"><ele>667.0</ele><time>2026-04-11T13:37:17Z</time></trkpt><trkpt lat="44.45257979201031" lon="10.458257384411235"><ele>667.0</ele><time>2026-04-11T13:37:18Z</time></trkpt><trkpt lat="44.45248183384046" lon="10.45817200758253"><ele>667.0</ele><time>2026-04-11T13:37:19Z</time></trkpt><trkpt lat="44.452368709985706" lon="10.458096102221221"><ele>667.0</ele><time>2026-04-11T13:37:20Z</time></trkpt><trkpt lat="44.45225967921195" lon="10.457992358359242"><ele>667.0</ele><time>2026-04-11T13:37:21Z</time></trkpt><trkpt lat="44.452149252094664" lon="10.45788754660299"><ele>667.0</ele><time>2026-04-11T13:37:22Z</time></trkpt><trkpt lat="44.45203999715552" lon="10.457779499079516"><ele>667.0</ele><time>2026-04-11T13:37:23Z</time></trkpt><trkpt lat="44.45193283602387" lon="10.457677280435774"><ele>665.75</ele><time>2026-04-11T13:37:24Z</time></trkpt><trkpt lat="44.451829464723545" lon="10.457569601143717"><ele>664.5</ele><time>2026-04-11T13:37:25Z</time></trkpt><trkpt lat="44.45172935220418" lon="10.457461848353699"><ele>663.25</ele><time>2026-04-11T13:37:26Z</time></trkpt><trkpt lat="44.45162833909341" lon="10.457351389467448"><ele>662.0</ele><time>2026-04-11T13:37:27Z</time></trkpt><trkpt lat="44.45152967965946" lon="10.457240866254757"><ele>662.0</ele><time>2026-04-11T13:37:28Z</time></trkpt><trkpt lat="44.4514342168078" lon="10.45712935107821"><ele>662.0</ele><time>2026-04-11T13:37:29Z</time></trkpt><trkpt lat="44.45133869468996" lon="10.457015771331344"><ele>662.0</ele><time>2026-04-11T13:37:30Z</time></trkpt><trkpt lat="44.45124076309511" lon="10.456903785285755"><ele>662.0</ele><time>2026-04-11T13:37:31Z</time></trkpt><trkpt lat="44.45113896375705" lon="10.456794213548665"><ele>662.0</ele><time>2026-04-11T13:37:32Z</time></trkpt><trkpt lat="44.45104510846467" lon="10.456683022516037"><ele>662.0</ele><time>2026-04-11T13:37:33Z</time></trkpt><trkpt lat="44.45095487553789" lon="10.4565580617415"><ele>662.0</ele><time>2026-04-11T13:37:34Z</time></trkpt><trkpt lat="44.45087572615755" lon="10.456420357633592"><ele>662.0</ele><time>2026-04-11T13:37:35Z</time></trkpt><trkpt lat="44.45079956703209" lon="10.456275982512059"><ele>662.0</ele><time>2026-04-11T13:37:36Z</time></trkpt><trkpt lat="44.45072032866932" lon="10.456122044947197"><ele>662.0</ele><time>2026-04-11T13:37:37Z</time></trkpt><trkpt lat="44.4506395277152" lon="10.455964249233055"><ele>662.0</ele><time>2026-04-11T13:37:38Z</time></trkpt><trkpt lat="44.45056178100578" lon="10.45580004457831"><ele>662.0</ele><time>2026-04-11T13:37:39Z</time></trkpt><trkpt lat="44.45048928067312" lon="10.45563060531161"><ele>661.5</ele><time>2026-04-11T13:37:40Z</time></trkpt><trkpt lat="44.450421838515794" lon="10.45546140878212"><ele>661.0</ele><time>2026-04-11T13:37:41Z</time></trkpt><trkpt lat="44.450358179933794" lon="10.455295474531303"><ele>660.5</ele><time>2026-04-11T13:37:42Z</time></trkpt><trkpt lat="44.45029162469757" lon="10.455123732419906"><ele>660.0</ele><time>2026-04-11T13:37:43Z</time></trkpt><trkpt lat="44.45022592258726" lon="10.454956375916629"><ele>659.0</ele><time>2026-04-11T13:37:44Z</time></trkpt><trkpt lat="44.45016454612359" lon="10.45479742981802"><ele>658.0</ele><time>2026-04-11T13:37:45Z</time></trkpt><trkpt lat="44.450102352639206" lon="10.454631447361006"><ele>657.0</ele><time>2026-04-11T13:37:46Z</time></trkpt><trkpt lat="44.45003670253198" lon="10.454462997771346"><ele>656.0</ele><time>2026-04-11T13:37:47Z</time></trkpt><trkpt lat="44.44996798767505" lon="10.454291066774017"><ele>656.5</ele><time>2026-04-11T13:37:48Z</time></trkpt><trkpt lat="44.44989772464892" lon="10.454120597745428"><ele>657.0</ele><time>2026-04-11T13:37:49Z</time></trkpt><trkpt lat="44.449840985713564" lon="10.453945595211232"><ele>657.5</ele><time>2026-04-11T13:37:50Z</time></trkpt><trkpt lat="44.44973559246716" lon="10.453805427633222"><ele>658.0</ele><time>2026-04-11T13:37:51Z</time></trkpt><trkpt lat="44.44964021537546" lon="10.453654666405601"><ele>655.75</ele><time>2026-04-11T13:37:52Z</time></trkpt><trkpt lat="44.44953913834271" lon="10.45351321112398"><ele>653.5</ele><time>2026-04-11T13:37:53Z</time></trkpt><trkpt lat="44.449445546566" lon="10.453375007275309"><ele>651.25</ele><time>2026-04-11T13:37:54Z</time></trkpt><trkpt lat="44.449369216115024" lon="10.453215937781565"><ele>649.0</ele><time>2026-04-11T13:37:55Z</time></trkpt><trkpt lat="44.44930816601683" lon="10.453036994957369"><ele>648.0</ele><time>2026-04-11T13:37:56Z</time></trkpt><trkpt lat="44.44926010115713" lon="10.45284575149251"><ele>647.0</ele><time>2026-04-11T13:37:57Z</time></trkpt><trkpt lat="44.449222498602836" lon="10.452640375920783"><ele>646.0</ele><time>2026-04-11T13:37:58Z</time></trkpt><trkpt lat="44.449183589993574" lon="10.452430526547246"><ele>646.0</ele><time>2026-04-11T13:37:59Z</time></trkpt><trkpt lat="44.449135616500314" lon="10.452225219105856"><ele>646.0</ele><time>2026-04-11T13:38:00Z</time></trkpt><trkpt lat="44.449092671304506" lon="10.45201812158698"><ele>646.0</ele><time>2026-04-11T13:38:01Z</time></trkpt><trkpt lat="44.44902428210469" lon="10.45182812162421"><ele>646.6666666666667</ele><time>2026-04-11T13:38:02Z</time></trkpt><trkpt lat="44.44895302298434" lon="10.451639681064902"><ele>647.3333333333334</ele><time>2026-04-11T13:38:03Z</time></trkpt><trkpt lat="44.44886655556717" lon="10.451463109096832"><ele>648.0</ele><time>2026-04-11T13:38:04Z</time></trkpt><trkpt lat="44.44880282370927" lon="10.451271625873686"><ele>639.6666666666666</ele><time>2026-04-11T13:38:05Z</time></trkpt><trkpt lat="44.44874649250633" lon="10.451073085312904"><ele>631.3333333333333</ele><time>2026-04-11T13:38:06Z</time></trkpt><trkpt lat="44.448703089252206" lon="10.450872038780915"><ele>623.0</ele><time>2026-04-11T13:38:07Z</time></trkpt><trkpt lat="44.448673266317904" lon="10.450667802005901"><ele>623.0</ele><time>2026-04-11T13:38:08Z</time></trkpt><trkpt lat="44.44865361588788" lon="10.450465800028187"><ele>623.0</ele><time>2026-04-11T13:38:09Z</time></trkpt><trkpt lat="44.448650685530666" lon="10.450276992574917"><ele>623.0</ele><time>2026-04-11T13:38:10Z</time></trkpt><trkpt lat="44.448666735854246" lon="10.45009510048597"><ele>623.0</ele><time>2026-04-11T13:38:11Z</time></trkpt><trkpt lat="44.44870814400414" lon="10.449941079665487"><ele>622.0</ele><time>2026-04-11T13:38:12Z</time></trkpt><trkpt lat="44.44876455989151" lon="10.449822878342353"><ele>621.0</ele><time>2026-04-11T13:38:13Z</time></trkpt><trkpt lat="44.44881945303007" lon="10.449733298352387"><ele>620.0</ele><time>2026-04-11T13:38:14Z</time></trkpt><trkpt lat="44.44885902712172" lon="10.449662257915508"><ele>619.0</ele><time>2026-04-11T13:38:15Z</time></trkpt><trkpt lat="44.448893038018824" lon="10.449557370143765"><ele>618.0</ele><time>2026-04-11T13:38:17Z</time></trkpt><trkpt lat="44.44888110560529" lon="10.44946972133419"><ele>617.0</ele><time>2026-04-11T13:38:30Z</time></trkpt><trkpt lat="44.44879472654233" lon="10.449307352311003"><ele>617.6666666666666</ele><time>2026-04-11T13:38:32Z</time></trkpt><trkpt lat="44.44873556981904" lon="10.449270173334229"><ele>618.3333333333333</ele><time>2026-04-11T13:38:34Z</time></trkpt><trkpt lat="44.44867390871535" lon="10.44923416640219"><ele>619.0</ele><time>2026-04-11T13:38:46Z</time></trkpt><trkpt lat="44.448618133443354" lon="10.44918039632295"><ele>619.6666666666666</ele><time>2026-04-11T13:38:47Z</time></trkpt><trkpt lat="44.44854106940933" lon="10.449126079949764"><ele>620.3333333333334</ele><time>2026-04-11T13:38:48Z</time></trkpt><trkpt lat="44.44843919018787" lon="10.449076166584334"><ele>621.0</ele><time>2026-04-11T13:38:49Z</time></trkpt><trkpt lat="44.4483239429158" lon="10.449006976652308"><ele>621.0</ele><time>2026-04-11T13:38:50Z</time></trkpt><trkpt lat="44.448198907716495" lon="10.448924331350637"><ele>621.0</ele><time>2026-04-11T13:38:51Z</time></trkpt><trkpt lat="44.448068040033895" lon="10.448829719470844"><ele>621.0</ele><time>2026-04-11T13:38:52Z</time></trkpt><trkpt lat="44.447929755959265" lon="10.448726090907162"><ele>621.0</ele><time>2026-04-11T13:38:53Z</time></trkpt><trkpt lat="44.44779018955734" lon="10.448631101916192"><ele>621.75</ele><time>2026-04-11T13:38:54Z</time></trkpt><trkpt lat="44.44765516384263" lon="10.448536176657614"><ele>622.5</ele><time>2026-04-11T13:38:55Z</time></trkpt><trkpt lat="44.44752191337358" lon="10.448443185914549"><ele>623.25</ele><time>2026-04-11T13:38:56Z</time></trkpt><trkpt lat="44.447393635483024" lon="10.448350188999946"><ele>624.0</ele><time>2026-04-11T13:38:57Z</time></trkpt><trkpt lat="44.447275089331356" lon="10.448268440203933"><ele>624.0</ele><time>2026-04-11T13:38:58Z</time></trkpt><trkpt lat="44.44716393664912" lon="10.448194422375634"><ele>624.0</ele><time>2026-04-11T13:38:59Z</time></trkpt><trkpt lat="44.447074072426425" lon="10.448123170674357"><ele>624.0</ele><time>2026-04-11T13:39:00Z</time></trkpt><trkpt lat="44.44700245698254" lon="10.448050033556557"><ele>624.0</ele><time>2026-04-11T13:39:01Z</time></trkpt><trkpt lat="44.446955841992" lon="10.447962839920393"><ele>624.0</ele><time>2026-04-11T13:39:02Z</time></trkpt><trkpt lat="44.44693564020922" lon="10.447867205881705"><ele>625.0</ele><time>2026-04-11T13:39:03Z</time></trkpt><trkpt lat="44.44690193815126" lon="10.447785515184423"><ele>626.0</ele><time>2026-04-11T13:39:04Z</time></trkpt><trkpt lat="44.44677114511229" lon="10.447758926399949"><ele>627.0</ele><time>2026-04-11T13:39:06Z</time></trkpt><trkpt lat="44.44666649430179" lon="10.447770087520999"><ele>628.0</ele><time>2026-04-11T13:39:07Z</time></trkpt><trkpt lat="44.4465491862014" lon="10.447730748702226"><ele>629.0</ele><time>2026-04-11T13:39:08Z</time></trkpt><trkpt lat="44.446419034851516" lon="10.447659221221473"><ele>626.3333333333333</ele><time>2026-04-11T13:39:09Z</time></trkpt><trkpt lat="44.44628582907844" lon="10.447566558039828"><ele>623.6666666666666</ele><time>2026-04-11T13:39:10Z</time></trkpt><trkpt lat="44.446143317428984" lon="10.447467974143247"><ele>621.0</ele><time>2026-04-11T13:39:11Z</time></trkpt><trkpt lat="44.44599497682847" lon="10.447373274903917"><ele>621.0</ele><time>2026-04-11T13:39:12Z</time></trkpt><trkpt lat="44.44584359306721" lon="10.447270482371502"><ele>621.0</ele><time>2026-04-11T13:39:13Z</time></trkpt><trkpt lat="44.44569146484864" lon="10.447165764645021"><ele>621.0</ele><time>2026-04-11T13:39:14Z</time></trkpt><trkpt lat="44.44554159542036" lon="10.447054050173067"><ele>623.6666666666666</ele><time>2026-04-11T13:39:15Z</time></trkpt><trkpt lat="44.44539701554595" lon="10.446946326548785"><ele>626.3333333333333</ele><time>2026-04-11T13:39:16Z</time></trkpt><trkpt lat="44.44525883712181" lon="10.44684168112207"><ele>629.0</ele><time>2026-04-11T13:39:17Z</time></trkpt><trkpt lat="44.44513010406755" lon="10.446727739229924"><ele>629.0</ele><time>2026-04-11T13:39:18Z</time></trkpt><trkpt lat="44.44501496768237" lon="10.44658676068914"><ele>629.0</ele><time>2026-04-11T13:39:19Z</time></trkpt><trkpt lat="44.444909358131" lon="10.44642634992024"><ele>629.0</ele><time>2026-04-11T13:39:20Z</time></trkpt><trkpt lat="44.444801971892154" lon="10.446264016580713"><ele>629.3333333333333</ele><time>2026-04-11T13:39:21Z</time></trkpt><trkpt lat="44.44469102668868" lon="10.44609938028962"><ele>629.6666666666666</ele><time>2026-04-11T13:39:22Z</time></trkpt><trkpt lat="44.44457736760515" lon="10.445935283868733"><ele>630.0</ele><time>2026-04-11T13:39:23Z</time></trkpt><trkpt lat="44.44446139673992" lon="10.445770099549023"><ele>630.0</ele><time>2026-04-11T13:39:24Z</time></trkpt><trkpt lat="44.44434487314238" lon="10.445601529945156"><ele>630.0</ele><time>2026-04-11T13:39:25Z</time></trkpt><trkpt lat="44.44422680450214" lon="10.445429905287634"><ele>630.0</ele><time>2026-04-11T13:39:26Z</time></trkpt><trkpt lat="44.44410701290619" lon="10.445258838503044"><ele>629.3333333333334</ele><time>2026-04-11T13:39:27Z</time></trkpt><trkpt lat="44.44398446920829" lon="10.44508656803316"><ele>628.6666666666667</ele><time>2026-04-11T13:39:28Z</time></trkpt><trkpt lat="44.4438628188949" lon="10.44491277658331"><ele>628.0</ele><time>2026-04-11T13:39:29Z</time></trkpt><trkpt lat="44.443743835131094" lon="10.444736970094445"><ele>629.6666666666667</ele><time>2026-04-11T13:39:30Z</time></trkpt><trkpt lat="44.44362452691861" lon="10.444562514197843"><ele>631.3333333333334</ele><time>2026-04-11T13:39:31Z</time></trkpt><trkpt lat="44.44350403036339" lon="10.444392749306573"><ele>633.0</ele><time>2026-04-11T13:39:32Z</time></trkpt><trkpt lat="44.44338906712945" lon="10.444217382812745"><ele>633.0</ele><time>2026-04-11T13:39:33Z</time></trkpt><trkpt lat="44.443279818141235" lon="10.444036642117489"><ele>633.0</ele><time>2026-04-11T13:39:34Z</time></trkpt><trkpt lat="44.44316986891539" lon="10.44386048251464"><ele>633.0</ele><time>2026-04-11T13:39:35Z</time></trkpt><trkpt lat="44.44306165745027" lon="10.44369623534498"><ele>632.75</ele><time>2026-04-11T13:39:36Z</time></trkpt><trkpt lat="44.44295888140351" lon="10.443545118848407"><ele>632.5</ele><time>2026-04-11T13:39:37Z</time></trkpt><trkpt lat="44.442857202752066" lon="10.443403857613863"><ele>632.25</ele><time>2026-04-11T13:39:38Z</time></trkpt><trkpt lat="44.442755229451286" lon="10.443278804290978"><ele>632.0</ele><time>2026-04-11T13:39:39Z</time></trkpt><trkpt lat="44.442641722270814" lon="10.443167106680622"><ele>632.0</ele><time>2026-04-11T13:39:40Z</time></trkpt><trkpt lat="44.442515723229334" lon="10.443073323590662"><ele>632.0</ele><time>2026-04-11T13:39:41Z</time></trkpt><trkpt lat="44.44239389260282" lon="10.443006959840407"><ele>632.0</ele><time>2026-04-11T13:39:42Z</time></trkpt><trkpt lat="44.44227544353927" lon="10.44294338026116"><ele>632.0</ele><time>2026-04-11T13:39:43Z</time></trkpt><trkpt lat="44.44216771094224" lon="10.442857799886253"><ele>631.0</ele><time>2026-04-11T13:39:44Z</time></trkpt><trkpt lat="44.442071671797464" lon="10.442735583245417"><ele>630.0</ele><time>2026-04-11T13:39:45Z</time></trkpt><trkpt lat="44.441990903599354" lon="10.442589260810609"><ele>629.0</ele><time>2026-04-11T13:39:46Z</time></trkpt><trkpt lat="44.44193293358099" lon="10.442416632713158"><ele>628.0</ele><time>2026-04-11T13:39:47Z</time></trkpt><trkpt lat="44.441896105803785" lon="10.442226954020587"><ele>629.75</ele><time>2026-04-11T13:39:48Z</time></trkpt><trkpt lat="44.441872928757" lon="10.442028452032073"><ele>631.5</ele><time>2026-04-11T13:39:49Z</time></trkpt><trkpt lat="44.44185491862473" lon="10.441827534538373"><ele>633.25</ele><time>2026-04-11T13:39:50Z</time></trkpt><trkpt lat="44.441825584670205" lon="10.441622857688234"><ele>635.0</ele><time>2026-04-11T13:39:51Z</time></trkpt><trkpt lat="44.44177134569402" lon="10.441425176790906"><ele>636.5</ele><time>2026-04-11T13:39:52Z</time></trkpt><trkpt lat="44.44169775334841" lon="10.441244448548236"><ele>638.0</ele><time>2026-04-11T13:39:53Z</time></trkpt><trkpt lat="44.44162068588696" lon="10.441078304022422"><ele>639.5</ele><time>2026-04-11T13:39:54Z</time></trkpt><trkpt lat="44.44153672347329" lon="10.440921266691282"><ele>641.0</ele><time>2026-04-11T13:39:55Z</time></trkpt><trkpt lat="44.441455438517266" lon="10.440762822485683"><ele>641.0</ele><time>2026-04-11T13:39:56Z</time></trkpt><trkpt lat="44.44138233827391" lon="10.440602769417518"><ele>641.0</ele><time>2026-04-11T13:39:57Z</time></trkpt><trkpt lat="44.44132536770827" lon="10.44044345134622"><ele>641.0</ele><time>2026-04-11T13:39:58Z</time></trkpt><trkpt lat="44.441284308235716" lon="10.4402777695663"><ele>641.0</ele><time>2026-04-11T13:39:59Z</time></trkpt><trkpt lat="44.44124691158849" lon="10.440111503951949"><ele>640.25</ele><time>2026-04-11T13:40:00Z</time></trkpt><trkpt lat="44.441209951103204" lon="10.439938068885908"><ele>639.5</ele><time>2026-04-11T13:40:01Z</time></trkpt><trkpt lat="44.441164930003545" lon="10.439766714570009"><ele>638.75</ele><time>2026-04-11T13:40:02Z</time></trkpt><trkpt lat="44.441110417465644" lon="10.439596618152946"><ele>638.0</ele><time>2026-04-11T13:40:03Z</time></trkpt><trkpt lat="44.44104169086038" lon="10.439412985483152"><ele>638.0</ele><time>2026-04-11T13:40:04Z</time></trkpt><trkpt lat="44.44095236464702" lon="10.439208057461315"><ele>638.0</ele><time>2026-04-11T13:40:05Z</time></trkpt><trkpt lat="44.44083393161487" lon="10.438968610120131"><ele>638.0</ele><time>2026-04-11T13:40:06Z</time></trkpt><trkpt lat="44.44069741315636" lon="10.438688875518281"><ele>638.5</ele><time>2026-04-11T13:40:07Z</time></trkpt><trkpt lat="44.44055049441881" lon="10.438372713816161"><ele>639.0</ele><time>2026-04-11T13:40:08Z</time></trkpt><trkpt lat="44.44044188099399" lon="10.4380782447658"><ele>647.5</ele><time>2026-04-11T13:40:09Z</time></trkpt><trkpt lat="44.4402271962702" lon="10.437910376164018"><ele>656.0</ele><time>2026-04-11T13:40:10Z</time></trkpt><trkpt lat="44.440052871173584" lon="10.437728914822033"><ele>656.0</ele><time>2026-04-11T13:40:11Z</time></trkpt><trkpt lat="44.43989345377876" lon="10.437551689475873"><ele>656.0</ele><time>2026-04-11T13:40:12Z</time></trkpt><trkpt lat="44.43973401724188" lon="10.43735423125939"><ele>656.0</ele><time>2026-04-11T13:40:13Z</time></trkpt><trkpt lat="44.439581911781445" lon="10.437160439055443"><ele>659.3333333333333</ele><time>2026-04-11T13:40:14Z</time></trkpt><trkpt lat="44.439423520081306" lon="10.436963177813475"><ele>662.6666666666666</ele><time>2026-04-11T13:40:15Z</time></trkpt><trkpt lat="44.43926850566928" lon="10.4367687677417"><ele>666.0</ele><time>2026-04-11T13:40:16Z</time></trkpt><trkpt lat="44.43902159136601" lon="10.43653310627959"><ele>666.0</ele><time>2026-04-11T13:40:17.075Z</time></trkpt><trkpt lat="44.43884792554809" lon="10.436314816105906"><ele>666.0</ele><time>2026-04-11T13:40:18.07Z</time></trkpt><trkpt lat="44.43874231096409" lon="10.436158526130447"><ele>666.0</ele><time>2026-04-11T13:40:19.066Z</time></trkpt><trkpt lat="44.438604573140566" lon="10.435988992676297"><ele>670.6666666666666</ele><time>2026-04-11T13:40:20.066Z</time></trkpt><trkpt lat="44.43845012228791" lon="10.435798888066651"><ele>675.3333333333333</ele><time>2026-04-11T13:40:21.065Z</time></trkpt><trkpt lat="44.43830526594074" lon="10.435620592781001"><ele>680.0</ele><time>2026-04-11T13:40:22.047Z</time></trkpt><trkpt lat="44.43816690794575" lon="10.435449613332212"><ele>652.0</ele><time>2026-04-11T13:40:23.034Z</time></trkpt><trkpt lat="44.43680190714764" lon="10.433614838759604"><ele>652.0</ele><time>2026-04-11T13:40:33.321Z</time></trkpt><trkpt lat="44.43712467323275" lon="10.433342841819728"><ele>652.0</ele><time>2026-04-11T13:40:34Z</time></trkpt><trkpt lat="44.43706429993966" lon="10.433124915309469"><ele>654.0</ele><time>2026-04-11T13:40:35Z</time></trkpt><trkpt lat="44.43706991631382" lon="10.432958974723425"><ele>656.0</ele><time>2026-04-11T13:40:36Z</time></trkpt><trkpt lat="44.43702072557571" lon="10.432724003562127"><ele>658.0</ele><time>2026-04-11T13:40:37Z</time></trkpt><trkpt lat="44.436990366899195" lon="10.432488306338875"><ele>658.0</ele><time>2026-04-11T13:40:38Z</time></trkpt><trkpt lat="44.4369692414579" lon="10.432257029747019"><ele>658.0</ele><time>2026-04-11T13:40:39Z</time></trkpt><trkpt lat="44.43694726341906" lon="10.43201697941484"><ele>658.0</ele><time>2026-04-11T13:40:40Z</time></trkpt><trkpt lat="44.43693646305782" lon="10.431800595224162"><ele>658.4</ele><time>2026-04-11T13:40:41Z</time></trkpt><trkpt lat="44.43692789326072" lon="10.431625978983913"><ele>658.8</ele><time>2026-04-11T13:40:42Z</time></trkpt><trkpt lat="44.43691987409468" lon="10.43149888336789"><ele>659.2</ele><time>2026-04-11T13:40:43Z</time></trkpt><trkpt lat="44.43691709904674" lon="10.431397421831017"><ele>659.6</ele><time>2026-04-11T13:40:44Z</time></trkpt><trkpt lat="44.43691639345166" lon="10.431240024656903"><ele>660.0</ele><time>2026-04-11T13:40:46Z</time></trkpt><trkpt lat="44.43690648918091" lon="10.431110367031625"><ele>663.0</ele><time>2026-04-11T13:40:48Z</time></trkpt><trkpt lat="44.43691973720079" lon="10.431015862647435"><ele>663.0</ele><time>2026-04-11T13:40:50Z</time></trkpt></trkseg><trkseg><trkpt lat="44.436850423311995" lon="10.430859851582852"><ele>663.0</ele><time>2026-04-11T14:11:17.817Z</time></trkpt><trkpt lat="44.4369039148155" lon="10.430944398566874"><ele>663.0</ele><time>2026-04-11T14:11:22.38Z</time></trkpt><trkpt lat="44.436837250137756" lon="10.430813336405578"><ele>663.0</ele><time>2026-04-11T14:12:39Z</time></trkpt><trkpt lat="44.43680770910874" lon="10.43071279344761"><ele>663.0</ele><time>2026-04-11T14:12:40Z</time></trkpt><trkpt lat="44.43678380627337" lon="10.430630947130485"><ele>663.0</ele><time>2026-04-11T14:12:41Z</time></trkpt><trkpt lat="44.43674950805507" lon="10.430529992364772"><ele>663.0</ele><time>2026-04-11T14:12:42Z</time></trkpt><trkpt lat="44.43671282925743" lon="10.430424927622237"><ele>663.8</ele><time>2026-04-11T14:12:43Z</time></trkpt><trkpt lat="44.43667198454595" lon="10.430316771050805"><ele>664.5999999999999</ele><time>2026-04-11T14:12:44Z</time></trkpt><trkpt lat="44.43662452041298" lon="10.430200665051537"><ele>665.4000000000001</ele><time>2026-04-11T14:12:45Z</time></trkpt><trkpt lat="44.43657879196206" lon="10.430080261870065"><ele>666.2</ele><time>2026-04-11T14:12:46Z</time></trkpt><trkpt lat="44.43653584844395" lon="10.429953934376453"><ele>667.0</ele><time>2026-04-11T14:12:47Z</time></trkpt><trkpt lat="44.43649084126556" lon="10.429821275478252"><ele>667.0</ele><time>2026-04-11T14:12:48Z</time></trkpt><trkpt lat="44.43644424077746" lon="10.429686471880913"><ele>667.0</ele><time>2026-04-11T14:12:49Z</time></trkpt><trkpt lat="44.43639489055445" lon="10.429548104120448"><ele>667.0</ele><time>2026-04-11T14:12:50Z</time></trkpt><trkpt lat="44.436383343252" lon="10.42939117963352"><ele>667.0</ele><time>2026-04-11T14:12:51Z</time></trkpt><trkpt lat="44.43636612099735" lon="10.429229585668132"><ele>667.0</ele><time>2026-04-11T14:12:52Z</time></trkpt><trkpt lat="44.436356530331246" lon="10.429066321759544"><ele>667.5</ele><time>2026-04-11T14:12:53Z</time></trkpt><trkpt lat="44.43634487021605" lon="10.428897025720723"><ele>668.0</ele><time>2026-04-11T14:12:54Z</time></trkpt><trkpt lat="44.43633289390175" lon="10.428720021122283"><ele>668.5</ele><time>2026-04-11T14:12:55Z</time></trkpt><trkpt lat="44.436322064488444" lon="10.428540064318746"><ele>669.0</ele><time>2026-04-11T14:12:56Z</time></trkpt><trkpt lat="44.436296378049455" lon="10.428359880842276"><ele>666.0</ele><time>2026-04-11T14:12:57Z</time></trkpt><trkpt lat="44.436285082438424" lon="10.428180021088066"><ele>663.0</ele><time>2026-04-11T14:12:58Z</time></trkpt><trkpt lat="44.436273372725736" lon="10.427992066812502"><ele>660.0</ele><time>2026-04-11T14:12:59Z</time></trkpt><trkpt lat="44.4362649903672" lon="10.427806223502294"><ele>657.0</ele><time>2026-04-11T14:13:00Z</time></trkpt><trkpt lat="44.436254045711244" lon="10.427611961684612"><ele>657.0</ele><time>2026-04-11T14:13:01Z</time></trkpt><trkpt lat="44.436241572612346" lon="10.427415211236806"><ele>657.0</ele><time>2026-04-11T14:13:02Z</time></trkpt><trkpt lat="44.43622742200196" lon="10.42724124199858"><ele>657.0</ele><time>2026-04-11T14:13:03Z</time></trkpt><trkpt lat="44.436214232936024" lon="10.427078578089489"><ele>657.0</ele><time>2026-04-11T14:13:04Z</time></trkpt><trkpt lat="44.43619622913777" lon="10.426923598049719"><ele>657.75</ele><time>2026-04-11T14:13:05Z</time></trkpt><trkpt lat="44.43616442482031" lon="10.426780111288993"><ele>658.5</ele><time>2026-04-11T14:13:06Z</time></trkpt><trkpt lat="44.43612159587744" lon="10.426640936749783"><ele>659.25</ele><time>2026-04-11T14:13:07Z</time></trkpt><trkpt lat="44.43606585883238" lon="10.426499213390123"><ele>660.0</ele><time>2026-04-11T14:13:08Z</time></trkpt><trkpt lat="44.43600084700742" lon="10.42635513730831"><ele>660.0</ele><time>2026-04-11T14:13:09Z</time></trkpt><trkpt lat="44.435938016882645" lon="10.426213951638921"><ele>660.0</ele><time>2026-04-11T14:13:10Z</time></trkpt><trkpt lat="44.435871019656375" lon="10.426071974333098"><ele>660.0</ele><time>2026-04-11T14:13:11Z</time></trkpt><trkpt lat="44.435817497970675" lon="10.425920591058597"><ele>660.0</ele><time>2026-04-11T14:13:12Z</time></trkpt><trkpt lat="44.43573050285339" lon="10.425801680239962"><ele>660.0</ele><time>2026-04-11T14:13:13Z</time></trkpt><trkpt lat="44.43564670860388" lon="10.425683802563592"><ele>660.0</ele><time>2026-04-11T14:13:14Z</time></trkpt><trkpt lat="44.435561670201615" lon="10.425577439498083"><ele>660.0</ele><time>2026-04-11T14:13:15Z</time></trkpt><trkpt lat="44.43548888520992" lon="10.425487099200161"><ele>660.0</ele><time>2026-04-11T14:13:16Z</time></trkpt><trkpt lat="44.43544045548764" lon="10.42539193625655"><ele>660.0</ele><time>2026-04-11T14:13:17Z</time></trkpt><trkpt lat="44.43541850795283" lon="10.425286756787374"><ele>660.0</ele><time>2026-04-11T14:13:18Z</time></trkpt><trkpt lat="44.43542085910261" lon="10.425194498931587"><ele>660.0</ele><time>2026-04-11T14:13:19Z</time></trkpt><trkpt lat="44.435428717134315" lon="10.425099357148833"><ele>660.0</ele><time>2026-04-11T14:13:20Z</time></trkpt><trkpt lat="44.43544350544531" lon="10.424988637767507"><ele>660.0</ele><time>2026-04-11T14:13:21Z</time></trkpt><trkpt lat="44.4354572735829" lon="10.424857396885344"><ele>660.0</ele><time>2026-04-11T14:13:22Z</time></trkpt><trkpt lat="44.43547549840952" lon="10.424701779660117"><ele>660.0</ele><time>2026-04-11T14:13:23Z</time></trkpt><trkpt lat="44.435529656115996" lon="10.424537403463667"><ele>659.5</ele><time>2026-04-11T14:13:24Z</time></trkpt><trkpt lat="44.43555417171846" lon="10.424347925199344"><ele>659.0</ele><time>2026-04-11T14:13:25Z</time></trkpt><trkpt lat="44.43556007222637" lon="10.424145202978265"><ele>658.5</ele><time>2026-04-11T14:13:26Z</time></trkpt><trkpt lat="44.43553230064035" lon="10.423940162776972"><ele>658.0</ele><time>2026-04-11T14:13:27Z</time></trkpt><trkpt lat="44.435495782239336" lon="10.423723758520381"><ele>663.3333333333334</ele><time>2026-04-11T14:13:28Z</time></trkpt><trkpt lat="44.435434910280385" lon="10.423506211590778"><ele>668.6666666666666</ele><time>2026-04-11T14:13:29Z</time></trkpt><trkpt lat="44.43536344926045" lon="10.423282690695743"><ele>674.0</ele><time>2026-04-11T14:13:30Z</time></trkpt><trkpt lat="44.435287743120114" lon="10.423069349002349"><ele>672.6666666666666</ele><time>2026-04-11T14:13:31Z</time></trkpt><trkpt lat="44.43521578312661" lon="10.42285216641939"><ele>671.3333333333334</ele><time>2026-04-11T14:13:32Z</time></trkpt><trkpt lat="44.43515227294805" lon="10.422642089691108"><ele>670.0</ele><time>2026-04-11T14:13:33Z</time></trkpt><trkpt lat="44.43509912768249" lon="10.422416686739709"><ele>670.0</ele><time>2026-04-11T14:13:34Z</time></trkpt><trkpt lat="44.435058049074144" lon="10.422186438995492"><ele>670.0</ele><time>2026-04-11T14:13:35Z</time></trkpt><trkpt lat="44.43502023610882" lon="10.421955433001958"><ele>670.0</ele><time>2026-04-11T14:13:36Z</time></trkpt><trkpt lat="44.43497685054375" lon="10.421727734413206"><ele>669.3333333333334</ele><time>2026-04-11T14:13:37Z</time></trkpt><trkpt lat="44.434950983526264" lon="10.421498419939418"><ele>668.6666666666666</ele><time>2026-04-11T14:13:38Z</time></trkpt><trkpt lat="44.43489458302227" lon="10.421285602824126"><ele>668.0</ele><time>2026-04-11T14:13:39Z</time></trkpt><trkpt lat="44.43485858502297" lon="10.421062398359684"><ele>667.3333333333333</ele><time>2026-04-11T14:13:39.999Z</time></trkpt><trkpt lat="44.434795489278756" lon="10.420851070541723"><ele>666.6666666666666</ele><time>2026-04-11T14:13:40.999Z</time></trkpt><trkpt lat="44.434723054953594" lon="10.420649272969634"><ele>666.0</ele><time>2026-04-11T14:13:41.999Z</time></trkpt><trkpt lat="44.434625249224894" lon="10.420466043237797"><ele>671.0</ele><time>2026-04-11T14:13:42.999Z</time></trkpt><trkpt lat="44.43453611512151" lon="10.420274470522191"><ele>676.0</ele><time>2026-04-11T14:13:43.999Z</time></trkpt><trkpt lat="44.434448398088705" lon="10.420085490369113"><ele>681.0</ele><time>2026-04-11T14:13:44.999Z</time></trkpt><trkpt lat="44.43439138443795" lon="10.41988042400324"><ele>681.0</ele><time>2026-04-11T14:13:45.999Z</time></trkpt><trkpt lat="44.434330801497325" lon="10.419675080789812"><ele>681.0</ele><time>2026-04-11T14:13:46.999Z</time></trkpt><trkpt lat="44.43426638653977" lon="10.41946592886049"><ele>681.0</ele><time>2026-04-11T14:13:47.999Z</time></trkpt><trkpt lat="44.43423825079697" lon="10.419239924431976"><ele>681.3333333333334</ele><time>2026-04-11T14:13:48.999Z</time></trkpt><trkpt lat="44.434192406338184" lon="10.419015776519084"><ele>681.6666666666667</ele><time>2026-04-11T14:13:49.999Z</time></trkpt><trkpt lat="44.43412630446529" lon="10.418802855601806"><ele>682.0</ele><time>2026-04-11T14:13:50.999Z</time></trkpt><trkpt lat="44.43406360529767" lon="10.418583343664467"><ele>682.0</ele><time>2026-04-11T14:13:51.999Z</time></trkpt><trkpt lat="44.43400388805399" lon="10.418361665920651"><ele>682.0</ele><time>2026-04-11T14:13:52.999Z</time></trkpt><trkpt lat="44.433923557525205" lon="10.41815616466476"><ele>682.0</ele><time>2026-04-11T14:13:53.999Z</time></trkpt><trkpt lat="44.43383872033521" lon="10.417958624001104"><ele>687.3333333333334</ele><time>2026-04-11T14:13:54.999Z</time></trkpt><trkpt lat="44.43375400939745" lon="10.41776929486551"><ele>692.6666666666666</ele><time>2026-04-11T14:13:55.999Z</time></trkpt><trkpt lat="44.43366830126398" lon="10.417585529611221"><ele>698.0</ele><time>2026-04-11T14:13:56.999Z</time></trkpt><trkpt lat="44.43358873245377" lon="10.417415704842652"><ele>698.0</ele><time>2026-04-11T14:13:57.999Z</time></trkpt><trkpt lat="44.43350600779425" lon="10.417271806100405"><ele>698.0</ele><time>2026-04-11T14:13:58.999Z</time></trkpt><trkpt lat="44.43345482517633" lon="10.417124051924748"><ele>698.0</ele><time>2026-04-11T14:13:59.999Z</time></trkpt><trkpt lat="44.43341848646198" lon="10.416975846119445"><ele>698.0</ele><time>2026-04-11T14:14:00.999Z</time></trkpt><trkpt lat="44.43339646905389" lon="10.416833609849384"><ele>697.3333333333333</ele><time>2026-04-11T14:14:01.999Z</time></trkpt><trkpt lat="44.43338561079086" lon="10.416699851291181"><ele>696.6666666666666</ele><time>2026-04-11T14:14:02.999Z</time></trkpt><trkpt lat="44.43339226244583" lon="10.416569904314995"><ele>696.0</ele><time>2026-04-11T14:14:03.999Z</time></trkpt><trkpt lat="44.433408954518434" lon="10.41644761393158"><ele>695.3333333333334</ele><time>2026-04-11T14:14:04.999Z</time></trkpt><trkpt lat="44.433426708570266" lon="10.416337775275668"><ele>694.6666666666667</ele><time>2026-04-11T14:14:05.999Z</time></trkpt><trkpt lat="44.4334399883013" lon="10.416221415360353"><ele>694.0</ele><time>2026-04-11T14:14:06.999Z</time></trkpt><trkpt lat="44.43343260817295" lon="10.416101410980861"><ele>692.6</ele><time>2026-04-11T14:14:07.999Z</time></trkpt><trkpt lat="44.43340763715332" lon="10.41600148085238"><ele>691.2</ele><time>2026-04-11T14:14:08.999Z</time></trkpt><trkpt lat="44.433306663988226" lon="10.41594969313294"><ele>689.8000000000001</ele><time>2026-04-11T14:14:09.999Z</time></trkpt><trkpt lat="44.43319733262281" lon="10.415920535251127"><ele>688.4000000000001</ele><time>2026-04-11T14:14:10.999Z</time></trkpt><trkpt lat="44.433107902031644" lon="10.415851528004072"><ele>687.0</ele><time>2026-04-11T14:14:11.999Z</time></trkpt><trkpt lat="44.43303712824731" lon="10.415708827905362"><ele>687.0</ele><time>2026-04-11T14:14:12.999Z</time></trkpt><trkpt lat="44.432973574576856" lon="10.415573046838752"><ele>687.0</ele><time>2026-04-11T14:14:13.999Z</time></trkpt><trkpt lat="44.432926925009056" lon="10.415411555830154"><ele>687.0</ele><time>2026-04-11T14:14:14.999Z</time></trkpt><trkpt lat="44.43289686095045" lon="10.415239788654809"><ele>687.0</ele><time>2026-04-11T14:14:15.999Z</time></trkpt><trkpt lat="44.43288078278254" lon="10.415060820192442"><ele>693.0</ele><time>2026-04-11T14:14:16.999Z</time></trkpt><trkpt lat="44.43286714943026" lon="10.414880485424048"><ele>699.0</ele><time>2026-04-11T14:14:17.999Z</time></trkpt><trkpt lat="44.43286093963096" lon="10.414704181690983"><ele>705.0</ele><time>2026-04-11T14:14:18.999Z</time></trkpt><trkpt lat="44.43286150226298" lon="10.414532725937109"><ele>711.0</ele><time>2026-04-11T14:14:19.999Z</time></trkpt><trkpt lat="44.432869283374544" lon="10.414364825142725"><ele>711.5</ele><time>2026-04-11T14:14:20.999Z</time></trkpt><trkpt lat="44.432891838414825" lon="10.414201768350129"><ele>712.0</ele><time>2026-04-11T14:14:21.999Z</time></trkpt><trkpt lat="44.4329248864311" lon="10.414042685664855"><ele>712.5</ele><time>2026-04-11T14:14:22.999Z</time></trkpt><trkpt lat="44.432963139428544" lon="10.413887580785811"><ele>713.0</ele><time>2026-04-11T14:14:23.999Z</time></trkpt><trkpt lat="44.43300293244931" lon="10.413729455768012"><ele>709.25</ele><time>2026-04-11T14:14:24.999Z</time></trkpt><trkpt lat="44.43304529740856" lon="10.413571029245395"><ele>705.5</ele><time>2026-04-11T14:14:25.999Z</time></trkpt><trkpt lat="44.43308670936408" lon="10.41341052805331"><ele>701.75</ele><time>2026-04-11T14:14:26.999Z</time></trkpt><trkpt lat="44.43312614872392" lon="10.413257887571639"><ele>698.0</ele><time>2026-04-11T14:14:27.999Z</time></trkpt><trkpt lat="44.433156173915485" lon="10.413119891681514"><ele>698.0</ele><time>2026-04-11T14:14:28.999Z</time></trkpt><trkpt lat="44.433178860772806" lon="10.412999732836626"><ele>698.0</ele><time>2026-04-11T14:14:29.999Z</time></trkpt><trkpt lat="44.43319613075878" lon="10.41289507357205"><ele>698.0</ele><time>2026-04-11T14:14:30.999Z</time></trkpt><trkpt lat="44.43320929112109" lon="10.412799321038245"><ele>698.0</ele><time>2026-04-11T14:14:31.999Z</time></trkpt><trkpt lat="44.433217562328" lon="10.412700059542363"><ele>698.0</ele><time>2026-04-11T14:14:32.999Z</time></trkpt><trkpt lat="44.433219902153475" lon="10.412595631277174"><ele>698.0</ele><time>2026-04-11T14:14:33.999Z</time></trkpt><trkpt lat="44.43321865308912" lon="10.412487127197705"><ele>699.4</ele><time>2026-04-11T14:14:34.999Z</time></trkpt><trkpt lat="44.43321292608579" lon="10.41238066725326"><ele>700.8</ele><time>2026-04-11T14:14:35.999Z</time></trkpt><trkpt lat="44.43320288222756" lon="10.412263477707805"><ele>702.2</ele><time>2026-04-11T14:14:36.999Z</time></trkpt><trkpt lat="44.43318258431897" lon="10.412137358336723"><ele>703.6</ele><time>2026-04-11T14:14:37.999Z</time></trkpt><trkpt lat="44.433148726990304" lon="10.412006521755643"><ele>705.0</ele><time>2026-04-11T14:14:38.999Z</time></trkpt><trkpt lat="44.43310430598661" lon="10.41187899699192"><ele>707.0</ele><time>2026-04-11T14:14:39.999Z</time></trkpt><trkpt lat="44.43305355632007" lon="10.411757486468646"><ele>709.0</ele><time>2026-04-11T14:14:40.999Z</time></trkpt><trkpt lat="44.43300203773713" lon="10.411646395909525"><ele>711.0</ele><time>2026-04-11T14:14:41.999Z</time></trkpt><trkpt lat="44.432946903824174" lon="10.41153701193542"><ele>713.0</ele><time>2026-04-11T14:14:42.999Z</time></trkpt><trkpt lat="44.432889361454" lon="10.411429200975851"><ele>715.0</ele><time>2026-04-11T14:14:43.999Z</time></trkpt><trkpt lat="44.43282613020509" lon="10.41131947179574"><ele>715.6666666666667</ele><time>2026-04-11T14:14:44.999Z</time></trkpt><trkpt lat="44.43276318758397" lon="10.411220050490838"><ele>716.3333333333334</ele><time>2026-04-11T14:14:45.999Z</time></trkpt><trkpt lat="44.43270502469855" lon="10.411132344421027"><ele>717.0</ele><time>2026-04-11T14:14:46.999Z</time></trkpt><trkpt lat="44.43265602015278" lon="10.411059094871513"><ele>717.6666666666666</ele><time>2026-04-11T14:14:47.999Z</time></trkpt><trkpt lat="44.43261100509754" lon="10.410991227201759"><ele>718.3333333333333</ele><time>2026-04-11T14:14:54.999Z</time></trkpt><trkpt lat="44.43255161001508" lon="10.410898578312834"><ele>719.0</ele><time>2026-04-11T14:14:56.999Z</time></trkpt><trkpt lat="44.43249702524093" lon="10.410784112755724"><ele>719.0</ele><time>2026-04-11T14:14:58.999Z</time></trkpt><trkpt lat="44.43248207340257" lon="10.410639479358231"><ele>719.0</ele><time>2026-04-11T14:15:00.999Z</time></trkpt><trkpt lat="44.43247205646915" lon="10.410466048959346"><ele>719.0</ele><time>2026-04-11T14:15:02.999Z</time></trkpt><trkpt lat="44.43247090779625" lon="10.410356541145457"><ele>719.0</ele><time>2026-04-11T14:15:03.999Z</time></trkpt><trkpt lat="44.43248223445616" lon="10.410242587981632"><ele>719.0</ele><time>2026-04-11T14:15:04.999Z</time></trkpt><trkpt lat="44.432504254921085" lon="10.410114515553795"><ele>719.2</ele><time>2026-04-11T14:15:05.999Z</time></trkpt><trkpt lat="44.432528848960914" lon="10.409982023736895"><ele>719.4000000000001</ele><time>2026-04-11T14:15:06.999Z</time></trkpt><trkpt lat="44.432559439213875" lon="10.409848937307807"><ele>719.6</ele><time>2026-04-11T14:15:07.999Z</time></trkpt><trkpt lat="44.43259171526286" lon="10.409717073733962"><ele>719.8</ele><time>2026-04-11T14:15:08.999Z</time></trkpt><trkpt lat="44.432625218514474" lon="10.409591564874932"><ele>720.0</ele><time>2026-04-11T14:15:09.999Z</time></trkpt><trkpt lat="44.43266130998607" lon="10.409469240884045"><ele>719.6</ele><time>2026-04-11T14:15:10.999Z</time></trkpt><trkpt lat="44.43269529402988" lon="10.40934655175079"><ele>719.2</ele><time>2026-04-11T14:15:11.999Z</time></trkpt><trkpt lat="44.43272997442125" lon="10.409221117240893"><ele>718.8</ele><time>2026-04-11T14:15:12.999Z</time></trkpt><trkpt lat="44.43276741337747" lon="10.409087968043877"><ele>718.4</ele><time>2026-04-11T14:15:13.999Z</time></trkpt><trkpt lat="44.43281135727609" lon="10.40894913483571"><ele>718.0</ele><time>2026-04-11T14:15:14.999Z</time></trkpt><trkpt lat="44.4328559173304" lon="10.40881065870238"><ele>717.2</ele><time>2026-04-11T14:15:15.999Z</time></trkpt><trkpt lat="44.43290490967153" lon="10.408686866599778"><ele>716.4</ele><time>2026-04-11T14:15:16.999Z</time></trkpt><trkpt lat="44.43295500296076" lon="10.408562917525675"><ele>715.6</ele><time>2026-04-11T14:15:17.999Z</time></trkpt><trkpt lat="44.433023816065194" lon="10.408467069368957"><ele>714.8000000000001</ele><time>2026-04-11T14:15:18.999Z</time></trkpt><trkpt lat="44.433099522249044" lon="10.408384661584684"><ele>714.0</ele><time>2026-04-11T14:15:19.999Z</time></trkpt><trkpt lat="44.43318123398538" lon="10.40831202112959"><ele>712.2</ele><time>2026-04-11T14:15:20.999Z</time></trkpt><trkpt lat="44.4332622078501" lon="10.408248671865145"><ele>710.4000000000001</ele><time>2026-04-11T14:15:21.999Z</time></trkpt><trkpt lat="44.43334236770735" lon="10.408198614464622"><ele>708.6</ele><time>2026-04-11T14:15:22.999Z</time></trkpt><trkpt lat="44.43341185990716" lon="10.408147017822957"><ele>706.8</ele><time>2026-04-11T14:15:23.999Z</time></trkpt><trkpt lat="44.43351945895686" lon="10.408073247026017"><ele>705.0</ele><time>2026-04-11T14:15:25.999Z</time></trkpt><trkpt lat="44.43361193106702" lon="10.408032021147037"><ele>705.0</ele><time>2026-04-11T14:15:27.999Z</time></trkpt><trkpt lat="44.43369739056469" lon="10.407994114214029"><ele>705.0</ele><time>2026-04-11T14:15:31.999Z</time></trkpt><trkpt lat="44.43379880505266" lon="10.407967344497886"><ele>705.0</ele><time>2026-04-11T14:15:33.999Z</time></trkpt><trkpt lat="44.433902165463074" lon="10.407904796604575"><ele>705.0</ele><time>2026-04-11T14:15:35.999Z</time></trkpt><trkpt lat="44.43397507940975" lon="10.407855551858407"><ele>705.0</ele><time>2026-04-11T14:15:36.999Z</time></trkpt><trkpt lat="44.43405576127942" lon="10.407806090413407"><ele>704.2</ele><time>2026-04-11T14:15:37.999Z</time></trkpt><trkpt lat="44.43413559018086" lon="10.407750639764304"><ele>703.4</ele><time>2026-04-11T14:15:38.999Z</time></trkpt><trkpt lat="44.43421776792742" lon="10.407675694613816"><ele>702.5999999999999</ele><time>2026-04-11T14:15:39.999Z</time></trkpt><trkpt lat="44.4342930927611" lon="10.407590151502932"><ele>701.8</ele><time>2026-04-11T14:15:40.999Z</time></trkpt><trkpt lat="44.434354561118624" lon="10.407455932893662"><ele>701.0</ele><time>2026-04-11T14:15:41.999Z</time></trkpt><trkpt lat="44.43441596930955" lon="10.407322214337613"><ele>701.0</ele><time>2026-04-11T14:15:42.999Z</time></trkpt><trkpt lat="44.434478357765485" lon="10.40719181566506"><ele>701.0</ele><time>2026-04-11T14:15:43.999Z</time></trkpt><trkpt lat="44.43454254999667" lon="10.407073948035132"><ele>701.0</ele><time>2026-04-11T14:15:44.999Z</time></trkpt><trkpt lat="44.434598535293226" lon="10.406951200798382"><ele>701.0</ele><time>2026-04-11T14:15:45.999Z</time></trkpt><trkpt lat="44.4346748755442" lon="10.406848333837756"><ele>701.0</ele><time>2026-04-11T14:15:46.999Z</time></trkpt><trkpt lat="44.43473814551327" lon="10.406729232762247"><ele>700.5999999999999</ele><time>2026-04-11T14:15:47.999Z</time></trkpt><trkpt lat="44.43479693657249" lon="10.40660714694792"><ele>700.2</ele><time>2026-04-11T14:15:48.999Z</time></trkpt><trkpt lat="44.434848876777245" lon="10.40649667706361"><ele>699.8</ele><time>2026-04-11T14:15:49.999Z</time></trkpt><trkpt lat="44.434898887490384" lon="10.406394392026234"><ele>699.4000000000001</ele><time>2026-04-11T14:15:50.999Z</time></trkpt><trkpt lat="44.434947764364" lon="10.406297834561181"><ele>699.0</ele><time>2026-04-11T14:15:51.999Z</time></trkpt><trkpt lat="44.43499970206407" lon="10.406196270397839"><ele>699.0</ele><time>2026-04-11T14:15:52.999Z</time></trkpt><trkpt lat="44.43505792394785" lon="10.406094889236984"><ele>699.0</ele><time>2026-04-11T14:15:53.999Z</time></trkpt><trkpt lat="44.43511993481258" lon="10.406000120513973"><ele>699.0</ele><time>2026-04-11T14:15:54.999Z</time></trkpt><trkpt lat="44.43518713222025" lon="10.405908518870309"><ele>699.0</ele><time>2026-04-11T14:15:55.999Z</time></trkpt><trkpt lat="44.43524876171893" lon="10.405826568240936"><ele>699.0</ele><time>2026-04-11T14:15:56.999Z</time></trkpt><trkpt lat="44.43530652250775" lon="10.405750471566526"><ele>699.0</ele><time>2026-04-11T14:15:57.999Z</time></trkpt><trkpt lat="44.435357380120735" lon="10.405683515782778"><ele>699.0</ele><time>2026-04-11T14:15:58.999Z</time></trkpt><trkpt lat="44.435413386952796" lon="10.405611073817218"><ele>699.0</ele><time>2026-04-11T14:15:59.999Z</time></trkpt><trkpt lat="44.4354703816932" lon="10.405537585593548"><ele>699.0</ele><time>2026-04-11T14:16:00.999Z</time></trkpt><trkpt lat="44.43552527391649" lon="10.405465754919225"><ele>699.0</ele><time>2026-04-11T14:16:01.999Z</time></trkpt><trkpt lat="44.435584212589134" lon="10.405388165310432"><ele>699.0</ele><time>2026-04-11T14:16:02.999Z</time></trkpt><trkpt lat="44.43561520788336" lon="10.405261156849743"><ele>699.0</ele><time>2026-04-11T14:16:03.999Z</time></trkpt><trkpt lat="44.435661396795865" lon="10.405175512920247"><ele>699.0</ele><time>2026-04-11T14:16:04.999Z</time></trkpt><trkpt lat="44.435707023415276" lon="10.405091265162188"><ele>699.0</ele><time>2026-04-11T14:16:05.999Z</time></trkpt><trkpt lat="44.43575244886336" lon="10.405009215916694"><ele>699.0</ele><time>2026-04-11T14:16:06.999Z</time></trkpt><trkpt lat="44.4358024142884" lon="10.404924130381099"><ele>699.0</ele><time>2026-04-11T14:16:07.999Z</time></trkpt><trkpt lat="44.43585445878752" lon="10.404837011678316"><ele>699.0</ele><time>2026-04-11T14:16:08.999Z</time></trkpt><trkpt lat="44.43590611989893" lon="10.404746388734955"><ele>699.0</ele><time>2026-04-11T14:16:09.999Z</time></trkpt><trkpt lat="44.43595783426048" lon="10.404654024357782"><ele>700.3333333333334</ele><time>2026-04-11T14:16:10.999Z</time></trkpt><trkpt lat="44.436010314672814" lon="10.404561441310122"><ele>701.6666666666666</ele><time>2026-04-11T14:16:11.999Z</time></trkpt><trkpt lat="44.436058083745124" lon="10.40446988952665"><ele>703.0</ele><time>2026-04-11T14:16:12.999Z</time></trkpt><trkpt lat="44.43610157824653" lon="10.404384437291448"><ele>704.3333333333333</ele><time>2026-04-11T14:16:13.999Z</time></trkpt><trkpt lat="44.43614128658466" lon="10.404299248280434"><ele>705.6666666666666</ele><time>2026-04-11T14:16:14.999Z</time></trkpt><trkpt lat="44.43618281776376" lon="10.404216610228106"><ele>707.0</ele><time>2026-04-11T14:16:15.999Z</time></trkpt><trkpt lat="44.436224349884334" lon="10.404125324165127"><ele>707.0</ele><time>2026-04-11T14:16:16.999Z</time></trkpt><trkpt lat="44.43626273498678" lon="10.404025357001064"><ele>707.0</ele><time>2026-04-11T14:16:17.999Z</time></trkpt><trkpt lat="44.436286438799456" lon="10.403918293840185"><ele>707.0</ele><time>2026-04-11T14:16:18.999Z</time></trkpt><trkpt lat="44.43630447343225" lon="10.403807726555435"><ele>707.0</ele><time>2026-04-11T14:16:19.999Z</time></trkpt><trkpt lat="44.436315413963506" lon="10.403697041679656"><ele>707.0</ele><time>2026-04-11T14:16:20.999Z</time></trkpt><trkpt lat="44.43632411916873" lon="10.403587689990783"><ele>707.0</ele><time>2026-04-11T14:16:21.999Z</time></trkpt><trkpt lat="44.43633065593171" lon="10.403477259868595"><ele>705.5</ele><time>2026-04-11T14:16:22.999Z</time></trkpt><trkpt lat="44.43633896843609" lon="10.4033692088869"><ele>704.0</ele><time>2026-04-11T14:16:23.999Z</time></trkpt><trkpt lat="44.43635516214219" lon="10.403262227432096"><ele>702.5</ele><time>2026-04-11T14:16:24.999Z</time></trkpt><trkpt lat="44.436371154152866" lon="10.40316162984526"><ele>701.0</ele><time>2026-04-11T14:16:25.999Z</time></trkpt><trkpt lat="44.43640314014036" lon="10.403061275080862"><ele>699.5</ele><time>2026-04-11T14:16:26.999Z</time></trkpt><trkpt lat="44.436442737816684" lon="10.402977792024084"><ele>698.0</ele><time>2026-04-11T14:16:27.999Z</time></trkpt><trkpt lat="44.43650415303993" lon="10.402910001765374"><ele>697.8333333333333</ele><time>2026-04-11T14:16:28.999Z</time></trkpt><trkpt lat="44.4365619439421" lon="10.40282246215909"><ele>697.6666666666666</ele><time>2026-04-11T14:16:29.999Z</time></trkpt><trkpt lat="44.43660242714322" lon="10.402714212770071"><ele>697.5</ele><time>2026-04-11T14:16:30.999Z</time></trkpt><trkpt lat="44.43661908939877" lon="10.402594726553426"><ele>697.3333333333334</ele><time>2026-04-11T14:16:31.999Z</time></trkpt><trkpt lat="44.436646791999706" lon="10.402474619019912"><ele>697.1666666666667</ele><time>2026-04-11T14:16:32.999Z</time></trkpt><trkpt lat="44.436670638994585" lon="10.402353158486006"><ele>697.0</ele><time>2026-04-11T14:16:33.999Z</time></trkpt><trkpt lat="44.4366998680882" lon="10.402229245308822"><ele>697.0</ele><time>2026-04-11T14:16:34.999Z</time></trkpt><trkpt lat="44.43673066903203" lon="10.40209680827547"><ele>697.0</ele><time>2026-04-11T14:16:35.999Z</time></trkpt><trkpt lat="44.43676059005847" lon="10.401958446832476"><ele>697.0</ele><time>2026-04-11T14:16:36.999Z</time></trkpt><trkpt lat="44.43679144030335" lon="10.401816841312744"><ele>697.0</ele><time>2026-04-11T14:16:37.999Z</time></trkpt><trkpt lat="44.43683854984106" lon="10.40167892044135"><ele>697.0</ele><time>2026-04-11T14:16:38.999Z</time></trkpt><trkpt lat="44.43686869629464" lon="10.401542720111129"><ele>697.0</ele><time>2026-04-11T14:16:39.999Z</time></trkpt><trkpt lat="44.43687546380854" lon="10.401400302707057"><ele>697.0</ele><time>2026-04-11T14:16:40.999Z</time></trkpt><trkpt lat="44.436897005538285" lon="10.401262656752388"><ele>697.0</ele><time>2026-04-11T14:16:41.999Z</time></trkpt><trkpt lat="44.43691397676192" lon="10.401119164892547"><ele>697.0</ele><time>2026-04-11T14:16:42.999Z</time></trkpt><trkpt lat="44.436928884440825" lon="10.400970942682012"><ele>697.0</ele><time>2026-04-11T14:16:43.999Z</time></trkpt><trkpt lat="44.43694541556071" lon="10.400818471502014"><ele>695.6</ele><time>2026-04-11T14:16:44.999Z</time></trkpt><trkpt lat="44.4369629201376" lon="10.400674550701284"><ele>694.2</ele><time>2026-04-11T14:16:45.999Z</time></trkpt><trkpt lat="44.43697793151862" lon="10.400538277876311"><ele>692.8</ele><time>2026-04-11T14:16:46.999Z</time></trkpt><trkpt lat="44.436989203497774" lon="10.40040606010965"><ele>691.4</ele><time>2026-04-11T14:16:47.999Z</time></trkpt><trkpt lat="44.437000188478734" lon="10.400278037031688"><ele>690.0</ele><time>2026-04-11T14:16:48.999Z</time></trkpt><trkpt lat="44.437012832669645" lon="10.400155469943355"><ele>689.8333333333334</ele><time>2026-04-11T14:16:49.999Z</time></trkpt><trkpt lat="44.437022459628324" lon="10.400036642739837"><ele>689.6666666666666</ele><time>2026-04-11T14:16:50.999Z</time></trkpt><trkpt lat="44.4370307731978" lon="10.399921130283238"><ele>689.5</ele><time>2026-04-11T14:16:51.999Z</time></trkpt><trkpt lat="44.437041460614985" lon="10.399803513244768"><ele>689.3333333333333</ele><time>2026-04-11T14:16:52.999Z</time></trkpt><trkpt lat="44.437053985905806" lon="10.399682400452502"><ele>689.1666666666666</ele><time>2026-04-11T14:16:53.999Z</time></trkpt><trkpt lat="44.43707218729055" lon="10.399558495948687"><ele>689.0</ele><time>2026-04-11T14:16:54.999Z</time></trkpt><trkpt lat="44.43710445612478" lon="10.399431906242642"><ele>689.4000000000001</ele><time>2026-04-11T14:16:55.999Z</time></trkpt><trkpt lat="44.43714913546057" lon="10.39930237562342"><ele>689.8</ele><time>2026-04-11T14:16:56.999Z</time></trkpt><trkpt lat="44.437203504562135" lon="10.399171946743685"><ele>690.2</ele><time>2026-04-11T14:16:57.999Z</time></trkpt><trkpt lat="44.437264177472834" lon="10.39904102382991"><ele>690.5999999999999</ele><time>2026-04-11T14:16:58.999Z</time></trkpt><trkpt lat="44.437328617620324" lon="10.398910074420073"><ele>691.0</ele><time>2026-04-11T14:16:59.999Z</time></trkpt><trkpt lat="44.43739600581276" lon="10.39877971545981"><ele>691.0</ele><time>2026-04-11T14:17:00.999Z</time></trkpt><trkpt lat="44.43746583578687" lon="10.398651255737947"><ele>691.0</ele><time>2026-04-11T14:17:01.999Z</time></trkpt><trkpt lat="44.43753471370014" lon="10.398521242741454"><ele>691.0</ele><time>2026-04-11T14:17:02.999Z</time></trkpt><trkpt lat="44.43760296280986" lon="10.398392345263051"><ele>691.0</ele><time>2026-04-11T14:17:03.999Z</time></trkpt><trkpt lat="44.43766992272142" lon="10.398263618086816"><ele>691.0</ele><time>2026-04-11T14:17:04.999Z</time></trkpt><trkpt lat="44.437735927228054" lon="10.398135969867415"><ele>691.0</ele><time>2026-04-11T14:17:05.999Z</time></trkpt><trkpt lat="44.43779901100315" lon="10.398011804968696"><ele>691.0</ele><time>2026-04-11T14:17:06.999Z</time></trkpt><trkpt lat="44.437862479357975" lon="10.39789131255786"><ele>691.0</ele><time>2026-04-11T14:17:07.999Z</time></trkpt><trkpt lat="44.43791895400585" lon="10.397779138933425"><ele>691.0</ele><time>2026-04-11T14:17:08.999Z</time></trkpt><trkpt lat="44.437974278190524" lon="10.397667953103172"><ele>691.4</ele><time>2026-04-11T14:17:09.999Z</time></trkpt><trkpt lat="44.43803603434974" lon="10.39755487971157"><ele>691.8</ele><time>2026-04-11T14:17:10.999Z</time></trkpt><trkpt lat="44.438105633173166" lon="10.397443056302006"><ele>692.1999999999999</ele><time>2026-04-11T14:17:11.999Z</time></trkpt><trkpt lat="44.43818263668647" lon="10.39733056794578"><ele>692.5999999999999</ele><time>2026-04-11T14:17:12.999Z</time></trkpt><trkpt lat="44.4382674387416" lon="10.39721581442657"><ele>693.0</ele><time>2026-04-11T14:17:13.999Z</time></trkpt><trkpt lat="44.438360013115584" lon="10.397101104674393"><ele>693.0</ele><time>2026-04-11T14:17:14.999Z</time></trkpt><trkpt lat="44.4384519598892" lon="10.396989725688643"><ele>693.0</ele><time>2026-04-11T14:17:15.999Z</time></trkpt><trkpt lat="44.43854168659708" lon="10.39688348377398"><ele>693.0</ele><time>2026-04-11T14:17:16.999Z</time></trkpt><trkpt lat="44.4386292946194" lon="10.396781132077502"><ele>693.0</ele><time>2026-04-11T14:17:17.999Z</time></trkpt><trkpt lat="44.43871569678851" lon="10.39667221557577"><ele>688.0</ele><time>2026-04-11T14:17:18.999Z</time></trkpt><trkpt lat="44.43880290630651" lon="10.39655783941438"><ele>683.0</ele><time>2026-04-11T14:17:19.999Z</time></trkpt><trkpt lat="44.438888211276094" lon="10.396429729864412"><ele>678.0</ele><time>2026-04-11T14:17:20.999Z</time></trkpt><trkpt lat="44.438965872473716" lon="10.396289843167185"><ele>673.0</ele><time>2026-04-11T14:17:21.999Z</time></trkpt><trkpt lat="44.43903731257524" lon="10.396142359929259"><ele>673.0</ele><time>2026-04-11T14:17:22.999Z</time></trkpt><trkpt lat="44.43911961407065" lon="10.396014687972546"><ele>673.0</ele><time>2026-04-11T14:17:23.999Z</time></trkpt><trkpt lat="44.43917331331935" lon="10.395864373850783"><ele>673.0</ele><time>2026-04-11T14:17:24.999Z</time></trkpt><trkpt lat="44.439244488180584" lon="10.395721020816477"><ele>673.0</ele><time>2026-04-11T14:17:25.999Z</time></trkpt><trkpt lat="44.439314859040074" lon="10.39556764010845"><ele>672.75</ele><time>2026-04-11T14:17:26.999Z</time></trkpt><trkpt lat="44.43937973089528" lon="10.395405517889337"><ele>672.5</ele><time>2026-04-11T14:17:27.999Z</time></trkpt><trkpt lat="44.439438631051246" lon="10.395235903668429"><ele>672.25</ele><time>2026-04-11T14:17:28.999Z</time></trkpt><trkpt lat="44.43949399012642" lon="10.39505504541031"><ele>672.0</ele><time>2026-04-11T14:17:29.999Z</time></trkpt><trkpt lat="44.43954975555878" lon="10.394873685657435"><ele>672.0</ele><time>2026-04-11T14:17:30.999Z</time></trkpt><trkpt lat="44.43960687701933" lon="10.394691413295844"><ele>672.0</ele><time>2026-04-11T14:17:31.999Z</time></trkpt><trkpt lat="44.439661694097836" lon="10.394517637787251"><ele>672.0</ele><time>2026-04-11T14:17:32.999Z</time></trkpt><trkpt lat="44.439709385260386" lon="10.394348057012959"><ele>672.0</ele><time>2026-04-11T14:17:33.999Z</time></trkpt><trkpt lat="44.43975286784005" lon="10.394186320809828"><ele>673.2</ele><time>2026-04-11T14:17:34.999Z</time></trkpt><trkpt lat="44.43979771793487" lon="10.394033713561642"><ele>674.4000000000001</ele><time>2026-04-11T14:17:35.999Z</time></trkpt><trkpt lat="44.43984866041283" lon="10.393895733082385"><ele>675.5999999999999</ele><time>2026-04-11T14:17:36.999Z</time></trkpt><trkpt lat="44.43990758600503" lon="10.39377804363092"><ele>676.8</ele><time>2026-04-11T14:17:37.999Z</time></trkpt><trkpt lat="44.43998376391813" lon="10.393683096119128"><ele>678.0</ele><time>2026-04-11T14:17:38.999Z</time></trkpt><trkpt lat="44.44007899892158" lon="10.393620205559435"><ele>678.0</ele><time>2026-04-11T14:17:39.999Z</time></trkpt><trkpt lat="44.44019036500123" lon="10.39359698250006"><ele>678.0</ele><time>2026-04-11T14:17:40.999Z</time></trkpt><trkpt lat="44.4403048132953" lon="10.393647612668945"><ele>678.0</ele><time>2026-04-11T14:17:41.999Z</time></trkpt><trkpt lat="44.44042039067015" lon="10.393692988441233"><ele>678.0</ele><time>2026-04-11T14:17:42.999Z</time></trkpt><trkpt lat="44.44052638419591" lon="10.39379627909602"><ele>673.75</ele><time>2026-04-11T14:17:43.999Z</time></trkpt><trkpt lat="44.44062603608956" lon="10.393904149548533"><ele>669.5</ele><time>2026-04-11T14:17:44.999Z</time></trkpt><trkpt lat="44.44071661345386" lon="10.394009628761545"><ele>665.25</ele><time>2026-04-11T14:17:45.999Z</time></trkpt><trkpt lat="44.4408019972899" lon="10.394103893522374"><ele>661.0</ele><time>2026-04-11T14:17:46.999Z</time></trkpt><trkpt lat="44.44088072110281" lon="10.394189923273908"><ele>661.0</ele><time>2026-04-11T14:17:47.999Z</time></trkpt><trkpt lat="44.44095644384225" lon="10.394269871868577"><ele>661.0</ele><time>2026-04-11T14:17:48.999Z</time></trkpt><trkpt lat="44.44103431975701" lon="10.394337244944353"><ele>661.0</ele><time>2026-04-11T14:17:49.999Z</time></trkpt><trkpt lat="44.441115014288954" lon="10.39439149675171"><ele>661.0</ele><time>2026-04-11T14:17:50.999Z</time></trkpt><trkpt lat="44.441208685977884" lon="10.39442271801836"><ele>661.0</ele><time>2026-04-11T14:17:51.999Z</time></trkpt><trkpt lat="44.44130484319627" lon="10.394422624249968"><ele>660.5999999999999</ele><time>2026-04-11T14:17:52.999Z</time></trkpt><trkpt lat="44.44139493006223" lon="10.394358116000717"><ele>660.2</ele><time>2026-04-11T14:17:53.999Z</time></trkpt><trkpt lat="44.44147855847976" lon="10.394271732211553"><ele>659.8</ele><time>2026-04-11T14:17:54.999Z</time></trkpt><trkpt lat="44.44151750917632" lon="10.39412502614609"><ele>659.4000000000001</ele><time>2026-04-11T14:17:55.999Z</time></trkpt><trkpt lat="44.44156213876567" lon="10.393983715553931"><ele>659.0</ele><time>2026-04-11T14:17:56.999Z</time></trkpt><trkpt lat="44.44160514128587" lon="10.393831691565357"><ele>658.5</ele><time>2026-04-11T14:17:57.999Z</time></trkpt><trkpt lat="44.441649302470424" lon="10.393673070621881"><ele>658.0</ele><time>2026-04-11T14:17:58.999Z</time></trkpt><trkpt lat="44.441689995248396" lon="10.39350693632041"><ele>657.5</ele><time>2026-04-11T14:17:59.999Z</time></trkpt><trkpt lat="44.44173420925386" lon="10.393345038771512"><ele>657.0</ele><time>2026-04-11T14:18:00.999Z</time></trkpt><trkpt lat="44.44178049747871" lon="10.393188081829726"><ele>657.0</ele><time>2026-04-11T14:18:01.999Z</time></trkpt><trkpt lat="44.44182799732704" lon="10.39303629953763"><ele>657.0</ele><time>2026-04-11T14:18:02.999Z</time></trkpt><trkpt lat="44.44188070711383" lon="10.392892073312241"><ele>657.0</ele><time>2026-04-11T14:18:03.999Z</time></trkpt><trkpt lat="44.441946490692466" lon="10.39275856012065"><ele>657.0</ele><time>2026-04-11T14:18:04.999Z</time></trkpt><trkpt lat="44.442030239846304" lon="10.392645285904319"><ele>654.25</ele><time>2026-04-11T14:18:05.999Z</time></trkpt><trkpt lat="44.44213335603693" lon="10.39256027432972"><ele>651.5</ele><time>2026-04-11T14:18:06.999Z</time></trkpt><trkpt lat="44.44224761288832" lon="10.392504919587148"><ele>648.75</ele><time>2026-04-11T14:18:07.999Z</time></trkpt><trkpt lat="44.4423750442454" lon="10.392477493531102"><ele>646.0</ele><time>2026-04-11T14:18:08.999Z</time></trkpt><trkpt lat="44.442512388111076" lon="10.392499650557086"><ele>646.0</ele><time>2026-04-11T14:18:09.999Z</time></trkpt><trkpt lat="44.44265419563939" lon="10.392481451952047"><ele>646.0</ele><time>2026-04-11T14:18:10.999Z</time></trkpt><trkpt lat="44.442796803198675" lon="10.392471986713595"><ele>646.0</ele><time>2026-04-11T14:18:11.999Z</time></trkpt><trkpt lat="44.44293290521666" lon="10.392448833549249"><ele>646.0</ele><time>2026-04-11T14:18:12.999Z</time></trkpt><trkpt lat="44.44306222191901" lon="10.392425066453093"><ele>647.25</ele><time>2026-04-11T14:18:13.999Z</time></trkpt><trkpt lat="44.44318215761749" lon="10.392399500835984"><ele>648.5</ele><time>2026-04-11T14:18:14.999Z</time></trkpt><trkpt lat="44.4432990169951" lon="10.392362980147036"><ele>649.75</ele><time>2026-04-11T14:18:15.999Z</time></trkpt><trkpt lat="44.44341219515155" lon="10.392320103258172"><ele>651.0</ele><time>2026-04-11T14:18:16.999Z</time></trkpt><trkpt lat="44.44352842870231" lon="10.392275493046105"><ele>651.0</ele><time>2026-04-11T14:18:17.999Z</time></trkpt><trkpt lat="44.44363987305393" lon="10.392228204964265"><ele>651.0</ele><time>2026-04-11T14:18:18.999Z</time></trkpt><trkpt lat="44.44374707749273" lon="10.392185632376496"><ele>651.0</ele><time>2026-04-11T14:18:19.999Z</time></trkpt><trkpt lat="44.44384796403888" lon="10.392145029152505"><ele>651.0</ele><time>2026-04-11T14:18:20.999Z</time></trkpt><trkpt lat="44.443940094490905" lon="10.392105463775607"><ele>651.0</ele><time>2026-04-11T14:18:21.999Z</time></trkpt><trkpt lat="44.444030775857534" lon="10.392070825229109"><ele>651.1666666666666</ele><time>2026-04-11T14:18:22.999Z</time></trkpt><trkpt lat="44.44412074353334" lon="10.392040742134729"><ele>651.3333333333334</ele><time>2026-04-11T14:18:23.999Z</time></trkpt><trkpt lat="44.44419688740294" lon="10.392020994324005"><ele>651.5</ele><time>2026-04-11T14:18:24.999Z</time></trkpt><trkpt lat="44.44428382647335" lon="10.392007309953403"><ele>651.6666666666667</ele><time>2026-04-11T14:18:26.999Z</time></trkpt><trkpt lat="44.44436254802582" lon="10.392011262253167"><ele>651.8333333333334</ele><time>2026-04-11T14:18:32.999Z</time></trkpt><trkpt lat="44.44436183625711" lon="10.391856163204992"><ele>652.0</ele><time>2026-04-11T14:18:33.999Z</time></trkpt><trkpt lat="44.44434176828385" lon="10.391750044144194"><ele>652.0</ele><time>2026-04-11T14:18:34.999Z</time></trkpt><trkpt lat="44.4443492218661" lon="10.391641748025144"><ele>652.0</ele><time>2026-04-11T14:18:35.999Z</time></trkpt><trkpt lat="44.444338376716885" lon="10.391503287104817"><ele>652.0</ele><time>2026-04-11T14:18:36.999Z</time></trkpt><trkpt lat="44.44432838304598" lon="10.391354049924765"><ele>652.0</ele><time>2026-04-11T14:18:37.999Z</time></trkpt><trkpt lat="44.44431949526601" lon="10.391194698159664"><ele>652.0</ele><time>2026-04-11T14:18:38.999Z</time></trkpt><trkpt lat="44.44431018628132" lon="10.391027794560408"><ele>649.5</ele><time>2026-04-11T14:18:39.999Z</time></trkpt><trkpt lat="44.4443002554999" lon="10.390850824748059"><ele>647.0</ele><time>2026-04-11T14:18:40.999Z</time></trkpt><trkpt lat="44.44428970951817" lon="10.390666065674493"><ele>644.5</ele><time>2026-04-11T14:18:41.999Z</time></trkpt><trkpt lat="44.44427956326087" lon="10.390488309574952"><ele>642.0</ele><time>2026-04-11T14:18:42.999Z</time></trkpt><trkpt lat="44.44427054942307" lon="10.390312202507902"><ele>640.8000000000001</ele><time>2026-04-11T14:18:43.999Z</time></trkpt><trkpt lat="44.444263155382096" lon="10.390147800316486"><ele>639.6</ele><time>2026-04-11T14:18:44.999Z</time></trkpt><trkpt lat="44.44425984686622" lon="10.389988781838365"><ele>638.4000000000001</ele><time>2026-04-11T14:18:45.999Z</time></trkpt><trkpt lat="44.44427225315898" lon="10.38984823320351"><ele>637.2</ele><time>2026-04-11T14:18:46.999Z</time></trkpt><trkpt lat="44.444306950001696" lon="10.389727644487037"><ele>636.0</ele><time>2026-04-11T14:18:47.999Z</time></trkpt><trkpt lat="44.44435195653877" lon="10.389614295312512"><ele>634.8</ele><time>2026-04-11T14:18:48.999Z</time></trkpt><trkpt lat="44.44440540252935" lon="10.389493210118449"><ele>633.6</ele><time>2026-04-11T14:18:49.999Z</time></trkpt><trkpt lat="44.44446865297803" lon="10.389386407477051"><ele>632.4</ele><time>2026-04-11T14:18:50.999Z</time></trkpt><trkpt lat="44.44454321486099" lon="10.38931274191474"><ele>631.2</ele><time>2026-04-11T14:18:51.999Z</time></trkpt><trkpt lat="44.444635796304205" lon="10.389292313241212"><ele>630.0</ele><time>2026-04-11T14:18:52.999Z</time></trkpt><trkpt lat="44.44473537441047" lon="10.38929318615802"><ele>628.4</ele><time>2026-04-11T14:18:53.999Z</time></trkpt><trkpt lat="44.44484526586836" lon="10.38927043233418"><ele>626.8</ele><time>2026-04-11T14:18:54.999Z</time></trkpt><trkpt lat="44.444938626512794" lon="10.389189021074028"><ele>625.2</ele><time>2026-04-11T14:18:55.999Z</time></trkpt><trkpt lat="44.445031253284675" lon="10.389115361701805"><ele>623.6</ele><time>2026-04-11T14:18:56.999Z</time></trkpt><trkpt lat="44.44511382353609" lon="10.389030757684411"><ele>622.0</ele><time>2026-04-11T14:18:57.999Z</time></trkpt><trkpt lat="44.445182944749064" lon="10.388950525319334"><ele>622.0</ele><time>2026-04-11T14:18:58.999Z</time></trkpt><trkpt lat="44.44522867551549" lon="10.38886512455072"><ele>622.0</ele><time>2026-04-11T14:18:59.999Z</time></trkpt><trkpt lat="44.44524267999103" lon="10.388768549178316"><ele>622.0</ele><time>2026-04-11T14:19:00.999Z</time></trkpt><trkpt lat="44.445229929637364" lon="10.388659185828365"><ele>622.0</ele><time>2026-04-11T14:19:01.999Z</time></trkpt><trkpt lat="44.44521690829853" lon="10.388538991354949"><ele>622.0</ele><time>2026-04-11T14:19:02.999Z</time></trkpt><trkpt lat="44.44523468834644" lon="10.388408268416258"><ele>622.0</ele><time>2026-04-11T14:19:03.999Z</time></trkpt><trkpt lat="44.44524247873474" lon="10.388283882395788"><ele>621.2</ele><time>2026-04-11T14:19:04.999Z</time></trkpt><trkpt lat="44.44525261002633" lon="10.388159356182022"><ele>620.4000000000001</ele><time>2026-04-11T14:19:05.999Z</time></trkpt><trkpt lat="44.445264319696896" lon="10.388037178324835"><ele>619.5999999999999</ele><time>2026-04-11T14:19:06.999Z</time></trkpt><trkpt lat="44.44527910745688" lon="10.387924799852781"><ele>618.8</ele><time>2026-04-11T14:19:07.999Z</time></trkpt><trkpt lat="44.44529737648432" lon="10.387820193058346"><ele>618.0</ele><time>2026-04-11T14:19:08.999Z</time></trkpt><trkpt lat="44.44533196673795" lon="10.387655436965913"><ele>617.0</ele><time>2026-04-11T14:19:11.999Z</time></trkpt><trkpt lat="44.44538432560518" lon="10.387582931706758"><ele>616.0</ele><time>2026-04-11T14:19:15.999Z</time></trkpt><trkpt lat="44.44544555080488" lon="10.387547918052977"><ele>615.0</ele><time>2026-04-11T14:19:18.999Z</time></trkpt><trkpt lat="44.44550757507512" lon="10.387505054492932"><ele>614.0</ele><time>2026-04-11T14:19:21.999Z</time></trkpt><trkpt lat="44.44556333634168" lon="10.387461523946682"><ele>613.0</ele><time>2026-04-11T14:19:24.999Z</time></trkpt><trkpt lat="44.44564957898991" lon="10.387407933836801"><ele>612.0</ele><time>2026-04-11T14:19:28.999Z</time></trkpt><trkpt lat="44.44572363467911" lon="10.387301026383811"><ele>610.6666666666666</ele><time>2026-04-11T14:19:30.999Z</time></trkpt><trkpt lat="44.44574149636763" lon="10.387164566308721"><ele>609.3333333333334</ele><time>2026-04-11T14:19:32.999Z</time></trkpt><trkpt lat="44.44575933658336" lon="10.387017480543019"><ele>608.0</ele><time>2026-04-11T14:19:34.999Z</time></trkpt><trkpt lat="44.44576108659181" lon="10.386919698810344"><ele>606.6666666666667</ele><time>2026-04-11T14:19:35.999Z</time></trkpt><trkpt lat="44.44576305074246" lon="10.386809952060142"><ele>605.3333333333334</ele><time>2026-04-11T14:19:36.999Z</time></trkpt><trkpt lat="44.445766359731195" lon="10.386694592402632"><ele>604.0</ele><time>2026-04-11T14:19:37.999Z</time></trkpt><trkpt lat="44.44576942002694" lon="10.386591766434165"><ele>604.0</ele><time>2026-04-11T14:19:38.999Z</time></trkpt><trkpt lat="44.445762650687435" lon="10.386454399237227"><ele>604.0</ele><time>2026-04-11T14:19:40.999Z</time></trkpt><trkpt lat="44.44576742710352" lon="10.386627462734488"><ele>604.0</ele><time>2026-04-11T14:19:54.999Z</time></trkpt><trkpt lat="44.4457324288862" lon="10.386763103089239"><ele>604.0</ele><time>2026-04-11T14:19:55.999Z</time></trkpt><trkpt lat="44.445733972748044" lon="10.386911682380982"><ele>604.0</ele><time>2026-04-11T14:19:56.999Z</time></trkpt><trkpt lat="44.44573375027277" lon="10.38705604418308"><ele>604.0</ele><time>2026-04-11T14:19:57.999Z</time></trkpt><trkpt lat="44.44572946743524" lon="10.387172880923552"><ele>604.0</ele><time>2026-04-11T14:19:58.999Z</time></trkpt><trkpt lat="44.445707982761675" lon="10.387270922882353"><ele>604.0</ele><time>2026-04-11T14:19:59.999Z</time></trkpt><trkpt lat="44.445661231594606" lon="10.387352678769867"><ele>604.0</ele><time>2026-04-11T14:20:00.999Z</time></trkpt><trkpt lat="44.44559585452141" lon="10.387432743492615"><ele>604.0</ele><time>2026-04-11T14:20:01.999Z</time></trkpt><trkpt lat="44.445509402444024" lon="10.38750467325115"><ele>604.0</ele><time>2026-04-11T14:20:02.999Z</time></trkpt><trkpt lat="44.44541329615579" lon="10.38755565791067"><ele>606.0</ele><time>2026-04-11T14:20:03.999Z</time></trkpt><trkpt lat="44.44532703122539" lon="10.387634215981679"><ele>608.0</ele><time>2026-04-11T14:20:04.999Z</time></trkpt><trkpt lat="44.44526683581223" lon="10.387764529705999"><ele>610.0</ele><time>2026-04-11T14:20:05.999Z</time></trkpt><trkpt lat="44.445239416457845" lon="10.387946116840736"><ele>612.0</ele><time>2026-04-11T14:20:06.999Z</time></trkpt><trkpt lat="44.44522108912566" lon="10.388164683789853"><ele>613.5</ele><time>2026-04-11T14:20:07.999Z</time></trkpt><trkpt lat="44.44520298340824" lon="10.388404575142427"><ele>615.0</ele><time>2026-04-11T14:20:08.999Z</time></trkpt><trkpt lat="44.44519305145858" lon="10.3886078295149"><ele>616.5</ele><time>2026-04-11T14:20:09.999Z</time></trkpt><trkpt lat="44.445190537580885" lon="10.388748236937873"><ele>618.0</ele><time>2026-04-11T14:20:10.999Z</time></trkpt><trkpt lat="44.44518918350772" lon="10.388838379190293"><ele>618.8</ele><time>2026-04-11T14:20:11.999Z</time></trkpt><trkpt lat="44.4451465485461" lon="10.388974390056358"><ele>619.5999999999999</ele><time>2026-04-11T14:20:13.999Z</time></trkpt><trkpt lat="44.445095660063075" lon="10.38904132250589"><ele>620.4000000000001</ele><time>2026-04-11T14:20:14.999Z</time></trkpt><trkpt lat="44.44501959328923" lon="10.38911664128835"><ele>621.2</ele><time>2026-04-11T14:20:15.999Z</time></trkpt><trkpt lat="44.444917165024656" lon="10.389174836150952"><ele>622.0</ele><time>2026-04-11T14:20:16.999Z</time></trkpt><trkpt lat="44.444829116915145" lon="10.389225068897142"><ele>622.0</ele><time>2026-04-11T14:20:17.999Z</time></trkpt><trkpt lat="44.4447540230111" lon="10.389249534808112"><ele>622.0</ele><time>2026-04-11T14:20:18.999Z</time></trkpt><trkpt lat="44.44466870479273" lon="10.389249414993573"><ele>622.0</ele><time>2026-04-11T14:20:19.999Z</time></trkpt><trkpt lat="44.44457464710292" lon="10.389282991804357"><ele>622.0</ele><time>2026-04-11T14:20:20.999Z</time></trkpt><trkpt lat="44.44447780743967" lon="10.389322814168455"><ele>622.0</ele><time>2026-04-11T14:20:21.999Z</time></trkpt><trkpt lat="44.44439691354546" lon="10.389413527054439"><ele>623.6</ele><time>2026-04-11T14:20:22.999Z</time></trkpt><trkpt lat="44.44433901033755" lon="10.389546419587115"><ele>625.2</ele><time>2026-04-11T14:20:23.999Z</time></trkpt><trkpt lat="44.444297387073924" lon="10.389674964878923"><ele>626.8</ele><time>2026-04-11T14:20:24.999Z</time></trkpt><trkpt lat="44.44426180118877" lon="10.389793022492878"><ele>628.4</ele><time>2026-04-11T14:20:25.999Z</time></trkpt><trkpt lat="44.44422623704817" lon="10.389916399431604"><ele>630.0</ele><time>2026-04-11T14:20:26.999Z</time></trkpt><trkpt lat="44.444211069161916" lon="10.390043462422197"><ele>631.2</ele><time>2026-04-11T14:20:27.999Z</time></trkpt><trkpt lat="44.444225854615034" lon="10.390199471080672"><ele>632.4</ele><time>2026-04-11T14:20:28.999Z</time></trkpt><trkpt lat="44.444248900857325" lon="10.390357824311591"><ele>633.6</ele><time>2026-04-11T14:20:29.999Z</time></trkpt><trkpt lat="44.44426018834307" lon="10.390504028634963"><ele>634.8</ele><time>2026-04-11T14:20:30.999Z</time></trkpt><trkpt lat="44.44426422942336" lon="10.390617631678404"><ele>636.0</ele><time>2026-04-11T14:20:31.999Z</time></trkpt><trkpt lat="44.44426544743682" lon="10.390750844150075"><ele>637.2</ele><time>2026-04-11T14:20:33.999Z</time></trkpt><trkpt lat="44.44426853137922" lon="10.390880171507169"><ele>638.4000000000001</ele><time>2026-04-11T14:20:44.999Z</time></trkpt><trkpt lat="44.44427510579752" lon="10.390997565278575"><ele>639.6</ele><time>2026-04-11T14:20:45.999Z</time></trkpt><trkpt lat="44.444299065672844" lon="10.391157900129365"><ele>640.8000000000001</ele><time>2026-04-11T14:20:46.999Z</time></trkpt><trkpt lat="44.44430339078565" lon="10.391365547448153"><ele>642.0</ele><time>2026-04-11T14:20:47.999Z</time></trkpt><trkpt lat="44.444319635768345" lon="10.391572913140322"><ele>642.0</ele><time>2026-04-11T14:20:48.999Z</time></trkpt><trkpt lat="44.44433189569413" lon="10.39171597420854"><ele>642.0</ele><time>2026-04-11T14:20:49.999Z</time></trkpt><trkpt lat="44.44434296663207" lon="10.391815339181727"><ele>642.0</ele><time>2026-04-11T14:20:50.999Z</time></trkpt><trkpt lat="44.44432914571653" lon="10.391633170716549"><ele>642.0</ele><time>2026-04-11T14:21:08.999Z</time></trkpt><trkpt lat="44.444303431438094" lon="10.391459422872146"><ele>642.0</ele><time>2026-04-11T14:21:09.999Z</time></trkpt><trkpt lat="44.44428272115131" lon="10.39125415843768"><ele>642.0</ele><time>2026-04-11T14:21:10.999Z</time></trkpt><trkpt lat="44.44427235592986" lon="10.391023421254253"><ele>642.0</ele><time>2026-04-11T14:21:11.999Z</time></trkpt><trkpt lat="44.44427187793234" lon="10.39078271297834"><ele>642.0</ele><time>2026-04-11T14:21:12.999Z</time></trkpt><trkpt lat="44.44427186123784" lon="10.39055779405833"><ele>640.5</ele><time>2026-04-11T14:21:13.999Z</time></trkpt><trkpt lat="44.44426048402046" lon="10.390345023717865"><ele>639.0</ele><time>2026-04-11T14:21:14.999Z</time></trkpt><trkpt lat="44.44424202662585" lon="10.39014943842402"><ele>637.5</ele><time>2026-04-11T14:21:15.999Z</time></trkpt><trkpt lat="44.44423545223089" lon="10.389985739384095"><ele>636.0</ele><time>2026-04-11T14:21:16.999Z</time></trkpt><trkpt lat="44.44427315124925" lon="10.38983990070851"><ele>636.0</ele><time>2026-04-11T14:21:17.999Z</time></trkpt><trkpt lat="44.44431358623444" lon="10.3897171547985"><ele>636.0</ele><time>2026-04-11T14:21:18.999Z</time></trkpt><trkpt lat="44.44435816552347" lon="10.389598542109528"><ele>636.0</ele><time>2026-04-11T14:21:19.999Z</time></trkpt><trkpt lat="44.44441331796159" lon="10.38948125301176"><ele>636.0</ele><time>2026-04-11T14:21:20.999Z</time></trkpt><trkpt lat="44.4444731078276" lon="10.389365201013518"><ele>636.0</ele><time>2026-04-11T14:21:21.999Z</time></trkpt><trkpt lat="44.44456504942106" lon="10.389295629678296"><ele>633.2</ele><time>2026-04-11T14:21:22.999Z</time></trkpt><trkpt lat="44.44466859268485" lon="10.389274504438157"><ele>630.4000000000001</ele><time>2026-04-11T14:21:23.999Z</time></trkpt><trkpt lat="44.44477198130999" lon="10.38926869657022"><ele>627.6</ele><time>2026-04-11T14:21:24.999Z</time></trkpt><trkpt lat="44.44487080597913" lon="10.389239692706605"><ele>624.8000000000001</ele><time>2026-04-11T14:21:25.999Z</time></trkpt><trkpt lat="44.44496504677761" lon="10.389170840027598"><ele>622.0</ele><time>2026-04-11T14:21:26.999Z</time></trkpt><trkpt lat="44.44506164702565" lon="10.389105674547203"><ele>622.0</ele><time>2026-04-11T14:21:27.999Z</time></trkpt><trkpt lat="44.445144558362784" lon="10.389013568467542"><ele>622.0</ele><time>2026-04-11T14:21:28.999Z</time></trkpt><trkpt lat="44.44520666958062" lon="10.388905600834125"><ele>622.0</ele><time>2026-04-11T14:21:29.999Z</time></trkpt><trkpt lat="44.445230506530145" lon="10.38878020790247"><ele>622.0</ele><time>2026-04-11T14:21:30.999Z</time></trkpt><trkpt lat="44.445225564430174" lon="10.388634713651303"><ele>622.0</ele><time>2026-04-11T14:21:31.999Z</time></trkpt><trkpt lat="44.445231347777906" lon="10.388485448254283"><ele>621.2</ele><time>2026-04-11T14:21:32.999Z</time></trkpt><trkpt lat="44.445239301874416" lon="10.388331781036158"><ele>620.4000000000001</ele><time>2026-04-11T14:21:33.999Z</time></trkpt><trkpt lat="44.44525001139872" lon="10.388190217981833"><ele>619.5999999999999</ele><time>2026-04-11T14:21:34.999Z</time></trkpt><trkpt lat="44.44526238206308" lon="10.388054570170159"><ele>618.8</ele><time>2026-04-11T14:21:35.999Z</time></trkpt><trkpt lat="44.44527938321035" lon="10.387922998479171"><ele>618.0</ele><time>2026-04-11T14:21:36.999Z</time></trkpt><trkpt lat="44.445301668045595" lon="10.387797713572725"><ele>616.8</ele><time>2026-04-11T14:21:37.999Z</time></trkpt><trkpt lat="44.44531965888151" lon="10.387677496679295"><ele>615.5999999999999</ele><time>2026-04-11T14:21:38.999Z</time></trkpt><trkpt lat="44.44538530322931" lon="10.387587484081331"><ele>614.4000000000001</ele><time>2026-04-11T14:21:39.999Z</time></trkpt><trkpt lat="44.44547247756922" lon="10.387521048059666"><ele>613.2</ele><time>2026-04-11T14:21:40.999Z</time></trkpt><trkpt lat="44.44556959145581" lon="10.387458134177763"><ele>612.0</ele><time>2026-04-11T14:21:41.999Z</time></trkpt><trkpt lat="44.44566654952888" lon="10.387390426261604"><ele>610.6</ele><time>2026-04-11T14:21:42.999Z</time></trkpt><trkpt lat="44.44572948981472" lon="10.387281008594105"><ele>609.2</ele><time>2026-04-11T14:21:43.999Z</time></trkpt><trkpt lat="44.44576081540926" lon="10.38715842624112"><ele>607.8</ele><time>2026-04-11T14:21:44.999Z</time></trkpt><trkpt lat="44.44574580926293" lon="10.38700898824808"><ele>606.4</ele><time>2026-04-11T14:21:45.999Z</time></trkpt><trkpt lat="44.4457623480054" lon="10.386849217607473"><ele>605.0</ele><time>2026-04-11T14:21:46.999Z</time></trkpt><trkpt lat="44.44576665648398" lon="10.386684621579795"><ele>604.8</ele><time>2026-04-11T14:21:47.999Z</time></trkpt><trkpt lat="44.44577128549943" lon="10.386529086593436"><ele>604.6</ele><time>2026-04-11T14:21:48.999Z</time></trkpt><trkpt lat="44.4457757369807" lon="10.386379519043354"><ele>604.4</ele><time>2026-04-11T14:21:49.999Z</time></trkpt><trkpt lat="44.445779655701344" lon="10.38624007901973"><ele>604.2</ele><time>2026-04-11T14:21:50.999Z</time></trkpt><trkpt lat="44.44578337882677" lon="10.386110100960467"><ele>604.0</ele><time>2026-04-11T14:21:51.999Z</time></trkpt><trkpt lat="44.44578191231563" lon="10.385986430722514"><ele>603.8333333333334</ele><time>2026-04-11T14:21:52.999Z</time></trkpt><trkpt lat="44.44578086945488" lon="10.385870123929637"><ele>603.6666666666667</ele><time>2026-04-11T14:21:54Z</time></trkpt><trkpt lat="44.4457767479313" lon="10.385754415617692"><ele>603.5</ele><time>2026-04-11T14:21:55Z</time></trkpt><trkpt lat="44.44577105095635" lon="10.385635787878451"><ele>603.3333333333334</ele><time>2026-04-11T14:21:56Z</time></trkpt><trkpt lat="44.44576901768983" lon="10.385522527945394"><ele>603.1666666666666</ele><time>2026-04-11T14:21:57Z</time></trkpt><trkpt lat="44.44575299339698" lon="10.385399211938218"><ele>603.0</ele><time>2026-04-11T14:21:58Z</time></trkpt><trkpt lat="44.44571086730997" lon="10.385273882533374"><ele>602.25</ele><time>2026-04-11T14:21:59Z</time></trkpt><trkpt lat="44.44565654262876" lon="10.385133750109828"><ele>601.5</ele><time>2026-04-11T14:22:00Z</time></trkpt><trkpt lat="44.445586576671595" lon="10.384983959306984"><ele>600.75</ele><time>2026-04-11T14:22:01Z</time></trkpt><trkpt lat="44.44551732537036" lon="10.38484967053795"><ele>600.0</ele><time>2026-04-11T14:22:02Z</time></trkpt><trkpt lat="44.445454759140006" lon="10.384725859806325"><ele>599.0</ele><time>2026-04-11T14:22:03Z</time></trkpt><trkpt lat="44.44540494938355" lon="10.384599348714318"><ele>598.0</ele><time>2026-04-11T14:22:04Z</time></trkpt><trkpt lat="44.44536051855578" lon="10.384477975543135"><ele>597.0</ele><time>2026-04-11T14:22:05Z</time></trkpt><trkpt lat="44.44532033719777" lon="10.384365331965604"><ele>596.0</ele><time>2026-04-11T14:22:06Z</time></trkpt><trkpt lat="44.44528493098393" lon="10.384274243807283"><ele>595.0</ele><time>2026-04-11T14:22:07Z</time></trkpt><trkpt lat="44.44524096121058" lon="10.38419744972988"><ele>594.0</ele><time>2026-04-11T14:22:08Z</time></trkpt><trkpt lat="44.44517175840906" lon="10.384160950084041"><ele>594.0</ele><time>2026-04-11T14:22:09Z</time></trkpt><trkpt lat="44.44510490953702" lon="10.384120447569682"><ele>594.0</ele><time>2026-04-11T14:22:10Z</time></trkpt><trkpt lat="44.44501171988476" lon="10.384166015633236"><ele>594.0</ele><time>2026-04-11T14:22:11Z</time></trkpt><trkpt lat="44.44491373535509" lon="10.38418555677409"><ele>594.0</ele><time>2026-04-11T14:22:12Z</time></trkpt><trkpt lat="44.44480897803666" lon="10.384206989681159"><ele>594.0</ele><time>2026-04-11T14:22:13Z</time></trkpt><trkpt lat="44.444701732008056" lon="10.38420051158547"><ele>594.0</ele><time>2026-04-11T14:22:14Z</time></trkpt><trkpt lat="44.44460044810609" lon="10.384210532185957"><ele>594.0</ele><time>2026-04-11T14:22:15Z</time></trkpt><trkpt lat="44.44451087367313" lon="10.384219681523273"><ele>594.0</ele><time>2026-04-11T14:22:16Z</time></trkpt><trkpt lat="44.444435149520906" lon="10.38415553217958"><ele>594.0</ele><time>2026-04-11T14:22:17Z</time></trkpt><trkpt lat="44.444389384271055" lon="10.384056601652567"><ele>594.0</ele><time>2026-04-11T14:22:18Z</time></trkpt><trkpt lat="44.4443458157459" lon="10.383954144331003"><ele>594.0</ele><time>2026-04-11T14:22:19Z</time></trkpt><trkpt lat="44.44429891337183" lon="10.383826284719065"><ele>593.0</ele><time>2026-04-11T14:22:20Z</time></trkpt><trkpt lat="44.44423548785448" lon="10.383719844967295"><ele>592.0</ele><time>2026-04-11T14:22:21Z</time></trkpt><trkpt lat="44.444162372732535" lon="10.3836449934218"><ele>591.0</ele><time>2026-04-11T14:22:22Z</time></trkpt><trkpt lat="44.44411014667628" lon="10.383557874255844"><ele>590.0</ele><time>2026-04-11T14:22:23Z</time></trkpt><trkpt lat="44.44404502745215" lon="10.383471185463032"><ele>589.0</ele><time>2026-04-11T14:22:24Z</time></trkpt><trkpt lat="44.44398193911617" lon="10.383348161067477"><ele>589.0</ele><time>2026-04-11T14:22:25Z</time></trkpt><trkpt lat="44.44394642019149" lon="10.383166218329066"><ele>589.0</ele><time>2026-04-11T14:22:26Z</time></trkpt><trkpt lat="44.44392414423474" lon="10.382949177089555"><ele>589.0</ele><time>2026-04-11T14:22:27Z</time></trkpt><trkpt lat="44.44389757701541" lon="10.382697200240077"><ele>588.75</ele><time>2026-04-11T14:22:28Z</time></trkpt><trkpt lat="44.4438611717103" lon="10.382480853136494"><ele>588.5</ele><time>2026-04-11T14:22:29Z</time></trkpt><trkpt lat="44.44385733114645" lon="10.382312855713314"><ele>588.25</ele><time>2026-04-11T14:22:30Z</time></trkpt><trkpt lat="44.44380783126255" lon="10.382171385945322"><ele>588.0</ele><time>2026-04-11T14:22:31Z</time></trkpt><trkpt lat="44.44375589402127" lon="10.38204280166282"><ele>591.6</ele><time>2026-04-11T14:22:32Z</time></trkpt><trkpt lat="44.44368306367386" lon="10.381939452449142"><ele>595.1999999999999</ele><time>2026-04-11T14:22:33Z</time></trkpt><trkpt lat="44.44362911242579" lon="10.381818447406514"><ele>598.8</ele><time>2026-04-11T14:22:34Z</time></trkpt><trkpt lat="44.44356310336786" lon="10.381710228009133"><ele>602.4</ele><time>2026-04-11T14:22:35Z</time></trkpt><trkpt lat="44.44349917267803" lon="10.381600870808528"><ele>606.0</ele><time>2026-04-11T14:22:36Z</time></trkpt><trkpt lat="44.44342343543784" lon="10.381497434199444"><ele>606.0</ele><time>2026-04-11T14:22:37Z</time></trkpt><trkpt lat="44.44336020234343" lon="10.381370631232258"><ele>606.0</ele><time>2026-04-11T14:22:38Z</time></trkpt><trkpt lat="44.44330875608598" lon="10.38123131969196"><ele>606.0</ele><time>2026-04-11T14:22:39Z</time></trkpt><trkpt lat="44.44329442814638" lon="10.38108314910083"><ele>606.0</ele><time>2026-04-11T14:22:40Z</time></trkpt><trkpt lat="44.443330970480766" lon="10.380936442304089"><ele>606.0</ele><time>2026-04-11T14:22:41Z</time></trkpt><trkpt lat="44.44339079687198" lon="10.38080347008144"><ele>606.4</ele><time>2026-04-11T14:22:42Z</time></trkpt><trkpt lat="44.44346009113377" lon="10.380666264138982"><ele>606.8</ele><time>2026-04-11T14:22:43Z</time></trkpt><trkpt lat="44.44352095681941" lon="10.38052876769907"><ele>607.1999999999999</ele><time>2026-04-11T14:22:44Z</time></trkpt><trkpt lat="44.44357247232025" lon="10.380402457057494"><ele>607.6</ele><time>2026-04-11T14:22:45Z</time></trkpt><trkpt lat="44.44360626324705" lon="10.380294975320874"><ele>608.0</ele><time>2026-04-11T14:22:46Z</time></trkpt><trkpt lat="44.44361559477974" lon="10.380196010569387"><ele>609.1999999999999</ele><time>2026-04-11T14:22:47Z</time></trkpt><trkpt lat="44.4435909381238" lon="10.380085477585526"><ele>610.4</ele><time>2026-04-11T14:22:48Z</time></trkpt><trkpt lat="44.44353523035163" lon="10.379979203287668"><ele>611.5999999999999</ele><time>2026-04-11T14:22:49Z</time></trkpt><trkpt lat="44.44345396023384" lon="10.379875282449108"><ele>612.8</ele><time>2026-04-11T14:22:50Z</time></trkpt><trkpt lat="44.44336458073682" lon="10.37978071829144"><ele>614.0</ele><time>2026-04-11T14:22:51Z</time></trkpt><trkpt lat="44.44328335143941" lon="10.379672655263287"><ele>614.0</ele><time>2026-04-11T14:22:52Z</time></trkpt><trkpt lat="44.4431874680519" lon="10.37960358548565"><ele>614.0</ele><time>2026-04-11T14:22:53Z</time></trkpt><trkpt lat="44.443105413815886" lon="10.37950915460822"><ele>614.0</ele><time>2026-04-11T14:22:54Z</time></trkpt><trkpt lat="44.443021610466126" lon="10.379422594660076"><ele>614.0</ele><time>2026-04-11T14:22:55Z</time></trkpt><trkpt lat="44.442930883974725" lon="10.379338963251032"><ele>614.0</ele><time>2026-04-11T14:22:56Z</time></trkpt><trkpt lat="44.442842688079224" lon="10.379247468554206"><ele>617.0</ele><time>2026-04-11T14:22:57Z</time></trkpt><trkpt lat="44.44275644419569" lon="10.37914945277837"><ele>620.0</ele><time>2026-04-11T14:22:58Z</time></trkpt><trkpt lat="44.44267040139594" lon="10.379047433604326"><ele>623.0</ele><time>2026-04-11T14:22:59Z</time></trkpt><trkpt lat="44.442585465992686" lon="10.37893710821866"><ele>626.0</ele><time>2026-04-11T14:23:00Z</time></trkpt><trkpt lat="44.44250285502906" lon="10.378820272781038"><ele>626.0</ele><time>2026-04-11T14:23:01Z</time></trkpt><trkpt lat="44.44241929310848" lon="10.378697767659068"><ele>626.0</ele><time>2026-04-11T14:23:02Z</time></trkpt><trkpt lat="44.44235575150517" lon="10.378571737739449"><ele>626.0</ele><time>2026-04-11T14:23:03Z</time></trkpt><trkpt lat="44.44229721953597" lon="10.37845144572141"><ele>626.0</ele><time>2026-04-11T14:23:04Z</time></trkpt><trkpt lat="44.44223404929249" lon="10.378347751205645"><ele>626.0</ele><time>2026-04-11T14:23:05Z</time></trkpt><trkpt lat="44.44215464215042" lon="10.378262394048463"><ele>628.6</ele><time>2026-04-11T14:23:06Z</time></trkpt><trkpt lat="44.442074346614696" lon="10.378164011205977"><ele>631.2</ele><time>2026-04-11T14:23:07Z</time></trkpt><trkpt lat="44.44198315744183" lon="10.37807986642956"><ele>633.8</ele><time>2026-04-11T14:23:08Z</time></trkpt><trkpt lat="44.44188858019047" lon="10.378012518033957"><ele>636.4</ele><time>2026-04-11T14:23:09Z</time></trkpt><trkpt lat="44.44180907761657" lon="10.377931601545786"><ele>639.0</ele><time>2026-04-11T14:23:10Z</time></trkpt><trkpt lat="44.44175997734735" lon="10.37781334587852"><ele>639.0</ele><time>2026-04-11T14:23:11Z</time></trkpt><trkpt lat="44.441720835491125" lon="10.37770253666755"><ele>639.0</ele><time>2026-04-11T14:23:12Z</time></trkpt><trkpt lat="44.44166117685961" lon="10.37759436179889"><ele>639.0</ele><time>2026-04-11T14:23:13Z</time></trkpt><trkpt lat="44.4416162698211" lon="10.37746999744271"><ele>639.0</ele><time>2026-04-11T14:23:14Z</time></trkpt><trkpt lat="44.441589172672685" lon="10.377334812580175"><ele>639.0</ele><time>2026-04-11T14:23:15Z</time></trkpt><trkpt lat="44.441533697753364" lon="10.377217437674714"><ele>638.6</ele><time>2026-04-11T14:23:16Z</time></trkpt><trkpt lat="44.44150130952365" lon="10.37710639775568"><ele>638.2</ele><time>2026-04-11T14:23:17Z</time></trkpt><trkpt lat="44.44146244374932" lon="10.376992304611091"><ele>637.8000000000001</ele><time>2026-04-11T14:23:18Z</time></trkpt><trkpt lat="44.44140920026386" lon="10.376881921734023"><ele>637.4</ele><time>2026-04-11T14:23:19Z</time></trkpt><trkpt lat="44.441336397828074" lon="10.376785060129793"><ele>637.0</ele><time>2026-04-11T14:23:20Z</time></trkpt><trkpt lat="44.441267725730754" lon="10.376670921843955"><ele>639.6</ele><time>2026-04-11T14:23:21Z</time></trkpt><trkpt lat="44.441190142288" lon="10.376560224055572"><ele>642.2</ele><time>2026-04-11T14:23:22Z</time></trkpt><trkpt lat="44.44112182474465" lon="10.376458206150922"><ele>644.8</ele><time>2026-04-11T14:23:23Z</time></trkpt><trkpt lat="44.441070343838604" lon="10.376364902912503"><ele>647.4</ele><time>2026-04-11T14:23:24Z</time></trkpt><trkpt lat="44.441035227734226" lon="10.37628695977544"><ele>650.0</ele><time>2026-04-11T14:23:25Z</time></trkpt><trkpt lat="44.44098920982981" lon="10.376163024524267"><ele>651.5</ele><time>2026-04-11T14:23:27Z</time></trkpt><trkpt lat="44.440950631374605" lon="10.376088484911115"><ele>653.0</ele><time>2026-04-11T14:23:29Z</time></trkpt><trkpt lat="44.44090527552609" lon="10.375983353615544"><ele>654.5</ele><time>2026-04-11T14:23:32Z</time></trkpt><trkpt lat="44.44085298278582" lon="10.375926035167325"><ele>656.0</ele><time>2026-04-11T14:23:36Z</time></trkpt><trkpt lat="44.44091749110373" lon="10.375990674990652"><ele>657.5</ele><time>2026-04-11T14:24:02Z</time></trkpt><trkpt lat="44.44096332104254" lon="10.37606734412851"><ele>659.0</ele><time>2026-04-11T14:24:04Z</time></trkpt><trkpt lat="44.44099836185898" lon="10.37618887231458"><ele>659.0</ele><time>2026-04-11T14:24:06Z</time></trkpt><trkpt lat="44.4410463839057" lon="10.37631126610718"><ele>659.0</ele><time>2026-04-11T14:24:08Z</time></trkpt><trkpt lat="44.44110734074291" lon="10.376433510221837"><ele>659.0</ele><time>2026-04-11T14:24:10Z</time></trkpt><trkpt lat="44.44117903145148" lon="10.376544371537795"><ele>659.0</ele><time>2026-04-11T14:24:12Z</time></trkpt><trkpt lat="44.44125626406019" lon="10.376654569541529"><ele>659.0</ele><time>2026-04-11T14:24:14Z</time></trkpt><trkpt lat="44.4413352599855" lon="10.37676728348388"><ele>655.6666666666666</ele><time>2026-04-11T14:24:16Z</time></trkpt><trkpt lat="44.44140381796686" lon="10.376870729156959"><ele>652.3333333333333</ele><time>2026-04-11T14:24:18Z</time></trkpt><trkpt lat="44.441462300368926" lon="10.376976555603317"><ele>649.0</ele><time>2026-04-11T14:24:21Z</time></trkpt><trkpt lat="44.441505310777664" lon="10.377078242943027"><ele>645.6666666666666</ele><time>2026-04-11T14:24:24Z</time></trkpt><trkpt lat="44.441534871804286" lon="10.377167939648215"><ele>642.3333333333334</ele><time>2026-04-11T14:24:26Z</time></trkpt><trkpt lat="44.44157226502401" lon="10.377285048148634"><ele>639.0</ele><time>2026-04-11T14:24:28Z</time></trkpt><trkpt lat="44.441620242085776" lon="10.377426258965745"><ele>639.0</ele><time>2026-04-11T14:24:30Z</time></trkpt><trkpt lat="44.441673616393864" lon="10.37758336097228"><ele>639.0</ele><time>2026-04-11T14:24:32Z</time></trkpt><trkpt lat="44.44171718042592" lon="10.377711589943198"><ele>639.0</ele><time>2026-04-11T14:24:34Z</time></trkpt><trkpt lat="44.44175431256866" lon="10.377820886905488"><ele>639.0</ele><time>2026-04-11T14:24:37Z</time></trkpt><trkpt lat="44.44178570952367" lon="10.377913302570587"><ele>639.0</ele><time>2026-04-11T14:24:39Z</time></trkpt><trkpt lat="44.44183887221135" lon="10.377985282615398"><ele>639.0</ele><time>2026-04-11T14:24:41Z</time></trkpt><trkpt lat="44.44176926590591" lon="10.377830072801292"><ele>639.0</ele><time>2026-04-11T14:24:57Z</time></trkpt><trkpt lat="44.44172902843817" lon="10.377735462723491"><ele>639.0</ele><time>2026-04-11T14:24:58Z</time></trkpt><trkpt lat="44.441696639501224" lon="10.377639521422825"><ele>639.0</ele><time>2026-04-11T14:24:59Z</time></trkpt><trkpt lat="44.44166616782426" lon="10.37755752311529"><ele>639.0</ele><time>2026-04-11T14:25:00Z</time></trkpt><trkpt lat="44.44162132778642" lon="10.377490260702158"><ele>639.0</ele><time>2026-04-11T14:25:01Z</time></trkpt><trkpt lat="44.44159653743238" lon="10.37740782026632"><ele>639.0</ele><time>2026-04-11T14:25:02Z</time></trkpt><trkpt lat="44.44157204652372" lon="10.3773212750232"><ele>639.0</ele><time>2026-04-11T14:25:03Z</time></trkpt><trkpt lat="44.44154567661013" lon="10.377235955226775"><ele>639.0</ele><time>2026-04-11T14:25:04Z</time></trkpt><trkpt lat="44.44152024064173" lon="10.37715412193826"><ele>639.0</ele><time>2026-04-11T14:25:05Z</time></trkpt><trkpt lat="44.441465688357965" lon="10.37700478701485"><ele>639.0</ele><time>2026-04-11T14:25:07Z</time></trkpt><trkpt lat="44.441395123247986" lon="10.376882093247547"><ele>639.0</ele><time>2026-04-11T14:25:09Z</time></trkpt><trkpt lat="44.441319037213084" lon="10.376770844714224"><ele>641.2</ele><time>2026-04-11T14:25:11Z</time></trkpt><trkpt lat="44.44124962717118" lon="10.37666609375491"><ele>643.4</ele><time>2026-04-11T14:25:13Z</time></trkpt><trkpt lat="44.44117379902755" lon="10.37655958788909"><ele>645.6</ele><time>2026-04-11T14:25:15Z</time></trkpt><trkpt lat="44.441085531530206" lon="10.376428143123622"><ele>647.8</ele><time>2026-04-11T14:25:17Z</time></trkpt><trkpt lat="44.44105473956765" lon="10.376335964951647"><ele>650.0</ele><time>2026-04-11T14:25:18Z</time></trkpt><trkpt lat="44.441019121285585" lon="10.376251867564042"><ele>651.5</ele><time>2026-04-11T14:25:19Z</time></trkpt><trkpt lat="44.44099048595681" lon="10.376166628437783"><ele>653.0</ele><time>2026-04-11T14:25:20Z</time></trkpt><trkpt lat="44.44093354779043" lon="10.376044892136957"><ele>654.5</ele><time>2026-04-11T14:25:22Z</time></trkpt><trkpt lat="44.44084991069026" lon="10.375956152224834"><ele>656.0</ele><time>2026-04-11T14:25:24Z</time></trkpt><trkpt lat="44.44079244112538" lon="10.375908831276467"><ele>657.5</ele><time>2026-04-11T14:25:25Z</time></trkpt><trkpt lat="44.44070322868775" lon="10.37597703988033"><ele>659.0</ele><time>2026-04-11T14:25:26Z</time></trkpt><trkpt lat="44.440625670818186" lon="10.376012991212425"><ele>659.0</ele><time>2026-04-11T14:25:27Z</time></trkpt><trkpt lat="44.44055176531457" lon="10.376012544297014"><ele>659.0</ele><time>2026-04-11T14:25:28Z</time></trkpt><trkpt lat="44.44045383561332" lon="10.376017430289835"><ele>659.0</ele><time>2026-04-11T14:25:30Z</time></trkpt><trkpt lat="44.44039813829134" lon="10.375970222064204"><ele>659.0</ele><time>2026-04-11T14:25:32Z</time></trkpt><trkpt lat="44.440425797472535" lon="10.375827231447792"><ele>659.0</ele><time>2026-04-11T14:25:34Z</time></trkpt><trkpt lat="44.44045817301323" lon="10.37572743586273"><ele>659.0</ele><time>2026-04-11T14:25:35Z</time></trkpt><trkpt lat="44.440488710611305" lon="10.375634167050476"><ele>659.0</ele><time>2026-04-11T14:25:36Z</time></trkpt><trkpt lat="44.440512009287986" lon="10.375523952929958"><ele>659.0</ele><time>2026-04-11T14:25:38Z</time></trkpt><trkpt lat="44.44048623659565" lon="10.375366019447423"><ele>659.0</ele><time>2026-04-11T14:25:40Z</time></trkpt><trkpt lat="44.44041478407038" lon="10.375311315003838"><ele>659.0</ele><time>2026-04-11T14:25:41Z</time></trkpt><trkpt lat="44.44030967597252" lon="10.37534525590748"><ele>659.0</ele><time>2026-04-11T14:25:42Z</time></trkpt><trkpt lat="44.44022783086097" lon="10.375435815449332"><ele>659.8000000000001</ele><time>2026-04-11T14:25:43Z</time></trkpt><trkpt lat="44.4401594770364" lon="10.375499637074922"><ele>660.6</ele><time>2026-04-11T14:25:44Z</time></trkpt><trkpt lat="44.440074785431484" lon="10.375582989791427"><ele>661.4</ele><time>2026-04-11T14:25:45Z</time></trkpt><trkpt lat="44.439991363658585" lon="10.375664341630475"><ele>662.2</ele><time>2026-04-11T14:25:46Z</time></trkpt><trkpt lat="44.43991406097704" lon="10.375739726238926"><ele>663.0</ele><time>2026-04-11T14:25:47Z</time></trkpt><trkpt lat="44.439843189862245" lon="10.375804659729924"><ele>663.1666666666666</ele><time>2026-04-11T14:25:48Z</time></trkpt><trkpt lat="44.439735319700986" lon="10.375847583679132"><ele>663.3333333333334</ele><time>2026-04-11T14:25:50Z</time></trkpt><trkpt lat="44.43967982424107" lon="10.375799210997327"><ele>663.5</ele><time>2026-04-11T14:25:51Z</time></trkpt><trkpt lat="44.4396542094172" lon="10.375694205253518"><ele>663.6666666666667</ele><time>2026-04-11T14:25:52Z</time></trkpt><trkpt lat="44.43962177939553" lon="10.375592593525493"><ele>663.8333333333334</ele><time>2026-04-11T14:25:53Z</time></trkpt><trkpt lat="44.43956906815006" lon="10.375480082887506"><ele>664.0</ele><time>2026-04-11T14:25:54Z</time></trkpt><trkpt lat="44.4395224213399" lon="10.37536212457878"><ele>665.0</ele><time>2026-04-11T14:25:55Z</time></trkpt><trkpt lat="44.43945972935526" lon="10.375247948171397"><ele>666.0</ele><time>2026-04-11T14:25:56Z</time></trkpt><trkpt lat="44.43938177114575" lon="10.37515095447882"><ele>667.0</ele><time>2026-04-11T14:25:57Z</time></trkpt><trkpt lat="44.439290764476034" lon="10.375067765347737"><ele>668.0</ele><time>2026-04-11T14:25:58Z</time></trkpt><trkpt lat="44.43920299584924" lon="10.374974944443682"><ele>669.0</ele><time>2026-04-11T14:25:59Z</time></trkpt><trkpt lat="44.43910491757405" lon="10.374907765545892"><ele>669.0</ele><time>2026-04-11T14:26:00Z</time></trkpt><trkpt lat="44.43901358353894" lon="10.374851728258722"><ele>669.0</ele><time>2026-04-11T14:26:01Z</time></trkpt><trkpt lat="44.43892249612239" lon="10.374813329750845"><ele>669.0</ele><time>2026-04-11T14:26:02Z</time></trkpt><trkpt lat="44.43881831828083" lon="10.374815399344111"><ele>669.0</ele><time>2026-04-11T14:26:03Z</time></trkpt><trkpt lat="44.43870096255518" lon="10.374875488899198"><ele>669.0</ele><time>2026-04-11T14:26:04Z</time></trkpt><trkpt lat="44.43859427289867" lon="10.374976247615377"><ele>669.25</ele><time>2026-04-11T14:26:05Z</time></trkpt><trkpt lat="44.438479911709905" lon="10.375083116890274"><ele>669.5</ele><time>2026-04-11T14:26:06Z</time></trkpt><trkpt lat="44.438357491452024" lon="10.375195228068085"><ele>669.75</ele><time>2026-04-11T14:26:07Z</time></trkpt><trkpt lat="44.438234792218815" lon="10.375307594739795"><ele>670.0</ele><time>2026-04-11T14:26:08Z</time></trkpt><trkpt lat="44.438120548173764" lon="10.37541243404258"><ele>672.75</ele><time>2026-04-11T14:26:09Z</time></trkpt><trkpt lat="44.43801799216448" lon="10.375530467085785"><ele>675.5</ele><time>2026-04-11T14:26:10Z</time></trkpt><trkpt lat="44.43791176023342" lon="10.375619144707983"><ele>678.25</ele><time>2026-04-11T14:26:11Z</time></trkpt><trkpt lat="44.43781826315197" lon="10.375717750518062"><ele>681.0</ele><time>2026-04-11T14:26:12Z</time></trkpt><trkpt lat="44.437708970779696" lon="10.375784389450523"><ele>681.5</ele><time>2026-04-11T14:26:13Z</time></trkpt><trkpt lat="44.43760795899118" lon="10.37586549265097"><ele>682.0</ele><time>2026-04-11T14:26:14Z</time></trkpt><trkpt lat="44.43750180908961" lon="10.375923718692437"><ele>682.5</ele><time>2026-04-11T14:26:15Z</time></trkpt><trkpt lat="44.43738544155885" lon="10.375952516879085"><ele>683.0</ele><time>2026-04-11T14:26:16Z</time></trkpt><trkpt lat="44.437259923107554" lon="10.375945031257787"><ele>685.0</ele><time>2026-04-11T14:26:17Z</time></trkpt><trkpt lat="44.43713542274261" lon="10.375921592343465"><ele>687.0</ele><time>2026-04-11T14:26:18Z</time></trkpt><trkpt lat="44.43701508757725" lon="10.37589551896138"><ele>689.0</ele><time>2026-04-11T14:26:19Z</time></trkpt><trkpt lat="44.43689670765309" lon="10.3758722606942"><ele>691.0</ele><time>2026-04-11T14:26:20Z</time></trkpt><trkpt lat="44.43678172686575" lon="10.37588153216912"><ele>691.0</ele><time>2026-04-11T14:26:21Z</time></trkpt><trkpt lat="44.43668009825404" lon="10.375865981231845"><ele>691.0</ele><time>2026-04-11T14:26:22Z</time></trkpt><trkpt lat="44.43658898072338" lon="10.375859306780498"><ele>691.0</ele><time>2026-04-11T14:26:23Z</time></trkpt><trkpt lat="44.436501235376404" lon="10.375867927831235"><ele>691.0</ele><time>2026-04-11T14:26:24Z</time></trkpt><trkpt lat="44.43642309861793" lon="10.375883998133116"><ele>691.0</ele><time>2026-04-11T14:26:25Z</time></trkpt><trkpt lat="44.436344157869996" lon="10.375948110682204"><ele>692.0</ele><time>2026-04-11T14:26:26Z</time></trkpt><trkpt lat="44.4362718652701" lon="10.376062576706653"><ele>693.0</ele><time>2026-04-11T14:26:27Z</time></trkpt><trkpt lat="44.43619999105123" lon="10.376214993923211"><ele>694.0</ele><time>2026-04-11T14:26:28Z</time></trkpt><trkpt lat="44.436119557159735" lon="10.376369684070266"><ele>695.0</ele><time>2026-04-11T14:26:29Z</time></trkpt><trkpt lat="44.43602714332548" lon="10.376525125289017"><ele>695.0</ele><time>2026-04-11T14:26:30Z</time></trkpt><trkpt lat="44.43593676990828" lon="10.376686191229382"><ele>695.0</ele><time>2026-04-11T14:26:31Z</time></trkpt><trkpt lat="44.43584959530445" lon="10.376838584795413"><ele>695.0</ele><time>2026-04-11T14:26:32Z</time></trkpt><trkpt lat="44.4357673574872" lon="10.376979165513012"><ele>695.0</ele><time>2026-04-11T14:26:33Z</time></trkpt><trkpt lat="44.435689992562665" lon="10.377123730626172"><ele>694.25</ele><time>2026-04-11T14:26:34Z</time></trkpt><trkpt lat="44.4356015696581" lon="10.377271083772083"><ele>693.5</ele><time>2026-04-11T14:26:35Z</time></trkpt><trkpt lat="44.435520457729424" lon="10.37743681461246"><ele>692.75</ele><time>2026-04-11T14:26:36Z</time></trkpt><trkpt lat="44.43545297882262" lon="10.377609493145533"><ele>692.0</ele><time>2026-04-11T14:26:37Z</time></trkpt><trkpt lat="44.435399341516124" lon="10.37776984104075"><ele>692.0</ele><time>2026-04-11T14:26:38Z</time></trkpt><trkpt lat="44.435334551617125" lon="10.377895542222364"><ele>692.0</ele><time>2026-04-11T14:26:39Z</time></trkpt><trkpt lat="44.435246830994096" lon="10.377984453491552"><ele>692.0</ele><time>2026-04-11T14:26:40Z</time></trkpt><trkpt lat="44.43512845540727" lon="10.378005293665755"><ele>692.0</ele><time>2026-04-11T14:26:41Z</time></trkpt><trkpt lat="44.43501373184583" lon="10.378066563403934"><ele>694.25</ele><time>2026-04-11T14:26:42Z</time></trkpt><trkpt lat="44.43489909013247" lon="10.378144984959093"><ele>696.5</ele><time>2026-04-11T14:26:43Z</time></trkpt><trkpt lat="44.43478492654394" lon="10.378230224436688"><ele>698.75</ele><time>2026-04-11T14:26:44Z</time></trkpt><trkpt lat="44.434666030043736" lon="10.378276349486722"><ele>701.0</ele><time>2026-04-11T14:26:45Z</time></trkpt><trkpt lat="44.43455314921151" lon="10.378304113117897"><ele>701.0</ele><time>2026-04-11T14:26:46Z</time></trkpt><trkpt lat="44.434432706866836" lon="10.378316775015376"><ele>701.0</ele><time>2026-04-11T14:26:47Z</time></trkpt><trkpt lat="44.43430540921916" lon="10.37831557801397"><ele>701.0</ele><time>2026-04-11T14:26:48Z</time></trkpt><trkpt lat="44.43417386854137" lon="10.378327245316687"><ele>701.0</ele><time>2026-04-11T14:26:49Z</time></trkpt><trkpt lat="44.43404091098509" lon="10.378320726167836"><ele>701.0</ele><time>2026-04-11T14:26:50Z</time></trkpt><trkpt lat="44.4339078038644" lon="10.37830106571028"><ele>701.0</ele><time>2026-04-11T14:26:51Z</time></trkpt><trkpt lat="44.43378335971208" lon="10.378336021164996"><ele>701.0</ele><time>2026-04-11T14:26:52Z</time></trkpt><trkpt lat="44.43365892056146" lon="10.378389663632548"><ele>701.0</ele><time>2026-04-11T14:26:53Z</time></trkpt><trkpt lat="44.43352835007142" lon="10.378443956787919"><ele>699.5</ele><time>2026-04-11T14:26:54Z</time></trkpt><trkpt lat="44.433411054548266" lon="10.378563158623086"><ele>698.0</ele><time>2026-04-11T14:26:55Z</time></trkpt><trkpt lat="44.43329071939096" lon="10.378656331248566"><ele>696.5</ele><time>2026-04-11T14:26:56Z</time></trkpt><trkpt lat="44.4331842866698" lon="10.378745004817688"><ele>695.0</ele><time>2026-04-11T14:26:57Z</time></trkpt><trkpt lat="44.43307149498357" lon="10.378775135208116"><ele>696.0</ele><time>2026-04-11T14:26:58Z</time></trkpt><trkpt lat="44.432963083743395" lon="10.378805582392166"><ele>697.0</ele><time>2026-04-11T14:26:59Z</time></trkpt><trkpt lat="44.432858905671544" lon="10.378827868446821"><ele>698.0</ele><time>2026-04-11T14:27:00Z</time></trkpt><trkpt lat="44.432758512267014" lon="10.378843906728893"><ele>699.0</ele><time>2026-04-11T14:27:01Z</time></trkpt><trkpt lat="44.43265257173425" lon="10.378891821406409"><ele>700.0</ele><time>2026-04-11T14:27:02Z</time></trkpt><trkpt lat="44.43254202994811" lon="10.378916390331305"><ele>700.0</ele><time>2026-04-11T14:27:03Z</time></trkpt><trkpt lat="44.43244886292659" lon="10.379002095077908"><ele>700.0</ele><time>2026-04-11T14:27:04Z</time></trkpt><trkpt lat="44.43235847100191" lon="10.379053205959428"><ele>700.0</ele><time>2026-04-11T14:27:05Z</time></trkpt><trkpt lat="44.43225848427297" lon="10.379125983415747"><ele>700.0</ele><time>2026-04-11T14:27:06Z</time></trkpt><trkpt lat="44.43215102907444" lon="10.379185945127922"><ele>700.0</ele><time>2026-04-11T14:27:07Z</time></trkpt><trkpt lat="44.43203171362873" lon="10.37921113819748"><ele>699.8</ele><time>2026-04-11T14:27:08Z</time></trkpt><trkpt lat="44.431930427242385" lon="10.37927341913475"><ele>699.6</ele><time>2026-04-11T14:27:09Z</time></trkpt><trkpt lat="44.431834371046236" lon="10.379311165515638"><ele>699.4000000000001</ele><time>2026-04-11T14:27:10Z</time></trkpt><trkpt lat="44.43175834936663" lon="10.379392256559138"><ele>699.2</ele><time>2026-04-11T14:27:11Z</time></trkpt><trkpt lat="44.43170180901048" lon="10.379528094196147"><ele>699.0</ele><time>2026-04-11T14:27:12Z</time></trkpt><trkpt lat="44.43165099167747" lon="10.379720092296767"><ele>699.0</ele><time>2026-04-11T14:27:13Z</time></trkpt><trkpt lat="44.4315845521118" lon="10.379926932463633"><ele>699.0</ele><time>2026-04-11T14:27:14Z</time></trkpt><trkpt lat="44.43150590345552" lon="10.380142024563318"><ele>699.0</ele><time>2026-04-11T14:27:15Z</time></trkpt><trkpt lat="44.43140876693235" lon="10.380325481470516"><ele>699.0</ele><time>2026-04-11T14:27:16Z</time></trkpt><trkpt lat="44.43133275286243" lon="10.380503724958395"><ele>699.0</ele><time>2026-04-11T14:27:17Z</time></trkpt><trkpt lat="44.43126236099433" lon="10.38067674098566"><ele>699.0</ele><time>2026-04-11T14:27:18Z</time></trkpt><trkpt lat="44.431195108537636" lon="10.38085272428445"><ele>699.0</ele><time>2026-04-11T14:27:19Z</time></trkpt><trkpt lat="44.43114248717234" lon="10.381039130450828"><ele>695.25</ele><time>2026-04-11T14:27:20Z</time></trkpt><trkpt lat="44.43107461814967" lon="10.381223745296335"><ele>691.5</ele><time>2026-04-11T14:27:21Z</time></trkpt><trkpt lat="44.430993302554384" lon="10.381398806845185"><ele>687.75</ele><time>2026-04-11T14:27:22Z</time></trkpt><trkpt lat="44.43092468494287" lon="10.381574433539262"><ele>684.0</ele><time>2026-04-11T14:27:23Z</time></trkpt><trkpt lat="44.4308741007519" lon="10.381750713286879"><ele>684.0</ele><time>2026-04-11T14:27:24Z</time></trkpt><trkpt lat="44.43079918068832" lon="10.381896090277404"><ele>684.0</ele><time>2026-04-11T14:27:25Z</time></trkpt><trkpt lat="44.430744054524595" lon="10.382045781404457"><ele>684.0</ele><time>2026-04-11T14:27:26Z</time></trkpt><trkpt lat="44.43070677420172" lon="10.382200453489673"><ele>684.0</ele><time>2026-04-11T14:27:27Z</time></trkpt><trkpt lat="44.4306489607492" lon="10.382354401586937"><ele>685.75</ele><time>2026-04-11T14:27:28Z</time></trkpt><trkpt lat="44.43059808862436" lon="10.382523124651161"><ele>687.5</ele><time>2026-04-11T14:27:29Z</time></trkpt><trkpt lat="44.430544602691285" lon="10.382703142900608"><ele>689.25</ele><time>2026-04-11T14:27:30Z</time></trkpt><trkpt lat="44.43048756582301" lon="10.382891802400913"><ele>691.0</ele><time>2026-04-11T14:27:31Z</time></trkpt><trkpt lat="44.43042647355449" lon="10.383080314246556"><ele>686.5</ele><time>2026-04-11T14:27:32Z</time></trkpt><trkpt lat="44.430365167803316" lon="10.38326608524182"><ele>682.0</ele><time>2026-04-11T14:27:33Z</time></trkpt><trkpt lat="44.430306378346906" lon="10.38344895417458"><ele>677.5</ele><time>2026-04-11T14:27:34Z</time></trkpt><trkpt lat="44.43023239858528" lon="10.383603245761577"><ele>673.0</ele><time>2026-04-11T14:27:35Z</time></trkpt><trkpt lat="44.430167642019796" lon="10.383746362254216"><ele>674.0</ele><time>2026-04-11T14:27:36Z</time></trkpt><trkpt lat="44.430093245310644" lon="10.38387508224596"><ele>675.0</ele><time>2026-04-11T14:27:37Z</time></trkpt><trkpt lat="44.43004544777072" lon="10.384028085361253"><ele>676.0</ele><time>2026-04-11T14:27:38Z</time></trkpt><trkpt lat="44.43000399586247" lon="10.384182287453713"><ele>677.0</ele><time>2026-04-11T14:27:39Z</time></trkpt><trkpt lat="44.42998115344359" lon="10.384341634726601"><ele>677.0</ele><time>2026-04-11T14:27:40Z</time></trkpt><trkpt lat="44.429949464858375" lon="10.384482685232674"><ele>677.0</ele><time>2026-04-11T14:27:41Z</time></trkpt><trkpt lat="44.42992712927702" lon="10.38459722837813"><ele>677.0</ele><time>2026-04-11T14:27:42Z</time></trkpt><trkpt lat="44.42989650344984" lon="10.384710083185109"><ele>677.0</ele><time>2026-04-11T14:27:43Z</time></trkpt><trkpt lat="44.42985566227112" lon="10.384821012729407"><ele>677.0</ele><time>2026-04-11T14:27:44Z</time></trkpt><trkpt lat="44.42980769600712" lon="10.38494740569637"><ele>677.25</ele><time>2026-04-11T14:27:45Z</time></trkpt><trkpt lat="44.42971611214242" lon="10.3850298615009"><ele>677.5</ele><time>2026-04-11T14:27:46Z</time></trkpt><trkpt lat="44.4296278636816" lon="10.38513249151759"><ele>677.75</ele><time>2026-04-11T14:27:47Z</time></trkpt><trkpt lat="44.42953221379297" lon="10.385242527440766"><ele>678.0</ele><time>2026-04-11T14:27:48Z</time></trkpt><trkpt lat="44.42944141301814" lon="10.385339056721772"><ele>678.3333333333334</ele><time>2026-04-11T14:27:49Z</time></trkpt><trkpt lat="44.42936336039412" lon="10.385418274008789"><ele>678.6666666666666</ele><time>2026-04-11T14:27:50Z</time></trkpt><trkpt lat="44.429287752701526" lon="10.385466574678208"><ele>679.0</ele><time>2026-04-11T14:27:51Z</time></trkpt><trkpt lat="44.42920681897854" lon="10.385494289922582"><ele>679.3333333333333</ele><time>2026-04-11T14:27:52Z</time></trkpt><trkpt lat="44.42911532814696" lon="10.385516014328745"><ele>679.6666666666666</ele><time>2026-04-11T14:27:53Z</time></trkpt><trkpt lat="44.429031130361416" lon="10.385530632724151"><ele>680.0</ele><time>2026-04-11T14:27:54Z</time></trkpt><trkpt lat="44.4289596139511" lon="10.385556500567427"><ele>680.0</ele><time>2026-04-11T14:27:55Z</time></trkpt><trkpt lat="44.428891308142425" lon="10.385549078039256"><ele>680.0</ele><time>2026-04-11T14:27:56Z</time></trkpt><trkpt lat="44.42882954172437" lon="10.385579213568871"><ele>680.0</ele><time>2026-04-11T14:27:57Z</time></trkpt><trkpt lat="44.4287466908419" lon="10.385565045504519"><ele>680.0</ele><time>2026-04-11T14:27:59Z</time></trkpt><trkpt lat="44.42869973334102" lon="10.385448020586335"><ele>680.0</ele><time>2026-04-11T14:28:01Z</time></trkpt><trkpt lat="44.42864727946529" lon="10.385380175835394"><ele>680.0</ele><time>2026-04-11T14:28:04Z</time></trkpt><trkpt lat="44.42857893973361" lon="10.385304140817668"><ele>671.0</ele><time>2026-04-11T14:29:03Z</time></trkpt></trkseg></trk></gpx>